MPMG - Transparência

Contra-cheque - Remuneração de todos os servidores ativos - Pré Resolução CNMP 200/2019

Período: 2015 - Dezembro

Ordem Matrícula Nome Cargo Efetivo Situação Unidade Administrativa Rendimentos Descontos Rendimento Líquido Total Indenizações Outras Remunerações Retroativas/Temporárias Data de Referência
Remuneração Básica Remuneração Eventual ou Temporária Total de Rendimentos Brutos Obrigatórios/Legais Total de Descontos
Remuneração do Cargo Efetivo Outras Verbas Remuneratórias Função de Confiança ou Cargo em Comissão Gratificação Natalina Férias Abono de Permanência Contribuição Previdenciária Imposto de Renda Retenção por Teto Constitucional
1 498900 ABDON MARCIO BARBOSA DA SILVA OFICIAL DO MP ATIVO ABRE CAMPO - COMARCA; ABRE CAMPO-PJ-01PJ 3.180,10 213,43 0,00 1.644,80 0,00 0,00 5.038,33 513,86 37,95 0,00 551,81 4.486,52 1.977,36 1.138,42 31/12/2015
2 177800 ADALBERTO MENEZES FARIA SAMORA OFICIAL DO MP ATIVO BELO HORIZONTE - COMARCA; CGMP-DIVIS DE APOIO FISC ORIENTACAO FUNCIONAL 7.579,95 3.072,95 0,00 2.907,80 0,00 0,00 13.560,70 1.804,56 1.553,10 0,00 3.357,66 10.203,04 7.492,91 3.683,59 31/12/2015
3 306400 ADALBERTO MOREIRA GONCALVES ANALISTA DO MP ATIVO BELO HORIZONTE - COMARCA; BH-24PJ JUIZO REGIONAL DO BARREIRO 10.576,63 2.115,33 0,00 2.712,86 0,00 0,00 15.404,82 1.719,13 2.237,00 0,00 3.956,13 11.448,69 1.763,93 3.504,02 31/12/2015
4 179300 ADENISE AUXILIADORA SOUZA SAD OFICIAL DO MP ATIVO BARBACENA - COMARCA; BARBACENA-PJ-06PJ 9.920,24 2.976,07 0,00 4.647,49 4.298,77 0,00 21.842,57 1.726,07 3.364,90 0,00 5.090,97 16.751,60 2.427,01 3.302,14 31/12/2015
5 77700 ADIL EXPEDITO DE OLIVEIRA JUNIOR ASSESSOR ATIVO BELO HORIZONTE - COMARCA; ASSESSORIA PSICOSSOCIAL 0,00 6.761,44 8.451,80 2.618,88 5.071,08 1.673,46 24.576,66 2.073,51 4.708,83 0,00 6.782,34 17.794,32 2.007,70 35.712,62 31/12/2015
6 272200 ADILSON BATISTA ORNELAS OFICIAL DO MP ATIVO LAVRAS - COMARCA; LAVRAS-PJ-SECRETARIA 4.175,17 835,03 0,00 1.714,79 1.670,07 0,00 8.395,06 682,74 659,74 0,00 1.342,48 7.052,58 2.047,53 1.414,91 31/12/2015
7 380100 ADILSON GONCALVES DE MELO JUNIOR ANALISTA DO MP ATIVO ARAXÁ - COMARCA; ARAXA-PJ-05PJ 5.988,29 767,73 0,00 2.200,28 0,00 0,00 8.956,30 1.149,12 628,81 0,00 1.777,93 7.178,37 7.240,95 2.376,10 31/12/2015
8 148800 ADILSON JANUARIO OFICIAL DO MP ATIVO BELO HORIZONTE - COMARCA; BH-22PJ PES COM DEF E IDOSOS-SECRETARIA 7.893,61 5.638,29 0,00 3.430,51 5.638,29 0,00 22.600,70 2.305,66 3.786,49 0,00 6.092,15 16.508,55 2.721,38 4.809,09 31/12/2015
9 322601 ADMILSON SILVEIRA ANALISTA DO MP ATIVO SAO JOAO DO PARAISO COMARCA; SAO JOAO DO PARAISO-PJ-UNPJ 5.139,92 0,00 0,00 1.611,43 0,00 0,00 6.751,35 705,88 393,14 0,00 1.099,02 5.652,33 1.763,93 1.372,65 31/12/2015
10 333700 ADRIANA ABRITTA TEIXEIRA OFICIAL DO MP ATIVO BELO HORIZONTE - COMARCA; DIRET DE PESSOAL DO MINISTERIO PUBLICO - DPMP 6.432,09 1.286,42 0,00 1.990,47 2.572,84 0,00 12.281,82 1.046,87 1.727,28 0,00 2.774,15 9.507,67 2.164,42 2.125,63 31/12/2015
11 468500 ADRIANA APARECIDA FIRMINO ANALISTA DO MP ATIVO CARATINGA - COMARCA; CARATINGA-PJ-04PJ 7.200,74 432,04 0,00 2.030,16 0,00 0,00 9.662,94 1.044,42 946,62 0,00 1.991,04 7.671,90 6.982,26 2.343,77 31/12/2015
12 326100 ADRIANA AUGUSTA AMARAL BELO OFICIAL DO MP ATIVO BARBACENA - COMARCA; BARBACENA-PJ-08PJ 4.888,39 1.286,42 0,00 2.094,74 0,00 0,00 8.269,55 1.035,21 490,95 0,00 1.526,16 6.743,39 7.163,42 2.149,38 31/12/2015
13 605700 ADRIANA COSTA LIRA OFICIAL DO MP ATIVO BELO HORIZONTE - COMARCA; DIRET DE FORMACAO, APERFEIC. E POS-GRADUACAO 3.445,03 0,00 0,00 1.238,45 1.148,34 0,00 5.831,82 469,99 312,11 0,00 782,10 5.049,72 1.845,28 1.019,82 31/12/2015
14 541100 ADRIANA CRISTINA DE OLIVEIRA OFICIAL DO MP ATIVO GUAPÉ - COMARCA; GUAPE-PJ-UNPJ 3.445,03 0,00 0,00 2.989,41 0,00 0,00 6.434,44 466,82 76,67 0,00 543,49 5.890,95 6.762,93 927,77 31/12/2015
15 254800 ADRIANA DAS GRACAS FERNANDES ANALISTA DO MP ATIVO UBERABA - COMARCA; UBERABA-PJ-07PJ 8.150,59 5.821,85 0,00 3.458,36 0,00 0,00 17.430,80 2.378,23 2.392,59 0,00 4.770,82 12.659,98 1.763,93 5.184,42 31/12/2015
16 246900 ADRIANA DE ALMEIDA ANTONINI ASSESSOR ATIVO BELO HORIZONTE - COMARCA; EXTINTA - SECRETARIA ADMINISTRATIVA 0,00 500,12 2.500,62 1.442,87 1.000,25 0,00 5.443,86 843,09 328,44 0,00 1.171,53 4.272,33 1.933,78 851,93 31/12/2015
17 217400 ADRIANA DE CARVALHO CATAO BRAGA ASSESSOR ATIVO BELO HORIZONTE - COMARCA; EXTINTA - DIRETORIA DE CONTRATOS E CONVÊNIOS 0,00 1.992,45 6.641,51 2.953,08 0,00 0,00 11.587,04 1.026,02 1.583,63 0,00 2.609,65 8.977,39 1.763,93 2.315,21 31/12/2015
18 434600 ADRIANA FERREIRA DA SILVA ANALISTA DO MP ATIVO BELO HORIZONTE - COMARCA; BH-14PJ DEFESA CONSUMIDOR-GAB 112PJ 8.451,80 845,18 0,00 2.778,85 3.098,99 0,00 15.174,82 1.236,39 2.258,30 0,00 3.494,69 11.680,13 1.763,93 2.268,12 31/12/2015
19 499800 ADRIANA FERREIRA TIAGO OFICIAL DO MP ATIVO SALINAS - COMARCA; SALINAS-PJ-02PJ 4.241,01 254,46 0,00 1.489,14 0,00 0,00 5.984,61 611,74 264,09 0,00 875,83 5.108,78 1.797,21 1.238,53 31/12/2015
20 543400 ADRIANA GUIMARAES NUNES DE PAULA ANALISTA DO MP ATIVO PATROCÍNIO - COMARCA; PATROCINIO-PJ-01PJ 4.674,13 0,00 0,00 1.718,01 1.947,55 0,00 8.339,69 781,75 774,86 0,00 1.556,61 6.783,08 1.763,93 1.584,14 31/12/2015
21 471500 ADRIANA HORTA DE CARVALHO RODRIGUES DE SOUSA ANALISTA DO MP ATIVO BELO HORIZONTE - COMARCA; GRUPO ESP PROM PROC JUST DEF PROB ADM PAT PUB 7.200,74 432,04 0,00 5.846,55 2.544,26 0,00 16.023,59 1.050,21 1.646,30 0,00 2.696,51 13.327,08 11.761,93 2.233,48 31/12/2015
22 86400 ADRIANA MOREIRA CALDEIRA BRANT OFICIAL DO MP ATIVO BELO HORIZONTE - COMARCA; EXTINTA-TUTELA DAS FUNDACOES-21 PJ- GABINETE 9.920,24 4.960,12 0,00 3.082,87 0,00 0,00 17.963,23 2.026,88 2.720,47 0,00 4.747,35 13.215,88 2.495,24 4.449,29 31/12/2015
23 480700 ADRIANA MOREIRA DE AVELLAR CEZILIO OFICIAL DO MP ATIVO BELO HORIZONTE - COMARCA; EXTINTA - DIVISAO DE MATERIAL DE CONSUMO 3.085,86 234,96 0,00 1.775,97 1.383,68 0,00 6.480,47 572,41 234,33 0,00 806,74 5.673,73 9.144,93 1.221,71 31/12/2015
24 326000 ADRIANA PEREIRA CARNEIRO RESENDE OFICIAL DO MP ATIVO BELO HORIZONTE - COMARCA; CAO-DIREITOS HUMANOS E APOIO COMUNITARIO 6.032,93 1.206,59 0,00 2.025,17 0,00 0,00 9.264,69 973,69 798,24 0,00 1.771,93 7.492,76 1.914,18 2.038,38 31/12/2015
25 502200 ADRIANA PETRUCCI DAVINA OFICIAL DO MP ATIVO PATROCÍNIO - COMARCA; PATROCINIO-PJ-01PJ 4.241,01 254,46 0,00 1.868,44 0,00 0,00 6.363,91 612,20 264,09 0,00 876,29 5.487,62 1.763,93 1.340,86 31/12/2015
26 201900 ADRIANA REIS PIMENTA OFICIAL DO MP ATIVO TEÓFILO OTONI - COMARCA; TEOFILO OTONI-PJ-03PJ 9.490,36 2.976,07 0,00 2.742,55 4.298,77 0,00 19.507,75 1.726,39 3.350,96 0,00 5.077,35 14.430,40 2.427,01 3.311,62 31/12/2015
27 278700 ADRIANA RODRIGUES PINTO COELHO AMARAL ANALISTA DO MP ATIVO BELO HORIZONTE - COMARCA; ASSESS TECNICA DA CORREGEDORIA-GERAL DO MP 10.576,63 2.115,33 0,00 2.817,14 0,00 0,00 15.509,10 1.729,68 2.132,72 0,00 3.862,40 11.646,70 1.763,93 3.595,74 31/12/2015
28 468000 ADRIANA SANTOS DE SANTANA MOREIRA ANALISTA DO MP ATIVO ARAÇUAÍ - COMARCA; ARACUAI-PJ-01PJ 5.328,55 2.160,22 0,00 7.013,79 0,00 0,00 14.502,56 1.275,50 802,61 0,00 2.078,11 12.424,45 9.277,80 2.660,58 31/12/2015
29 194700 ADRIANA TSUKIDE OFICIAL DO MP ATIVO UBERABA - COMARCA; COORD REG BACIAS PARANAIBA BAIXO RIO GRANDE 9.920,24 2.976,07 0,00 9.242,84 4.298,77 0,00 26.437,92 1.725,71 3.417,04 0,00 5.142,75 21.295,17 1.763,93 3.518,68 31/12/2015
30 206400 ADRIANE MENDES DE SOUZA ANALISTA DO MP ATIVO BELO HORIZONTE - COMARCA; BH-23PJ CIVEL-FISC AC POL PUB II 9.168,29 6.548,78 0,00 3.775,13 0,00 0,00 19.492,20 2.677,58 2.806,39 0,00 5.483,97 14.008,23 2.251,47 5.956,33 31/12/2015
31 465500 ADRIANO CASSIANO MATOS ANALISTA DO MP ATIVO ARAXÁ - COMARCA; ARAXA-PJ-02PJ 5.233,51 398,49 0,00 1.891,92 0,00 0,00 7.523,92 958,17 466,48 0,00 1.424,65 6.099,27 1.763,93 1.945,92 31/12/2015
32 500500 ADRIANO DE ALMEIDA SILVA OFICIAL DO MP ATIVO UBERABA - COMARCA; UBERABA-PJ-12PJ 3.341,92 254,46 0,00 1.489,14 1.498,49 0,00 6.584,01 612,07 398,95 0,00 1.011,02 5.572,99 2.018,39 1.251,36 31/12/2015
33 187200 ADRIANO DE FREITAS MARON OFICIAL DO MP ATIVO PONTE NOVA - COMARCA; PONTE NOVA-PJ-03PJ 4.608,47 5.760,59 0,00 2.751,99 0,00 0,00 13.121,05 1.768,93 1.590,05 0,00 3.358,98 9.762,07 2.456,84 3.942,96 31/12/2015
34 477900 ADRIANO FERREIRA DE ALMEIDA OFICIAL DO MP ATIVO MONTES CLAROS - COMARCA; MONTES CLAROS-PJ-04PJ 5.139,92 308,40 0,00 2.004,92 0,00 0,00 7.453,24 737,32 369,58 0,00 1.106,90 6.346,34 2.092,96 1.554,44 31/12/2015
35 269101 ADRIANO PEREIRA SILVA ANALISTA DO MP ATIVO UBERABA - COMARCA; UBERABA-PJ-02PJ 7.200,74 432,04 0,00 2.134,43 2.544,26 0,00 12.311,47 1.039,73 1.542,02 0,00 2.581,75 9.729,72 8.528,35 2.141,55 31/12/2015
36 414200 ADRIANO RODRIGUES FERNANDES ANALISTA DO MP ATIVO CARANDAÍ - COMARCA; CARANDAI-PJ-UNPJ 6.103,43 685,78 0,00 2.121,47 0,00 0,00 8.910,68 1.027,77 613,07 0,00 1.640,84 7.269,84 4.560,93 2.124,19 31/12/2015
37 536700 ADRIELLE COSTA MARIA OFICIAL DO MP ATIVO SERRO - COMARCA; SERRO-PJ-SECRETARIA 3.445,03 0,00 0,00 1.480,49 1.148,34 0,00 6.073,86 466,94 312,11 0,00 779,05 5.294,81 1.763,93 934,63 31/12/2015
38 514300 ADRIENE DAMASCENO BRAGA ANALISTA DO MP ATIVO ALFENAS - COMARCA; ALFENAS-PJ-03PJ 5.233,51 398,49 0,00 1.891,92 0,00 0,00 7.523,92 972,63 466,48 0,00 1.439,11 6.084,81 1.776,50 2.103,56 31/12/2015
39 254600 ADRIENE DOMINGUES COSTA ANALISTA DO MP ATIVO BELO HORIZONTE - COMARCA; PROC. JUSTICA DIR. DIFUSOS E COLETIVOS-SEC 9.920,24 1.984,05 0,00 2.598,45 0,00 0,00 14.502,74 1.621,07 2.044,22 0,00 3.665,29 10.837,45 0,00 3.537,63 31/12/2015
40 252001 ADRIENE GOMES BARRETO ANALISTA DO MP ATIVO BELO HORIZONTE - COMARCA; BH-19PJ SAUDE-SECRETARIA 150PJ 8.727,00 2.618,10 0,00 2.517,24 3.781,70 0,00 17.644,04 1.545,00 2.947,32 0,00 4.492,32 13.151,72 1.763,93 3.377,56 31/12/2015
41 118100 AGENOR ALCIR RODRIGUES DA SILVA OFICIAL DO MP ATIVO SÃO JOÃO NEPOMUCENO - COMARCA; SAO JOAO NEPOMUCENO-PJ-01PJ 11.643,70 8.150,59 0,00 3.744,48 6.598,10 0,00 30.136,87 2.697,80 5.789,77 0,00 8.487,57 21.649,30 2.739,01 5.622,63 31/12/2015
42 302500 AGENOR JOSE DA SILVA JUNIOR ANALISTA DO MP ATIVO JUIZ DE FORA - COMARCA; JUIZ DE FORA-PJ-07PJ 8.038,24 2.115,33 0,00 2.817,14 4.230,65 0,00 17.201,36 1.705,39 2.598,09 0,00 4.303,48 12.897,88 2.097,90 3.541,54 31/12/2015
43 357500 AILSON WAGNER DE ALENCAR SILVA OFICIAL DO MP ATIVO BELO HORIZONTE - COMARCA; DIRETORIA DO COLEGIO E DA CAMARA DE PJ 6.229,29 1.868,79 0,00 3.125,54 2.699,36 0,00 13.922,98 1.103,28 1.698,56 0,00 2.801,84 11.121,14 4.604,31 2.279,59 31/12/2015
44 366400 AILTON ALEXSSANDRO ALVES OFICIAL DO MP ATIVO PARÁ DE MINAS - COMARCA; PARA DE MINAS-PJ-05PJ 4.323,57 1.752,80 0,00 5.770,33 0,00 0,00 11.846,70 1.034,31 571,88 0,00 1.606,19 10.240,51 2.193,86 2.121,73 31/12/2015
45 318900 AILTON DE CASTRO RIBEIRO JUNIOR OFICIAL DO MP ATIVO POUSO ALEGRE - COMARCA; POUSO ALEGRE-PJ-03PJ 6.432,09 2.461,24 0,00 3.428,94 2.964,44 0,00 15.286,71 1.060,56 2.001,63 0,00 3.062,19 12.224,52 2.267,33 2.545,44 31/12/2015
46 464400 ALAN MONTEIRO GASPAR ANALISTA DO MP ATIVO SETE LAGOAS - COMARCA; SETE LAGOAS-PJ-03PJ 7.200,74 432,04 0,00 2.897,21 0,00 0,00 10.529,99 1.039,00 998,76 0,00 2.037,76 8.492,23 1.763,93 2.117,40 31/12/2015
47 492000 ALANA DE CASTRO FREITAS OFICIAL DO MP ATIVO BOM SUCESSO - COMARCA; BOM SUCESSO-PJ-UNPJ 3.916,07 234,96 0,00 1.609,76 0,00 0,00 5.760,79 555,32 199,36 0,00 754,68 5.006,11 1.763,93 1.052,48 31/12/2015
48 306700 ALANA MARCIA DE OLIVEIRA OFICIAL DO MP ATIVO BELO HORIZONTE - COMARCA; DIRETORIA DE ADMINISTRACAO FINANCEIRA 5.047,55 1.328,30 0,00 2.026,97 2.656,60 0,00 11.059,42 1.067,34 1.373,48 0,00 2.440,82 8.618,60 2.173,72 2.080,26 31/12/2015
49 324500 ALANMAR COUTINHO COSTA OFICIAL DO MP ATIVO LEOPOLDINA - COMARCA; LEOPOLDINA-PJ-02PJ 5.842,66 1.168,53 0,00 2.256,58 2.337,06 0,00 11.604,83 934,56 978,97 0,00 1.913,53 9.691,30 2.116,25 1.750,48 31/12/2015
50 508200 ALBERTO DA SILVA VIEIRA ASSESSOR ATIVO BELO HORIZONTE - COMARCA; ASSESS ESPECIAL DO PGJ ATUACAO JUNTO A PGJAA 0,00 0,00 9.304,45 3.208,21 0,00 0,00 12.512,66 1.026,02 1.663,74 0,00 2.689,76 9.822,90 2.290,60 2.653,21 31/12/2015
51 407300 ALBERTO LUIZ SOARES DE OLIVEIRA ANALISTA DO MP ATIVO BELO HORIZONTE - COMARCA; SUPERINTENDÊNCIA DE ENGENHARIA E ARQUITETURA 6.592,40 845,18 0,00 6.868,23 0,00 0,00 14.305,81 1.257,96 894,74 0,00 2.152,70 12.153,11 5.482,72 3.003,77 31/12/2015
52 118200 ALBERTO PEREIRA DA COSTA OFICIAL DO MP ATIVO DORES DO INDAIÁ - COMARCA; DORES DO INDAIA-PJ-UNPJ 10.576,63 8.461,30 0,00 3.738,89 0,00 0,00 22.776,82 2.570,97 3.685,90 0,00 6.256,87 16.519,95 1.763,93 5.098,90 31/12/2015
53 282400 ALCILENE MARISE DE ARAUJO ANALISTA DO MP ATIVO BELO HORIZONTE - COMARCA; BH-23PJ INF-FISC MED SOC FEC 10.576,63 2.115,33 0,00 2.817,14 0,00 0,00 15.509,10 1.728,67 2.132,72 0,00 3.861,39 11.647,71 1.821,54 3.565,28 31/12/2015
54 112600 ALCIONE DA MOTA JARDIM OFICIAL DO MP ATIVO BELO HORIZONTE - COMARCA; CAO-CRIANCAS E ADOLESCENTES 8.451,80 4.225,90 0,00 2.762,93 4.225,90 0,00 19.666,53 1.735,97 3.343,49 0,00 5.079,46 14.587,07 1.763,93 3.609,21 31/12/2015
55 396400 ALCIONE DE FREITAS E SILVA ANALISTA DO MP ATIVO BELO HORIZONTE - COMARCA; DIRET DE PESSOAL DO MINISTERIO PUBLICO - DPMP 6.457,98 2.618,10 0,00 4.094,90 0,00 0,00 13.170,98 1.545,01 1.283,37 0,00 2.828,38 10.342,60 2.149,24 3.172,42 31/12/2015
56 161600 ALCIONE NERY SOUZA ASSESSOR ATIVO BELO HORIZONTE - COMARCA; GRUPO ESPECIAL DE DEFESA DA FAUNA 0,00 2.656,60 6.641,51 3.102,51 0,00 0,00 12.400,62 1.026,02 1.766,27 0,00 2.792,29 9.608,33 1.763,93 2.777,92 31/12/2015
57 376000 ALDA GOMES LANA OFICIAL DO MP ATIVO BELO HORIZONTE - COMARCA; BH-18PJ VIOLENCIA DOMESTICA-SECRETARIA 4.705,69 603,29 0,00 1.937,55 0,00 0,00 7.246,53 888,88 308,83 0,00 1.197,71 6.048,82 1.900,41 1.831,86 31/12/2015
58 148000 ALDA MARTINS SIMOES OFICIAL DO MP ATIVO BELO HORIZONTE - COMARCA; BH-23PJ CIVEL- FISC ENT AB POL 7.615,17 4.230,65 0,00 3.020,12 0,00 0,00 14.865,94 2.014,11 1.940,32 0,00 3.954,43 10.911,51 6.762,93 4.417,74 31/12/2015
59 318400 ALDO CREPALDI JUNIOR OFICIAL DO MP ATIVO BELO HORIZONTE - COMARCA; EXTINTA - DIVISAO DE MATERIAL DE CONSUMO 6.032,93 1.206,59 0,00 2.796,41 0,00 0,00 10.035,93 1.002,98 850,37 0,00 1.853,35 8.182,58 6.762,93 2.204,19 31/12/2015
60 604500 ALENIZE APARECIDA RODRIGUES HENRIQUE OFICIAL DO MP ATIVO RIO NOVO - COMARCA; RIO NOVO-PJ-UNPJ 3.129,28 0,00 0,00 1.154,34 1.043,09 0,00 5.326,71 425,54 225,20 0,00 650,74 4.675,97 1.941,06 924,68 31/12/2015
61 197900 ALESSA DE SOUSA E SILVA OFICIAL DO MP ATIVO OLIVEIRA - COMARCA; OLIVEIRA-PJ-02PJ 10.243,18 3.072,95 0,00 2.907,80 4.438,71 0,00 20.662,64 1.803,32 3.506,13 0,00 5.309,45 15.353,19 2.985,01 3.630,09 31/12/2015
62 428500 ALESSANDRA ALVES DINIZ OFICIAL DO MP ATIVO BELO HORIZONTE - COMARCA; CENTRAL DE APOIO TECNICO-SECRETARIA 4.379,06 1.751,62 0,00 4.825,18 0,00 0,00 10.955,86 832,26 631,13 0,00 1.463,39 9.492,47 1.763,93 1.814,02 31/12/2015
63 286801 ALESSANDRA BOTELHO JUNQUEIRA DE MENEZES ANALISTA DO MP ATIVO PASSOS - COMARCA; PASSOS-PJ-05PJ 8.727,00 2.618,10 0,00 2.673,65 0,00 0,00 14.018,75 1.534,68 1.750,94 0,00 3.285,62 10.733,13 11.761,93 3.037,75 31/12/2015
64 307000 ALESSANDRA CRISTINA SANTOS MENDES ANALISTA DO MP ATIVO BELO HORIZONTE - COMARCA; BH-18PJ VIOLENCIA DOMESTICA 8.185,27 1.637,05 0,00 3.629,68 0,00 0,00 13.452,00 1.314,33 1.482,51 0,00 2.796,84 10.655,16 1.763,93 2.674,68 31/12/2015
65 264400 ALESSANDRA DE SOUZA SANTOS ANALISTA DO MP ATIVO BELO HORIZONTE - COMARCA; CGMP-DIVISAO DE APOIO ADMINISTRATIVO 11.643,70 3.493,11 0,00 1.975,88 0,00 0,00 17.112,69 2.063,52 2.835,37 0,00 4.898,89 12.213,80 1.763,93 4.799,13 31/12/2015
66 441500 ALESSANDRA DRUMMOND DE FIGUEIREDO ROSSI ANALISTA DO MP ATIVO BELO HORIZONTE - COMARCA; DIRETORIA DE PROJETOS DE EDIFICACOES 5.349,08 685,78 0,00 1.965,06 0,00 0,00 7.999,92 1.026,93 562,03 0,00 1.588,96 6.410,96 1.763,93 2.232,57 31/12/2015
67 524000 ALESSANDRA LUCIOLI DE BARROS GUERRA ANALISTA DO MP ATIVO BELO HORIZONTE - COMARCA; BH-19PJ SAUDE--SECRETARIA 5.233,51 398,49 0,00 2.784,17 0,00 0,00 8.416,17 953,52 328,86 0,00 1.282,38 7.133,79 1.763,93 1.874,77 31/12/2015
68 479900 ALESSANDRA MARA ANDRADE DE FARIA OFICIAL DO MP ATIVO UBERABA - COMARCA; UBERABA-PJ-09PJ 5.139,92 308,40 0,00 2.360,04 1.816,11 0,00 9.624,47 734,27 963,55 0,00 1.697,82 7.926,65 3.010,95 1.429,77 31/12/2015
69 226700 ALESSANDRA MARA VASCONCELOS REZENDE OFICIAL DO MP ATIVO CONSELHEIRO LAFAIETE - COMARCA; CONSELHEIRO LAFAIETE-PJ-07PJ 5.299,99 1.394,73 0,00 2.531,49 0,00 0,00 9.226,21 1.112,50 718,55 0,00 1.831,05 7.395,16 2.187,06 2.072,07 31/12/2015
70 112100 ALESSANDRA MARCIA FERREIRA OFICIAL DO MP ATIVO BELO HORIZONTE - COMARCA; BELO HORIZONTE- SECRETARIA DAS PROMOTORIAS 8.185,27 4.092,64 0,00 2.704,86 4.092,64 0,00 19.075,41 1.666,19 3.209,00 0,00 4.875,19 14.200,22 1.763,93 3.348,08 31/12/2015
71 196500 ALESSANDRA MARIA RIBEIRO LUCIANO OFICIAL DO MP ATIVO RIO PARANAÍBA - COMARCA; RIO PARANAIBA-PJ-UNPJ 9.920,24 2.976,07 0,00 2.794,68 0,00 0,00 15.690,99 1.755,76 2.234,88 0,00 3.990,64 11.700,35 6.762,93 3.580,73 31/12/2015
72 91400 ALESSANDRA MENDES VASCONCELOS DE SOUZA OFICIAL DO MP ATIVO BELO HORIZONTE - COMARCA; BH-23PJ INF-FISC MED SOC AB 9.823,17 6.548,78 0,00 3.722,99 6.548,78 0,00 26.643,72 2.674,84 4.839,54 0,00 7.514,38 19.129,34 1.763,93 5.461,72 31/12/2015
73 384900 ALESSANDRA RODRIGUES ANALISTA DO MP ATIVO VISCONDE DO RIO BRANCO - COMARCA; VISCONDE DO RIO BRANCO-PJ-03PJ 8.727,00 872,70 0,00 2.420,13 3.199,90 0,00 15.219,73 1.308,51 2.203,73 0,00 3.512,24 11.707,49 6.512,31 2.729,89 31/12/2015
74 390000 ALESSANDRA SPADANO MASSARA VASCONCELOS OFICIAL DO MP ATIVO BETIM - COMARCA; BETIM-PJ-10PJ 5.279,11 548,01 0,00 1.744,93 0,00 0,00 7.572,05 821,10 550,75 0,00 1.371,85 6.200,20 1.763,93 1.806,20 31/12/2015
75 426500 ALESSANDRO CAMPOS DE PAIVA COORDENADOR/ANALISTA ATIVO BELO HORIZONTE - COMARCA; DIRETORIA DE PUBLICIDADE INSTITUCIONAL 0,00 1.092,10 10.921,00 2.830,87 0,00 0,00 14.843,97 1.365,07 2.145,35 0,00 3.510,42 11.333,55 1.763,93 3.578,94 31/12/2015
76 623400 ALESSANDRO DE OLIVEIRA REZENDE ANALISTA DO MP ATIVO BELO HORIZONTE - COMARCA; DIVISAO DE MEMORIA INSTITUCIONAL 5.139,92 0,00 0,00 4.181,39 0,00 0,00 9.321,31 710,62 393,14 0,00 1.103,76 8.217,55 1.763,93 1.451,91 31/12/2015
77 420600 ALESSANDRO SILVA OFICIAL DO MP ATIVO VISCONDE DO RIO BRANCO - COMARCA; VISCONDE DO RIO BRANCO-PJ-02PJ 3.906,34 1.027,98 0,00 2.270,66 2.055,97 0,00 9.260,95 844,31 406,15 0,00 1.250,46 8.010,49 2.091,39 1.765,14 31/12/2015
78 375301 ALETHEIA PATRICIA ASSIS MORAIS MOREIRA ANALISTA DO MP ATIVO ITABIRA - COMARCA; ITABIRA-PJ-02PJ 6.432,09 0,00 0,00 1.855,75 0,00 0,00 8.287,84 861,17 652,76 0,00 1.513,93 6.773,91 3.454,34 1.765,16 31/12/2015
79 382300 ALEX CARVALHO LIMA ANALISTA DO MP ATIVO UBERLÂNDIA - COMARCA; UBERLANDIA-PJ-14PJ 6.807,06 872,70 0,00 7.063,56 0,00 0,00 14.743,32 1.307,66 822,16 0,00 2.129,82 12.613,50 1.763,93 2.697,94 31/12/2015
80 195201 ALEX DE CASTRO PEREIRA ANALISTA DO MP ATIVO UBERABA - COMARCA; UBERABA-PJ-09PJ 10.576,63 3.172,99 0,00 9.793,44 4.583,21 0,00 28.126,27 1.872,84 3.704,10 0,00 5.576,94 22.549,33 2.542,21 3.851,15 31/12/2015
81 358900 ALEX DE PAULA LANZA ASSESSOR ATIVO BELO HORIZONTE - COMARCA; DIRETORIA DE IMPRENSA 0,00 0,00 6.641,51 2.504,77 0,00 0,00 9.146,28 1.026,02 1.035,70 0,00 2.061,72 7.084,56 1.763,93 1.996,07 31/12/2015
82 178400 ALEX RODRIGO SALDANHA GUIMARAES OFICIAL DO MP ATIVO BELO HORIZONTE - COMARCA; DIRETORIA DE SISTEMAS DE INFORMACAO 4.977,82 1.493,35 0,00 1.809,29 0,00 0,00 8.280,46 881,14 714,46 0,00 1.595,60 6.684,86 1.763,93 1.921,80 31/12/2015
83 289200 ALEX SANDRO PEREIRA DE MATOS OFICIAL DO MP ATIVO BELO HORIZONTE - COMARCA; PROCON-MG-SECRETARIA DE FISCALIZACOES 3.783,14 1.935,42 0,00 5.575,43 0,00 0,00 11.293,99 814,69 522,55 0,00 1.337,24 9.956,75 1.955,83 1.982,56 31/12/2015
84 413500 ALEX VILELA OLIVEIRA ANALISTA DO MP ATIVO GOVERNADOR VALADARES - COMARCA; COORD REG PJ DEF EDU DIR CRIANCA ADOL RIODOCE 6.807,06 872,70 0,00 7.063,56 0,00 0,00 14.743,32 1.299,67 952,18 0,00 2.251,85 12.491,47 1.763,93 2.795,20 31/12/2015
85 264300 ALEXANDRA FATIMA SARAIVA SOARES ANALISTA DO MP ATIVO BELO HORIZONTE - COMARCA; CENTRAL DE APOIO TECN-SETOR DE MEIO AMBIENTE 11.643,70 2.328,74 0,00 2.898,86 4.657,48 0,00 21.528,78 1.902,13 3.831,20 0,00 5.733,33 15.795,45 1.763,93 3.871,76 31/12/2015
86 488000 ALEXANDRA LARA PAIS DE CARVALHO ANALISTA DO MP ATIVO GUANHÃES - COMARCA; GUANHAES-PJ-SECRETARIA 5.233,51 398,49 0,00 5.568,33 0,00 0,00 11.200,33 954,11 328,86 0,00 1.282,97 9.917,36 11.761,93 1.904,94 31/12/2015
87 256300 ALEXANDRA SANTOS GOMES OFICIAL DO MP ATIVO BELO HORIZONTE - COMARCA; EXTINTA - DIVISÃO DE COMPRAS 6.432,09 1.286,42 0,00 1.990,47 0,00 0,00 9.708,98 1.045,88 1.019,74 0,00 2.065,62 7.643,36 1.763,93 2.271,12 31/12/2015
88 403300 ALEXANDRE AUGUSTO RODRIGUES ANALISTA DO MP ATIVO ÁGUAS FORMOSAS - COMARCA; AGUAS FORMOSAS-PJ-UNPJ 5.799,48 743,52 0,00 2.057,32 2.726,25 0,00 11.326,57 1.113,76 1.432,28 0,00 2.546,04 8.780,53 1.763,93 2.278,10 31/12/2015
89 640900 ALEXANDRE BARBOSA MASCARENHAS ANALISTA DO MP ATIVO BETIM - COMARCA; BETIM-PJ-01PJ 3.735,10 0,00 0,00 2.077,65 0,00 0,00 5.812,75 513,58 56,16 0,00 569,74 5.243,01 2.986,95 0,00 31/12/2015
90 311700 ALEXANDRE BARCELOS RESENDE OFICIAL DO MP ATIVO BELO HORIZONTE - COMARCA; BH-07PJ 03 TRIBUNAL DO JURI-GAB 109PJ 5.139,92 513,99 0,00 1.690,59 1.884,64 0,00 9.229,14 776,46 1.032,71 0,00 1.809,17 7.419,97 2.083,96 1.648,17 31/12/2015
91 285600 ALEXANDRE CAMPOS DE OLIVEIRA OFICIAL DO MP ATIVO UBERABA - COMARCA; COORD REG BACIAS PARANAIBA BAIXO RIO GRANDE 6.973,67 1.394,73 0,00 2.241,28 0,00 0,00 10.609,68 1.149,62 1.022,40 0,00 2.172,02 8.437,66 12.235,61 2.622,11 31/12/2015
92 509200 ALEXANDRE CAPUANO DE REZENDE ANALISTA DO MP ATIVO BELO HORIZONTE - COMARCA; GABINETE DE PROCURADOR DE JUSTIÇA - SALA 715 6.641,51 398,49 0,00 1.944,06 0,00 0,00 8.984,06 958,49 801,54 0,00 1.760,03 7.224,03 1.763,93 2.092,19 31/12/2015
93 229400 ALEXANDRE CARLOS BOTREL DIRETOR/OFICIAL ATIVO BELO HORIZONTE - COMARCA; SUPERINTENDENCIA DOS ORGAOS COLEGIADOS 0,00 2.831,04 14.155,19 3.856,09 5.662,08 0,00 26.504,40 1.599,43 5.042,14 0,00 6.641,57 19.862,83 2.725,42 4.854,42 31/12/2015
94 411900 ALEXANDRE CARVALHO SANTOS RIBEIRO ANALISTA DO MP ATIVO SÃO JOÃO DEL REI - COMARCA; SAO JOAO DEL REI-PJ-02PJ 8.451,80 845,18 0,00 6.868,23 0,00 0,00 16.165,21 1.293,28 1.406,08 0,00 2.699,36 13.465,85 10.825,74 3.212,62 31/12/2015
95 641600 ALEXANDRE DA SILVA ASSUNCAO OFICIAL DO MP ATIVO BELO HORIZONTE - COMARCA; BH-17PJ PATRIMONIO PUBLICO-SECRETARIA 3.030,62 0,00 0,00 1.348,62 0,00 0,00 4.379,24 333,37 59,49 0,00 392,86 3.986,38 1.064,95 0,00 31/12/2015
96 201200 ALEXANDRE DE ALENCAR CORDEIRO OFICIAL DO MP ATIVO ÁGUAS FORMOSAS - COMARCA; AGUAS FORMOSAS-PJ-UNPJ 4.977,82 1.991,13 0,00 1.881,60 2.322,98 0,00 11.173,53 949,21 1.475,11 0,00 2.424,32 8.749,21 1.763,93 1.950,07 31/12/2015
97 288200 ALEXANDRE DE VASCONCELOS COSTA KER ANALISTA DO MP ATIVO BELO HORIZONTE - COMARCA; BH-03PJ EMPRESARIAL-SECRETARIA 8.038,24 2.115,33 0,00 2.765,00 0,00 0,00 12.918,57 1.718,94 1.486,80 0,00 3.205,74 9.712,83 2.459,70 3.475,30 31/12/2015
98 445000 ALEXANDRE DIOGENES OLIVEIRA ANALISTA DO MP ATIVO SALINAS - COMARCA; SALINAS-PJ-02PJ 7.435,23 743,52 0,00 2.057,32 0,00 0,00 10.236,07 1.113,43 1.132,39 0,00 2.245,82 7.990,25 1.763,93 2.421,75 31/12/2015
99 463400 ALEXANDRE LEAL WINKELSTROTER ANALISTA DO MP ATIVO TEÓFILO OTONI - COMARCA; TEOFILO OTONI-PJ-04PJ 5.233,51 398,49 0,00 1.944,06 0,00 0,00 7.576,06 958,36 414,34 0,00 1.372,70 6.203,36 1.763,93 1.948,34 31/12/2015
100 615700 ALEXANDRE LUIZ DE CASTRO MACIEL ANALISTA DO MP ATIVO IBIRITÉ - COMARCA; IBIRITE-PJ-02PJ 4.245,82 0,00 0,00 1.640,24 0,00 0,00 5.886,06 716,38 194,50 0,00 910,88 4.975,18 1.763,93 1.477,02 31/12/2015
101 356900 ALEXANDRE MOISES MENDONCA E ARAUJO OFICIAL DO MP ATIVO UBERABA - COMARCA; UBERABA-PJ-13PJ 4.977,82 497,78 0,00 1.664,69 0,00 0,00 7.140,29 745,84 470,79 0,00 1.216,63 5.923,66 1.763,93 1.541,57 31/12/2015
102 633300 ALEXANDRE NONATO MARTINS OFICIAL DO MP ATIVO IGARAPÉ - COMARCA; IGARAPE-PJ-02PJ 3.030,62 0,00 0,00 1.136,67 1.010,21 0,00 5.177,50 405,41 172,88 0,00 578,29 4.599,21 1.763,93 682,48 31/12/2015
103 469900 ALEXANDRE PEREIRA GUEDES ANALISTA DO MP ATIVO CATAGUASES - COMARCA; CATAGUASES-PJ-03PJ 5.674,18 432,04 0,00 1.978,02 0,00 0,00 8.084,24 1.050,46 578,96 0,00 1.629,42 6.454,82 1.763,93 2.371,91 31/12/2015
104 208700 ALEXANDRE RESENDE FRAGA ANALISTA DO MP ATIVO BELO HORIZONTE - COMARCA; BH-19PJ SAUDE 13.616,17 4.084,85 0,00 3.596,85 0,00 0,00 21.297,87 2.423,59 3.306,55 0,00 5.730,14 15.567,73 14.387,70 5.118,59 31/12/2015
105 216401 ALEXANDRE RIBEIRO DE LIMA MAIORINO ANALISTA DO MP ATIVO UBERABA - COMARCA; UBERABA-PJ-03PJ 10.576,63 3.172,99 0,00 9.793,44 0,00 0,00 23.543,06 1.875,43 2.443,72 0,00 4.319,15 19.223,91 1.763,93 4.159,47 31/12/2015
106 475100 ALEXANDRE TEOTONIO COSTA ANALISTA DO MP ATIVO ARAGUARI - COMARCA; ARAGUARI-PJ-01PJ 5.674,18 432,04 0,00 2.082,29 2.544,26 0,00 10.732,77 1.050,23 1.174,35 0,00 2.224,58 8.508,19 9.144,93 2.227,26 31/12/2015
107 339000 ALEXANDRE VITOR CARDOSO OFICIAL DO MP ATIVO BELO HORIZONTE - COMARCA; BH-18PJ DIREITOS HUMANOS-SECRETARIA 4.977,82 497,78 0,00 1.803,10 1.825,20 0,00 9.103,90 779,16 1.035,13 0,00 1.814,29 7.289,61 2.979,72 9.178,53 31/12/2015
108 623100 ALEXSANDER BATISTA AGUIAR ANALISTA DO MP ATIVO BELO HORIZONTE - COMARCA; DIRETORIA DE SUPORTE E MANUTENCAO 5.139,92 0,00 0,00 1.696,75 0,00 0,00 6.836,67 697,67 307,82 0,00 1.005,49 5.831,18 1.763,93 1.332,04 31/12/2015
109 513300 ALFSON MIRANDA BRAGA ANALISTA DO MP ATIVO BELO HORIZONTE - COMARCA; BH-12PJ JUIZO CRIMINAL-GAB 092PJ 6.641,51 398,49 0,00 1.891,92 0,00 0,00 8.931,92 941,69 853,68 0,00 1.795,37 7.136,55 1.768,40 1.780,59 31/12/2015
110 618400 ALICE MAGALHAES MACEDO DE CARVALHO ANALISTA DO MP ATIVO AÇUCENA - COMARCA; ACUCENA-PJ-UNPJ 5.307,28 0,00 0,00 1.723,92 0,00 0,00 7.031,20 715,86 429,60 0,00 1.145,46 5.885,74 1.763,93 1.350,37 31/12/2015
111 471000 ALICE TITONELI MOREIRA ANALISTA DO MP ATIVO MIRADOURO - COMARCA; MIRADOURO-PJ-UNPJ 6.183,04 432,04 0,00 2.030,16 0,00 0,00 8.645,24 1.039,29 666,76 0,00 1.706,05 6.939,19 6.762,93 2.264,51 31/12/2015
112 622400 ALINE BALBINO PORTUGAL ANALISTA DO MP ATIVO TRÊS PONTAS - COMARCA; TRES PONTAS-PJ-03PJ 5.139,92 0,00 0,00 1.611,43 1.713,31 0,00 8.464,66 698,03 859,80 0,00 1.557,83 6.906,83 1.763,93 1.348,73 31/12/2015
113 373000 ALINE BOTELHO RESENDE OFICIAL DO MP ATIVO PASSA QUATRO - COMARCA; PASSA QUATRO-PJ-SECRETARIA 5.842,66 584,27 0,00 1.802,87 0,00 0,00 8.229,80 869,60 703,63 0,00 1.573,23 6.656,57 1.763,93 1.847,08 31/12/2015
114 407700 ALINE CRISTINA RODRIGUES PEREIRA ANALISTA DO MP ATIVO BELO HORIZONTE - COMARCA; DIRETORIA DE PROJETOS DE EDIFICACOES 6.857,79 685,78 0,00 1.965,06 0,00 0,00 9.508,63 1.026,74 976,93 0,00 2.003,67 7.504,96 6.762,93 2.084,24 31/12/2015
115 193100 ALINE CRISTINA SENA OLIVEIRA OFICIAL DO MP ATIVO UBERLÂNDIA - COMARCA; UBERLANDIA-PJ-03PJ 6.668,20 3.643,18 0,00 2.887,35 4.296,41 0,00 17.495,14 1.608,04 2.741,29 0,00 4.349,33 13.145,81 2.493,51 3.721,37 31/12/2015
116 554200 ALINE CRISTINA SILVA SOUZA OFICIAL DO MP ATIVO TIROS - COMARCA; TIROS-PJ-UNPJ 3.792,57 0,00 0,00 1.743,40 0,00 0,00 5.535,97 506,93 151,51 0,00 658,44 4.877,53 1.763,93 944,11 31/12/2015
117 505500 ALINE DA CUNHA MARREIROS OLIVEIRA ANALISTA DO MP ATIVO CARANGOLA - COMARCA; CARANGOLA-PJ-03PJ 6.641,51 398,49 0,00 1.944,06 0,00 0,00 8.984,06 959,12 801,54 0,00 1.760,66 7.223,40 3.194,02 2.118,99 31/12/2015
118 433500 ALINE DE MELO QUEIROZ OFICIAL DO MP ATIVO BELO HORIZONTE - COMARCA; EXTINTO-PROCON ESTADUAL-RELACOES INSTITUCIONA 5.307,28 1.705,55 0,00 1.981,66 2.337,61 0,00 11.332,10 805,36 2.233,84 0,00 3.039,20 8.292,90 2.002,10 20.930,62 31/12/2015
119 542700 ALINE DE SOUSA ALBINO ANALISTA DO MP ATIVO CARMO DO PARANAÍBA - COMARCA; CARMO DO PARANAIBA-PJ-01PJ 5.842,66 0,00 0,00 1.718,01 0,00 0,00 7.560,67 781,73 560,63 0,00 1.342,36 6.218,31 1.763,93 1.588,54 31/12/2015
120 330000 ALINE DIORIO MAYRINK OFICIAL DO MP ATIVO BELO HORIZONTE - COMARCA; SUPERINTENDENCIA DE RECURSOS HUMANOS 111,45 530,73 0,00 1.717,33 0,00 0,00 2.359,51 642,18 0,00 0,00 642,18 1.717,33 1.295,39 381,74 31/12/2015
121 499000 ALINE FERREIRA LOPES NEIVA ANALISTA DO MP ATIVO TEÓFILO OTONI - COMARCA; COORD. DE DEF. DO PAT. PUBLICO-JEQUIT./MUCURI 6.641,51 398,49 0,00 2.732,03 0,00 0,00 9.772,03 958,69 801,54 0,00 1.760,23 8.011,80 1.763,93 2.096,71 31/12/2015
122 405300 ALINE LAIA CARDOZO ANALISTA DO MP ATIVO BELO HORIZONTE - COMARCA; EXTINTA - DIRETORIA DE CONTRATOS E CONVÊNIOS 6.807,06 872,70 0,00 2.263,71 0,00 0,00 9.943,47 1.307,26 952,18 0,00 2.259,44 7.684,03 1.763,93 2.871,52 31/12/2015
123 278200 ALINE MARCIA FARIA BARBOSA OFICIAL DO MP ATIVO BARBACENA - COMARCA; BARBACENA-PJ-SECRETARIA 3.783,14 995,56 0,00 1.893,41 1.991,13 0,00 8.663,24 813,88 655,24 0,00 1.469,12 7.194,12 5.767,68 1.683,48 31/12/2015
124 389000 ALINE NERI NOBRE ANALISTA DO MP ATIVO MONTES CLAROS - COMARCA; COORD REG PJ DEF EDUC DIR CRIANCA ADOL NORTE 9.011,08 1.802,22 0,00 2.439,99 0,00 0,00 13.253,29 1.465,14 1.777,20 0,00 3.242,34 10.010,95 2.251,47 3.185,90 31/12/2015
125 294600 ALINE PATRICIA SILVA VIEIRA OFICIAL DO MP ATIVO UBERLÂNDIA - COMARCA; UBERLANDIA-PJ-03PJ 6.136,83 2.452,07 0,00 2.453,48 3.181,07 0,00 14.223,45 1.140,99 2.009,96 0,00 3.150,95 11.072,50 12.302,12 2.665,96 31/12/2015
126 420000 ALINE RODRIGUES CAMOROPIN ANALISTA DO MP ATIVO SABARÁ - COMARCA; SABARA-PJ-02PJ 6.592,40 845,18 0,00 2.219,74 0,00 0,00 9.657,32 1.295,04 894,74 0,00 2.189,78 7.467,54 2.314,77 3.072,21 31/12/2015
127 408300 ALINE SILVA ARAUJO DE PAULA ANALISTA DO MP ATIVO SÃO SEBASTIÃO DO PARAÍSO - COMARCA; SAO SEBASTIAO DO PARAISO-PJ-02PJ 8.727,00 872,70 0,00 2.263,71 0,00 0,00 11.863,41 1.299,95 1.480,17 0,00 2.780,12 9.083,29 2.290,18 2.623,54 31/12/2015
128 425400 ALINE TRINDADE DE FREITAS CAMPOS OFICIAL DO MP ATIVO BELO HORIZONTE - COMARCA; BH-14PJ DEFESA CONSUMIDOR-SECRETARIA 4.274,44 548,01 0,00 4.758,96 0,00 0,00 9.581,41 815,89 299,73 0,00 1.115,62 8.465,79 1.763,93 1.743,02 31/12/2015
129 517200 ALISSOM PEREIRA DA SILVA ANALISTA DO MP ATIVO BORDA DA MATA - COMARCA; BORDA DA MATA-PJ-UNPJ 6.641,51 398,49 0,00 1.891,92 0,00 0,00 8.931,92 966,71 853,68 0,00 1.820,39 7.111,53 2.007,70 2.190,66 31/12/2015
130 442400 ALISSON LABRE ANALISTA DO MP ATIVO VARGINHA - COMARCA; VARGINHA-PJ-02PJ 6.072,10 743,52 0,00 2.057,32 2.726,25 0,00 11.599,19 1.113,21 1.507,25 0,00 2.620,46 8.978,73 1.763,93 2.259,04 31/12/2015
131 612900 ALLAN VINICIUS VIEIRA ARAUJO OFICIAL DO MP ATIVO BELO HORIZONTE - COMARCA; BH-09PJ AUDITORIA MILITAR-SECRETARIA 3.129,28 0,00 0,00 2.573,15 0,00 0,00 5.702,43 368,90 92,91 0,00 461,81 5.240,62 871,99 224,36 31/12/2015
132 349000 ALLEC RODRIGUES VIEIRA ASSESSOR/OFICIAL ATIVO BELO HORIZONTE - COMARCA; COORD DE INCLUSAO E MOBILIZACAO SOCIAIS 0,00 930,45 9.304,45 2.355,98 0,00 0,00 12.590,88 1.395,66 1.635,63 0,00 3.031,29 9.559,59 2.343,27 2.931,87 31/12/2015
133 297300 ALLYSON SALIBA MONTEIRO LAIZO ANALISTA DO MP ATIVO CONSELHEIRO LAFAIETE - COMARCA; CONSELHEIRO LAFAIETE-PJ-03PJ 8.570,20 2.255,32 0,00 2.834,87 0,00 0,00 13.660,39 1.843,34 1.698,32 0,00 3.541,66 10.118,73 2.495,24 3.811,59 31/12/2015
134 303700 ALMIR LOPES LOURES ANALISTA DO MP ATIVO BELO HORIZONTE - COMARCA; CENTRAL DE APOIO TECN-SETOR DE MEIO AMBIENTE 8.849,21 2.328,74 0,00 9.989,35 0,00 0,00 21.167,30 1.892,97 1.677,64 0,00 3.570,61 17.596,69 2.495,24 3.858,86 31/12/2015
135 515900 ALTAIR NEVES JUNIOR OFICIAL DO MP ATIVO BELO HORIZONTE - COMARCA; BH-03PJ EMPRESARIAL-SECRETARIA 4.241,01 254,46 0,00 3.736,88 0,00 0,00 8.232,35 613,74 264,09 0,00 877,83 7.354,52 2.018,39 1.362,03 31/12/2015
136 233300 ALVARINDO BATISTA COORDENADOR/ANALISTA ATIVO BELO HORIZONTE - COMARCA; DIVISAO DE MULTIMIDIA 13.097,56 4.540,99 0,00 3.584,59 0,00 0,00 21.223,14 2.143,14 3.505,80 0,00 5.648,94 15.574,20 1.763,93 4.928,59 31/12/2015
137 274100 ALYSSON CARVALHO VIDAL DE LACERDA OFICIAL DO MP ATIVO MANHUAÇU - COMARCA; MANHUACU-PJ-01PJ 5.472,56 1.440,15 0,00 6.444,89 0,00 0,00 13.357,60 1.176,19 770,25 0,00 1.946,44 11.411,16 1.763,93 2.553,67 31/12/2015
138 621000 AMANDA BASTOS ALVES ANALISTA DO MP ATIVO BELO HORIZONTE - COMARCA; ASSESS TECNICO-JUR JUNTO AS PROC. DE JUST 4.668,87 0,00 0,00 1.522,04 0,00 0,00 6.190,91 633,14 298,81 0,00 931,95 5.258,96 1.763,93 1.202,93 31/12/2015
139 521700 AMANDA CRISTINA AGUIAR MACHADO OFICIAL DO MP ATIVO CONGONHAS - COMARCA; CONGONHAS-PJ-01PJ 2.803,04 213,43 0,00 1.350,39 0,00 0,00 4.366,86 513,26 38,11 0,00 551,37 3.815,49 1.763,93 1.114,65 31/12/2015
140 613400 AMANDA DE ASSIS IUNES SANTOS ANALISTA DO MP ATIVO CONSELHEIRO LAFAIETE - COMARCA; CONSELHEIRO LAFAIETE-PJ-08PJ 4.820,91 0,00 0,00 1.550,89 0,00 0,00 6.371,80 650,64 329,26 0,00 979,90 5.391,90 6.762,93 1.250,53 31/12/2015
141 520800 AMANDA DE SOUZA MACHADO ANALISTA DO MP ATIVO BAEPENDI - COMARCA; BAEPENDI-PJ-UNPJ 6.172,18 398,49 0,00 1.996,19 2.346,67 0,00 10.913,53 958,11 1.265,67 0,00 2.223,78 8.689,75 6.762,93 1.961,04 31/12/2015
142 543100 AMANDA VIEIRA FREITAS BRESSANE ANALISTA DO MP ATIVO PARAGUAÇU - COMARCA; PARAGUACU-PJ-UNPJ 5.307,28 0,00 0,00 2.192,54 0,00 0,00 7.499,82 710,12 384,00 0,00 1.094,12 6.405,70 1.763,93 1.439,77 31/12/2015
143 434400 AMARILIS ASSIS SIMAO CURCIO ANALISTA DO MP ATIVO MANHUAÇU - COMARCA; MANHUACU-PJ-01PJ 8.185,27 818,53 0,00 2.589,68 0,00 0,00 11.593,48 1.204,84 1.334,32 0,00 2.539,16 9.054,32 9.144,93 2.299,98 31/12/2015
144 273700 AMBROLINA CARNEIRO DE VASCONCELOS OFICIAL DO MP ATIVO FRUTAL - COMARCA; FRUTAL-PJ-01PJ 6.973,67 3.486,84 0,00 2.440,88 3.486,84 0,00 16.388,23 1.420,46 2.597,59 0,00 4.018,05 12.370,18 1.763,93 3.084,91 31/12/2015
145 58000 AMELIA GUARIZE DE CASTRO OFICIAL DO MP ATIVO JUIZ DE FORA - COMARCA; JUIZ DE FORA-PJ-SECRETARIA 3.397,63 4.932,06 0,00 2.066,75 0,00 1.145,33 11.541,77 1.419,77 1.421,30 0,00 2.841,07 8.700,70 2.251,47 4.603,00 31/12/2015
146 324301 AMERICA SUELI FERREIRA DA SILVA ANALISTA DO MP ATIVO MONTE CARMELO - COMARCA; MONTE CARMELO-PJ-02PJ 7.200,74 432,04 0,00 2.030,16 2.544,26 0,00 12.207,20 1.039,34 1.646,30 0,00 2.685,64 9.521,56 4.301,53 2.272,03 31/12/2015
147 273300 AMUJACY DE BRITO ASSIZ OFICIAL DO MP ATIVO BELO HORIZONTE - COMARCA; BH-12PJ JUIZO CRIMINAL-SECRETARIA 5.472,56 1.440,15 0,00 2.332,99 2.880,30 0,00 12.126,00 1.160,54 1.353,78 0,00 2.514,32 9.611,68 3.009,05 2.283,58 31/12/2015
148 482200 ANA ALICE LOPES ACHTSCHIN ANALISTA DO MP ATIVO BELO HORIZONTE - COMARCA; PROC JUST RECURSOS ESP E EXTRAORD CRIMINAIS 5.674,18 432,04 0,00 1.978,02 0,00 0,00 8.084,24 1.046,36 578,96 0,00 1.625,32 6.458,92 1.763,93 2.320,72 31/12/2015
149 490400 ANA AMELIA PAULINO GARCIA OFICIAL DO MP ATIVO CONTAGEM - COMARCA; CONTAGEM-PJ-13PJ 4.668,87 280,13 0,00 2.181,26 0,00 0,00 7.130,26 662,10 354,91 0,00 1.017,01 6.113,25 1.763,93 1.256,26 31/12/2015
150 279100 ANA CAROLINA ARAUJO PEREIRA ANALISTA DO MP ATIVO BELO HORIZONTE - COMARCA; DIRETORIA DE PROJETOS DE EDIFICACOES 8.570,20 2.255,32 0,00 4.826,48 4.510,63 0,00 20.162,63 1.842,48 2.886,60 0,00 4.729,08 15.433,55 6.762,93 3.761,67 31/12/2015
151 359400 ANA CAROLINA DE ABREU FARIA ASSESSOR ATIVO BELO HORIZONTE - COMARCA; DIVISAO DE CONTROLE IMOBILIARIO 0,00 0,00 6.641,51 2.504,77 0,00 0,00 9.146,28 1.026,02 1.035,70 0,00 2.061,72 7.084,56 1.763,93 1.814,26 31/12/2015
152 408500 ANA CAROLINA DE CASTRO CARVALHO ANALISTA DO MP ATIVO BARBACENA - COMARCA; BARBACENA-PJ-SECRETARIA 6.807,06 872,70 0,00 2.263,71 3.199,90 0,00 13.143,37 1.300,32 1.832,15 0,00 3.132,47 10.010,90 2.290,18 2.644,76 31/12/2015
153 420200 ANA CAROLINA FERNANDES SILVA ANALISTA DO MP ATIVO BELO HORIZONTE - COMARCA; GABINETE DE PROCURADOR DE JUSTIÇA - SALA 708 8.185,27 818,53 0,00 6.679,06 0,00 0,00 15.682,86 1.240,82 1.334,32 0,00 2.575,14 13.107,72 1.763,93 2.792,65 31/12/2015
154 522100 ANA CAROLINA FERNANDINO VIDAL PEREIRA SANTOS OFICIAL DO MP ATIVO BELO HORIZONTE - COMARCA; EXTINTA - SECRETARIA ADMINISTRATIVA 4.241,01 254,46 0,00 3.736,88 1.498,49 0,00 9.730,84 616,79 642,99 0,00 1.259,78 8.471,06 2.954,93 1.290,18 31/12/2015
155 502400 ANA CAROLINA GONCALVES FERNANDES ANALISTA DO MP ATIVO GRAO MOGOL - COMARCA; GRAO MOGOL-PJ-UNPJ 5.233,51 398,49 0,00 2.705,96 0,00 0,00 8.337,96 958,67 466,48 0,00 1.425,15 6.912,81 1.763,93 1.961,53 31/12/2015
156 529900 ANA CAROLINA GONCALVES PECANHA CHEQUER ANALISTA DO MP ATIVO MANHUAÇU - COMARCA; MANHUACU-PJ-04PJ 5.842,66 0,00 0,00 2.319,68 1.947,55 0,00 10.109,89 791,87 1.096,21 0,00 1.888,08 8.221,81 1.763,93 1.689,13 31/12/2015
157 431900 ANA CAROLINA MOTTA GUATIMOSIM ANALISTA DO MP ATIVO BELO HORIZONTE - COMARCA; GABINETE DE PROCURADOR DE JUSTIÇA - SALA 1006 8.185,27 818,53 0,00 2.589,68 0,00 0,00 11.593,48 1.204,54 1.334,32 0,00 2.538,86 9.054,62 1.763,93 2.434,38 31/12/2015
158 539400 ANA CAROLINA REIS MACEDO ANALISTA DO MP ATIVO UBERABA - COMARCA; COORD REG PJ DEF EDUC DIR CRIANCA ADOL TRIANG 5.842,66 0,00 0,00 1.718,01 0,00 0,00 7.560,67 781,96 560,63 0,00 1.342,59 6.218,08 1.944,18 1.499,79 31/12/2015
159 490600 ANA CAROLINA XAVIER GODOY ANALISTA DO MP ATIVO BELO HORIZONTE - COMARCA; BH-18PJ VIOLENCIA DOMESTICA 5.674,18 432,04 0,00 3.088,45 0,00 0,00 9.194,67 1.023,96 578,96 0,00 1.602,92 7.591,75 1.763,93 2.099,62 31/12/2015
160 600300 ANA CAROLINE PEREIRA DINIZ ANALISTA DO MP ATIVO BELO HORIZONTE - COMARCA; COMB CRIMES PRAT POR AG POL MUN-SECRETARIA 4.245,82 0,00 0,00 1.640,24 0,00 0,00 5.886,06 721,95 194,50 0,00 916,45 4.969,61 6.762,93 1.564,21 31/12/2015
161 615800 ANA CAROLINE PEREIRA OLIVEIRA OFICIAL DO MP ATIVO ALFENAS - COMARCA; ALFENAS-PJ-06PJ 3.445,03 0,00 0,00 1.292,78 1.148,34 0,00 5.886,15 457,05 312,11 0,00 769,16 5.116,99 1.763,93 810,99 31/12/2015
162 324800 ANA CECILIA MENDES DA SILVA OFICIAL DO MP ATIVO OURO FINO - COMARCA; OURO FINO-PJ-01PJ 6.432,09 1.286,42 0,00 2.042,60 0,00 0,00 9.761,11 1.051,20 967,61 0,00 2.018,81 7.742,30 6.762,93 2.155,62 31/12/2015
163 441300 ANA CLAUDIA ALKIMIM MIRANDA BOMTEMPO ANALISTA DO MP ATIVO MONTES CLAROS - COMARCA; MONTES CLAROS-PJ-11PJ 5.799,48 743,52 0,00 2.161,59 0,00 0,00 8.704,59 1.113,65 578,28 0,00 1.691,93 7.012,66 9.144,93 2.431,90 31/12/2015
164 604900 ANA CLAUDIA OLIVEIRA DE MIRANDA OFICIAL DO MP ATIVO PONTE NOVA - COMARCA; PONTE NOVA-PJ-04PJ 3.030,62 0,00 0,00 1.136,67 0,00 0,00 4.167,29 412,45 45,27 0,00 457,72 3.709,57 1.763,93 826,77 31/12/2015
165 379300 ANA CRISTINA ALVES FLAVIO ANALISTA DO MP ATIVO SÃO GOTARDO - COMARCA; SAO GOTARDO-PJ-01PJ 8.727,00 872,70 0,00 2.367,99 0,00 0,00 11.967,69 1.307,85 1.375,89 0,00 2.683,74 9.283,95 6.863,74 2.883,10 31/12/2015
166 461200 ANA CRISTINA ALVES PASCHOAL ANALISTA DO MP ATIVO SANTA LUZIA - COMARCA; SANTA LUZIA-PJ-03PJ 5.674,18 432,04 0,00 1.978,02 0,00 0,00 8.084,24 1.039,36 578,96 0,00 1.618,32 6.465,92 4.145,93 2.123,16 31/12/2015
167 514100 ANA CRISTINA ARAUJO ASSUNCAO ANALISTA DO MP ATIVO BELO HORIZONTE - COMARCA; ASSESS JUR DO CONS SUPERIOR DO MINISTERIO PUB 6.641,51 398,49 0,00 5.464,06 0,00 0,00 12.504,06 962,54 801,54 0,00 1.764,08 10.739,98 6.762,93 1.989,97 31/12/2015
168 113400 ANA CRISTINA BRAGA ALBUQUERQUE ANALISTA DO MP ATIVO BELO HORIZONTE - COMARCA; ASSESS ESP ADM E FINANCEIRA DO PGJ ADJ ADM 24.459,17 12.229,59 0,00 5.295,29 10.157,04 0,00 52.141,09 3.351,82 9.381,63 6.217,65 18.951,10 33.189,99 1.763,93 0,00 31/12/2015
169 233800 ANA CRISTINA BRAGA SOARES RIOS OFICIAL DO MP ATIVO CONTAGEM - COMARCA; CONTAGEM-PJ-SECRETARIA 7.200,74 1.440,15 0,00 2.124,44 2.880,30 0,00 13.645,63 1.169,53 2.037,58 0,00 3.207,11 10.438,52 1.763,93 2.346,30 31/12/2015
170 186400 ANA CRISTINA DE AZEVEDO LOPES OFICIAL DO MP ATIVO UBÁ - COMARCA; UBA-PJ-01PJ 7.340,98 2.976,07 0,00 4.621,42 0,00 0,00 14.938,47 1.725,82 1.525,58 0,00 3.251,40 11.687,07 2.427,01 3.287,06 31/12/2015
171 465100 ANA CRISTINA DE OLIVEIRA GUIMARAES ANALISTA DO MP ATIVO BRASÓPOLIS - COMARCA; BRASOPOLIS-PJ-UNPJ 7.200,74 432,04 0,00 2.030,16 0,00 0,00 9.662,94 1.039,71 946,62 0,00 1.986,33 7.676,61 2.195,98 2.141,70 31/12/2015
172 500600 ANA CRISTINA LATADO SUDARIO ANALISTA DO MP ATIVO UBERLÂNDIA - COMARCA; UBERLANDIA-PJ-09PJ 6.641,51 398,49 0,00 1.891,92 0,00 0,00 8.931,92 958,05 853,68 0,00 1.811,73 7.120,19 1.763,93 1.936,99 31/12/2015
173 331400 ANA CRISTINA RIBEIRO ALVES OFICIAL DO MP ATIVO BAMBUÍ - COMARCA; BAMBUI-PJ-UNPJ 6.229,29 1.245,86 0,00 1.955,12 0,00 0,00 9.430,27 997,44 960,18 0,00 1.957,62 7.472,65 1.763,93 2.046,91 31/12/2015
174 249300 ANA ELOINA MARTINS DO PINHO OFICIAL DO MP ATIVO BETIM - COMARCA; BETIM-PJ-08PJ 5.681,19 2.303,19 0,00 3.680,71 3.326,83 0,00 14.991,92 1.370,48 1.887,18 0,00 3.257,66 11.734,26 2.328,87 2.907,34 31/12/2015
175 257400 ANA FLAVIA CAMBRAIA ANALISTA DO MP ATIVO BELO HORIZONTE - COMARCA; BH-19PJ SAUDE-SECRETARIA 150PJ 11.643,70 2.328,74 0,00 2.950,99 0,00 0,00 16.923,43 1.902,63 2.498,26 0,00 4.400,89 12.522,54 2.080,29 3.890,34 31/12/2015
176 248201 ANA FLAVIA DE MORAIS SOUZA ANALISTA DO MP ATIVO DIVINÓPOLIS - COMARCA; DIVINOPOLIS-PJ-01PJ 5.472,56 1.440,15 0,00 2.176,58 2.880,30 0,00 11.969,59 1.177,13 1.510,19 0,00 2.687,32 9.282,27 7.252,04 2.425,53 31/12/2015
177 621100 ANA FLAVIA DINIZ TEODORO OFICIAL DO MP ATIVO SANTA LUZIA - COMARCA; SANTA LUZIA-PJ-06PJ 2.424,50 0,00 0,00 1.122,45 0,00 0,00 3.546,95 410,98 14,03 0,00 425,01 3.121,94 1.763,93 780,50 31/12/2015
178 238600 ANA FLAVIA FRANCO OFICIAL DO MP ATIVO BELO HORIZONTE - COMARCA; DIRETORIA DE PESSOAL ADMINISTRATIVO - DPAD 6.761,44 1.690,36 0,00 2.342,51 0,00 0,00 10.794,31 1.404,40 1.148,08 0,00 2.552,48 8.241,83 2.338,02 3.056,02 31/12/2015
179 402900 ANA FLAVIA PORTES DE CARVALHO ANALISTA DO MP ATIVO BELO HORIZONTE - COMARCA; DIRET DE PLANOS PROJETOS E PROGRAMAS INST 6.807,06 872,70 0,00 2.315,85 3.199,90 0,00 13.195,51 1.307,66 1.780,02 0,00 3.087,68 10.107,83 6.621,37 2.695,69 31/12/2015
180 382700 ANA KARENINA SALDANHA GONTIJO ANALISTA DO MP ATIVO BELO HORIZONTE - COMARCA; ASSESS TECNICO-JUR JUNTO AS PROC. DE JUST 7.114,29 767,73 0,00 2.096,00 0,00 0,00 9.978,02 1.148,36 1.042,73 0,00 2.191,09 7.786,93 6.762,93 2.503,60 31/12/2015
181 620500 ANA KARINE DE ANDRADE OLIVEIRA ANALISTA DO MP ATIVO RIBEIRÃO DAS NEVES - COMARCA; RIBEIRAO DAS NEVES-PJ-10PJ 3.735,10 0,00 0,00 1.522,04 0,00 0,00 5.257,14 633,14 128,43 0,00 761,57 4.495,57 1.763,93 1.202,46 31/12/2015
182 220000 ANA LUCIA AMORIM OFICIAL DO MP ATIVO MARTINHO CAMPOS - COMARCA; MARTINHO CAMPOS-PJ-SECRETARIA 5.916,26 4.225,90 0,00 3.473,21 0,00 0,00 13.615,37 1.687,27 1.536,23 0,00 3.223,50 10.391,87 1.763,93 3.348,44 31/12/2015
183 462200 ANA LUCIA ANDRADE TOMICH OTTONI ANALISTA DO MP ATIVO TEÓFILO OTONI - COMARCA; TEOFILO OTONI-PJ-06PJ 7.200,74 432,04 0,00 2.082,29 2.544,26 0,00 12.259,33 1.038,95 1.594,16 0,00 2.633,11 9.626,22 2.954,93 2.111,29 31/12/2015
184 504100 ANA LUCIA CATAO DE CARVALHO OFICIAL DO MP ATIVO BELO HORIZONTE - COMARCA; BH-09PJ AUDITORIA MILITAR 3.341,92 254,46 0,00 3.779,54 0,00 0,00 7.375,92 611,96 82,04 0,00 694,00 6.681,92 10.967,93 1.249,05 31/12/2015
185 274700 ANA LUCIA DE ALENCAR BRAGATO OFICIAL DO MP ATIVO UBERABA - COMARCA; UBERABA-PJ-07PJ 6.973,67 1.394,73 0,00 3.160,61 2.789,47 0,00 14.318,48 1.136,12 1.893,77 0,00 3.029,89 11.288,59 1.763,93 2.307,25 31/12/2015
186 509400 ANA LUCIA DORNELAS MALLOSTO ANALISTA DO MP ATIVO JUIZ DE FORA - COMARCA; JUIZ DE FORA-PJ-18PJ 6.032,93 361,98 0,00 1.850,35 2.131,64 0,00 10.376,90 870,38 1.229,86 0,00 2.100,24 8.276,66 1.763,93 1.768,58 31/12/2015
187 524600 ANA LUCIA DOS SANTOS FERNANDES COELHO ASSESSOR ATIVO BELO HORIZONTE - COMARCA; COORD ESTADUAL DE DEFESA DA EDUCACAO 0,00 0,00 3.975,17 1.884,99 0,00 0,00 5.860,16 972,28 322,63 0,00 1.294,91 4.565,25 1.824,50 1.140,14 31/12/2015
188 302600 ANA LUCIA LOPES SANTOS OFICIAL DO MP ATIVO BELO HORIZONTE - COMARCA; PROCON-MG-SECRETARIA DE FISCALIZACOES 4.888,39 2.226,28 0,00 2.306,94 0,00 0,00 9.421,61 1.058,05 2.122,17 0,00 3.180,22 6.241,39 4.700,83 43.021,96 31/12/2015
189 493400 ANA LUISA NOGUEIRA MOREIRA ANALISTA DO MP ATIVO BELO HORIZONTE - COMARCA; TRIBUNAL DO JURI-07 PJ-02 TRIBUNAL 5.674,18 432,04 0,00 2.274,41 0,00 0,00 8.380,63 1.024,34 578,96 0,00 1.603,30 6.777,33 1.763,93 2.121,56 31/12/2015
190 389300 ANA LUISA REUTER LIMA ANALISTA DO MP ATIVO BELO HORIZONTE - COMARCA; DIRETORIA DE SISTEMAS DE INFORMACAO 5.616,58 720,07 0,00 2.019,85 2.640,27 0,00 10.996,77 1.078,60 1.359,69 0,00 2.438,29 8.558,48 1.763,93 2.362,12 31/12/2015
191 480600 ANA LUIZA FERNANDES FRAGA E GRECO OFICIAL DO MP ATIVO SANTO ANTÔNIO DO MONTE - COMARCA; SANTO ANTONIO DO MONTE-PJ-UNPJ 4.241,01 254,46 0,00 1.489,14 0,00 0,00 5.984,61 616,28 264,09 0,00 880,37 5.104,24 1.763,93 1.285,56 31/12/2015
192 517800 ANA LUIZA MAGALHAES CIRINO PIOTO DE MELO OFICIAL DO MP ATIVO BELO HORIZONTE - COMARCA; DIVISAO DE MANUTENCAO PREDIAL 3.557,16 213,43 0,00 3.207,26 0,00 0,00 6.977,85 517,29 148,57 0,00 665,86 6.311,99 1.763,93 1.080,86 31/12/2015
193 481400 ANA MARCIA CANDIDA FERREIRA OFICIAL DO MP ATIVO BRUMADINHO - COMARCA; BRUMADINHO-PJ-01PJ 3.916,07 234,96 0,00 1.419,54 1.383,68 0,00 6.954,25 569,76 527,12 0,00 1.096,88 5.857,37 1.763,93 1.198,79 31/12/2015
194 556400 ANA MARIA OLIVEIRA SOUZA OFICIAL DO MP ATIVO ITAPECERICA - COMARCA; ITAPECERICA-PJ-UNPJ 3.445,03 0,00 0,00 1.396,33 0,00 0,00 4.841,36 460,89 105,11 0,00 566,00 4.275,36 1.763,93 931,71 31/12/2015
195 409600 ANA OLIVIA FARIA ROSENBURG ANALISTA DO MP ATIVO BELO HORIZONTE - COMARCA; DIRETORIA DO COLEGIO E DA CAMARA DE PJ 8.727,00 1.745,40 0,00 2.390,48 3.490,80 0,00 16.353,68 1.417,33 2.653,73 0,00 4.071,06 12.282,62 1.763,93 2.833,25 31/12/2015
196 461500 ANA PAULA ALVES CARVALHO ANALISTA DO MP ATIVO UBERLÂNDIA - COMARCA; UBERLANDIA-PJ-08PJ 7.200,74 432,04 0,00 5.794,41 0,00 0,00 13.427,19 1.039,41 998,76 0,00 2.038,17 11.389,02 3.091,13 2.268,35 31/12/2015
197 523200 ANA PAULA ALVES DA SILVA OFICIAL DO MP ATIVO GOVERNADOR VALADARES - COMARCA; GOVERNADOR VALADARES-PJ-10PJ 4.241,01 254,46 0,00 1.489,14 0,00 0,00 5.984,61 611,97 264,09 0,00 876,06 5.108,55 1.763,93 1.328,33 31/12/2015
198 381200 ANA PAULA BARROS PEREIRA ANALISTA DO MP ATIVO BELO HORIZONTE - COMARCA; PROC JUST RECURSOS ESP E EXTRAORD CRIMINAIS 8.727,00 872,70 0,00 2.263,71 0,00 0,00 11.863,41 1.308,92 1.480,17 0,00 2.789,09 9.074,32 2.307,31 2.752,90 31/12/2015
199 227200 ANA PAULA DA SILVA CAMPOLINA ANALISTA DO MP ATIVO BELO HORIZONTE - COMARCA; SUPERINTENDENCIA DE FINANCAS 13.097,56 5.239,02 0,00 3.532,75 0,00 0,00 21.869,33 2.497,87 3.618,52 0,00 6.116,39 15.752,94 2.739,01 5.160,34 31/12/2015
200 84200 ANA PAULA DE SOUZA ROCHA OFICIAL DO MP ATIVO BELO HORIZONTE - COMARCA; ASSESS ESP ADM E FINANCEIRA DO PGJ ADJ ADM 22.988,40 11.494,20 0,00 5.399,56 0,00 0,00 39.882,16 3.351,82 6.484,17 4.011,49 13.847,48 26.034,68 1.763,93 0,00 31/12/2015
201 278500 ANA PAULA DIAS CAPANEMA COORDENADOR/OFICIAL ATIVO BELO HORIZONTE - COMARCA; EXTINTA - DIRETORIA DE MATERIAL E PATRIMONIO 0,00 2.184,20 10.921,00 3.150,65 4.368,40 0,00 20.624,25 1.265,26 4.358,68 0,00 5.623,94 15.000,31 2.505,74 6.187,63 31/12/2015
202 327300 ANA PAULA GARCIA MAXIMO OFICIAL DO MP ATIVO UNAÍ - COMARCA; UNAI-PJ-01PJ 4.759,75 1.929,63 0,00 2.240,31 0,00 0,00 8.929,69 1.139,91 560,87 0,00 1.700,78 7.228,91 2.237,24 2.391,24 31/12/2015
203 270000 ANA PAULA GOULART CRUZ DE MAGALHAES ANALISTA DO MP ATIVO BELO HORIZONTE - COMARCA; COMB CRIMES PRAT POR AG POL MUN-ASSESSORIA 6.848,42 1.802,22 0,00 2.439,99 0,00 0,00 11.090,63 1.471,92 1.182,46 0,00 2.654,38 8.436,25 1.763,93 2.995,82 31/12/2015
204 262100 ANA PAULA KOMATSUZAKI ABIJAUDI ANALISTA DO MP ATIVO BELO HORIZONTE - COMARCA; BH-17PJ PATRIMONIO PUBLICO-SECRETARIA 8.616,34 3.493,11 0,00 3.172,25 5.045,60 0,00 20.327,30 2.061,86 3.286,12 0,00 5.347,98 14.979,32 5.977,41 4.249,63 31/12/2015
205 278900 ANA PAULA MOREIRA GURGEL ANALISTA DO MP ATIVO BELO HORIZONTE - COMARCA; SUPERINTENDENCIA DE RECURSOS HUMANOS 11.643,70 3.493,11 0,00 3.067,98 5.045,60 0,00 23.250,39 2.050,71 4.222,91 0,00 6.273,62 16.976,77 2.593,72 4.167,76 31/12/2015
206 425701 ANA PAULA ROCHA ASSESSOR/ANALISTA ATIVO BELO HORIZONTE - COMARCA; SUPERINTENDENCIA DE COMUNICACAO INTEGRADA 0,00 0,00 6.641,51 2.849,23 0,00 0,00 9.490,74 617,01 801,57 0,00 1.418,58 8.072,16 1.650,43 485,74 31/12/2015
207 395601 ANA PAULA SALGE OLIVEIRA ANALISTA DO MP ATIVO UBERABA - COMARCA; COORD REG PP TRIANGULO MINEIRO UBERABA 6.641,51 1.328,30 0,00 2.026,97 2.656,60 0,00 12.653,38 1.088,92 1.811,82 0,00 2.900,74 9.752,64 2.215,04 2.276,31 31/12/2015
208 473200 ANA PAULA SCOTTON BRASIL ANALISTA DO MP ATIVO JUIZ DE FORA - COMARCA; JUIZ DE FORA-PJ-09PJ 5.674,18 432,04 0,00 1.978,02 0,00 0,00 8.084,24 1.050,25 578,96 0,00 1.629,21 6.455,03 2.023,16 2.234,79 31/12/2015
209 633600 ANA PAULA SILVA FERNANDES OFICIAL DO MP ATIVO CATAGUASES - COMARCA; CATAGUASES-PJ-04PJ 2.424,50 0,00 0,00 2.429,84 0,00 0,00 4.854,34 397,12 14,03 0,00 411,15 4.443,19 1.650,43 602,98 31/12/2015
210 470900 ANA PAULA VALADARES ANALISTA DO MP ATIVO PITANGUI - COMARCA; PITANGUI-PJ-01PJ 5.674,18 432,04 0,00 2.949,35 0,00 0,00 9.055,57 1.039,86 474,68 0,00 1.514,54 7.541,03 4.577,98 2.148,88 31/12/2015
211 447000 ANA PAULA VALENTIM DE ARAUJO ANALISTA DO MP ATIVO BELO HORIZONTE - COMARCA; COMB CRIMES PRAT POR AG POL MUN-SECRETARIA 5.799,48 743,52 0,00 2.057,32 0,00 0,00 8.600,32 1.124,13 682,56 0,00 1.806,69 6.793,63 1.949,11 2.392,85 31/12/2015
212 604200 ANA PAULA VIANA E SILVA OFICIAL DO MP ATIVO BELO HORIZONTE - COMARCA; BH-17PJ PATRIMONIO PUBLICO-SECRETARIA 3.445,03 0,00 0,00 1.480,49 1.148,34 0,00 6.073,86 467,84 312,11 0,00 779,95 5.293,91 4.288,30 927,09 31/12/2015
213 505400 ANA PAULA VIEIRA SOUTO OFICIAL DO MP ATIVO ALMENARA - COMARCA; COORD. PAT. PUBLICO-MUCURI/JEQUIT - ALMENARA 2.703,44 711,43 0,00 1.806,21 1.422,86 0,00 6.643,94 581,65 304,06 0,00 885,71 5.758,23 5.022,75 1.285,05 31/12/2015
214 280200 ANA RACHEL BRANDAO LADEIRA ROLAND COORDENADOR/ANALISTA ATIVO BELO HORIZONTE - COMARCA; ASSESSORIA JURIDICO-ADMINISTRATIVA 0,00 2.831,04 14.155,19 12.172,19 5.662,08 0,00 34.820,50 1.840,66 4.974,99 0,00 6.815,65 28.004,85 1.763,93 4.736,62 31/12/2015
215 601200 ANA REGINA RIBEIRO ANALISTA DO MP ATIVO BELO HORIZONTE - COMARCA; EXTINTA - DIVISAO DE SERVICOS GERAIS 4.660,21 0,00 0,00 1.980,67 0,00 0,00 6.640,88 655,57 293,10 0,00 948,67 5.692,21 1.763,93 1.408,14 31/12/2015
216 384700 ANA RODRIGUES PEREIRA MARRA ANALISTA DO MP ATIVO COROMANDEL - COMARCA; COROMANDEL-PJ-SECRETARIA 6.973,67 697,37 0,00 2.035,72 2.557,01 0,00 12.263,77 1.044,19 1.659,17 0,00 2.703,36 9.560,41 1.763,93 2.152,28 31/12/2015
217 232700 ANA SILVIA SEMBLANO NAKAMURA ASSESSOR/OFICIAL ATIVO BELO HORIZONTE - COMARCA; CENT DE APOIO TEC-SETOR DEF,IDOSO E INFANC 0,00 1.690,36 8.451,80 3.755,44 3.380,72 0,00 17.278,32 1.247,87 3.109,11 0,00 4.356,98 12.921,34 2.251,47 48.037,13 31/12/2015
218 326700 ANA TERCIA DE FATIMA COSTA OFICIAL DO MP ATIVO NOVA SERRANA - COMARCA; NOVA SERRANA-PJ-01PJ 4.888,39 1.286,42 0,00 1.809,12 2.572,84 849,04 11.405,81 1.029,85 1.484,11 0,00 2.513,96 8.891,85 1.763,93 3.128,67 31/12/2015
219 602100 ANACLETO FRANCISCO MARCIER PIMENTA OFICIAL DO MP ATIVO SÃO JOÃO DEL REI - COMARCA; SAO JOAO DEL REI-PJ-01PJ 3.129,28 0,00 0,00 2.761,64 1.043,09 0,00 6.934,01 425,23 134,11 0,00 559,34 6.374,67 9.144,93 849,68 31/12/2015
220 310400 ANADEJE DO CARMO DINIZ ARAUJO OFICIAL DO MP ATIVO BELO HORIZONTE - COMARCA; CENT DE ATENDIMENTO E ORIENTACAO DE PESSOAL 4.888,39 1.286,42 0,00 1.990,47 2.572,84 0,00 10.738,12 1.045,66 1.302,76 0,00 2.348,42 8.389,70 1.933,18 2.131,80 31/12/2015
221 337000 ANAILDES MARIA MENDES OFICIAL DO MP ATIVO JANAÚBA - COMARCA; JANAUBA-PJ-02PJ 4.033,53 2.001,32 0,00 5.830,53 0,00 0,00 11.865,38 849,97 597,57 0,00 1.447,54 10.417,84 5.968,93 1.917,34 31/12/2015
222 192900 ANATALIA CERQUEIRA LIMA PERES OFICIAL DO MP ATIVO UBERABA - COMARCA; COORD REG SAUDE MACROR SANIT TRIANGULO SUL 6.254,33 2.535,54 0,00 3.126,04 0,00 0,00 11.915,91 1.461,69 1.215,49 0,00 2.677,18 9.238,73 2.311,05 2.702,45 31/12/2015
223 377400 ANDEIRSON DA MATTA BARBOSA ANALISTA DO MP ATIVO POUSO ALEGRE - COMARCA; POUSO ALEGRE-PJ-01PJ 7.677,29 767,73 0,00 2.096,00 0,00 0,00 10.541,02 1.148,59 1.197,56 0,00 2.346,15 8.194,87 2.050,74 2.352,33 31/12/2015
224 317400 ANDERSON DA SILVA BICALHO OFICIAL DO MP ATIVO CONTAGEM - COMARCA; COORD REG DEF ORDEM ECONOMICA TRIB CONTAGEM 5.842,66 584,27 0,00 2.586,37 2.142,31 0,00 11.155,61 869,99 1.136,36 0,00 2.006,35 9.149,26 9.144,93 1.739,86 31/12/2015
225 506900 ANDERSON DE SOUZA DAMIANI ANALISTA DO MP ATIVO BELO HORIZONTE - COMARCA; DIRETORIA DE PAGAMENTO DE PESSOAL-DPAG 4.585,03 1.206,59 0,00 2.025,17 0,00 0,00 7.816,79 986,52 402,49 0,00 1.389,01 6.427,78 6.775,71 2.044,61 31/12/2015
226 410000 ANDERSON DE SOUZA NETO ASSESSOR ATIVO BELO HORIZONTE - COMARCA; DIRETORIA DE ADMINISTRACAO FINANCEIRA 0,00 0,00 4.175,17 1.884,99 1.391,72 0,00 7.451,88 972,28 740,18 0,00 1.712,46 5.739,42 2.000,26 1.183,35 31/12/2015
227 181900 ANDERSON FLAVIO DE OLIVEIRA OFICIAL DO MP ATIVO ITAGUARA - COMARCA; ITAGUARA-PJ-SECRETARIA 8.727,00 2.618,10 0,00 2.517,24 0,00 0,00 13.862,34 1.534,81 1.907,35 0,00 3.442,16 10.420,18 1.763,93 3.243,63 31/12/2015
228 119500 ANDERSON FUNGHI DE AZEVEDO ROCHA DIRETOR/OFICIAL ATIVO BELO HORIZONTE - COMARCA; SUPRIN DE PLANEJAMENTO E COORDENACAO 0,00 11.324,16 14.155,19 5.087,73 0,00 0,00 30.567,08 2.903,09 5.419,18 0,00 8.322,27 22.244,81 2.495,24 7.246,04 31/12/2015
229 333200 ANDERSON JOSE DE FREITAS OFICIAL DO MP ATIVO IPATINGA - COMARCA; IPATINGA-PJ-07PJ 4.888,39 2.226,28 0,00 2.359,07 0,00 0,00 9.473,74 1.024,86 749,41 0,00 1.774,27 7.699,47 3.586,93 2.167,36 31/12/2015
230 462100 ANDERSON LUIZ GUIMARAES CARDOSO ANALISTA DO MP ATIVO BARBACENA - COMARCA; BARBACENA-PJ-02PJ 5.674,18 432,04 0,00 2.897,21 2.544,26 0,00 11.547,69 1.038,95 1.278,63 0,00 2.317,58 9.230,11 1.763,93 2.111,29 31/12/2015
231 429700 ANDERSON MELO DE SOUZA OFICIAL DO MP ATIVO BELO HORIZONTE - COMARCA; DIRET DE ESTAGIOS E CONVENIOS ACADEMICOS 3.897,36 437,91 0,00 1.550,14 0,00 0,00 5.885,41 647,18 220,09 0,00 867,27 5.018,14 2.007,70 1.367,90 31/12/2015
232 545600 ANDERSON MENDES PROCOPIO FERREIRA ANALISTA DO MP ATIVO BELO HORIZONTE - COMARCA; BH-12PJ JUIZO CRIMINAL-GAB 089PJ 5.842,66 0,00 0,00 2.319,68 0,00 0,00 8.162,34 781,53 560,63 0,00 1.342,16 6.820,18 1.763,93 1.577,86 31/12/2015
233 519900 ANDERSON MOREIRA DOEHLER ANALISTA DO MP ATIVO NOVO CRUZEIRO - COMARCA; NOVO CRUZEIRO-PJ-UNPJ 6.032,93 1.206,59 0,00 1.920,90 0,00 0,00 9.160,42 992,55 902,51 0,00 1.895,06 7.265,36 1.763,93 2.225,48 31/12/2015
234 103000 ANDERSON TADEU DE DEUS ASSESSOR ATIVO BELO HORIZONTE - COMARCA; EXTINTA - DIVISAO DE TRANSPORTES 0,00 2.087,58 4.175,17 2.419,55 2.087,58 0,00 10.769,88 1.026,02 1.505,63 0,00 2.531,65 8.238,23 1.766,79 1.812,05 31/12/2015
235 309200 ANDITYAS SOARES DE MOURA COSTA MATOS ANALISTA DO MP ATIVO BELO HORIZONTE - COMARCA; GABINETE DE PROCURADOR DE JUSTIÇA - SALA 909 9.011,08 1.802,22 0,00 2.439,99 0,00 0,00 13.253,29 1.472,24 1.777,20 0,00 3.249,44 10.003,85 1.763,93 3.002,30 31/12/2015
236 613500 ANDRE AZEVEDO SOUSA ANALISTA DO MP ATIVO BELO HORIZONTE - COMARCA; CAO-CRIANCAS E ADOLESCENTES 5.307,28 0,00 0,00 4.339,48 0,00 0,00 9.646,76 713,32 384,00 0,00 1.097,32 8.549,44 1.763,93 1.433,21 31/12/2015
237 519200 ANDRE BORJA LANA ANALISTA DO MP ATIVO BELO HORIZONTE - COMARCA; DIRETORIA DE IMPRENSA 5.233,51 398,49 0,00 1.891,92 0,00 0,00 7.523,92 1.006,30 466,48 0,00 1.472,78 6.051,14 1.763,93 2.550,60 31/12/2015
238 637200 ANDRE FERNANDES DA CUNHA OFICIAL DO MP ATIVO MORADA NOVA DE MINAS - COMARCA; MORADA NOVA DE MINAS-PJ-UNPJ 3.030,62 0,00 0,00 1.342,67 0,00 0,00 4.373,29 369,68 59,49 0,00 429,17 3.944,12 1.474,61 342,42 31/12/2015
239 521900 ANDRE LUIS GOMES SILVA ANALISTA DO MP ATIVO FORMIGA - COMARCA; FORMIGA-PJ-01PJ 5.233,51 398,49 0,00 2.732,03 0,00 0,00 8.364,03 957,89 164,29 0,00 1.122,18 7.241,85 1.763,93 1.935,38 31/12/2015
240 637300 ANDRE LUIS TOLENTINO MOURA ANALISTA DO MP ATIVO VARZEA DA PALMA - COMARCA; VARZEA DA PALMA-PJ-02PJ 4.668,87 0,00 0,00 3.003,79 0,00 0,00 7.672,66 553,80 298,81 0,00 852,61 6.820,05 1.423,43 378,41 31/12/2015
241 304300 ANDRE LUIZ AVELAR ANALISTA DO MP ATIVO BELO HORIZONTE - COMARCA; DIRETORIA DE REDES E BANCOS DE DADOS 5.211,92 1.371,56 0,00 2.064,67 2.743,12 0,00 11.391,27 1.121,35 1.446,52 0,00 2.567,87 8.823,40 1.987,52 2.325,45 31/12/2015
242 397400 ANDRE PATARO MYRRHA DE PAULA E SILVA ANALISTA DO MP ATIVO BELO HORIZONTE - COMARCA; ASSESSORIA JURIDICO-ADMINISTRATIVA 8.727,00 872,70 0,00 3.531,79 3.199,90 0,00 16.331,39 1.308,62 2.360,14 0,00 3.668,76 12.662,63 7.306,31 2.727,32 31/12/2015
243 548500 ANDRE VINICIUS CARVALHO MEIRA ANALISTA DO MP ATIVO JUIZ DE FORA - COMARCA; JUIZ DE FORA-PJ-25PJ 5.307,28 0,00 0,00 1.640,24 0,00 0,00 6.947,52 710,17 429,60 0,00 1.139,77 5.807,75 1.763,93 1.353,21 31/12/2015
244 297200 ANDRE WILLE ROSARIO ANALISTA DO MP ATIVO BELO HORIZONTE - COMARCA; ASSESSORIA ESPECIAL DO PGJ 10.576,63 2.115,33 0,00 2.869,28 4.230,65 0,00 19.791,89 1.733,28 3.244,01 0,00 4.977,29 14.814,60 7.481,35 3.613,60 31/12/2015
245 423600 ANDREA COSTA GUALBERTO ANALISTA DO MP ATIVO GOVERNADOR VALADARES - COMARCA; COORD REG PJ DEF EDU DIR CRIANCA ADOL RIODOCE 5.916,26 4.225,90 0,00 3.525,35 4.225,90 0,00 17.893,41 1.697,12 2.646,22 0,00 4.343,34 13.550,07 4.476,76 3.205,81 31/12/2015
246 198600 ANDREA CRISTINA ANDRADE COSTA E SOUZA OFICIAL DO MP ATIVO MONTES CLAROS - COMARCA; MONTES CLAROS-PJ-SECRETARIA 9.920,24 2.976,07 0,00 2.846,82 4.298,77 0,00 20.041,90 1.756,56 3.364,90 0,00 5.121,46 14.920,44 2.493,91 3.618,72 31/12/2015
247 467300 ANDREA DE CASSIA PENNA ALVERNAZ ANALISTA DO MP ATIVO PONTE NOVA - COMARCA; PONTE NOVA-PJ-01PJ 5.674,18 432,04 0,00 2.030,16 2.544,26 0,00 10.680,64 1.039,21 1.226,49 0,00 2.265,70 8.414,94 4.145,93 2.261,23 31/12/2015
248 308000 ANDREA DE CASSIA SANTOS OLIVEIRA ANALISTA DO MP ATIVO BELO HORIZONTE - COMARCA; ASSESS TECNICO-JUR JUNTO AS PROC. DE JUST 8.038,24 2.115,33 0,00 2.765,00 4.230,65 0,00 17.149,22 1.720,31 2.650,23 0,00 4.370,54 12.778,68 12.457,70 3.539,28 31/12/2015
249 349500 ANDREA DE OLIVEIRA OFICIAL DO MP ATIVO IGUATAMA - COMARCA; IGUATAMA-PJ-UNPJ 6.032,93 603,29 0,00 1.885,41 0,00 0,00 8.521,63 904,17 702,72 0,00 1.606,89 6.914,74 1.763,93 1.999,48 31/12/2015
250 254700 ANDREA EMISE REIS DE AZEVEDO COORDENADOR/OFICIAL ATIVO BELO HORIZONTE - COMARCA; COMB CRIMES PRAT POR AG POL MUN-SECRETARIA 0,00 1.921,48 9.607,41 2.795,98 0,00 0,00 14.324,87 1.223,50 2.047,94 0,00 3.271,44 11.053,43 1.763,93 3.491,87 31/12/2015
251 287900 ANDREA FERNANDES PENA OFICIAL DO MP ATIVO MONTES CLAROS - COMARCA; MONTES CLAROS-PJ-09PJ 6.973,67 1.394,73 0,00 2.189,15 2.789,47 0,00 13.347,02 1.139,81 1.841,64 0,00 2.981,45 10.365,57 2.237,61 2.345,14 31/12/2015
252 300800 ANDREA FERREIRA ANALISTA DO MP ATIVO LAVRAS - COMARCA; LAVRAS-PJ-04PJ 10.243,18 2.048,64 0,00 8.800,66 0,00 0,00 21.092,48 1.664,07 2.139,06 0,00 3.803,13 17.289,35 1.799,61 3.352,11 31/12/2015
253 316700 ANDREA FRANCISCA DIAS DE SOUZA ASSESSOR ATIVO BELO HORIZONTE - COMARCA; BH-14PJ DEFESA CONSUMIDOR-GAB 110PJ 0,00 0,00 2.500,62 1.309,60 0,00 0,00 3.810,22 794,25 76,02 0,00 870,27 2.939,95 3.402,77 699,39 31/12/2015
254 395100 ANDREA LANNA MENDES NOVAIS ANALISTA DO MP ATIVO BELO HORIZONTE - COMARCA; PROMOT ESTADUAL DE DEF PATRI CULT E TUR DE MG 7.689,45 901,11 0,00 7.317,34 3.304,06 0,00 19.211,96 1.341,57 2.049,68 0,00 3.391,25 15.820,71 9.144,93 2.685,64 31/12/2015
255 67300 ANDREA LEAO MAGALHAES ROQUE ASSESSOR ATIVO BELO HORIZONTE - COMARCA; COORD DE CONT. DA CONSTITUCIONALIDADE-SEC 0,00 4.225,90 8.451,80 3.967,19 4.225,90 0,00 20.870,79 1.026,02 3.753,50 0,00 4.779,52 16.091,27 1.763,93 3.544,60 31/12/2015
256 335700 ANDREA LOPES PEREIRA ANALISTA DO MP ATIVO GOVERNADOR VALADARES - COMARCA; COORD REG DO MA DA BACIA DO RIO DOCE 7.784,82 2.048,64 0,00 2.654,75 0,00 0,00 12.488,21 1.647,82 1.463,01 0,00 3.110,83 9.377,38 1.763,93 3.405,94 31/12/2015
257 389200 ANDREA TUPINI DOS SANTOS TRISTAO DA ROCHA OFICIAL DO MP ATIVO BELO HORIZONTE - COMARCA; BH-13ª PJ JUÍZO DE TÓXICOS-SECRETARIA 4.379,06 437,91 0,00 1.592,80 0,00 0,00 6.409,77 656,36 285,81 0,00 942,17 5.467,60 1.763,93 1.360,50 31/12/2015
258 419000 ANDREIA BARBOSA DE ALMEIDA ANALISTA DO MP ATIVO BELO HORIZONTE - COMARCA; GABINETE DE PROCURADOR DE JUSTIÇA - SALA 705 8.451,80 845,18 0,00 2.366,33 3.098,99 0,00 14.762,30 1.274,69 2.258,30 0,00 3.532,99 11.229,31 6.081,58 2.715,39 31/12/2015
259 281501 ANDREIA CARLA COSTA FILGUEIRAS ANALISTA DO MP ATIVO VISCONDE DO RIO BRANCO - COMARCA; VISCONDE DO RIO BRANCO-PJ-02PJ 6.807,06 872,70 0,00 2.367,99 3.199,90 0,00 13.247,65 1.301,06 1.727,88 0,00 3.028,94 10.218,71 2.290,18 2.679,14 31/12/2015
260 477100 ANDREIA DE ALMEIDA RIBEIRO MELO OFICIAL DO MP ATIVO CONTAGEM - COMARCA; CONTAGEM-PJ-07PJ 3.341,92 254,46 0,00 1.489,14 0,00 0,00 5.085,52 618,42 110,48 0,00 728,90 4.356,62 6.762,93 1.304,84 31/12/2015
261 619000 ANDREIA FERREIRA NORONHA OFICIAL DO MP ATIVO BELO HORIZONTE - COMARCA; DIRETORIA DE SERVICO CRIMINAL 3.445,03 0,00 0,00 1.292,78 0,00 0,00 4.737,81 464,51 105,11 0,00 569,62 4.168,19 1.763,93 867,44 31/12/2015
262 424000 ANDREIA LUCIA COUTO ANALISTA DO MP ATIVO BELO HORIZONTE - COMARCA; BH-18PJ DIREITOS HUMANOS 6.807,06 872,70 0,00 2.263,71 0,00 0,00 9.943,47 1.298,80 952,18 0,00 2.250,98 7.692,49 4.145,93 2.577,93 31/12/2015
263 370100 ANDREIA MARIA SILVA PINTO OFICIAL DO MP ATIVO CORONEL FABRICIANO - COMARCA; CORONEL FABRICIANO-PJ-01PJ 4.705,69 603,29 0,00 1.833,27 0,00 0,00 7.142,25 904,31 394,15 0,00 1.298,46 5.843,79 2.139,57 1.877,68 31/12/2015
264 382100 ANDREIA NATALI PEREIRA OFICIAL DO MP ATIVO PRADOS - COMARCA; PRADOS-PJ-UNPJ 5.811,72 603,29 0,00 1.833,27 0,00 0,00 8.248,28 887,89 694,02 0,00 1.581,91 6.666,37 1.763,93 1.687,68 31/12/2015
265 275200 ANDREIA RIBEIRO FREITAS OFICIAL DO MP ATIVO VIÇOSA - COMARCA; VICOSA-PJ-03PJ 5.299,99 1.394,73 0,00 2.137,01 0,00 0,00 8.831,73 1.136,48 666,41 0,00 1.802,89 7.028,84 6.986,52 2.316,25 31/12/2015
266 352200 ANDREIA XAVIER PEREIRA OFICIAL DO MP ATIVO CLÁUDIO - COMARCA; CLAUDIO-PJ-UNPJ 6.032,93 603,29 0,00 1.833,27 0,00 0,00 8.469,49 903,65 754,86 0,00 1.658,51 6.810,98 1.763,93 1.848,08 31/12/2015
267 638500 ANDRESA ALVES FEITOSA CASAGRANDE ANALISTA DO MP ATIVO PERDÕES - COMARCA; PERDOES-PJ-UNPJ 5.139,92 0,00 0,00 2.168,88 0,00 0,00 7.308,80 565,39 393,14 0,00 958,53 6.350,27 4.237,71 0,00 31/12/2015
268 383700 ANDRESSA EDUARDO SOUZA ANALISTA DO MP ATIVO OURO BRANCO - COMARCA; OURO BRANCO-PJ-SECRETARIA 8.727,00 872,70 0,00 3.531,79 0,00 0,00 13.131,49 1.307,06 1.480,17 0,00 2.787,23 10.344,26 6.762,93 2.855,04 31/12/2015
269 426200 ANDRESSA MENDES CASAL ASSESSOR/OFICIAL ATIVO BELO HORIZONTE - COMARCA; BH-12PJ JUIZO CRIMINAL-SECRETARIA 0,00 664,15 6.641,51 2.871,53 0,00 0,00 10.177,19 781,09 977,62 0,00 1.758,71 8.418,48 1.763,93 2.196,39 31/12/2015
270 390100 ANDRESSA RIBEIRO PUCCI OFICIAL DO MP ATIVO UBERABA - COMARCA; UBERABA-PJ-14PJ 4.009,14 513,99 0,00 2.316,31 0,00 0,00 6.839,44 764,56 241,64 0,00 1.006,20 5.833,24 2.073,87 1.535,24 31/12/2015
271 462500 ANDREZA APARECIDA COSTA E SILVA ANALISTA DO MP ATIVO CONSELHEIRO LAFAIETE - COMARCA; CONSELHEIRO LAFAIETE-PJ-02PJ 7.200,74 432,04 0,00 1.978,02 0,00 0,00 9.610,80 1.039,05 998,76 0,00 2.037,81 7.572,99 1.763,93 2.258,33 31/12/2015
272 537800 ANDREZZA LUZIA DE OLIVEIRA ALVES ANALISTA DO MP ATIVO PATOS DE MINAS - COMARCA; COORD REG PJ DEF EDU DIR CRI ADO AL PAR NOROE 5.842,66 0,00 0,00 1.822,28 1.947,55 0,00 9.612,49 791,44 991,93 0,00 1.783,37 7.829,12 1.763,93 1.562,63 31/12/2015
273 491600 ANE PATRICIA RIBEIRO ANALISTA DO MP ATIVO SETE LAGOAS - COMARCA; SETE LAGOAS-PJ-10PJ 5.674,18 432,04 0,00 3.114,52 0,00 0,00 9.220,74 1.023,93 526,82 0,00 1.550,75 7.669,99 6.762,93 1.964,85 31/12/2015
274 465800 ANELISE GAMA ASSESSOR ATIVO BELO HORIZONTE - COMARCA; BH-18PJ VIOLENCIA DOMESTICA-SECRETARIA 0,00 0,00 4.175,17 2.215,93 0,00 0,00 6.391,10 972,28 367,63 0,00 1.339,91 5.051,19 1.905,73 1.179,03 31/12/2015
275 535200 ANELIZE FERNANDA ALVES VILARINHO OFICIAL DO MP ATIVO CAPINÓPOLIS - COMARCA; CAPINOPOLIS-PJ-UNPJ 2.756,02 0,00 0,00 1.480,49 1.148,34 0,00 5.384,85 468,24 174,01 0,00 642,25 4.742,60 1.763,93 1.018,95 31/12/2015
276 197200 ANGELA COELHO SALDANHA OFICIAL DO MP ATIVO PARÁ DE MINAS - COMARCA; PARA DE MINAS-PJ-03PJ 7.579,95 3.072,95 0,00 2.803,53 0,00 0,00 13.456,43 1.818,04 1.657,38 0,00 3.475,42 9.981,01 2.493,91 3.815,08 31/12/2015
277 307400 ANGELA CRISTINA GONCALVES MUNIZ ANALISTA DO MP ATIVO UBERLÂNDIA - COMARCA; UBERLANDIA-PJ-SEC FAMILIA 10.576,63 3.172,99 0,00 2.918,63 4.583,21 0,00 21.251,46 1.865,29 3.704,10 0,00 5.569,39 15.682,07 8.830,97 3.748,77 31/12/2015
278 191800 ANGELA MARIA DE OLIVEIRA OFICIAL DO MP ATIVO GUARANÉSIA - COMARCA; GUARANESIA-PJ-SECRETARIA 10.243,18 4.097,27 0,00 3.004,44 0,00 0,00 17.344,89 1.942,89 2.588,33 0,00 4.531,22 12.813,67 1.763,93 4.215,55 31/12/2015
279 69900 ANGELA MARIA DE PAULA CUNHA OFICIAL DO MP ATIVO JUIZ DE FORA - COMARCA; JUIZ DE FORA-PJ-11PJ 10.576,63 7.403,64 0,00 3.480,99 5.993,42 0,00 27.454,68 2.447,52 5.179,50 0,00 7.627,02 19.827,66 2.739,01 5.075,93 31/12/2015
280 497400 ANGELA MARIA HENRIQUES ANALISTA DO MP ATIVO BELO HORIZONTE - COMARCA; COORD REG BACIAS RIO VELHAS E PARAOPEBA 6.032,93 361,98 0,00 1.798,22 0,00 0,00 8.193,13 870,57 695,79 0,00 1.566,36 6.626,77 11.761,93 1.774,73 31/12/2015
281 260700 ANGELICA CRISTINA AZEVEDO MOREIRA MOUCO OFICIAL DO MP ATIVO UBÁ - COMARCA; UBA-PJ-02PJ 5.472,56 1.440,15 0,00 2.176,58 0,00 0,00 9.089,29 1.177,41 718,11 0,00 1.895,52 7.193,77 4.635,04 2.601,62 31/12/2015
282 334600 ANGELICA PANISSA DE FREITAS OFICIAL DO MP ATIVO GUAXUPÉ - COMARCA; GUAXUPE-PJ-02PJ 6.432,09 1.286,42 0,00 1.990,47 0,00 0,00 9.708,98 1.051,19 1.019,74 0,00 2.070,93 7.638,05 2.200,83 2.161,83 31/12/2015
283 521100 ANGELICA SALES MOREIRA OFICIAL DO MP ATIVO BELO HORIZONTE - COMARCA; BH-02PJ FAMILIA-SECRETARIA 3.085,86 234,96 0,00 1.419,54 0,00 0,00 4.740,36 564,83 74,83 0,00 639,66 4.100,70 1.763,93 1.142,24 31/12/2015
284 466500 ANGELLO MARQUES AGRELLI ANALISTA DO MP ATIVO MAR DE ESPANHA - COMARCA; MAR DE ESPANHA-PJ-UNPJ 7.200,74 432,04 0,00 1.978,02 0,00 0,00 9.610,80 1.039,59 998,76 0,00 2.038,35 7.572,45 1.891,93 2.284,73 31/12/2015
285 363300 ANGELO VERDOLIN HENRIQUES ANALISTA DO MP ATIVO SETE LAGOAS - COMARCA; SETE LAGOAS-PJ-04PJ 9.920,24 2.976,07 0,00 4.595,36 4.298,77 0,00 21.790,44 1.756,85 3.469,17 0,00 5.226,02 16.564,42 6.925,55 3.636,94 31/12/2015
286 250900 ANISIO APARECIDO SANTOS OFICIAL DO MP ATIVO CONTAGEM - COMARCA; CONTAGEM-PJ-19PJ 4.977,82 1.493,35 0,00 2.296,91 2.157,06 0,00 10.925,14 887,82 538,54 0,00 1.426,36 9.498,78 2.130,22 1.883,51 31/12/2015
287 253400 ANNA FLAVIA LEHMAN BATTAGLIA ASSESSOR ESPECIAL ATIVO BELO HORIZONTE - COMARCA; GABINETE DO PROCURADOR-GERAL DE JUSTICA 20.076,03 4.015,21 0,00 5.332,00 8.030,41 0,00 37.453,65 2.171,02 7.385,02 0,00 9.556,04 27.897,61 2.739,01 6.868,00 31/12/2015
288 447600 ANNGELUCE ALCANTARA DE CAMPOS OFICIAL DO MP ATIVO DIVINÓPOLIS - COMARCA; DIVINOPOLIS-PJ-10PJ 3.153,99 404,36 0,00 1.480,13 1.482,65 0,00 6.521,13 607,71 388,01 0,00 995,72 5.525,41 2.015,70 1.269,23 31/12/2015
289 119600 ANSELMO BORGES PARREIRAS OFICIAL DO MP ATIVO BONFIM - COMARCA; BONFIM-PJ-UNPJ 5.658,41 3.960,88 0,00 2.318,70 3.206,43 0,00 15.144,42 1.310,38 2.314,59 0,00 3.624,97 11.519,45 1.763,93 2.702,99 31/12/2015
290 630300 ANTONIA GOMES RAMALHO OFICIAL DO MP ATIVO NOVO CRUZEIRO - COMARCA; NOVO CRUZEIRO-PJ-UNPJ 3.336,37 0,00 0,00 1.439,38 0,00 0,00 4.775,75 456,35 90,61 0,00 546,96 4.228,79 1.763,93 873,40 31/12/2015
291 332400 ANTONIA MARIA MAMEDE OFICIAL DO MP ATIVO UBERLÂNDIA - COMARCA; COORD REG PP TRIANGULO MINEIRO UBERLANDIA 6.375,85 1.328,30 0,00 3.005,94 0,00 0,00 10.710,09 1.051,34 1.008,19 0,00 2.059,53 8.650,56 2.007,70 2.020,74 31/12/2015
292 401600 ANTONIO CARLOS GUEDES AROUCA ANALISTA DO MP ATIVO BELO HORIZONTE - COMARCA; EXTINTA - CAO-IDOSOS PESSOAS DEFIC-SEC ADM 7.447,04 872,70 0,00 2.415,07 0,00 0,00 10.734,81 1.299,28 1.128,18 0,00 2.427,46 8.307,35 1.763,93 2.591,49 31/12/2015
293 7100 ANTONIO DO NASCIMENTO OLIVEIRA ASSESSOR ATIVO BELO HORIZONTE - COMARCA; GAECO - SECRETARIA 0,00 2.250,56 2.500,62 2.058,13 0,00 0,00 6.809,31 1.026,02 175,94 0,00 1.201,96 5.607,35 799,00 1.419,99 31/12/2015
294 333900 ANTONIO GONCALVES DE SOUZA FILHO OFICIAL DO MP ATIVO BELO HORIZONTE - COMARCA; DIVISAO DE MEMORIA INSTITUCIONAL 6.032,93 1.206,59 0,00 1.920,90 0,00 0,00 9.160,42 970,64 902,51 0,00 1.873,15 7.287,27 2.139,57 1.873,44 31/12/2015
295 176100 ANTONIO MARCELO CAMPOS CAMPANELLA OFICIAL DO MP ATIVO BELO HORIZONTE - COMARCA; SUPERINTENDENCIA DE RECURSOS HUMANOS 10.243,18 4.097,27 0,00 2.952,30 0,00 0,00 17.292,75 1.916,21 2.640,47 0,00 4.556,68 12.736,07 6.762,93 3.645,82 31/12/2015
296 321001 ANTONIO OLINTO VIEIRA MACHADO ANALISTA DO MP ATIVO BELO HORIZONTE - COMARCA; CENTRAL DE APOIO TECN-SETOR DE MEIO AMBIENTE 9.011,08 901,11 0,00 2.465,51 0,00 0,00 12.377,70 1.342,39 1.400,24 0,00 2.742,63 9.635,07 2.089,96 2.712,22 31/12/2015
297 356200 ANTONIO PAULA DA SILVA OFICIAL DO MP ATIVO JUIZ DE FORA - COMARCA; JUIZ DE FORA-PJ-20PJ 4.440,42 1.168,53 0,00 1.887,73 0,00 0,00 7.496,68 949,17 461,01 0,00 1.410,18 6.086,50 1.763,93 2.030,46 31/12/2015
298 119900 ANTONIO RODRIGUES DE PINHO OFICIAL DO MP ATIVO GUANHÃES - COMARCA; GUANHAES-PJ-01PJ 8.432,20 4.960,12 0,00 10.523,05 0,00 0,00 23.915,37 2.036,53 2.206,99 0,00 4.243,52 19.671,85 2.495,24 4.267,93 31/12/2015
299 373300 ANTONIO SERGIO ANANIAS OFICIAL DO MP ATIVO AIURUOCA - COMARCA; AIURUOCA-PJ-UNPJ 5.307,28 530,73 0,00 1.821,60 1.946,00 0,00 9.605,61 795,11 990,37 0,00 1.785,48 7.820,13 1.763,93 1.637,10 31/12/2015
300 608100 ANTONIO SIDINEY VIEIRA LEMOS ANALISTA DO MP ATIVO PIRAPORA - COMARCA; PIRAPORA-PJ-01PJ 5.307,28 1.592,18 0,00 1.871,51 2.299,82 0,00 11.070,79 941,37 1.451,73 0,00 2.393,10 8.677,69 2.154,47 2.051,78 31/12/2015
301 374700 ANTONIO SILVA NETO OFICIAL DO MP ATIVO BELO HORIZONTE - COMARCA; GAECO - SECRETARIA 4.274,44 548,01 0,00 1.744,93 0,00 0,00 6.567,38 820,90 299,73 0,00 1.120,63 5.446,75 1.763,93 1.793,57 31/12/2015
302 636700 ANTONIUS VITORIANO FERNANDES OFICIAL DO MP ATIVO BELO HORIZONTE - COMARCA; PROCON-MG 3.030,62 0,00 0,00 2.236,15 0,00 0,00 5.266,77 379,24 45,27 0,00 424,51 4.842,26 1.536,93 432,80 31/12/2015
303 413200 ANY PEREIRA SILVA ANALISTA DO MP ATIVO TRÊS PONTAS - COMARCA; TRES PONTAS-PJ-01PJ 8.185,27 818,53 0,00 2.281,43 3.001,27 0,00 14.286,50 1.285,94 2.055,39 0,00 3.341,33 10.945,17 2.273,58 3.121,21 31/12/2015
304 151401 APARECIDA DE FATIMA MENDES DE ALMEIDA ASSESSOR ATIVO JUIZ DE FORA - COMARCA; JUIZ DE FORA-PJ-SECRETARIA 0,00 0,00 4.175,17 1.884,99 1.391,72 0,00 7.451,88 972,28 740,18 0,00 1.712,46 5.739,42 2.000,26 1.183,35 31/12/2015
305 329300 APARECIDA MARIA MELO DE ASSIS OFICIAL DO MP ATIVO BELO HORIZONTE - COMARCA; BH-18PJ DIREITOS HUMANOS-SECRETARIA 4.888,39 1.286,42 0,00 1.990,47 0,00 0,00 8.165,28 1.034,38 595,23 0,00 1.629,61 6.535,67 1.763,93 1.979,37 31/12/2015
306 475300 APARECIDA MARLENE FREIRE ROSA ANALISTA DO MP ATIVO BELO HORIZONTE - COMARCA; BH-02PJ FAMILIA-SECRETARIA 4.608,47 5.760,59 0,00 2.359,90 0,00 1.425,75 14.154,71 1.784,27 1.982,13 0,00 3.766,40 10.388,31 1.763,93 5.842,14 31/12/2015
307 240300 APARECIDA PEREIRA DO NASCIMENTO OFICIAL DO MP ATIVO ITURAMA - COMARCA; ITURAMA-PJ-01PJ 8.451,80 4.225,90 0,00 2.710,79 0,00 0,00 15.388,49 1.755,28 2.233,51 0,00 3.988,79 11.399,70 1.817,93 4.029,13 31/12/2015
308 354500 APARECIDA VIEIRA DE CARVALHO OFICIAL DO MP ATIVO BELO HORIZONTE - COMARCA; PROCON-MG-SEC DE EDUCACAO PARA O CONSUMO 4.009,14 513,99 0,00 1.779,75 1.884,64 0,00 8.187,52 765,70 721,75 0,00 1.487,45 6.700,07 2.073,87 1.545,50 31/12/2015
309 551000 ARACELES BICALHO FELIX ANALISTA DO MP ATIVO MANHUAÇU - COMARCA; MANHUACU-PJ-02PJ 5.842,66 0,00 0,00 2.319,68 0,00 0,00 8.162,34 781,75 560,63 0,00 1.342,38 6.819,96 1.763,93 1.584,25 31/12/2015
310 286200 ARACELI MEDRADO DOS SANTOS LIMA OFICIAL DO MP ATIVO PARACATU - COMARCA; PARACATU-PJ-03PJ 4.977,82 995,56 0,00 1.736,99 1.991,13 0,00 9.701,50 814,33 1.140,19 0,00 1.954,52 7.746,98 2.102,05 1.703,22 31/12/2015
311 189000 ARAHY MARQUES SILVA OFICIAL DO MP ATIVO BELO HORIZONTE - COMARCA; BH-15PJ M AMB 16PJ HAB URB-SECRETARIA 4.977,82 1.493,35 0,00 1.809,29 2.157,06 0,00 10.437,52 881,73 1.307,65 0,00 2.189,38 8.248,14 2.130,22 1.819,80 31/12/2015
312 112200 ARAQUEM AUGUSTO DE MATOS AGENTE DO MP ATIVO BELO HORIZONTE - COMARCA; COORD ESTADUAL DE DEFESA DA EDUCACAO 3.285,36 3.484,48 0,00 2.254,92 0,00 0,00 9.024,76 1.153,85 579,95 0,00 1.733,80 7.290,96 7.241,93 2.581,21 31/12/2015
313 280600 ARDUINO FRATTEZI ANALISTA DO MP ATIVO BELO HORIZONTE - COMARCA; CENTRAL DE APOIO TECNICO-SETOR CONTABIL 10.576,63 2.115,33 0,00 2.712,86 4.230,65 0,00 19.635,47 1.729,34 3.400,42 0,00 5.129,76 14.505,71 2.482,35 3.589,62 31/12/2015
314 520201 ARIANE DE FATIMA CARVALHO ALMEIDA ANALISTA DO MP ATIVO BELO HORIZONTE - COMARCA; BH-18PJ VIOLENCIA DOMESTICA-SECRETARIA 5.307,28 0,00 0,00 2.227,46 0,00 0,00 7.534,74 715,78 384,00 0,00 1.099,78 6.434,96 1.763,93 1.346,00 31/12/2015
315 537600 ARIELA FREIRE MONTIJO ANALISTA DO MP ATIVO ARCOS - COMARCA; ARCOS-PJ-01PJ 5.842,66 0,00 0,00 4.691,48 0,00 0,00 10.534,14 791,58 508,49 0,00 1.300,07 9.234,07 1.763,93 1.572,11 31/12/2015
316 182000 ARILSON ALEXANDRE MARTINS MAGALHAES OFICIAL DO MP ATIVO JOÃO MONLEVADE - COMARCA; JOAO MONLEVADE-PJ-01PJ 6.487,98 3.604,43 0,00 2.806,03 4.205,17 0,00 17.103,61 1.729,55 2.576,58 0,00 4.306,13 12.797,48 2.478,02 3.648,07 31/12/2015
317 511000 ARISLANE CAROLINA DA SILVA ANALISTA DO MP ATIVO CAMPINA VERDE - COMARCA; CAMPINA VERDE-PJ-UNPJ 6.032,93 361,98 0,00 1.798,22 0,00 0,00 8.193,13 870,72 695,79 0,00 1.566,51 6.626,62 1.763,93 1.899,40 31/12/2015
318 170000 ARLEY BRITES DA SILVA ASSESSOR ATIVO BELO HORIZONTE - COMARCA; EXTINTA - DIVISÃO DE MATERIAL PERMANENTE 0,00 1.252,55 4.175,17 2.372,15 1.809,24 0,00 9.609,11 1.026,02 791,52 0,00 1.817,54 7.791,57 6.885,82 1.531,03 31/12/2015
319 120400 ARLINDO CASSIO DA CRUZ OFICIAL DO MP ATIVO SÃO GONÇALO DO SAPUCAÍ - COMARCA; SAO GONCALO DO SAPUCAI-PJ-01PJ 13.616,17 9.531,32 0,00 4.387,94 7.715,83 0,00 35.251,26 3.168,33 6.761,43 0,00 9.929,76 25.321,50 1.991,77 6.607,97 31/12/2015
320 243700 ARLINDO MARCIO LACERDA OFICIAL DO MP ATIVO CONTAGEM - COMARCA; CONTAGEM-PJ-03PJ 8.451,80 3.710,36 0,00 3.390,37 0,00 0,00 15.552,53 1.468,40 2.142,87 0,00 3.611,27 11.941,26 1.763,93 3.265,55 31/12/2015
321 392100 ARNALDO DE ANDRADE OFICIAL DO MP ATIVO DIVINÓPOLIS - COMARCA; DIVINOPOLIS-PJ-02PJ 4.705,69 1.543,15 0,00 2.097,61 0,00 0,00 8.346,45 889,25 648,33 0,00 1.537,58 6.808,87 1.763,93 2.153,91 31/12/2015
322 642400 ARTANE INARDE DE SIQUEIRA DAMASCENO ANALISTA DO MP ATIVO BELO HORIZONTE - COMARCA; SUPERINTENDENCIA DE RECURSOS HUMANOS 4.668,87 0,00 0,00 1.731,37 0,00 0,00 6.400,24 513,58 298,81 0,00 812,39 5.587,85 1.090,96 0,00 31/12/2015
323 352801 ARTHUR JONAS MENDONCA E ARAUJO ANALISTA DO MP ATIVO UBERABA - COMARCA; UBERABA-PJ-12PJ 7.435,23 743,52 0,00 2.161,59 2.726,25 0,00 13.066,59 1.113,77 1.777,83 0,00 2.891,60 10.174,99 7.225,88 2.283,89 31/12/2015
324 302100 AUGUSTO ROUSSEAU DE CASTRO ANALISTA DO MP ATIVO CATAGUASES - COMARCA; CATAGUASES-PJ-02PJ 8.849,21 2.328,74 0,00 2.898,86 0,00 0,00 14.076,81 1.893,51 1.781,91 0,00 3.675,42 10.401,39 2.495,24 3.879,32 31/12/2015
325 540200 AUREA AVELAR OFICIAL DO MP ATIVO FERROS - COMARCA; FERROS-PJ-UNPJ 3.445,03 0,00 0,00 1.284,84 0,00 0,00 4.729,87 460,97 58,72 0,00 519,69 4.210,18 1.763,93 878,43 31/12/2015
326 633500 AUREA GONTIJO BIRCHAL ASSESSOR ATIVO BELO HORIZONTE - COMARCA; COORD DE GABINETE DO PGJ 0,00 0,00 6.641,51 2.504,77 2.213,84 0,00 11.360,12 1.026,02 1.644,51 0,00 2.670,53 8.689,59 1.576,98 1.482,33 31/12/2015
327 183200 AURELIANO MAGELA DE REZENDE COORDENADOR/OFICIAL ATIVO BELO HORIZONTE - COMARCA; COORD DE GABINETE DO PGJ 9.607,41 5.066,42 0,00 3.413,19 0,00 0,00 18.087,02 1.747,27 2.788,13 0,00 4.535,40 13.551,62 2.495,24 4.030,40 31/12/2015
328 629400 AYESKA DA COSTA VAL MOURA DABIEN OFICIAL DO MP ATIVO BELO HORIZONTE - COMARCA; BH-18PJ VIOLENCIA DOMESTICA-SECRETARIA 2.669,10 0,00 0,00 1.210,57 0,00 0,00 3.879,67 456,37 29,86 0,00 486,23 3.393,44 1.763,93 874,51 31/12/2015
329 546500 BARBARA ZACARONI GOULART OFICIAL DO MP ATIVO BETIM - COMARCA; BETIM-PJ-08PJ 2.756,02 0,00 0,00 1.480,49 0,00 0,00 4.236,51 461,01 35,48 0,00 496,49 3.740,02 1.763,93 938,12 31/12/2015
330 316500 BEATRIZ ABILVIA DA SILVA ANALISTA DO MP ATIVO GOVERNADOR VALADARES - COMARCA; GOVERNADOR VALADARES-PJ-07PJ 8.038,24 2.115,33 0,00 2.765,00 4.230,65 0,00 17.149,22 1.718,73 2.650,23 0,00 4.368,96 12.780,26 2.459,70 3.455,17 31/12/2015
331 311800 BEATRIZ APARECIDA SOARES GANEM OFICIAL DO MP ATIVO ITAMBACURI - COMARCA; ITAMBACURI-PJ-02PJ 6.857,79 2.057,34 0,00 2.663,58 0,00 0,00 11.578,71 1.219,05 1.156,21 0,00 2.375,26 9.203,45 2.229,74 2.701,52 31/12/2015
332 266800 BEATRIZ AUGUSTA VILACA GOMES DA SILVA OFICIAL DO MP ATIVO BELO HORIZONTE - COMARCA; BH-05PJ-JUÍZO SUCESSÕES-SEC 6.032,93 1.206,59 0,00 5.540,66 0,00 0,00 12.780,18 986,19 902,51 0,00 1.888,70 10.891,48 1.763,93 2.166,96 31/12/2015
333 235200 BEATRIZ BOTELHO BATISTA OFICIAL DO MP ATIVO BELO HORIZONTE - COMARCA; BH-21PJ TUTELA FUNDACOES-SECRETARIA 6.067,09 2.092,10 0,00 2.186,16 0,00 0,00 10.345,35 1.234,78 1.100,18 0,00 2.334,96 8.010,39 2.277,09 2.547,62 31/12/2015
334 113500 BEATRIZ DE LOURDES SOUZA ASSESSOR ATIVO BELO HORIZONTE - COMARCA; BH-02PJ FAMILIA-PROM DEC PAT 0,00 4.649,06 6.641,51 3.550,81 0,00 0,00 14.841,38 1.026,02 1.541,49 0,00 2.567,51 12.273,87 2.251,47 3.469,86 31/12/2015
335 182300 BEATRIZ PAULA SOUSA RAMOS OFICIAL DO MP ATIVO MARIANA - COMARCA; MARIANA-PJ-01PJ 8.170,05 3.604,43 0,00 9.113,79 0,00 0,00 20.888,27 1.729,50 1.882,73 0,00 3.612,23 17.276,04 1.816,44 3.642,24 31/12/2015
336 507000 BELCHIOR FRANKLIN AMARAL LEITE ANALISTA DO MP ATIVO BELO HORIZONTE - COMARCA; CENTRAL DE APOIO TECNICO 5.233,51 398,49 0,00 2.784,17 0,00 0,00 8.416,17 958,56 328,86 0,00 1.287,42 7.128,75 6.789,31 2.092,30 31/12/2015
337 345100 BENITO ELIAS RODRIGUES ANALISTA DO MP ATIVO BARBACENA - COMARCA; BARBACENA-PJ-SECRETARIA 7.989,68 1.024,32 0,00 2.505,96 3.755,83 0,00 15.275,79 1.527,16 2.301,50 0,00 3.828,66 11.447,13 2.251,47 3.141,26 31/12/2015
338 207300 BENITO VIEIRA DOS SANTOS ANALISTA DO MP ATIVO BELO HORIZONTE - COMARCA; COMB CRIMES PRAT POR AG POL MUN-ASSESSORIA 14.715,61 4.414,68 0,00 4.398,17 0,00 2.104,33 25.632,79 2.621,15 2.736,60 0,00 5.357,75 20.275,04 2.739,01 8.197,22 31/12/2015
339 480200 BERNADETE NUNES DOS SANTOS ANALISTA DO MP ATIVO GUANHÃES - COMARCA; GUANHAES-PJ-02PJ 5.472,56 1.440,15 0,00 3.222,44 0,00 0,00 10.135,15 1.184,50 770,25 0,00 1.954,75 8.180,40 1.763,93 2.481,86 31/12/2015
340 378400 BETANIA FARNESI DE SOUZA E SILVA OFICIAL DO MP ATIVO SETE LAGOAS - COMARCA; SETE LAGOAS-PJ-03PJ 4.055,24 1.644,02 0,00 5.518,30 0,00 0,00 11.217,56 970,48 430,30 0,00 1.400,78 9.816,78 7.166,18 2.001,71 31/12/2015
341 387400 BETANIA MENDONCA DE ASSIS ANALISTA DO MP ATIVO BELO HORIZONTE - COMARCA; BH-08PJ JUIZADO ESPECIAL-SECRETARIA 6.807,06 872,70 0,00 2.263,71 0,00 0,00 9.943,47 1.306,92 952,18 0,00 2.259,10 7.684,37 1.763,93 2.667,20 31/12/2015
342 450300 BIANCA OLIVEIRA DE ALBUQUERQUE ANALISTA DO MP ATIVO BELO HORIZONTE - COMARCA; BH-10PJ EXECUÇÃO PENAL-SECRETARIA 5.799,48 743,52 0,00 2.057,32 0,00 0,00 8.600,32 1.099,60 682,56 0,00 1.782,16 6.818,16 5.174,93 2.281,04 31/12/2015
343 535400 BIANCA SALOTO ROSSI ANALISTA DO MP ATIVO SANTOS DUMONT - COMARCA; SANTOS DUMONT-PJ-01PJ 5.453,15 0,00 0,00 1.718,01 0,00 0,00 7.171,16 796,76 453,52 0,00 1.250,28 5.920,88 1.896,22 1.751,59 31/12/2015
344 120800 BRAS MARQUES DE SOUZA ANALISTA DO MP ATIVO BELO HORIZONTE - COMARCA; EXTINTA - SUPERINTENDENCIA ADMINISTRATIVA-SAD 19.311,46 13.518,03 0,00 5.451,70 10.157,04 0,00 48.438,23 3.351,82 9.225,22 2.358,38 14.935,42 33.502,81 1.763,93 0,00 31/12/2015
345 460900 BRENO CRISTIANO DE SOUZA REZENDE ANALISTA DO MP ATIVO ITAÚNA - COMARCA; ITAUNA-PJ-02PJ 4.753,95 361,98 0,00 1.798,22 2.131,64 0,00 9.045,79 870,58 930,28 0,00 1.800,86 7.244,93 1.763,93 1.774,04 31/12/2015
346 239000 BRENO VENANCIO ROMANINI OFICIAL DO MP ATIVO BELO HORIZONTE - COMARCA; BH-20PJ ORD ECON TRIBUTARIA-SECRETARIA 6.432,09 1.286,42 0,00 2.924,86 0,00 0,00 10.643,37 1.044,90 1.019,74 0,00 2.064,64 8.578,73 1.763,93 2.091,55 31/12/2015
347 202201 BRIGITTE AMARALINA CALDAS MEDEIROS OFICIAL DO MP ATIVO NANUQUE - COMARCA; NANUQUE-PJ-01PJ 5.681,19 2.303,19 0,00 3.707,77 0,00 0,00 11.692,15 1.097,85 815,89 0,00 1.913,74 9.778,41 1.276,93 0,00 31/12/2015
348 642300 BRUNA IZABELITA DE FATIMA OLIVEIRA COSTA OFICIAL DO MP ATIVO PIUMHI - COMARCA; PIUMHI-PJ-02PJ 3.030,62 0,00 0,00 1.123,86 0,00 0,00 4.154,48 333,37 59,49 0,00 392,86 3.761,62 1.017,97 0,00 31/12/2015
349 513600 BRUNA KARLA MARTINS CARVALHO ANALISTA DO MP ATIVO GOVERNADOR VALADARES - COMARCA; GOVERNADOR VALADARES-PJ-01PJ 5.180,28 361,98 0,00 1.798,22 0,00 0,00 7.340,48 871,08 461,32 0,00 1.332,40 6.008,08 1.763,93 1.910,57 31/12/2015
350 415100 BRUNA MARIA SOARES OLIVEIRA COSTA RAMOS ANALISTA DO MP ATIVO UBÁ - COMARCA; COORD REG BACIA DO RIO PARAIBA DO SUL 6.807,06 872,70 0,00 3.531,79 3.199,90 0,00 14.411,45 1.298,95 1.832,15 0,00 3.131,10 11.280,35 1.763,93 2.584,60 31/12/2015
351 470000 BRUNA MORAES MARQUES ANALISTA DO MP ATIVO TOMBOS - COMARCA; TOMBOS-PJ-UNPJ 7.200,74 432,04 0,00 2.186,57 0,00 0,00 9.819,35 1.039,48 790,21 0,00 1.829,69 7.989,66 6.762,93 2.274,18 31/12/2015
352 614700 BRUNA NATTANY DE LIMA OFICIAL DO MP ATIVO MANTENA - COMARCA; MANTENA-PJ-02PJ 2.756,02 0,00 0,00 2.960,97 0,00 0,00 5.716,99 457,07 35,48 0,00 492,55 5.224,44 1.763,93 811,70 31/12/2015
353 631800 BRUNA RAPOSO JORGE OFICIAL DO MP ATIVO JUIZ DE FORA - COMARCA; JUIZ DE FORA-PJ-19PJ 3.336,37 0,00 0,00 1.210,57 0,00 0,00 4.546,94 464,07 90,61 0,00 554,68 3.992,26 1.763,93 920,73 31/12/2015
354 463800 BRUNO ALVES TEIXEIRA ANALISTA DO MP ATIVO UBERLÂNDIA - COMARCA; UBERLANDIA-PJ-04PJ 6.946,31 432,04 0,00 1.978,02 0,00 0,00 9.356,37 1.038,96 928,79 0,00 1.967,75 7.388,62 1.763,93 2.114,41 31/12/2015
355 538500 BRUNO AUGUSTO DA SILVA OFICIAL DO MP ATIVO SANTA LUZIA - COMARCA; SANTA LUZIA-PJ-03PJ 3.445,03 0,00 0,00 2.960,97 1.148,34 0,00 7.554,34 467,17 312,11 0,00 779,28 6.775,06 1.763,93 1.009,91 31/12/2015
356 318200 BRUNO BARROS DE SOUZA OFICIAL DO MP ATIVO UBÁ - COMARCA; UBA-PJ-04PJ 4.888,39 1.286,42 0,00 2.389,46 2.572,84 0,00 11.137,11 1.052,01 783,16 0,00 1.835,17 9.301,94 2.200,83 2.345,34 31/12/2015
357 459600 BRUNO CASTELAR LUGAO MENDES OFICIAL DO MP ATIVO GOVERNADOR VALADARES - COMARCA; GOVERNADOR VALADARES-PJ-05PJ 4.050,26 308,40 0,00 1.660,72 1.816,11 0,00 7.835,49 754,35 663,89 0,00 1.418,24 6.417,25 2.072,33 1.639,27 31/12/2015
358 427400 BRUNO CESAR RIBEIRO DE PAIVA ANALISTA DO MP ATIVO BELO HORIZONTE - COMARCA; ASSESS JUR DO CONS SUPERIOR DO MINISTERIO PUB 8.727,00 872,70 0,00 2.263,71 3.199,90 0,00 15.063,31 1.300,62 2.360,14 0,00 3.660,76 11.402,55 2.290,18 2.650,10 31/12/2015
359 380900 BRUNO CIRILO ANTUNES OFICIAL DO MP ATIVO VARGINHA - COMARCA; VARGINHA-PJ-05PJ 4.009,14 1.453,85 0,00 1.954,92 0,00 0,00 7.417,91 780,27 461,93 0,00 1.242,20 6.175,71 1.783,79 2.000,76 31/12/2015
360 329000 BRUNO DE MELO REIS ANALISTA DO MP ATIVO PATROCÍNIO - COMARCA; PATROCINIO-PJ-02PJ 7.784,82 2.048,64 0,00 2.706,88 4.097,27 0,00 16.637,61 1.674,54 2.537,63 0,00 4.212,17 12.425,44 2.459,70 3.456,15 31/12/2015
361 601700 BRUNO DIAS JUNQUEIRA PEREIRA ANALISTA DO MP ATIVO BELO HORIZONTE - COMARCA; ASSESS TECNICO-JUR JUNTO AS PROC. DE JUST 5.307,28 0,00 0,00 1.640,24 0,00 0,00 6.947,52 721,21 429,60 0,00 1.150,81 5.796,71 1.763,93 1.540,12 31/12/2015
362 378300 BRUNO HERDY LOPES DE OLIVEIRA ANALISTA DO MP ATIVO MANTENA - COMARCA; MANTENA-PJ-SECRETARIA 6.807,06 872,70 0,00 2.263,71 0,00 0,00 9.943,47 1.306,95 952,18 0,00 2.259,13 7.684,34 1.763,93 2.847,63 31/12/2015
363 529700 BRUNO JOSE BUENO DIAS OFICIAL DO MP ATIVO SÃO SEBASTIÃO DO PARAÍSO - COMARCA; SAO SEBASTIAO DO PARAISO-PJ-02PJ 3.792,57 0,00 0,00 1.356,03 0,00 0,00 5.148,60 514,13 123,07 0,00 637,20 4.511,40 6.762,93 1.105,43 31/12/2015
364 350100 BRUNO LAUD SERRANO DOS REIS OFICIAL DO MP ATIVO UBÁ - COMARCA; UBA-PJ-02PJ 4.164,84 1.096,01 0,00 1.876,67 0,00 0,00 7.137,52 896,11 342,15 0,00 1.238,26 5.899,26 7.135,16 1.979,63 31/12/2015
365 373800 BRUNO MARTINO DE ALBUQUERQUE ANALISTA DO MP ATIVO PONTE NOVA - COMARCA; PONTE NOVA-PJ-03PJ 6.807,06 872,70 0,00 2.367,99 3.199,90 0,00 13.247,65 1.308,00 1.727,88 0,00 3.035,88 10.211,77 7.088,96 2.890,27 31/12/2015
366 470400 BRUNO NOVAIS CABRAL ANALISTA DO MP ATIVO MUTUM - COMARCA; MUTUM-PJ-UNPJ 7.200,74 432,04 0,00 1.978,02 0,00 0,00 9.610,80 1.050,53 998,76 0,00 2.049,29 7.561,51 1.790,77 2.377,01 31/12/2015
367 369200 BRUNO ROBERTO DIAS DE OLIVEIRA OFICIAL DO MP ATIVO BELO HORIZONTE - COMARCA; BH-22PJ PES COM DEF E IDOSOS 6.229,29 622,93 0,00 1.864,65 2.284,07 0,00 11.000,94 935,41 1.435,84 0,00 2.371,25 8.629,69 2.139,57 1.953,45 31/12/2015
368 547700 BRUNO ROBERTO SOUZA GONCALVES ANALISTA DO MP ATIVO PARACATU - COMARCA; PARACATU-PJ-03PJ 5.842,66 0,00 0,00 4.639,34 0,00 0,00 10.482,00 782,19 560,63 0,00 1.342,82 9.139,18 1.944,18 1.503,99 31/12/2015
369 546100 BRUNO SA VIEIRA ANALISTA DO MP ATIVO ERVÁLIA - COMARCA; ERVALIA-PJ-UNPJ 4.868,88 0,00 0,00 1.718,01 0,00 0,00 6.586,89 781,40 314,76 0,00 1.096,16 5.490,73 1.763,93 1.571,86 31/12/2015
370 438200 BRUNO SALES PEREIRA ANALISTA DO MP ATIVO BELO HORIZONTE - COMARCA; CENTRAL DE APOIO TECNICO-SETOR CONTABIL 5.799,48 743,52 0,00 2.109,46 0,00 0,00 8.652,46 1.114,25 630,42 0,00 1.744,67 6.907,79 7.225,88 2.300,59 31/12/2015
371 537400 BRUNO SANT'ANA CESAR ANALISTA DO MP ATIVO CONTAGEM - COMARCA; CONTAGEM-PJ-09PJ 5.842,66 0,00 0,00 1.718,01 0,00 0,00 7.560,67 797,52 560,63 0,00 1.358,15 6.202,52 1.763,93 1.618,57 31/12/2015
372 405800 CAIO FERNANDO RODRIGUES DE OLIVEIRA ANALISTA DO MP ATIVO BELO HORIZONTE - COMARCA; ASSESS TECNICO-JUR JUNTO AS PROC. DE JUST 6.807,06 872,70 0,00 2.263,71 3.199,90 0,00 13.143,37 1.300,46 1.832,15 0,00 3.132,61 10.010,76 2.290,18 2.635,15 31/12/2015
373 530000 CAIO GUEDES DE OLIVEIRA ANALISTA DO MP ATIVO DIAMANTINA - COMARCA; DIAMANTINA-PJ-03PJ 5.842,66 0,00 0,00 2.345,75 0,00 0,00 8.188,41 791,81 508,49 0,00 1.300,30 6.888,11 6.762,93 1.578,10 31/12/2015
374 491400 CAIO MIRANDA JUNQUEIRA ANALISTA DO MP ATIVO BUENO BRANDAO - COMARCA; BUENO BRANDAO-PJ-UNPJ 6.641,51 398,49 0,00 2.266,60 2.346,67 0,00 11.653,27 942,26 1.446,88 0,00 2.389,14 9.264,13 7.124,91 1.801,75 31/12/2015
375 415800 CAMILA ALVES DA SILVA ANALISTA DO MP ATIVO CAETÉ - COMARCA; CAETE-PJ-01PJ 6.592,40 845,18 0,00 6.868,23 0,00 0,00 14.305,81 1.293,74 894,74 0,00 2.188,48 12.117,33 1.763,93 2.858,79 31/12/2015
376 555800 CAMILA CAROLINE ROCHA CHAVES OFICIAL DO MP ATIVO SALINAS - COMARCA; SALINAS-PJ-01PJ 3.792,57 0,00 0,00 1.743,40 0,00 0,00 5.535,97 507,06 151,51 0,00 658,57 4.877,40 1.849,69 948,74 31/12/2015
377 445200 CAMILA CONDE ROCHA ANALISTA DO MP ATIVO CONTAGEM - COMARCA; CONTAGEM-PJ-08PJ 5.799,48 743,52 0,00 2.057,32 0,00 0,00 8.600,32 1.113,54 682,56 0,00 1.796,10 6.804,22 1.763,93 2.271,83 31/12/2015
378 419900 CAMILA CUNNINGHAM PIMENTA DE PADUA ANALISTA DO MP ATIVO BELO HORIZONTE - COMARCA; ASSESSORIA PSICOSSOCIAL 6.807,06 872,70 0,00 2.263,71 0,00 0,00 9.943,47 1.299,06 952,18 0,00 2.251,24 7.692,23 1.763,93 2.762,77 31/12/2015
379 507700 CAMILA ELIZABETH RODRIGUES ANALISTA DO MP ATIVO BELO HORIZONTE - COMARCA; BH-02PJ FAMILIA-SECRETARIA 5.233,51 398,49 0,00 1.891,92 2.346,67 0,00 9.870,59 958,83 1.111,81 0,00 2.070,64 7.799,95 2.162,42 1.968,36 31/12/2015
380 372700 CAMILA FONSECA LIMONGE ANALISTA DO MP ATIVO BETIM - COMARCA; BETIM-PJ-12PJ 8.407,01 872,70 0,00 2.263,71 0,00 0,00 11.543,42 1.308,16 1.392,17 0,00 2.700,33 8.843,09 2.307,31 2.718,72 31/12/2015
381 621300 CAMILA GOLFETO DE SOUSA VALENTE OFICIAL DO MP ATIVO ESPERA FELIZ - COMARCA; ESPERA FELIZ-PJ-UNPJ 3.030,62 0,00 0,00 1.150,88 1.010,21 0,00 5.191,71 410,95 144,44 0,00 555,39 4.636,32 12.012,81 778,84 31/12/2015
382 409800 CAMILA GONCALVES COSTA RIBEIRO ANALISTA DO MP ATIVO INHAPIM - COMARCA; INHAPIM-PJ-02PJ 8.185,27 818,53 0,00 2.229,30 0,00 0,00 11.233,10 1.246,83 1.282,18 0,00 2.529,01 8.704,09 6.790,95 2.875,17 31/12/2015
383 335000 CAMILA GONTIJO DE PAIVA ANALISTA DO MP ATIVO BELO HORIZONTE - COMARCA; COORD DE CONTROLE DA CONSTITUCIONALIDADE 9.920,24 1.984,05 0,00 8.654,88 0,00 0,00 20.559,17 1.596,76 1.939,94 0,00 3.536,70 17.022,47 4.380,93 3.306,65 31/12/2015
384 547800 CAMILA MATTARELLI DE ABREU E SILVA ANALISTA DO MP ATIVO BELO HORIZONTE - COMARCA; COORD DE INCLUSAO E MOBILIZACAO SOCIAIS 5.307,28 0,00 0,00 1.640,24 0,00 0,00 6.947,52 710,08 429,60 0,00 1.139,68 5.807,84 1.763,93 1.349,67 31/12/2015
385 430000 CANDIDA MARINA COSTA ANALISTA DO MP ATIVO BELO HORIZONTE - COMARCA; DIVISAO DE DOCUMENTACAO JURIDICA 8.141,90 845,18 0,00 2.219,74 3.098,99 0,00 14.305,81 1.293,32 2.173,08 0,00 3.466,40 10.839,41 1.763,93 2.841,43 31/12/2015
386 614300 CARINA CORTIELHA OFICIAL DO MP ATIVO BELO HORIZONTE - COMARCA; BH-23PJ CIVEL-SEC EXP CIVEIS 3.129,28 0,00 0,00 1.400,11 0,00 0,00 4.529,39 422,30 233,44 0,00 655,74 3.873,65 1.763,93 1.888,99 31/12/2015
387 380400 CARINA DIAS FACANHA DE SOUZA ANALISTA DO MP ATIVO SANTA RITA DO SAPUCAÍ - COMARCA; SANTA RITA DO SAPUCAI-PJ-SECRETARIA 6.807,06 872,70 0,00 7.063,56 0,00 0,00 14.743,32 1.307,92 952,18 0,00 2.260,10 12.483,22 6.762,93 2.718,66 31/12/2015
388 255000 CARLA ADRIANA DE MENEZES OFICIAL DO MP ATIVO BELO HORIZONTE - COMARCA; CENT DE APOIO TEC-SETOR DEF,IDOSO E INFANC 6.973,67 1.394,73 0,00 2.084,87 2.789,47 0,00 13.242,74 1.136,84 1.945,91 0,00 3.082,75 10.159,99 2.229,74 2.483,68 31/12/2015
389 425100 CARLA ADRIANA DINIZ AMARAL OFICIAL DO MP ATIVO CONTAGEM - COMARCA; CONTAGEM-PJ-08PJ 4.274,44 548,01 0,00 1.797,07 2.009,35 0,00 8.628,87 816,46 774,90 0,00 1.591,36 7.037,51 1.962,20 1.660,18 31/12/2015
390 508100 CARLA ALESSANDRA FONSECA ANALISTA DO MP ATIVO BELO HORIZONTE - COMARCA; CAO-ORDEM ECONOMICA E TRIBUTARIA-SECRETARIA 5.233,51 398,49 0,00 5.411,92 0,00 0,00 11.043,92 958,96 466,48 0,00 1.425,44 9.618,48 1.923,33 1.977,70 31/12/2015
391 607100 CARLA ANGELICA DIAS MIRANDA OFICIAL DO MP ATIVO JABOTICATUBAS - COMARCA; JABOTICATUBAS-PJ-UNPJ 3.445,03 0,00 0,00 1.510,79 1.148,34 0,00 6.104,16 469,18 192,05 0,00 661,23 5.442,93 5.601,60 939,94 31/12/2015
392 351500 CARLA APARECIDA MENDES RAMIRIO OFICIAL DO MP ATIVO PASSOS - COMARCA; PASSOS-PJ-01PJ 4.705,69 603,29 0,00 1.885,41 0,00 0,00 7.194,39 903,72 351,49 0,00 1.255,21 5.939,18 6.762,93 1.854,78 31/12/2015
393 206200 CARLA BORGES DA COSTA COORDENADOR/ANALISTA ATIVO BELO HORIZONTE - COMARCA; DIRETORIA DE PROJETOS DE EDIFICACOES 14.715,61 8.070,44 0,00 15.746,25 0,00 0,00 38.532,30 2.825,96 4.773,60 0,00 7.599,56 30.932,74 2.495,24 6.624,15 31/12/2015
394 442800 CARLA GONCALVES COSTA SOALHEIRO ANALISTA DO MP ATIVO GOVERNADOR VALADARES - COMARCA; GOVERNADOR VALADARES-PJ-11PJ 7.435,23 743,52 0,00 2.109,46 0,00 0,00 10.288,21 1.113,45 1.080,25 0,00 2.193,70 8.094,51 6.762,93 2.271,66 31/12/2015
395 321500 CARLA GONCALVES MASSOTE OFICIAL DO MP ATIVO CAMPO BELO - COMARCA; CAMPO BELO-PJ-01PJ 6.432,09 1.286,42 0,00 1.990,47 0,00 0,00 9.708,98 1.042,42 1.019,74 0,00 2.062,16 7.646,82 1.763,93 2.195,88 31/12/2015
396 429200 CARLA HAUTEQUESTT BECHARA ANALISTA DO MP ATIVO BELO HORIZONTE - COMARCA; DIVISAO DE DOCUMENTACAO JURIDICA 8.141,90 845,18 0,00 2.219,74 0,00 0,00 11.206,82 1.301,91 1.320,85 0,00 2.622,76 8.584,06 2.079,68 2.964,89 31/12/2015
397 247500 CARLA MATILDE GUIMARAES DE OLIVEIRA OFICIAL DO MP ATIVO ITAJUBA - COMARCA; ITAJUBA-PJ-05PJ 7.435,23 2.230,57 0,00 2.325,45 0,00 0,00 11.991,25 1.309,03 1.444,21 0,00 2.753,24 9.238,01 1.763,93 2.827,65 31/12/2015
398 226100 CARLA MERLI DA CONCEICAO ANALISTA DO MP ATIVO BELO HORIZONTE - COMARCA; CENTRAL DE APOIO TECNICO-SETOR CONTABIL 13.097,56 2.619,51 0,00 3.152,26 0,00 0,00 18.869,33 2.141,63 2.925,26 0,00 5.066,89 13.802,44 2.653,58 4.445,47 31/12/2015
399 181401 CARLO MICHEL GAUDENSI COELHO ANALISTA DO MP ATIVO BELO HORIZONTE - COMARCA; BH-08PJ JUIZADO ESPECIAL-SECRETARIA 6.254,33 2.535,54 0,00 2.638,51 0,00 0,00 11.428,38 1.498,25 1.215,49 0,00 2.713,74 8.714,64 1.763,93 3.230,59 31/12/2015
400 634000 CARLOS ALBERTO AMORMINO TRIGUEIRO ANALISTA DO MP ATIVO BELO HORIZONTE - COMARCA; DIRET DE APOIO AS PROCURADORIAS DE JUSTICA 4.668,87 0,00 0,00 1.675,55 1.556,29 0,00 7.900,71 604,91 649,19 0,00 1.254,10 6.646,61 6.252,43 863,62 31/12/2015
401 637900 CARLOS ALBERTO DE MOURA OFICIAL DO MP ATIVO SETE LAGOAS - COMARCA; SETE LAGOAS-PJ-SECRETARIA 3.030,62 0,00 0,00 1.798,16 0,00 0,00 4.828,78 333,37 45,27 0,00 378,64 4.450,14 4.720,93 0,00 31/12/2015
402 638700 CARLOS ALBERTO FERREIRA BRAGA ANALISTA DO MP ATIVO RIBEIRÃO DAS NEVES - COMARCA; RIBEIRAO DAS NEVES-PJ-11PJ 3.735,10 0,00 0,00 1.955,51 0,00 0,00 5.690,61 513,58 71,55 0,00 585,13 5.105,48 1.236,94 0,00 31/12/2015
403 375801 CARLOS ALBERTO ROCHA ANALISTA DO MP ATIVO ELOI MENDES - COMARCA; ELOI MENDES-PJ-SECRETARIA 5.145,67 0,00 0,00 5.019,67 0,00 0,00 10.165,34 880,21 362,45 0,00 1.242,66 8.922,68 1.763,93 1.976,69 31/12/2015
404 462800 CARLOS ANDREI SOARES FAGUNDES ANALISTA DO MP ATIVO MONTES CLAROS - COMARCA; MONTES CLAROS-PJ-09PJ 7.200,74 432,04 0,00 5.846,55 2.544,26 0,00 16.023,59 1.039,65 1.646,30 0,00 2.685,95 13.337,64 6.003,98 2.138,60 31/12/2015
405 370300 CARLOS AUGUSTO BUENO DIAS ASSESSOR ATIVO BELO HORIZONTE - COMARCA; SUPERINTENDÊNCIA DE ENGENHARIA E ARQUITETURA 0,00 0,00 8.451,80 7.684,56 0,00 0,00 16.136,36 1.026,02 829,10 0,00 1.855,12 14.281,24 2.050,97 2.381,30 31/12/2015
406 505100 CARLOS CEZAR CARVALHO ANALISTA DO MP ATIVO RIBEIRÃO DAS NEVES - COMARCA; RIBEIRAO DAS NEVES-PJ-04PJ 4.464,37 1.809,88 0,00 6.034,21 0,00 0,00 12.308,46 1.068,84 514,54 0,00 1.583,38 10.725,08 2.065,81 2.216,72 31/12/2015
407 195900 CARLOS DE SOUZA FERREIRA OFICIAL DO MP ATIVO COROMANDEL - COMARCA; COROMANDEL-PJ-UNPJ 8.185,27 5.729,69 0,00 9.900,12 0,00 0,00 23.815,08 1.903,23 2.484,19 0,00 4.387,42 19.427,66 1.763,93 4.231,83 31/12/2015
408 196800 CARLOS EDUARDO DE OLIVEIRA MARINHO OFICIAL DO MP ATIVO ALPINÓPOLIS - COMARCA; ALPINOPOLIS-PJ-UNPJ 9.920,24 4.960,12 0,00 3.082,87 0,00 0,00 17.963,23 2.000,95 2.720,47 0,00 4.721,42 13.241,81 7.250,47 4.161,03 31/12/2015
409 491800 CARLOS EDUARDO ROMAN OFICIAL DO MP ATIVO BARBACENA - COMARCA; BARBACENA-PJ-09PJ 3.641,72 466,89 0,00 4.178,52 0,00 0,00 8.287,13 688,28 176,75 0,00 865,03 7.422,10 2.133,62 1.348,23 31/12/2015
410 299300 CARLOS HENRIQUE BICALHO ANALISTA DO MP ATIVO BELO HORIZONTE - COMARCA; BH-17PJ PATRIMONIO PUBLICO-SECRETARIA 7.826,71 3.172,99 0,00 2.866,49 0,00 0,00 13.866,19 1.872,59 1.739,63 0,00 3.612,22 10.253,97 1.763,93 4.102,09 31/12/2015
411 205100 CARLOS HENRIQUE ESTEVES OFICIAL DO MP ATIVO ITAMBACURI - COMARCA; ITAMBACURI-PJ-01PJ 10.243,18 3.072,95 0,00 2.855,66 0,00 0,00 16.171,79 1.810,17 2.337,63 0,00 4.147,80 12.023,99 1.763,93 3.712,86 31/12/2015
412 351600 CARLOS HENRIQUE FELICIO DA FONSECA OFICIAL DO MP ATIVO LIMA DUARTE - COMARCA; LIMA DUARTE-PJ-UNPJ 4.585,03 1.206,59 0,00 1.973,04 0,00 0,00 7.764,66 986,47 452,20 0,00 1.438,67 6.325,99 2.173,72 2.042,13 31/12/2015
413 85400 CARLOS JOSE VIEIRA OFICIAL DO MP ATIVO BELO HORIZONTE - COMARCA; DIRETORIA DO COLEGIO E DA CAMARA DE PJ 19.311,46 13.518,02 0,00 5.295,29 10.157,04 0,00 48.281,81 3.351,82 9.381,63 2.358,37 15.091,82 33.189,99 1.763,93 0,00 31/12/2015
414 229100 CARLOS MERCES DE OLIVEIRA ANALISTA DO MP ATIVO BELO HORIZONTE - COMARCA; CENTRAL DE APOIO TECN-SETOR DE MEIO AMBIENTE 11.338,24 3.724,24 0,00 3.970,52 0,00 0,00 19.033,00 2.197,07 1.854,25 0,00 4.051,32 14.981,68 1.763,93 4.438,10 31/12/2015
415 538300 CARLOS RANGEL SILVA DE MELO ANALISTA DO MP ATIVO BELO HORIZONTE - COMARCA; DIVISAO DE CONTROLE IMOBILIARIO 5.307,28 1.061,46 0,00 2.489,40 0,00 0,00 8.858,14 883,75 689,39 0,00 1.573,14 7.285,00 1.763,93 1.918,54 31/12/2015
416 265100 CARLOS REIFF MIRANDA ANALISTA DO MP ATIVO BELO HORIZONTE - COMARCA; BH-19PJ SAUDE-SECRETARIA 150PJ 10.576,63 2.115,33 0,00 2.712,86 0,00 0,00 15.404,82 1.718,23 2.237,00 0,00 3.955,23 11.449,59 1.763,93 3.669,02 31/12/2015
417 305400 CARLOS ROCHA DE SOUZA OFICIAL DO MP ATIVO MONTALVÂNIA - COMARCA; MONTALVANIA-PJ-SECRETARIA 4.977,82 995,56 0,00 1.940,21 1.991,13 0,00 9.904,72 813,94 931,64 0,00 1.745,58 8.159,14 12.412,37 1.687,51 31/12/2015
418 365100 CARLOS WAGNER SANDER MORAIS COORDENADOR/OFICIAL ATIVO BELO HORIZONTE - COMARCA; DIRETORIA DE ADMINISTRACAO FINANCEIRA 0,00 1.092,10 10.921,00 9.049,62 4.004,37 0,00 25.067,09 1.046,12 3.334,70 0,00 4.380,82 20.686,27 2.443,92 3.417,13 31/12/2015
419 399900 CARMELITA EVANGELISTA DE SOUZA OFICIAL DO MP ATIVO JOÃO PINHEIRO - COMARCA; JOAO PINHEIRO-PJ-01PJ 5.658,41 565,84 0,00 4.885,56 0,00 0,00 11.109,81 856,09 654,02 0,00 1.510,11 9.599,70 2.116,24 1.823,92 31/12/2015
420 390400 CARMEM APARECIDA ANTUNES RESENDE OFICIAL DO MP ATIVO IGARAPÉ - COMARCA; IGARAPE-PJ-SECRETARIA 5.132,98 4.932,05 0,00 2.118,89 3.470,70 1.145,33 16.799,95 1.410,11 2.800,83 0,00 4.210,94 12.589,01 2.334,72 4.263,33 31/12/2015
421 202000 CARMEN LUCIA MARIZ DE MACEDO OFICIAL DO MP ATIVO BELO HORIZONTE - COMARCA; COORD COMB REPRES TRAFICO ILICITO ENTORPECEN 9.920,24 4.960,12 0,00 3.135,01 0,00 0,00 18.015,37 1.994,06 2.668,33 0,00 4.662,39 13.352,98 4.582,80 4.387,45 31/12/2015
422 228500 CAROLINA CHIARELLA DOS SANTOS RIBEIRO OFICIAL DO MP ATIVO BELO HORIZONTE - COMARCA; BH-13ª PJ JUÍXO DE TÓXICOS 4.033,53 1.061,46 0,00 1.898,69 2.122,91 0,00 9.116,59 894,12 818,63 0,00 1.712,75 7.403,84 8.350,93 2.228,94 31/12/2015
423 446500 CAROLINA COSTA VAL RODRIGUES ANALISTA DO MP ATIVO CONTAGEM - COMARCA; CONTAGEM-PJ-05PJ 7.522,10 845,18 0,00 2.778,85 0,00 0,00 11.146,13 1.242,15 1.150,41 0,00 2.392,56 8.753,57 2.226,88 2.352,19 31/12/2015
424 603501 CAROLINA DOMINGOS BRANDAO ANALISTA DO MP ATIVO CARATINGA - COMARCA; CARATINGA-PJ-03PJ 4.338,82 0,00 0,00 1.980,67 0,00 0,00 6.319,49 657,59 220,79 0,00 878,38 5.441,11 1.763,93 1.328,76 31/12/2015
425 404300 CAROLINA DOS SANTOS VIEIRA ANALISTA DO MP ATIVO BELO HORIZONTE - COMARCA; BH-08PJ JUIZADO ESPECIAL-SECRETARIA 6.807,06 872,70 0,00 2.367,99 0,00 0,00 10.047,75 1.307,66 847,91 0,00 2.155,57 7.892,18 9.688,31 2.876,12 31/12/2015
426 551200 CAROLINA LOPES ARANTES MASCARENHAS ANALISTA DO MP ATIVO BELO HORIZONTE - COMARCA; EXTINTA - COORD DEFESA DO DIREITO DE FAMILIA 5.842,66 0,00 0,00 4.691,48 1.947,55 0,00 12.481,69 781,72 1.044,07 0,00 1.825,79 10.655,90 6.762,93 1.484,46 31/12/2015
427 622600 CAROLINA LOREDO LOPES OFICIAL DO MP ATIVO RIBEIRÃO DAS NEVES - COMARCA; RIBEIRAO DAS NEVES-PJ-12PJ 2.424,50 0,00 0,00 2.637,76 0,00 0,00 5.062,26 411,58 14,03 0,00 425,61 4.636,65 1.763,93 795,26 31/12/2015
428 382200 CAROLINA MENDES CHAVES LIN ANALISTA DO MP ATIVO BELO HORIZONTE - COMARCA; BH-12PJ JUIZO CRIMINAL-GAB 102PJ 6.973,67 697,37 0,00 2.035,72 0,00 0,00 9.706,76 1.043,78 955,99 0,00 1.999,77 7.706,99 1.525,36 2.133,82 31/12/2015
429 461900 CAROLINA MURTA TEIXEIRA DIAS ANALISTA DO MP ATIVO BELO HORIZONTE - COMARCA; DIRET DE FORMACAO, APERFEIC. E POS-GRADUACAO 5.674,18 432,04 0,00 2.897,21 2.544,26 0,00 11.547,69 1.039,69 1.278,63 0,00 2.318,32 9.229,37 1.763,93 2.288,50 31/12/2015
430 509600 CAROLINA PINTO DE OLIVEIRA SOUZA ANALISTA DO MP ATIVO MURIAÉ - COMARCA; MURIAE-PJ-01PJ 6.641,51 398,49 0,00 2.732,03 0,00 0,00 9.772,03 958,65 801,54 0,00 1.760,19 8.011,84 11.364,93 2.101,46 31/12/2015
431 629100 CAROLINA RODRIGUES AMARAL ANALISTA DO MP ATIVO BELO HORIZONTE - COMARCA; PROC. JUSTICA DIR. DIFUSOS E COLETIVOS-SEC 5.139,92 0,00 0,00 1.611,43 0,00 0,00 6.751,35 697,20 393,14 0,00 1.090,34 5.661,01 1.763,93 1.311,27 31/12/2015
432 502600 CAROLINA RODRIGUES RUBEN ANALISTA DO MP ATIVO BELO HORIZONTE - COMARCA; EXTINTA-DEF DIREIT HUM-COMB A VIOL DOMEST-18 5.233,51 398,49 0,00 2.705,96 0,00 0,00 8.337,96 958,80 466,48 0,00 1.425,28 6.912,68 2.003,02 1.970,51 31/12/2015
433 529600 CAROLINA VAZ DE MELO MAMBRINI ANALISTA DO MP ATIVO MINAS NOVAS - COMARCA; MINAS NOVAS-PJ-UNPJ 5.842,66 0,00 0,00 1.718,01 0,00 0,00 7.560,67 791,73 560,63 0,00 1.352,36 6.208,31 1.763,93 1.574,09 31/12/2015
434 619100 CAROLINA ZAKHIA NARDELLI RODRIGUES ANALISTA DO MP ATIVO NEPOMUCENO - COMARCA; NEPOMUCENO-PJ-UNPJ 5.307,28 0,00 0,00 2.365,64 0,00 0,00 7.672,92 703,76 429,60 0,00 1.133,36 6.539,56 1.763,93 1.227,55 31/12/2015
435 517600 CAROLINE ALVES DE OLIVEIRA MULLER ANALISTA DO MP ATIVO VISCONDE DO RIO BRANCO - COMARCA; VISCONDE DO RIO BRANCO-PJ-01PJ 6.641,51 398,49 0,00 1.944,06 2.346,67 0,00 11.330,73 966,41 1.446,88 0,00 2.413,29 8.917,44 9.791,65 2.168,28 31/12/2015
436 373200 CAROLINE ANTUNES RIBEIRO OFICIAL DO MP ATIVO JACUI - COMARCA; JACUI-PJ-UNPJ 6.032,93 603,29 0,00 1.989,69 2.212,07 0,00 10.837,98 888,49 1.206,76 0,00 2.095,25 8.742,73 4.482,99 1.708,80 31/12/2015
437 556800 CAROLINE DE SOUZA CARDOSO OFICIAL DO MP ATIVO BRASÍLIA DE MINAS - COMARCA; BRASILIA DE MINAS-PJ-02PJ 3.445,03 0,00 0,00 1.396,33 0,00 0,00 4.841,36 460,81 105,11 0,00 565,92 4.275,44 1.763,93 868,83 31/12/2015
438 499400 CAROLINE MARQUES DE LOURDES MARZULLO OFICIAL DO MP ATIVO JUIZ DE FORA - COMARCA; JUIZ DE FORA-PJ-20PJ 3.341,92 254,46 0,00 1.489,14 0,00 0,00 5.085,52 612,14 110,48 0,00 722,62 4.362,90 11.761,93 1.250,34 31/12/2015
439 616800 CAROLINE MONTEIRO DE BARROS ANALISTA DO MP ATIVO CONTAGEM - COMARCA; CONTAGEM-PJ-11PJ 5.307,28 0,00 0,00 1.959,44 0,00 0,00 7.266,72 704,20 429,60 0,00 1.133,80 6.132,92 1.763,93 1.339,07 31/12/2015
440 618100 CAROLINE VASCONCELOS COSTA LANZA ANALISTA DO MP ATIVO PARAOPEBA - COMARCA; PARAOPEBA-PJ-UNPJ 5.307,28 0,00 0,00 1.723,92 0,00 0,00 7.031,20 703,81 429,60 0,00 1.133,41 5.897,79 4.500,03 1.230,47 31/12/2015
441 604000 CASSIA APARECIDA DA SILVA OFICIAL DO MP ATIVO CANÁPOLIS - COMARCA; CANAPOLIS-PJ-UNPJ 3.129,28 0,00 0,00 2.718,98 0,00 0,00 5.848,26 426,89 66,08 0,00 492,97 5.355,29 1.763,93 921,16 31/12/2015
442 268800 CASSIA BEATRIZ TEIXEIRA OFICIAL DO MP ATIVO BELO HORIZONTE - COMARCA; COMB CRIMES PRAT POR AG POL MUN-SECRETARIA 6.973,67 1.394,73 0,00 2.084,87 0,00 0,00 10.453,27 1.159,73 1.178,81 0,00 2.338,54 8.114,73 1.763,93 2.549,20 31/12/2015
443 500000 CASSIA DE OLIVEIRA COSTA VIANA ANALISTA DO MP ATIVO SETE LAGOAS - COMARCA; SETE LAGOAS-PJ-09PJ 4.914,72 1.992,45 0,00 6.440,42 0,00 0,00 13.347,59 1.158,38 768,93 0,00 1.927,31 11.420,28 1.763,93 2.240,12 31/12/2015
444 368800 CASSIA LUISA BATISTA MENDONCA WEBER OFICIAL DO MP ATIVO BELO HORIZONTE - COMARCA; PROCON-MG-SEC DE EDUCACAO PARA O CONSUMO 4.009,14 513,99 0,00 1.690,59 0,00 0,00 6.213,72 765,37 241,64 0,00 1.007,01 5.206,71 7.953,93 1.534,80 31/12/2015
445 622200 CASSIA VAZ DE AZEVEDO LISBOA MARZANO ASSESSOR ATIVO BELO HORIZONTE - COMARCA; CGMP-SECRETARIA DA CORREGEDORIA-GERAL DO MP 0,00 0,00 2.500,62 1.387,85 833,54 0,00 4.722,01 788,08 131,35 0,00 919,43 3.802,58 6.762,93 639,29 31/12/2015
446 121000 CASSIO HENRIQUE AFONSO DA SILVA COORDENADOR/OFICIAL ATIVO BELO HORIZONTE - COMARCA; DIR ANALISES TECNOLOGIA INTELIGENCIA 11.643,70 8.442,89 0,00 4.100,23 0,00 0,00 24.186,82 2.369,85 4.021,85 0,00 6.391,70 17.795,12 7.250,47 5.931,87 31/12/2015
447 121100 CASSIO MOREIRA DE MIRANDA AGENTE DO MP ATIVO BELO HORIZONTE - COMARCA; PROCON-MG-SECRETARIA DE FISCALIZACOES 2.347,72 3.429,88 0,00 2.398,16 0,00 0,00 8.175,76 825,56 755,11 0,00 1.580,67 6.595,09 4.946,11 19.897,03 31/12/2015
448 512001 CATARINA NATALINO CALIXTO ASSESSOR/ANALISTA ATIVO BELO HORIZONTE - COMARCA; EXTINTA - DIVISÃO DE APOIO À LICITAÇÃO 0,00 0,00 6.641,51 1.953,79 0,00 0,00 8.595,30 738,54 801,57 0,00 1.540,11 7.055,19 1.763,93 1.672,17 31/12/2015
449 606200 CATARINE DE SIQUEIRA DE QUADROS ANALISTA DO MP ATIVO RIBEIRÃO DAS NEVES - COMARCA; RIBEIRAO DAS NEVES-PJ-09PJ 3.856,73 0,00 0,00 1.593,55 0,00 0,00 5.450,28 658,09 115,73 0,00 773,82 4.676,46 6.931,82 1.438,90 31/12/2015
450 71800 CATIA EFIGENIA CARNEIRO DE FREITAS OFICIAL DO MP ATIVO BELO HORIZONTE - COMARCA; ASSESSORIA JURIDICO-ADMINISTRATIVA 22.253,01 15.577,10 0,00 4.425,67 0,00 3.351,82 45.607,60 3.351,82 7.458,06 7.359,00 18.168,88 27.438,72 1.763,93 3.351,82 31/12/2015
451 622300 CECILIA APARECIDA PEREIRA ASSUNCAO OFICIAL DO MP ATIVO TRÊS PONTAS - COMARCA; TRES PONTAS-PJ-SECRETARIA 3.336,37 0,00 0,00 1.210,57 0,00 0,00 4.546,94 453,10 90,61 0,00 543,71 4.003,23 1.763,93 875,54 31/12/2015
452 538000 CECILIA FONTES DE MATOS PIMENTEL ANALISTA DO MP ATIVO PALMA - COMARCA; PALMA-PJ-SECRETARIA 5.842,66 0,00 0,00 1.718,01 0,00 0,00 7.560,67 791,82 560,63 0,00 1.352,45 6.208,22 4.182,43 1.580,27 31/12/2015
453 261300 CECILIO ANTONIO CAMPOS DOS REIS ANALISTA DO MP ATIVO BELO HORIZONTE - COMARCA; AUDITORIA INTERNA 11.643,70 2.328,74 0,00 2.898,86 0,00 0,00 16.871,30 1.903,06 2.550,39 0,00 4.453,45 12.417,85 1.763,93 3.910,76 31/12/2015
454 386400 CEFAS AMORELI DE FIGUEIREDO OFICIAL DO MP ATIVO CABO VERDE - COMARCA; CABO VERDE-PJ-SECRETARIA 4.521,68 452,17 0,00 1.579,92 0,00 0,00 6.553,77 676,21 359,88 0,00 1.036,09 5.517,68 1.763,93 1.466,21 31/12/2015
455 149000 CELIA MAGALHAES CLAROS SOSSI OFICIAL DO MP ATIVO GOVERNADOR VALADARES - COMARCA; GOVERNADOR VALADARES-PJ-01PJ 7.403,64 5.288,31 0,00 3.173,74 0,00 0,00 15.865,69 2.135,84 2.141,01 0,00 4.276,85 11.588,84 2.553,22 4.494,15 31/12/2015
456 113100 CELIA MARIA ALVES PINTO OFICIAL DO MP ATIVO BELO HORIZONTE - COMARCA; PROCON-MG-SEC DE EDUCACAO PARA O CONSUMO 5.937,10 5.374,11 0,00 2.968,35 4.350,47 1.435,65 20.065,68 1.747,54 3.437,60 0,00 5.185,14 14.880,54 2.434,98 5.109,54 31/12/2015
457 421000 CELINA BENEDITA DE SOUZA ALMEIDA OFICIAL DO MP ATIVO CAMBUÍ - COMARCA; CAMBUI-PJ-01PJ 5.480,05 2.740,03 0,00 2.389,46 0,00 0,00 10.609,54 1.112,42 1.090,37 0,00 2.202,79 8.406,75 2.184,51 2.409,04 31/12/2015
458 252900 CELIO DE MELO CASTOR ANALISTA DO MP ATIVO BELO HORIZONTE - COMARCA; BH-20PJ ORD ECON TRIBUTARIA-SECRETARIA 11.643,70 2.328,74 0,00 2.950,99 0,00 0,00 16.923,43 1.902,17 2.550,39 0,00 4.452,56 12.470,87 1.763,93 3.873,40 31/12/2015
459 395700 CELIO FERREIRA LIMA OFICIAL DO MP ATIVO CONTAGEM - COMARCA; CONTAGEM-PJ-07PJ 4.009,14 513,99 0,00 1.742,72 0,00 0,00 6.265,85 778,52 201,94 0,00 980,46 5.285,39 6.762,93 1.756,57 31/12/2015
460 281300 CELMA REGINA PEREIRA SANTOS ANALISTA DO MP ATIVO BELO HORIZONTE - COMARCA; DIVISAO DE DOCUMENTACAO JURIDICA 11.177,95 2.328,74 0,00 2.898,86 0,00 0,00 16.405,55 1.891,30 2.422,31 0,00 4.313,61 12.091,94 1.763,93 3.791,76 31/12/2015
461 535600 CELSO MEDEIROS DE PAIVA OFICIAL DO MP ATIVO RIO PRETO - COMARCA; RIO PRETO-PJ-SECRETARIA 3.445,03 0,00 0,00 1.266,89 0,00 0,00 4.711,92 466,97 76,67 0,00 543,64 4.168,28 1.763,93 999,76 31/12/2015
462 367000 CESAR NARVAES DE AVELAR COORDENADOR/OFICIAL ATIVO BELO HORIZONTE - COMARCA; DIVISAO DE MEMORIA INSTITUCIONAL 0,00 960,74 9.607,41 3.992,40 3.522,72 0,00 18.083,27 1.030,73 3.235,45 0,00 4.266,18 13.817,09 2.251,47 4.784,19 31/12/2015
463 226500 CESAR SILVEIRA BARROUIN OFICIAL DO MP ATIVO BELO HORIZONTE - COMARCA; DIRETORIA DE ADMINISTRACAO FINANCEIRA 6.254,33 2.535,54 0,00 7.958,94 3.662,45 0,00 20.411,26 1.468,19 2.222,66 0,00 3.690,85 16.720,41 1.763,93 2.796,62 31/12/2015
464 121400 CEZAR MORENO CONCEICAO TAVARES OFICIAL DO MP ATIVO BELO HORIZONTE - COMARCA; COORD DE INCLUSAO E MOBILIZACAO SOCIAIS 10.243,18 5.121,59 0,00 3.101,09 5.121,59 0,00 23.587,45 2.093,28 4.299,61 0,00 6.392,89 17.194,56 2.495,24 4.371,52 31/12/2015
465 243800 CHARLES MARTINS MUNIZ OFICIAL DO MP ATIVO BELO HORIZONTE - COMARCA; LAB TECNOLOGIA CONTRA LAVAGEM DINHEIRO 6.254,33 2.535,54 0,00 3.126,04 3.662,45 0,00 15.578,36 1.453,93 2.222,66 0,00 3.676,59 11.901,77 2.293,80 2.631,22 31/12/2015
466 193500 CHARLIN CESAR KOURLY OFICIAL DO MP ATIVO UBERLÂNDIA - COMARCA; UBERLANDIA-PJ-10PJ 9.490,36 2.976,07 0,00 2.742,55 0,00 0,00 15.208,98 1.730,01 2.168,80 0,00 3.898,81 11.310,17 1.763,93 3.527,35 31/12/2015
467 385500 CHILLEN PEIXOTO DE MOURA OFICIAL DO MP ATIVO BELO HORIZONTE - COMARCA; PROCON-MG-SECRETARIA DE FISCALIZACOES 4.621,03 565,84 0,00 2.442,78 2.074,75 0,00 9.704,40 843,00 939,30 0,00 1.782,30 7.922,10 1.853,54 1.671,65 31/12/2015
468 534500 CHRISTIAN DOUGLAS BRITO RUAS OFICIAL DO MP ATIVO SÃO JOÃO DA PONTE - COMARCA; SAO JOAO DA PONTE-PJ-SECRETARIA 3.445,03 0,00 0,00 1.480,49 1.148,34 0,00 6.073,86 466,97 312,11 0,00 779,08 5.294,78 1.763,93 933,91 31/12/2015
469 370600 CHRISTIAN KARINE FELIX PRATES ASSESSOR ATIVO BELO HORIZONTE - COMARCA; ASSESS ESPECIAL DO PGJ ATUACAO JUNTO A PGJAI 0,00 0,00 8.451,80 2.912,09 0,00 0,00 11.363,89 1.026,02 1.533,53 0,00 2.559,55 8.804,34 7.013,55 2.522,34 31/12/2015
470 435800 CHRISTIANA BAHIA ANDRADE PINA ANALISTA DO MP ATIVO BELO HORIZONTE - COMARCA; LAB TECNOLOGIA CONTRA LAVAGEM DINHEIRO 6.592,40 845,18 0,00 2.219,74 0,00 0,00 9.657,32 1.293,32 894,74 0,00 2.188,06 7.469,26 6.762,93 2.818,31 31/12/2015
471 516800 CHRISTIANE FERREIRA DO NASCIMENTO ANALISTA DO MP ATIVO ESTRELA DO SUL - COMARCA; ESTRELA DO SUL-PJ-UNPJ 6.032,93 361,98 0,00 2.497,84 0,00 0,00 8.892,75 887,91 695,79 0,00 1.583,70 7.309,05 1.763,93 2.060,69 31/12/2015
472 176000 CHRISTIANE JUNQUEIRA PULITI ANDRADE DE BARROS ASSESSOR ATIVO BELO HORIZONTE - COMARCA; GABINETE DO PROCURADOR-GERAL DE JUSTICA 0,00 9.908,64 14.155,19 4.416,76 8.021,28 0,00 36.501,87 3.276,07 7.173,98 0,00 10.450,05 26.051,82 1.763,93 7.177,58 31/12/2015
473 319200 CHRISTIANE MARIA DE ASSIS RUSSO OFICIAL DO MP ATIVO BELO HORIZONTE - COMARCA; CAO-ORDEM ECONOMICA E TRIBUTARIA-SECRETARIA 4.888,39 1.286,42 0,00 5.901,86 0,00 0,00 12.076,67 1.050,80 543,09 0,00 1.593,89 10.482,78 6.762,93 2.287,61 31/12/2015
474 510300 CHRISTIANE MARY DE CARVALHO FERREIRA ANALISTA DO MP ATIVO BELO HORIZONTE - COMARCA; DIRETORIA DE SISTEMAS DE INFORMACAO 4.753,95 361,98 0,00 1.850,35 0,00 0,00 6.966,28 870,56 314,02 0,00 1.184,58 5.781,70 6.762,93 1.776,33 31/12/2015
475 424900 CHRISTIANE PEREIRA TURNER DE ARAUJO OFICIAL DO MP ATIVO BELO HORIZONTE - COMARCA; CAO-PATRIMONIO PUBLICO 5.307,28 530,73 0,00 1.769,46 1.946,00 0,00 9.553,47 794,84 1.042,51 0,00 1.837,35 7.716,12 6.762,93 1.626,77 31/12/2015
476 513700 CHRISTIANE VIEIRA SOARES PEDERSOLI ANALISTA DO MP ATIVO BELO HORIZONTE - COMARCA; PROCON-MG-GAB DO COORDENADOR DO PROCON-MG 6.609,67 398,49 0,00 1.891,92 0,00 0,00 8.900,08 962,81 844,92 0,00 1.807,73 7.092,35 2.007,70 2.006,80 31/12/2015
477 412300 CHRYSTIAN MACHADO RIBEIRO ANALISTA DO MP ATIVO VARGINHA - COMARCA; VARGINHA-PJ-04PJ 6.807,06 872,70 0,00 3.531,79 3.199,90 0,00 14.411,45 1.303,98 1.832,15 0,00 3.136,13 11.275,32 1.763,93 2.824,32 31/12/2015
478 513800 CHRYSTIANE DO NASCIMENTO DE MAGALHAES OFICIAL DO MP ATIVO UBERLÂNDIA - COMARCA; UBERLANDIA-PJ-10PJ 3.341,92 254,46 0,00 1.564,76 1.498,49 0,00 6.659,63 617,55 313,64 0,00 931,19 5.728,44 8.840,39 1.401,16 31/12/2015
479 497900 CIBELE DE FREITAS SANCHES DIAS ANALISTA DO MP ATIVO SABARÁ - COMARCA; SABARA-PJ-03PJ 4.753,95 361,98 0,00 1.798,22 0,00 0,00 6.914,15 871,51 356,68 0,00 1.228,19 5.685,96 2.125,91 1.814,59 31/12/2015
480 500900 CIBELLE SILVA PRADO ALVARENGA ANALISTA DO MP ATIVO ITANHANDU - COMARCA; ITANHANDU-PJ-UNPJ 6.641,51 398,49 0,00 5.411,92 0,00 0,00 12.451,92 963,26 853,68 0,00 1.816,94 10.634,98 2.007,70 2.168,67 31/12/2015
481 629800 CINIRA DE ASSIS SILVA ANALISTA DO MP ATIVO TIMÓTEO - COMARCA; TIMOTEO-PJ-02PJ 4.668,87 0,00 0,00 3.856,48 0,00 0,00 8.525,35 632,82 298,81 0,00 931,63 7.593,72 1.763,93 1.169,47 31/12/2015
482 296400 CINTIA APARECIDA MOREIRA NAVES E RODRIGUES ANALISTA DO MP ATIVO CAMPO BELO - COMARCA; CAMPO BELO-PJ-02PJ 10.576,63 2.115,33 0,00 2.712,86 4.230,65 0,00 19.635,47 1.729,78 3.400,42 0,00 5.130,20 14.505,27 7.250,47 3.613,69 31/12/2015
483 407900 CINTIA NETO COMELLI ANALISTA DO MP ATIVO BELO HORIZONTE - COMARCA; CENTRAL DE APOIO TECNICO-SETOR CONTABIL 8.727,00 872,70 0,00 2.263,71 0,00 0,00 11.863,41 1.299,17 1.480,17 0,00 2.779,34 9.084,07 1.763,93 2.590,82 31/12/2015
484 304700 CINTIA QUEIROZ OFICIAL DO MP ATIVO BELO HORIZONTE - COMARCA; DIR GESTAO SISTEMAS ATIVIDADE-FIM 6.857,79 1.371,56 0,00 2.064,67 0,00 0,00 10.294,02 1.120,87 1.144,77 0,00 2.265,64 8.028,38 2.229,74 2.307,21 31/12/2015
485 286100 CIRO CANGUSSU CORDEIRO OFICIAL DO MP ATIVO IPATINGA - COMARCA; IPATINGA-PJ-09PJ 3.783,14 995,56 0,00 1.789,13 0,00 0,00 6.567,83 817,79 248,58 0,00 1.066,37 5.501,46 1.763,93 1.864,18 31/12/2015
486 412500 CLARICE GOMES MAROTTA ANALISTA DO MP ATIVO BELO HORIZONTE - COMARCA; ASSESS TECNICO-JUR JUNTO AS PROC. DE JUST 6.423,37 1.690,36 0,00 2.342,51 0,00 0,00 10.456,24 1.422,00 1.055,11 0,00 2.477,11 7.979,13 2.018,58 3.420,74 31/12/2015
487 605300 CLARISSA AZEVEDO ROCHA OFICIAL DO MP ATIVO BELO HORIZONTE - COMARCA; EXTINTA - DIVISÃO DE COMPRAS 2.756,02 0,00 0,00 2.960,97 0,00 0,00 5.716,99 469,94 35,48 0,00 505,42 5.211,57 1.763,93 950,55 31/12/2015
488 308100 CLARISSA DUARTE MARTINS DIRETOR/ANALISTA ATIVO BELO HORIZONTE - COMARCA; SUPERINTENDENCIA DE RECURSOS HUMANOS 0,00 2.831,04 14.155,19 3.731,21 5.662,08 0,00 26.379,52 1.843,34 4.922,86 0,00 6.766,20 19.613,32 2.725,42 4.863,83 31/12/2015
489 497100 CLARISSA ROCHA GUIDI ANALISTA DO MP ATIVO BELO HORIZONTE - COMARCA; EXTINTA - JUIZO DE FAMILIA-02 PJ-02 VARA 5.233,51 398,49 0,00 1.891,92 2.346,67 0,00 9.870,59 959,22 1.111,81 0,00 2.071,03 7.799,56 1.923,33 1.987,67 31/12/2015
490 641800 CLARISSE TAVARES GONCALVES OFICIAL DO MP ATIVO BELO HORIZONTE - COMARCA; BH-07PJ 01 TRIBUNAL DO JURI 2.424,50 0,00 0,00 1.348,62 0,00 0,00 3.773,12 333,37 14,03 0,00 347,40 3.425,72 1.031,95 0,00 31/12/2015
491 463700 CLAUDIA ADRIANA FERRAO DIAS ANALISTA DO MP ATIVO SETE LAGOAS - COMARCA; SETE LAGOAS-PJ-06PJ 5.674,18 432,04 0,00 5.898,68 0,00 0,00 12.004,90 1.039,95 474,68 0,00 1.514,63 10.490,27 2.023,16 2.148,51 31/12/2015
492 415400 CLAUDIA ALMEIDA DE VASCONCELLOS BARROS ASSESSOR/OFICIAL ATIVO BELO HORIZONTE - COMARCA; DIRET DE PESSOAL DO MINISTERIO PUBLICO - DPMP 0,00 845,18 8.451,80 3.434,12 3.098,99 0,00 15.830,09 1.276,25 2.258,30 0,00 3.534,55 12.295,54 2.290,18 2.723,02 31/12/2015
493 389600 CLAUDIA ALVES PERDOMO ASSESSOR ATIVO BELO HORIZONTE - COMARCA; PROCON-MG-GAB DO COORDENADOR DO PROCON-MG 0,00 0,00 8.451,80 2.912,09 2.817,27 0,00 14.181,16 1.026,02 2.308,28 0,00 3.334,30 10.846,86 1.955,29 2.376,81 31/12/2015
494 207000 CLAUDIA APARECIDA VILELA MACHADO ANALISTA DO MP ATIVO BELO HORIZONTE - COMARCA; CENTRAL DE APOIO TECNICO-SETOR CONTABIL 10.075,97 4.084,85 0,00 3.492,57 5.900,34 0,00 23.553,73 2.425,24 4.059,87 0,00 6.485,11 17.068,62 7.494,24 5.167,51 31/12/2015
495 365700 CLAUDIA BREGUEZ CUNHA ANALISTA DO MP ATIVO VARGINHA - COMARCA; VARGINHA-PJ-07PJ 7.737,79 992,02 0,00 2.454,36 0,00 0,00 11.184,17 1.460,97 1.201,24 0,00 2.662,21 8.521,96 1.763,93 2.996,31 31/12/2015
496 430500 CLAUDIA CECILIA SANTANA VENCESLAU COORDENADOR/OFICIAL ATIVO BELO HORIZONTE - COMARCA; DIRET DE DESENV DE RECURSOS HUMANOS-DDRH 0,00 1.092,10 10.921,00 3.158,86 4.004,37 0,00 19.176,33 957,80 3.306,71 0,00 4.264,51 14.911,82 7.250,47 3.622,86 31/12/2015
497 112400 CLAUDIA CRISTINA FIUZA DE AVELAR AGENTE DO MP ATIVO BELO HORIZONTE - COMARCA; SERVICO MEDICO-DEPTO PERIC MEDICA SAUDE OCUP 6.857,79 3.428,90 0,00 2.363,49 0,00 0,00 12.650,18 1.392,32 1.648,31 0,00 3.040,63 9.609,55 1.763,93 2.782,16 31/12/2015
498 149400 CLAUDIA DINIZ OFICIAL DO MP ATIVO BELO HORIZONTE - COMARCA; BH-09PJ AUDITORIA MILITAR-SECRETARIA 10.708,96 6.299,39 0,00 13.063,40 0,00 0,00 30.071,75 2.574,82 3.236,27 0,00 5.811,09 24.260,66 2.495,24 5.331,45 31/12/2015
499 480400 CLAUDIA GOULART DE SOUZA OFICIAL DO MP ATIVO PASSOS - COMARCA; PASSOS-PJ-06PJ 4.009,14 513,99 0,00 1.949,67 0,00 0,00 6.472,80 762,16 241,64 0,00 1.003,80 5.469,00 2.054,63 1.493,83 31/12/2015
500 519800 CLAUDIA HELENA CORREA DE ALMEIDA ANALISTA DO MP ATIVO BELO HORIZONTE - COMARCA; BH-12PJ JUIZO CRIMINAL-GAB 090PJ 5.233,51 398,49 0,00 1.891,92 0,00 0,00 7.523,92 958,81 466,48 0,00 1.425,29 6.098,63 1.955,21 1.982,39 31/12/2015
501 422100 CLAUDIA IACOMINI CABRAL ANALISTA DO MP ATIVO BELO HORIZONTE - COMARCA; CENT DE APOIO TEC-SETOR DEF,IDOSO E INFANC 8.451,80 4.225,90 0,00 2.710,79 4.225,90 0,00 19.614,39 1.764,59 3.395,63 0,00 5.160,22 14.454,17 2.481,54 4.121,58 31/12/2015
502 258200 CLAUDIA LAGE MICHALAROS ANALISTA DO MP ATIVO BELO HORIZONTE - COMARCA; CENTRAL DE APOIO TECN-SETOR DE MEIO AMBIENTE 8.150,59 5.821,85 0,00 6.095,57 0,00 0,00 20.068,01 2.380,08 2.392,59 0,00 4.772,67 15.295,34 2.251,47 4.922,48 31/12/2015
503 284600 CLAUDIA LENI DE ABREU OFICIAL DO MP ATIVO CONTAGEM - COMARCA; CONTAGEM-PJ-22PJ 4.330,70 1.493,35 0,00 1.809,29 0,00 0,00 7.633,34 882,35 536,50 0,00 1.418,85 6.214,49 2.130,22 1.852,52 31/12/2015
504 433600 CLAUDIA LUIZA SANTIAGO FELICIO ANALISTA DO MP ATIVO BELO HORIZONTE - COMARCA; CAO-SAUDE-TECNICO JURIDICO 8.451,80 845,18 0,00 3.486,26 0,00 0,00 12.783,24 1.293,30 1.301,80 0,00 2.595,10 10.188,14 6.762,93 2.993,73 31/12/2015
505 317000 CLAUDIA MACHADO ALVES OFICIAL DO MP ATIVO BELO HORIZONTE - COMARCA; SUPRIN DE PLANEJAMENTO E COORDENACAO 5.307,28 1.061,46 0,00 1.794,42 2.122,91 0,00 10.286,07 867,77 1.273,19 0,00 2.140,96 8.145,11 2.124,43 1.800,99 31/12/2015
506 155300 CLAUDIA MACIEL MIRANDA OFICIAL DO MP ATIVO CONGONHAS - COMARCA; CONGONHAS-PJ-02PJ 7.375,09 4.097,27 0,00 10.226,81 4.780,15 0,00 26.479,32 1.954,37 3.062,01 0,00 5.016,38 21.462,94 4.633,47 4.333,82 31/12/2015
507 242200 CLAUDIA MICHELLE DIAS MUNIZ BALEEIRO OFICIAL DO MP ATIVO MONTE AZUL - COMARCA; MONTE AZUL-PJ-SECRETARIA 7.200,74 2.160,22 0,00 2.333,31 0,00 0,00 11.694,27 1.276,37 1.317,46 0,00 2.593,83 9.100,44 2.251,47 2.867,15 31/12/2015
508 623000 CLAUDIA PATRICIA SILVA RODRIGUES RAPOSEIRAS OFICIAL DO MP ATIVO BELO HORIZONTE - COMARCA; DIVISÃO DE EDUCAÇÃO PARA O CONSUMO 3.030,62 0,00 0,00 1.136,67 1.010,21 0,00 5.177,50 411,49 172,88 0,00 584,37 4.593,13 1.763,93 790,97 31/12/2015
509 418400 CLAUDIA REGINA MARTINS BONIFACIO OFICIAL DO MP ATIVO ITUIUTABA - COMARCA; ITUIUTABA-PJ-06PJ 4.274,44 548,01 0,00 1.849,21 0,00 0,00 6.671,66 816,66 214,41 0,00 1.031,07 5.640,59 2.094,39 1.768,88 31/12/2015
510 498300 CLAUDIA SOUTO FARIAS BRAUN OFICIAL DO MP ATIVO TEÓFILO OTONI - COMARCA; TEOFILO OTONI-PJ-SECRETARIA 3.916,07 234,96 0,00 1.790,19 0,00 0,00 5.941,22 565,15 114,05 0,00 679,20 5.262,02 3.351,93 1.155,06 31/12/2015
511 206500 CLAUDIA VALERIA FONSECA ANDRADE ANALISTA DO MP ATIVO BELO HORIZONTE - COMARCA; BH-23PJ INF-FISC MED SOC FEC 9.803,64 5.446,47 0,00 3.690,35 0,00 0,00 18.940,46 2.610,82 2.747,78 0,00 5.358,60 13.581,86 2.204,80 5.497,13 31/12/2015
512 277500 CLAUDIO ANTONIO BORGES ALVARES OFICIAL DO MP ATIVO BELO HORIZONTE - COMARCA; SUPERINTENDENCIA DE RECURSOS HUMANOS 5.299,99 1.394,73 0,00 2.084,87 0,00 0,00 8.779,59 1.138,88 718,55 0,00 1.857,43 6.922,16 1.763,93 2.324,22 31/12/2015
513 444800 CLAUDIO ARESIO DO CARMO ANALISTA DO MP ATIVO SETE LAGOAS - COMARCA; SETE LAGOAS-PJ-01PJ 7.435,23 2.230,57 0,00 2.325,45 3.221,93 0,00 15.213,18 1.316,80 2.330,24 0,00 3.647,04 11.566,14 2.708,06 2.728,22 31/12/2015
514 541600 CLAUDIO DE OLIVEIRA MELO OFICIAL DO MP ATIVO PARACATU - COMARCA; PARACATU-PJ-01PJ 3.445,03 0,00 0,00 1.503,68 0,00 0,00 4.948,71 461,19 58,72 0,00 519,91 4.428,80 10.045,21 888,16 31/12/2015
515 545100 CLAUDIO HENRIQUE MACEDO DE SOUZA FRANSOZO ANALISTA DO MP ATIVO OURO PRETO - COMARCA; OURO PRETO-PJ-01PJ 5.307,28 0,00 0,00 4.293,88 0,00 0,00 9.601,16 710,08 429,60 0,00 1.139,68 8.461,48 1.763,93 1.349,42 31/12/2015
516 353500 CLAUDIO HENRIQUE PEDRO DA ROCHA OFICIAL DO MP ATIVO BELO HORIZONTE - COMARCA; CAO-CRIMINAL-SECRETARIA 4.705,69 603,29 0,00 1.937,55 0,00 0,00 7.246,53 904,26 308,83 0,00 1.213,09 6.033,44 2.139,57 1.872,35 31/12/2015
517 265800 CLAUDIO KUPIDLOWSKY FERNANDES ASSESSOR/OFICIAL ATIVO BELO HORIZONTE - COMARCA; EXTINTA - SECRETARIA ADMINISTRATIVA 0,00 1.860,89 9.304,45 3.455,11 3.721,78 0,00 18.342,23 1.213,12 1.787,69 0,00 3.000,81 15.341,42 4.777,93 9.996,55 31/12/2015
518 193600 CLAUDIO LEITE FONTES OFICIAL DO MP ATIVO ITUIUTABA - COMARCA; ITUIUTABA-PJ-02PJ 4.464,37 1.809,88 0,00 2.008,52 0,00 0,00 8.282,77 1.068,74 404,17 0,00 1.472,91 6.809,86 2.207,86 2.364,23 31/12/2015
519 329400 CLAUDIO MARCIO BERNARDES OFICIAL DO MP ATIVO ITAÚNA - COMARCA; ITAUNA-PJ-04PJ 4.631,10 2.572,84 0,00 3.365,96 3.001,64 0,00 13.571,54 1.227,73 1.612,64 0,00 2.840,37 10.731,17 2.273,65 2.556,41 31/12/2015
520 270200 CLAUDIO RABELO ALVES OFICIAL DO MP ATIVO FORMIGA - COMARCA; FORMIGA-PJ-SECRETARIA 5.299,99 1.394,73 0,00 2.293,42 0,00 0,00 8.988,14 1.140,99 510,00 0,00 1.650,99 7.337,15 2.237,61 2.542,68 31/12/2015
521 264700 CLAUDIO ROBERTO KFURI DE ARAUJO ANALISTA DO MP ATIVO BELO HORIZONTE - COMARCA; CENTRAL DE APOIO TECNICO-SETOR DE INFORMATICA 11.643,70 2.328,74 0,00 3.003,13 4.657,48 0,00 21.633,05 1.902,73 3.726,93 0,00 5.629,66 16.003,39 2.238,47 3.895,98 31/12/2015
522 188600 CLAUDIO SALES OFICIAL DO MP ATIVO NEPOMUCENO - COMARCA; NEPOMUCENO-PJ-SECRETARIA 9.011,08 6.307,75 0,00 3.094,42 5.106,28 0,00 23.519,53 2.085,65 4.284,15 0,00 6.369,80 17.149,73 7.283,20 4.245,34 31/12/2015
523 543300 CLAUDIO SILVA DE CARVALHO ANALISTA DO MP ATIVO CAMPO BELO - COMARCA; CAMPO BELO-PJ-04PJ 5.307,28 0,00 0,00 1.728,50 0,00 0,00 7.035,78 718,39 341,34 0,00 1.059,73 5.976,05 1.763,93 1.534,70 31/12/2015
524 160700 CLAUDIO VICENTE HESS ASSESSOR ATIVO BELO HORIZONTE - COMARCA; EXTINTA - SUPERINTENDENCIA ADMINISTRATIVA-SAD 0,00 4.368,40 10.921,00 4.606,96 0,00 0,00 19.896,36 1.026,02 3.257,46 0,00 4.283,48 15.612,88 2.106,26 4.007,89 31/12/2015
525 312900 CLAUDIO VIEIRA FIRPE ASSESSOR/OFICIAL ATIVO BELO HORIZONTE - COMARCA; DIRETORIA DE RELACOES PUBLICAS E CERIMONIAL 0,00 1.690,36 8.451,80 2.495,05 3.380,72 0,00 16.017,93 1.171,71 2.600,49 0,00 3.772,20 12.245,73 7.250,47 3.063,11 31/12/2015
526 634100 CLEA CRISTINA GUERRA DE FREITAS COSTA OFICIAL DO MP ATIVO BELO HORIZONTE - COMARCA; BH-18PJ VIOLENCIA DOMESTICA 3.030,62 0,00 0,00 2.444,06 0,00 0,00 5.474,68 390,10 45,27 0,00 435,37 5.039,31 6.239,20 536,31 31/12/2015
527 459200 CLEIA ZILLE PEREIRA ANALISTA DO MP ATIVO BELO HORIZONTE - COMARCA; ASSESS TECNICO-JUR JUNTO AS PROC. DE JUST 7.200,74 432,04 0,00 1.978,02 0,00 0,00 9.610,80 1.040,03 998,76 0,00 2.038,79 7.572,01 11.934,75 2.288,39 31/12/2015
528 481800 CLEIDE CARDOSO DA SILVA ANALISTA DO MP ATIVO MANHUAÇU - COMARCA; MANHUACU-PJ-04PJ 5.674,18 432,04 0,00 2.082,29 0,00 0,00 8.188,51 1.039,23 474,68 0,00 1.513,91 6.674,60 11.761,93 2.118,03 31/12/2015
529 347600 CLEIDIMAR DE OLIVEIRA SILVA OFICIAL DO MP ATIVO PATOS DE MINAS - COMARCA; COORD REG BACIAS PARACATU,URUCUIA E ABAETE 5.842,66 1.168,53 0,00 2.096,28 2.337,06 0,00 11.444,53 955,11 1.280,77 0,00 2.235,88 9.208,65 2.160,79 1.970,74 31/12/2015
530 396500 CLEIDISON BATISTA DE ANDRADE OFICIAL DO MP ATIVO RESPLENDOR - COMARCA; RESPLENDOR-PJ-UNPJ 3.526,91 452,17 0,00 1.707,89 0,00 0,00 5.686,97 674,18 74,68 0,00 748,86 4.938,11 7.565,52 1.386,76 31/12/2015
531 535100 CLEISON ALVES DA SILVA ANALISTA DO MP ATIVO BOA ESPERANÇA - COMARCA; BOA ESPERANCA-PJ-01PJ 5.842,66 0,00 0,00 1.822,28 1.947,55 0,00 9.612,49 792,50 991,93 0,00 1.784,43 7.828,06 7.093,64 1.716,16 31/12/2015
532 298100 CLEONICE AUGUSTA BARROS DE OLIVEIRA ANALISTA DO MP ATIVO JUIZ DE FORA - COMARCA; JUIZ DE FORA-PJ-08PJ 8.570,20 2.255,32 0,00 2.834,87 0,00 0,00 13.660,39 1.842,47 1.698,32 0,00 3.540,79 10.119,60 1.763,93 4.028,94 31/12/2015
533 60200 CLERES DE ALMEIDA AGENTE DO MP ATIVO BELO HORIZONTE - COMARCA; EXTINTA - DIVISAO DE TRANSPORTES 4.668,87 3.735,10 0,00 2.194,30 2.801,32 0,00 13.399,59 1.339,38 2.206,19 0,00 3.545,57 9.854,02 2.239,63 4.211,30 31/12/2015
534 114300 CLERES PEREIRA DA SILVA JUNIOR ASSESSOR ATIVO BELO HORIZONTE - COMARCA; GAECO - SECRETARIA 0,00 1.670,07 4.175,17 2.482,03 1.948,41 0,00 10.275,68 1.026,02 1.196,13 0,00 2.222,15 8.053,53 9.538,67 1.635,02 31/12/2015
535 264100 CLETO HENRIQUE ANDRADE SILVA ANALISTA DO MP ATIVO BELO HORIZONTE - COMARCA; DIRETORIA DE SISTEMAS DE INFORMACAO 8.849,21 2.328,74 0,00 3.055,27 0,00 0,00 14.233,22 1.911,30 1.625,50 0,00 3.536,80 10.696,42 1.763,93 4.009,80 31/12/2015
536 334400 CLEUBA DE OLIVEIRA BARCELOS GONCALVES OFICIAL DO MP ATIVO DIVINÓPOLIS - COMARCA; COORD REG SAUDE MACRORREGIAO SANITARIA OESTE 4.888,39 1.286,42 0,00 2.977,00 2.572,84 0,00 11.724,65 1.034,86 1.198,48 0,00 2.233,34 9.491,31 2.164,42 1.996,69 31/12/2015
537 347500 CLEUSA CORDEIRO DA MATA PIMENTA OFICIAL DO MP ATIVO CAMPO BELO - COMARCA; CAMPO BELO-PJ-02PJ 6.229,29 4.360,51 0,00 2.511,80 3.529,93 0,00 16.631,53 1.442,91 2.588,95 0,00 4.031,86 12.599,67 2.251,47 2.997,68 31/12/2015
538 510200 CLEZIO SALES SILVA OFICIAL DO MP ATIVO BRASÓPOLIS - COMARCA; BRASOPOLIS-PJ-UNPJ 3.557,16 213,43 0,00 1.603,63 0,00 0,00 5.374,22 513,52 148,57 0,00 662,09 4.712,13 1.763,93 1.055,77 31/12/2015
539 323000 CLOTILDE DE PADUA VIEIRA OFICIAL DO MP ATIVO BELO HORIZONTE - COMARCA; CGMP-DIVISAO DE APOIO ADMINISTRATIVO 3.436,48 904,34 0,00 1.657,49 0,00 0,00 5.998,31 727,14 206,79 0,00 933,93 5.064,38 1.763,93 1.484,50 31/12/2015
540 285200 CLOVIS ANDRE LUDTKE OFICIAL DO MP ATIVO BELO HORIZONTE - COMARCA; DIVISAO DE MANUTENCAO PREDIAL 6.415,78 1.394,73 0,00 2.084,87 2.789,47 0,00 12.684,85 1.137,26 1.792,49 0,00 2.929,75 9.755,10 2.229,74 2.342,66 31/12/2015
541 381100 CONCEICAO APARECIDA TEIXEIRA ARANTES ANALISTA DO MP ATIVO BELO HORIZONTE - COMARCA; BH-23PJ INFRACIONAL-ASS JURIDICA 8.451,80 845,18 0,00 2.697,86 0,00 0,00 11.994,84 1.250,21 1.353,94 0,00 2.604,15 9.390,69 1.763,93 2.419,89 31/12/2015
542 249900 CONSTANTINO CEZAR GOMES MOTA OFICIAL DO MP ATIVO MONTES CLAROS - COMARCA; COORD REG BACIA RIOS VERDE GRANDE E PARDO 4.111,94 1.027,98 0,00 1.817,38 2.055,97 0,00 9.013,27 845,39 870,79 0,00 1.716,18 7.297,09 2.113,06 1.790,54 31/12/2015
543 481000 CRISHMA ANALIA LOMBELLO ANALISTA DO MP ATIVO JUIZ DE FORA - COMARCA; JUIZ DE FORA-PJ-13PJ 6.437,46 432,04 0,00 2.030,16 2.544,26 0,00 11.443,92 1.046,73 1.436,39 0,00 2.483,12 8.960,80 1.763,93 2.211,01 31/12/2015
544 187500 CRISLEY PATRICK TOSTES OFICIAL DO MP ATIVO JUIZ DE FORA - COMARCA; JUIZ DE FORA-PJ-21PJ 7.579,95 3.072,95 0,00 2.803,53 0,00 0,00 13.456,43 1.802,43 1.657,38 0,00 3.459,81 9.996,62 2.251,47 3.841,96 31/12/2015
545 523900 CRISTHYANE BAZOLI COSTA GUEDES OFICIAL DO MP ATIVO BELO HORIZONTE - COMARCA; EXTINTA-04ª PJ JUÍZO REG PÚBLICOS-SECRETARIA 3.085,86 234,96 0,00 1.419,54 0,00 0,00 4.740,36 565,64 74,83 0,00 640,47 4.099,89 1.998,89 1.243,25 31/12/2015
546 187000 CRISTIAN DAYVSON EVANGELISTA OFICIAL DO MP ATIVO JUIZ DE FORA - COMARCA; JUIZ DE FORA-PJ-09PJ 6.668,20 2.703,32 0,00 8.480,22 0,00 0,00 17.851,74 1.595,96 1.301,31 0,00 2.897,27 14.954,47 2.427,01 3.293,16 31/12/2015
547 319800 CRISTIANA GONCALVES DOS SANTOS GUSMAO OFICIAL DO MP ATIVO SETE LAGOAS - COMARCA; SETE LAGOAS-PJ-10PJ 6.229,29 1.245,86 0,00 1.955,12 0,00 0,00 9.430,27 1.017,62 960,18 0,00 1.977,80 7.452,47 1.763,93 2.088,20 31/12/2015
548 520600 CRISTIANA JANAINA BARBOZA JUVENCIO DOS SANTOS ANALISTA DO MP ATIVO BELO HORIZONTE - COMARCA; EXTINTA - JUIZO DE FAMILIA-02 PJ-02 VARA 5.233,51 398,49 0,00 1.891,92 2.346,67 0,00 9.870,59 959,07 1.111,81 0,00 2.070,88 7.799,71 2.003,02 1.986,23 31/12/2015
549 195600 CRISTIANA SOARES HALABI OFICIAL DO MP ATIVO UBERABA - COMARCA; UBERABA-PJ-11PJ 8.727,00 2.618,10 0,00 2.517,24 0,00 0,00 13.862,34 1.545,30 1.907,35 0,00 3.452,65 10.409,69 2.007,70 3.407,68 31/12/2015
550 218900 CRISTIANE ALVES BELLES OFICIAL DO MP ATIVO JUIZ DE FORA - COMARCA; JUIZ DE FORA-PJ-10PJ 4.977,82 1.493,35 0,00 2.162,47 0,00 0,00 8.633,64 868,90 610,18 0,00 1.479,08 7.154,56 2.102,05 1.692,62 31/12/2015
551 263600 CRISTIANE CARVALHO COUTINHO OFICIAL DO MP ATIVO BELO HORIZONTE - COMARCA; BH-23PJ INFRACIONAL-SEC EXP 6.973,67 1.394,73 0,00 2.137,01 2.789,47 0,00 13.294,88 1.137,41 1.893,77 0,00 3.031,18 10.263,70 5.736,57 2.517,43 31/12/2015
552 541000 CRISTIANE COELHO ALVES OFICIAL DO MP ATIVO ITABIRA - COMARCA; ITABIRA-PJ-01PJ 2.756,02 0,00 0,00 2.989,41 0,00 0,00 5.745,43 460,91 21,26 0,00 482,17 5.263,26 1.763,93 875,82 31/12/2015
553 441700 CRISTIANE CORRADO DE ANDRADE ANALISTA DO MP ATIVO BELO HORIZONTE - COMARCA; DIRETORIA DE SISTEMAS DE INFORMACAO 6.592,40 845,18 0,00 2.219,74 3.098,99 0,00 12.756,31 1.297,04 1.746,96 0,00 3.044,00 9.712,31 1.763,93 2.867,27 31/12/2015
554 375100 CRISTIANE DAS DORES ERCIO DE LIMA OFICIAL DO MP ATIVO GOVERNADOR VALADARES - COMARCA; COOR REG INCLUSAO MOBILIZ VALE DO RIO DOCE 4.009,14 513,99 0,00 1.779,75 1.884,64 0,00 8.187,52 764,88 721,75 0,00 1.486,63 6.700,89 2.073,87 1.656,31 31/12/2015
555 631600 CRISTIANE DE FREITAS NEVES OFICIAL DO MP ATIVO IPATINGA - COMARCA; IPATINGA-PJ-SECRETARIA 2.424,50 0,00 0,00 2.637,76 0,00 0,00 5.062,26 410,50 14,03 0,00 424,53 4.637,73 1.763,93 747,45 31/12/2015
556 178800 CRISTIANE DE LIMA HOSKEN OFICIAL DO MP ATIVO BELO HORIZONTE - COMARCA; BH-14PJ DEFESA CONSUMIDOR-GAB 113PJ 9.920,24 2.976,07 0,00 2.898,96 4.298,77 0,00 20.094,04 1.759,89 3.312,76 0,00 5.072,65 15.021,39 2.493,91 3.639,13 31/12/2015
557 494000 CRISTIANE DE MELO MARQUEZ OLIVEIRA ANALISTA DO MP ATIVO UBERLÂNDIA - COMARCA; UBERLANDIA-PJ-06PJ 7.200,74 432,04 0,00 2.274,41 0,00 0,00 9.907,19 1.028,62 998,76 0,00 2.027,38 7.879,81 2.162,42 2.043,59 31/12/2015
558 266100 CRISTIANE DE OLIVEIRA CASTRO OFICIAL DO MP ATIVO BELO HORIZONTE - COMARCA; BH-14PJ DEFESA CONSUMIDOR-SECRETARIA 7.200,74 2.614,97 0,00 2.493,05 0,00 0,00 12.308,76 1.178,96 2.784,92 0,00 3.963,88 8.344,88 9.309,22 44.159,26 31/12/2015
559 329500 CRISTIANE DOS REIS SILVA OFICIAL DO MP ATIVO ARAXÁ - COMARCA; ARAXA-PJ-04PJ 5.658,41 1.131,68 0,00 1.959,89 2.263,36 0,00 11.013,34 911,05 1.310,66 0,00 2.221,71 8.791,63 7.115,25 1.748,80 31/12/2015
560 301600 CRISTIANE GODINHO PIRES ANALISTA DO MP ATIVO BETIM - COMARCA; BETIM-PJ-07PJ 10.484,16 2.184,20 0,00 2.772,89 0,00 0,00 15.441,25 1.785,18 2.218,01 0,00 4.003,19 11.438,06 2.251,47 3.941,98 31/12/2015
561 406100 CRISTIANE GONCALVES CHAVES ANALISTA DO MP ATIVO BELO HORIZONTE - COMARCA; BH-09PJ AUDITORIA MILITAR-SECRETARIA 6.632,52 1.745,40 0,00 2.390,48 3.490,80 0,00 14.259,20 1.426,51 2.077,75 0,00 3.504,26 10.754,94 2.356,71 2.941,02 31/12/2015
562 487600 CRISTIANE LOPES DE OLIVEIRA OFICIAL DO MP ATIVO CARMO DA MATA - COMARCA; CARMO DA MATA-PJ-SECRETARIA 4.241,01 254,46 0,00 3.779,54 0,00 0,00 8.275,01 603,24 221,43 0,00 824,67 7.450,34 1.763,93 1.162,29 31/12/2015
563 502500 CRISTIANE MACIEL DE OLIVEIRA GOMES ANALISTA DO MP ATIVO JUIZ DE FORA - COMARCA; JUIZ DE FORA-PJ-05PJ 5.233,51 398,49 0,00 5.411,92 2.346,67 0,00 13.390,59 959,21 1.111,81 0,00 2.071,02 11.319,57 1.763,93 2.109,88 31/12/2015
564 285500 CRISTIANE MAGALHAES LOURENCO ANALISTA DO MP ATIVO BELO HORIZONTE - COMARCA; CENTRAL DE APOIO TECNICO-SETOR CONTABIL 10.153,56 2.115,33 0,00 2.817,14 4.230,65 0,00 19.316,68 1.729,09 3.179,81 0,00 4.908,90 14.407,78 2.482,35 3.573,43 31/12/2015
565 536500 CRISTIANE MICHELE DE SOUZA ANALISTA DO MP ATIVO BARÃO DE COCAIS - COMARCA; BARAO DE COCAIS-PJ-UNPJ 5.842,66 0,00 0,00 1.770,15 0,00 0,00 7.612,81 791,87 508,49 0,00 1.300,36 6.312,45 6.762,93 1.583,13 31/12/2015
566 346600 CRISTIANE NOGUEIRA ANDRADE ANALISTA DO MP ATIVO BELO HORIZONTE - COMARCA; CENTRAL DE APOIO TECNICO-SETOR CONTABIL 7.989,68 1.024,32 0,00 2.505,96 0,00 0,00 11.519,96 1.525,37 1.268,65 0,00 2.794,02 8.725,94 11.761,93 3.268,81 31/12/2015
567 234000 CRISTIANE OLIVEIRA TOSTES OFICIAL DO MP ATIVO JUIZ DE FORA - COMARCA; JUIZ DE FORA-PJ-08PJ 6.632,52 1.745,40 0,00 2.390,48 0,00 0,00 10.768,40 1.426,37 1.117,78 0,00 2.544,15 8.224,25 2.356,71 2.937,76 31/12/2015
568 445800 CRISTIANE ORZIL COSTA OFICIAL DO MP ATIVO SANTA LUZIA - COMARCA; SANTA LUZIA-PJ-05PJ 4.043,58 404,36 0,00 3.704,10 0,00 0,00 8.152,04 608,00 254,57 0,00 862,57 7.289,47 1.763,93 1.251,44 31/12/2015
569 616100 CRISTIANE PAES RODRIGUES MARCICANO ANALISTA DO MP ATIVO CATAGUASES - COMARCA; CATAGUASES-PJ-05PJ 4.820,91 0,00 0,00 1.550,89 0,00 0,00 6.371,80 650,73 329,26 0,00 979,99 5.391,81 3.216,40 1.341,71 31/12/2015
570 612300 CRISTIANE RIBEIRO DOS REIS ARCANJO OFICIAL DO MP ATIVO BELO HORIZONTE - COMARCA; EXTINTA - DIRETORIA SERVIÇOS GERAIS E TRANS 3.445,03 0,00 0,00 1.266,89 0,00 0,00 4.711,92 466,97 76,67 0,00 543,64 4.168,28 1.763,93 974,48 31/12/2015
571 215000 CRISTIANE RODRIGUES DE CARVALHO ASSESSOR ATIVO BELO HORIZONTE - COMARCA; BH-14PJ DEFESA CONSUMIDOR-GAB 005PJ 0,00 1.252,55 4.175,17 2.231,67 1.809,24 0,00 9.468,63 1.026,02 1.199,45 0,00 2.225,47 7.243,16 1.763,93 1.514,01 31/12/2015
572 257700 CRISTIANE RODRIGUES PAES NUNES ANALISTA DO MP ATIVO BELO HORIZONTE - COMARCA; BH-22PJ PES COM DEF E IDOSOS-ORIENTACAO PSIC 8.849,21 2.328,74 0,00 2.950,99 0,00 0,00 14.128,94 1.899,36 1.729,77 0,00 3.629,13 10.499,81 2.529,89 3.914,50 31/12/2015
573 510800 CRISTIANE SANTOS FERNANDES ORNELES ANALISTA DO MP ATIVO BELO HORIZONTE - COMARCA; COORD ESTADUAL DAS PJS DE HAB. E URBANISMO 6.406,84 398,49 0,00 5.464,06 2.346,67 0,00 14.616,06 958,65 1.382,34 0,00 2.340,99 12.275,07 1.763,93 2.089,91 31/12/2015
574 535700 CRISTIANE SANTOS MIRANDA OFICIAL DO MP ATIVO BETIM - COMARCA; BETIM-PJ-02PJ 3.792,57 0,00 0,00 1.356,03 0,00 0,00 5.148,60 514,03 123,07 0,00 637,10 4.511,50 1.763,93 1.097,80 31/12/2015
575 536200 CRISTIANO DE OLIVEIRA ANALISTA DO MP ATIVO CONCEIÇÃO DO MATO DENTRO - COMARCA; CONCEICAO DO MATO DENTRO-PJ-UNPJ 5.842,66 0,00 0,00 1.718,01 0,00 0,00 7.560,67 792,04 560,63 0,00 1.352,67 6.208,00 1.763,93 1.698,44 31/12/2015
576 477400 CRISTIANO SOARES ELEUTERIO ANALISTA DO MP ATIVO BELO HORIZONTE - COMARCA; BH-17PJ PATRIMONIO PUBLICO 5.674,18 432,04 0,00 1.978,02 2.544,26 0,00 10.628,50 1.050,13 1.278,63 0,00 2.328,76 8.299,74 1.780,04 2.215,70 31/12/2015
577 449400 CRISTIANO TEIXEIRA RODRIGUES LANA ANALISTA DO MP ATIVO BELO HORIZONTE - COMARCA; ASSESS TECNICO-JUR JUNTO AS PROC. DE JUST 7.435,23 743,52 0,00 2.057,32 2.726,25 0,00 12.962,32 1.111,61 1.882,11 0,00 2.993,72 9.968,60 2.226,88 2.304,57 31/12/2015
578 239400 CRISTINA DE FATIMA CRUZ E SILVA OFICIAL DO MP ATIVO MONTE SANTO DE MINAS - COMARCA; MONTE SANTO DE MINAS-PJ-SECRETARIA 7.435,23 1.487,05 0,00 2.165,32 0,00 0,00 11.087,60 1.220,93 1.314,37 0,00 2.535,30 8.552,30 1.763,93 2.744,78 31/12/2015
579 544000 CRISTINA DE OLIVEIRA TERRA ANALISTA DO MP ATIVO MATOZINHOS - COMARCA; MATOZINHOS-PJ-02PJ 5.842,66 0,00 0,00 4.639,34 0,00 0,00 10.482,00 781,38 560,63 0,00 1.342,01 9.139,99 1.763,93 1.570,71 31/12/2015
580 356800 CRISTINA DE PINHO BARROSO OFICIAL DO MP ATIVO SABINÓPOLIS - COMARCA; SABINOPOLIS-PJ-UNPJ 3.783,14 995,56 0,00 1.841,27 0,00 0,00 6.619,97 813,56 206,57 0,00 1.020,13 5.599,84 1.763,93 1.668,72 31/12/2015
581 449100 CRISTINA KISTEMANN CHIODI ASSESSOR ATIVO BELO HORIZONTE - COMARCA; COORD-GERAL DAS PJS POR BACIA HIDRO. DE MG 0,00 0,00 9.304,45 3.103,93 0,00 0,00 12.408,38 1.026,02 1.768,01 0,00 2.794,03 9.614,35 1.763,93 2.630,92 31/12/2015
582 348201 CRISTINA MARIA DA SILVA ANALISTA DO MP ATIVO PATOS DE MINAS - COMARCA; PATOS DE MINAS-PJ-02PJ 7.200,74 720,07 0,00 2.019,85 0,00 0,00 9.940,66 1.090,90 1.069,26 0,00 2.160,16 7.780,50 1.763,93 2.316,19 31/12/2015
583 434900 CRISTINA MELO DE MADUREIRA ANALISTA DO MP ATIVO BELO HORIZONTE - COMARCA; CAO-CRIMINAL-SECRETARIA 7.522,10 845,18 0,00 2.219,74 3.098,99 0,00 13.686,01 1.293,70 2.002,63 0,00 3.296,33 10.389,68 4.633,47 2.830,82 31/12/2015
584 117100 CRISTINA PEDROSA GARABINI COORDENADOR/ANALISTA ATIVO BELO HORIZONTE - COMARCA; DIRET DE INFORMACAO E CONHECIMENTO-DINC/CEAF 18.576,08 15.624,30 0,00 5.399,56 0,00 0,00 39.599,94 4.056,90 6.484,17 3.785,47 14.326,54 25.273,40 1.763,93 7.888,93 31/12/2015
585 307700 CRISTINA TEIXEIRA MARQUES OFICIAL DO MP ATIVO BELO HORIZONTE - COMARCA; CENTRAL DE APOIO TECNICO-SECRETARIA 4.585,03 1.206,59 0,00 1.920,90 0,00 0,00 7.712,52 969,19 504,34 0,00 1.473,53 6.238,99 2.136,16 1.868,39 31/12/2015
586 265300 CRISTOVAO SANCHES DE MEDEIROS ANALISTA DO MP ATIVO BELO HORIZONTE - COMARCA; DIRETORIA DE CONTABILIDADE 10.576,63 2.115,33 0,00 2.765,00 0,00 0,00 15.456,96 1.718,40 2.184,86 0,00 3.903,26 11.553,70 1.763,93 3.448,76 31/12/2015
587 349800 CROZEIR LUIZ DA SILVA OFICIAL DO MP ATIVO UNAÍ - COMARCA; UNAI-PJ-SECRETARIA 4.557,27 584,27 0,00 1.855,01 2.142,31 0,00 9.138,86 875,82 887,15 0,00 1.762,97 7.375,89 3.151,72 1.818,41 31/12/2015
588 490500 CYNTHIA CRISTINA DE SOUZA OLIVEIRA VALENTE ANALISTA DO MP ATIVO BELO HORIZONTE - COMARCA; BH-09PJ AUDITORIA MILITAR 5.674,18 432,04 0,00 5.794,41 2.544,26 0,00 14.444,89 1.023,94 1.278,63 0,00 2.302,57 12.142,32 4.305,33 1.969,18 31/12/2015
589 389800 CYNTHIA GARIGLIO DOS SANTOS OFICIAL DO MP ATIVO PERDIZES - COMARCA; PERDIZES-PJ-SECRETARIA 3.526,91 452,17 0,00 1.665,23 0,00 0,00 5.644,31 676,32 103,12 0,00 779,44 4.864,87 6.762,93 1.470,12 31/12/2015
590 335101 CYNTHIA GONTIJO D ASSUNCAO ANALISTA DO MP ATIVO BELO HORIZONTE - COMARCA; PROC. JUSTICA DIR. DIFUSOS E COLETIVOS-SEC 5.674,18 432,04 0,00 1.978,02 0,00 0,00 8.084,24 1.050,24 578,96 0,00 1.629,20 6.455,04 1.763,93 2.362,29 31/12/2015
591 154000 CYNTHIA LOPES DOS SANTOS LAGES ASSESSOR ATIVO BELO HORIZONTE - COMARCA; PROCURADOR-GERAL DE JUSTICA- GABINETE 0,00 5.460,50 10.921,00 3.248,77 5.460,50 0,00 25.090,77 2.232,99 4.641,65 0,00 6.874,64 18.216,13 2.495,24 4.654,73 31/12/2015
592 269700 CYNTIA ROCHA CAVALCANTI OFICIAL DO MP ATIVO UBERLÂNDIA - COMARCA; UBERLANDIA-PJ-06PJ 7.200,74 1.440,15 0,00 2.124,44 2.880,30 0,00 13.645,63 1.178,24 2.037,58 0,00 3.215,82 10.429,81 2.253,04 2.644,21 31/12/2015
593 278000 DAIRTON LOPES MARTINS FILHO COORDENADOR/ANALISTA ATIVO BELO HORIZONTE - COMARCA; DIRETORIA DE SISTEMAS DE INFORMACAO 0,00 2.184,20 10.921,00 3.034,70 4.368,40 0,00 20.508,30 1.424,85 3.638,75 0,00 5.063,60 15.444,70 2.505,74 3.709,63 31/12/2015
594 392700 DALIANA CHAVES SILVA OFICIAL DO MP ATIVO ITAÚNA - COMARCA; ITAUNA-PJ-SECRETARIA 4.139,68 530,73 0,00 1.717,33 0,00 0,00 6.387,74 795,38 270,22 0,00 1.065,60 5.322,14 2.001,86 1.640,72 31/12/2015
595 558101 DALLEY TASSIA SILVA ANALISTA DO MP ATIVO MORADA NOVA DE MINAS - COMARCA; MORADA NOVA DE MINAS-PJ-UNPJ 5.307,28 0,00 0,00 4.382,14 0,00 0,00 9.689,42 719,42 341,34 0,00 1.060,76 8.628,66 1.763,93 1.403,55 31/12/2015
596 476700 DALTON DAUD ANALISTA DO MP ATIVO ARAGUARI - COMARCA; ARAGUARI-PJ-05PJ 5.674,18 432,04 0,00 2.082,29 2.544,26 0,00 10.732,77 1.050,90 1.174,35 0,00 2.225,25 8.507,52 2.023,16 2.259,89 31/12/2015
597 548700 DALVA DE SOUZA ROCHA ALMEIDA OFICIAL DO MP ATIVO CORONEL FABRICIANO - COMARCA; CORONEL FABRICIANO-PJ-02PJ 3.034,06 0,00 0,00 1.640,38 1.264,19 0,00 5.938,63 507,50 170,48 0,00 677,98 5.260,65 1.763,93 967,87 31/12/2015
598 426900 DANIEL ALVES DA SILVA OFICIAL DO MP ATIVO BELO HORIZONTE - COMARCA; EXTINTA - PROTOCOLO DA PGJ 4.379,06 437,91 0,00 2.021,98 0,00 0,00 6.838,95 653,81 243,15 0,00 896,96 5.941,99 2.036,59 1.417,80 31/12/2015
599 122000 DANIEL ANTONIO VIEIRA OFICIAL DO MP ATIVO ENTRE-RIOS DE MINAS - COMARCA; ENTRE RIOS DE MINAS-PJ-SECRETARIA 8.185,27 5.729,69 0,00 10.108,67 0,00 0,00 24.023,63 1.852,50 2.275,64 0,00 4.128,14 19.895,49 1.763,93 3.444,11 31/12/2015
600 272401 DANIEL AUGUSTO DOS REIS ANALISTA DO MP ATIVO BELO HORIZONTE - COMARCA; BH-22PJ PES COM DEF E IDOSOS-ASS JURIDICA 8.727,00 872,70 0,00 7.063,56 0,00 0,00 16.663,26 1.307,61 1.480,17 0,00 2.787,78 13.875,48 1.763,93 2.713,02 31/12/2015
601 536301 DANIEL BATISTA MARIANO ANALISTA DO MP ATIVO CURVELO - COMARCA; CURVELO-PJ-05PJ 4.111,94 0,00 0,00 1.611,43 0,00 0,00 5.723,37 702,48 177,18 0,00 879,66 4.843,71 1.763,93 1.329,95 31/12/2015
602 411000 DANIEL FERREIRA DA SILVA ANALISTA DO MP ATIVO GOVERNADOR VALADARES - COMARCA; GOVERNADOR VALADARES-PJ-15PJ 6.423,37 1.690,36 0,00 2.606,70 0,00 0,00 10.720,43 1.395,70 950,84 0,00 2.346,54 8.373,89 7.076,71 2.961,55 31/12/2015
603 309000 DANIEL GOMES DOS SANTOS ANALISTA DO MP ATIVO POÇOS DE CALDAS - COMARCA; POCOS DE CALDAS-PJ-03PJ 9.607,41 1.921,48 0,00 2.543,92 0,00 0,00 14.072,81 1.570,99 1.952,34 0,00 3.523,33 10.549,48 7.415,51 3.477,62 31/12/2015
604 554500 DANIEL GOMES PEREIRA OFICIAL DO MP ATIVO NANUQUE - COMARCA; NANUQUE-PJ-02PJ 2.756,02 0,00 0,00 1.396,33 0,00 0,00 4.152,35 461,27 35,48 0,00 496,75 3.655,60 1.763,93 892,17 31/12/2015
605 453000 DANIEL GONCALVES PEREIRA ANALISTA DO MP ATIVO UNAÍ - COMARCA; UNAI-PJ-04PJ 7.435,23 743,52 0,00 2.330,31 0,00 0,00 10.509,06 1.100,12 1.132,39 0,00 2.232,51 8.276,55 2.195,98 2.154,49 31/12/2015
606 495500 DANIEL GUIMARAES CABRAL OFICIAL DO MP ATIVO BELO HORIZONTE - COMARCA; BH-17PJ PATRIMONIO PUBLICO-SECRETARIA 3.224,23 234,96 0,00 1.609,76 0,00 0,00 5.068,95 555,40 95,59 0,00 650,99 4.417,96 1.763,93 1.124,62 31/12/2015
607 442900 DANIEL GUIMARAES GONCALVES ANALISTA DO MP ATIVO UBERLÂNDIA - COMARCA; UBERLANDIA-PJ-03PJ 6.592,40 845,18 0,00 2.778,85 3.098,99 0,00 13.315,42 1.237,39 1.746,96 0,00 2.984,35 10.331,07 2.226,88 2.311,99 31/12/2015
608 491200 DANIEL HENRIQUE SOUTO COSTA ANALISTA DO MP ATIVO CORAÇÃO DE JESUS - COMARCA; CORACAO DE JESUS-PJ-UNPJ 7.200,74 432,04 0,00 3.088,45 0,00 0,00 10.721,23 1.023,96 998,76 0,00 2.022,72 8.698,51 1.763,93 2.101,52 31/12/2015
609 464600 DANIEL PIACENTINI STIVANIN ANALISTA DO MP ATIVO ANDRADAS - COMARCA; ANDRADAS-PJ-02PJ 7.200,74 432,04 0,00 1.978,02 2.544,26 0,00 12.155,06 1.038,77 1.698,43 0,00 2.737,20 9.417,86 1.763,93 2.106,75 31/12/2015
610 417000 DANIEL QUEIROZ FERREIRA ANALISTA DO MP ATIVO SÃO SEBASTIÃO DO PARAÍSO - COMARCA; SAO SEBASTIAO DO PARAISO-PJ-05PJ 8.185,27 818,53 0,00 2.177,16 3.001,27 0,00 14.182,23 1.247,01 2.159,67 0,00 3.406,68 10.775,55 2.251,47 2.877,52 31/12/2015
611 396700 DANIEL SILVA CARNEVALLI DIRETOR/ANALISTA ATIVO BELO HORIZONTE - COMARCA; SUPERINTENDENCIA DE TECNOLOGIA DA INFORMACAO 0,00 1.415,52 14.155,19 3.607,19 5.190,24 0,00 24.368,14 1.465,48 4.549,51 0,00 6.014,99 18.353,15 2.495,24 4.415,04 31/12/2015
612 489300 DANIEL TABOZA ROCHA ANALISTA DO MP ATIVO IPATINGA - COMARCA; IPATINGA-PJ-08PJ 7.200,74 432,04 0,00 2.274,41 2.544,26 0,00 12.451,45 1.024,15 1.698,43 0,00 2.722,58 9.728,87 1.763,93 2.106,64 31/12/2015
613 414100 DANIEL TARDELI VALADAO ANALISTA DO MP ATIVO TRÊS CORACOES - COMARCA; TRES CORACOES-PJ-02PJ 6.592,40 845,18 0,00 3.528,70 3.098,99 0,00 14.065,27 1.280,05 1.746,96 0,00 3.027,01 11.038,26 2.054,40 2.917,38 31/12/2015
614 446601 DANIEL VIEIRA BUENO ANALISTA DO MP ATIVO SÃO DOMINGOS DO PRATA - COMARCA; SAO DOMINGOS DO PRATA-PJ-UNPJ 5.139,92 0,00 0,00 2.611,14 0,00 0,00 7.751,06 565,39 393,14 0,00 958,53 6.792,53 1.163,95 0,00 31/12/2015
615 253200 DANIELA BATISTA LIMA BARBOSA ASSESSOR ATIVO BELO HORIZONTE - COMARCA; CENTRAL DE APOIO TECN-SETOR DE MEIO AMBIENTE 0,00 835,03 4.175,17 2.129,36 0,00 0,00 7.139,56 1.026,02 587,09 0,00 1.613,11 5.526,45 1.763,93 1.424,24 31/12/2015
616 505800 DANIELA BORGES DE MATTOS RESENDE ANALISTA DO MP ATIVO JUIZ DE FORA - COMARCA; JUIZ DE FORA-PJ-20PJ 6.641,51 398,49 0,00 1.891,92 0,00 0,00 8.931,92 958,49 853,68 0,00 1.812,17 7.119,75 6.762,93 2.089,29 31/12/2015
617 478000 DANIELA CARVALHO SOARES ANALISTA DO MP ATIVO SÃO JOÃO DEL REI - COMARCA; SAO JOAO DEL REI-PJ-01PJ 7.200,74 432,04 0,00 2.897,21 0,00 0,00 10.529,99 1.050,15 998,76 0,00 2.048,91 8.481,08 1.763,93 2.358,82 31/12/2015
618 275900 DANIELA CHAGAS SODRE ANALISTA DO MP ATIVO BELO HORIZONTE - COMARCA; CENTRAL DE APOIO TECNICO-SETOR CONTABIL 8.038,24 2.115,33 0,00 2.765,00 4.230,65 0,00 17.149,22 1.729,67 2.650,23 0,00 4.379,90 12.769,32 7.481,35 3.591,05 31/12/2015
619 234301 DANIELA CRUZ SOARES ANALISTA DO MP ATIVO BELO HORIZONTE - COMARCA; LAB TECNOLOGIA CONTRA LAVAGEM DINHEIRO 8.849,21 2.328,74 0,00 2.898,86 4.657,48 0,00 18.734,29 1.903,70 3.062,72 0,00 4.966,42 13.767,87 2.554,83 3.937,31 31/12/2015
620 638000 DANIELA DE ALMEIDA BATISTA ANALISTA DO MP ATIVO ANDRELÂNDIA - COMARCA; ANDRELANDIA-PJ-UNPJ 5.139,92 0,00 0,00 2.947,03 0,00 0,00 8.086,95 565,39 393,14 0,00 958,53 7.128,42 1.309,93 0,00 31/12/2015
621 301000 DANIELA DE ALMEIDA E OLIVEIRA ANALISTA DO MP ATIVO BELO HORIZONTE - COMARCA; DIRETORIA DE SISTEMAS DE INFORMACAO 8.038,24 2.115,33 0,00 2.712,86 0,00 0,00 12.866,43 1.726,74 1.538,94 0,00 3.265,68 9.600,75 1.763,93 3.811,83 31/12/2015
622 296000 DANIELA DE AZEVEDO SILVA ANALISTA DO MP ATIVO ITAJUBA - COMARCA; ITAJUBA-PJ-03PJ 10.921,00 2.184,20 0,00 2.772,89 0,00 0,00 15.878,09 1.784,39 2.338,14 0,00 4.122,53 11.755,56 2.060,65 3.888,91 31/12/2015
623 453500 DANIELA DE CASTRO SOUSA BARBOSA ANALISTA DO MP ATIVO BELO HORIZONTE - COMARCA; BH-08PJ JUIZADO ESPECIAL-SECRETARIA 5.799,48 743,52 0,00 2.186,29 2.726,25 0,00 11.455,54 1.183,66 1.535,23 0,00 2.718,89 8.736,65 2.007,70 2.990,15 31/12/2015
624 506000 DANIELA DE OLIVEIRA CAVALIERI ANALISTA DO MP ATIVO BELO HORIZONTE - COMARCA; BH-14PJ DEFESA CONSUMIDOR-GAB 005PJ 5.480,05 328,80 0,00 1.713,09 0,00 0,00 7.521,94 791,06 552,36 0,00 1.343,42 6.178,52 1.763,93 1.730,63 31/12/2015
625 546200 DANIELA DE VILHENA LEMES GONCALVES OFICIAL DO MP ATIVO TRÊS CORACOES - COMARCA; TRES CORACOES-PJ-05PJ 3.445,03 0,00 0,00 1.503,68 0,00 0,00 4.948,71 460,93 58,72 0,00 519,65 4.429,06 1.763,93 933,57 31/12/2015
626 356400 DANIELA LEAL FERRAZ ANALISTA DO MP ATIVO MONTES CLAROS - COMARCA; COORD REG PJ DEF EDUC DIR CRIANCA ADOL NORTE 7.028,64 901,11 0,00 2.309,10 0,00 0,00 10.238,85 1.351,07 1.011,48 0,00 2.362,55 7.876,30 2.325,00 2.815,34 31/12/2015
627 501000 DANIELA LOURENCO SANTOS DA SILVA GUIMARAES ANALISTA DO MP ATIVO BELO HORIZONTE - COMARCA; BH-12PJ JUIZO CRIMINAL-GAB 086PJ 6.641,51 398,49 0,00 1.944,06 0,00 0,00 8.984,06 958,69 801,54 0,00 1.760,23 7.223,83 6.762,93 2.100,16 31/12/2015
628 195801 DANIELA MARIA DE OLIVEIRA QUEIROZ ANALISTA DO MP ATIVO ARAGUARI - COMARCA; ARAGUARI-PJ-06PJ 8.451,80 2.535,54 0,00 2.465,27 3.662,45 0,00 17.115,06 1.527,54 2.826,96 0,00 4.354,50 12.760,56 1.763,93 3.315,21 31/12/2015
629 511400 DANIELA MARIA LARA DE OLIVEIRA ANALISTA DO MP ATIVO BOA ESPERANÇA - COMARCA; BOA ESPERANCA-PJ-02PJ 4.753,95 361,98 0,00 5.047,81 0,00 0,00 10.163,74 871,20 314,02 0,00 1.185,22 8.978,52 2.125,91 1.917,92 31/12/2015
630 252101 DANIELA PAULA ALVES PENA ANALISTA DO MP ATIVO CONTAGEM - COMARCA; CONTAGEM-PJ-APO TECNICO 8.620,60 2.703,32 0,00 4.214,04 0,00 0,00 15.537,96 1.585,74 1.890,36 0,00 3.476,10 12.061,86 2.149,24 3.187,07 31/12/2015
631 604700 DANIELA PEIXOTO NOGUEIRA OFICIAL DO MP ATIVO BELO HORIZONTE - COMARCA; DIRET DE FORMACAO, APERFEIC. E POS-GRADUACAO 3.445,03 0,00 0,00 2.960,97 0,00 0,00 6.406,00 467,88 105,11 0,00 572,99 5.833,01 1.763,93 928,96 31/12/2015
632 429600 DANIELA PIMENTA NUNES MACHADO ANALISTA DO MP ATIVO BELO HORIZONTE - COMARCA; BH-05PJ JUÍZO DE SUCESSÕES 8.451,80 845,18 0,00 6.868,23 0,00 0,00 16.165,21 1.294,58 1.406,08 0,00 2.700,66 13.464,55 2.290,18 2.899,41 31/12/2015
633 424300 DANIELA PORTO PINTO OFICIAL DO MP ATIVO BELO HORIZONTE - COMARCA; EXTINTA-DEFESA DA SAUDE-19 PJ-GABINETE 4.175,17 417,52 0,00 1.901,96 0,00 0,00 6.494,65 633,17 283,56 0,00 916,73 5.577,92 1.763,93 1.357,22 31/12/2015
634 462000 DANIELA SOUSA GOMES DO AMARAL ANALISTA DO MP ATIVO BETIM - COMARCA; BETIM-PJ-04PJ 7.200,74 432,04 0,00 2.897,21 0,00 0,00 10.529,99 1.039,34 998,76 0,00 2.038,10 8.491,89 4.860,53 2.270,16 31/12/2015
635 427000 DANIELA TEIXEIRA DINIZ ANDRADE ANALISTA DO MP ATIVO BELO HORIZONTE - COMARCA; DIRETORIA DE PROJETOS DE EDIFICACOES 5.799,48 743,52 0,00 6.198,84 0,00 0,00 12.741,84 1.109,91 630,42 0,00 1.740,33 11.001,51 4.423,70 2.406,90 31/12/2015
636 337200 DANIELA TOLEDO SENIUK ANALISTA DO MP ATIVO BELO HORIZONTE - COMARCA; CGMP-SECRETARIA DA CORREGEDORIA-GERAL DO MP 9.011,08 1.802,22 0,00 3.949,39 3.604,43 0,00 18.367,12 1.425,32 2.716,28 0,00 4.141,60 14.225,52 3.748,93 2.517,23 31/12/2015
637 605600 DANIELE ALZIRA SILVA CABRAL MOREIRA OFICIAL DO MP ATIVO BELO HORIZONTE - COMARCA; BH-10PJ EXECUÇÃO PENAL 3.445,03 0,00 0,00 1.238,45 0,00 0,00 4.683,48 470,25 105,11 0,00 575,36 4.108,12 1.958,93 964,78 31/12/2015
638 195500 DANIELE CHAVES FONSECA OFICIAL DO MP ATIVO BELO HORIZONTE - COMARCA; ASSESSORIA ESPECIAL DO PGJ 9.920,24 2.976,07 0,00 9.190,71 4.298,77 0,00 26.385,79 1.749,83 3.469,17 0,00 5.219,00 21.166,79 2.470,89 3.535,18 31/12/2015
639 323400 DANIELE MEGALE SANTINI OFICIAL DO MP ATIVO BELO HORIZONTE - COMARCA; ASSESS TECNICO-JUR JUNTO AS PROC. DE JUST 6.641,51 1.328,30 0,00 2.079,11 0,00 0,00 10.048,92 1.068,22 1.029,11 0,00 2.097,33 7.951,59 2.177,46 2.183,51 31/12/2015
640 357900 DANIELE REJANE PINTO VERSIEUX OFICIAL DO MP ATIVO PEDRO LEOPOLDO - COMARCA; PEDRO LEOPOLDO-PJ-03PJ 4.705,69 603,29 0,00 1.833,27 0,00 0,00 7.142,25 924,71 394,15 0,00 1.318,86 5.823,39 2.094,49 2.054,02 31/12/2015
641 389500 DANIELE VASCONCELOS AMORIM OFICIAL DO MP ATIVO SÃO SEBASTIÃO DO PARAÍSO - COMARCA; SAO SEBASTIAO DO PARAISO-PJ-04PJ 5.480,05 548,01 0,00 1.744,93 0,00 0,00 7.772,99 820,73 606,01 0,00 1.426,74 6.346,25 1.763,93 1.673,71 31/12/2015
642 629700 DANIELLA BASTOS MARTINS BICALHO OFICIAL DO MP ATIVO GOVERNADOR VALADARES - COMARCA; GOVERNADOR VALADARES-PJ-SECRETARIA 3.030,62 0,00 0,00 2.637,76 0,00 0,00 5.668,38 410,84 59,49 0,00 470,33 5.198,05 1.763,93 762,09 31/12/2015
643 265000 DANIELLE CASTANHEIRA SCALABRINI OFICIAL DO MP ATIVO BELO HORIZONTE - COMARCA; JUNTA RECURSAL DO PROCON ESTADUAL 6.432,09 1.286,42 0,00 2.146,88 0,00 0,00 9.865,39 1.046,33 863,33 0,00 1.909,66 7.955,73 2.187,05 2.284,94 31/12/2015
644 490100 DANIELLE DE AVILA SILVA LOPES ANALISTA DO MP ATIVO BELO HORIZONTE - COMARCA; PROC. JUSTICA DIR. DIFUSOS E COLETIVOS-SEC 7.200,74 1.440,15 0,00 2.459,98 0,00 0,00 11.100,87 1.161,06 1.245,50 0,00 2.406,56 8.694,31 2.215,05 2.307,25 31/12/2015
645 549600 DANIELLE GOMES LOPES RODRIGUES OFICIAL DO MP ATIVO ITABIRA - COMARCA; ITABIRA-PJ-03PJ 3.792,57 0,00 0,00 3.223,88 0,00 0,00 7.016,45 507,43 151,51 0,00 658,94 6.357,51 6.762,93 964,93 31/12/2015
646 613000 DANIELLE SILVA OLIVEIRA FRANKLIN OFICIAL DO MP ATIVO BELO HORIZONTE - COMARCA; DIRETORIA DE ADMINISTRACAO FINANCEIRA 3.445,03 0,00 0,00 2.960,97 0,00 0,00 6.406,00 467,10 105,11 0,00 572,21 5.833,79 1.763,93 981,82 31/12/2015
647 380800 DANILLO RIBEIRO ANTUNES ANALISTA DO MP ATIVO MONTES CLAROS - COMARCA; MONTES CLAROS-PJ-SECRETARIA 6.807,06 872,70 0,00 2.367,99 0,00 0,00 10.047,75 1.307,31 847,91 0,00 2.155,22 7.892,53 1.763,93 2.869,19 31/12/2015
648 453700 DANILO BOTELHO DE CARVALHO ASSESSOR/ANALISTA ATIVO BELO HORIZONTE - COMARCA; DIRETORIA DE ADMINISTRACAO FINANCEIRA 0,00 845,18 8.451,80 2.308,93 3.098,99 0,00 14.704,90 1.134,94 2.292,13 0,00 3.427,07 11.277,83 7.067,20 2.524,28 31/12/2015
649 391200 DANILO D'AVILA MENDES ANALISTA DO MP ATIVO SÃO ROMÃO - COMARCA; SAO ROMAO-PJ-UNPJ 8.727,00 872,70 0,00 2.263,71 3.199,90 0,00 15.063,31 1.308,08 2.360,14 0,00 3.668,22 11.395,09 2.307,31 2.708,88 31/12/2015
650 494900 DANILO GAVIAO AVELINO DE MELLO ANALISTA DO MP ATIVO POUSO ALEGRE - COMARCA; POUSO ALEGRE-PJ-08PJ 7.200,74 432,04 0,00 3.088,45 2.544,26 0,00 13.265,49 1.023,99 1.698,43 0,00 2.722,42 10.543,07 1.923,33 1.967,40 31/12/2015
651 604300 DANILO NASCIMENTO SALGADO ANALISTA DO MP ATIVO JANAÚBA - COMARCA; JANAUBA-PJ-01PJ 5.307,28 0,00 0,00 1.640,24 0,00 0,00 6.947,52 720,59 429,60 0,00 1.150,19 5.797,33 1.763,93 1.418,53 31/12/2015
652 600700 DANILO OLIVEIRA CARILLI OFICIAL DO MP ATIVO ARAGUARI - COMARCA; ARAGUARI-PJ-07PJ 3.129,28 0,00 0,00 2.718,98 0,00 0,00 5.848,26 425,37 66,08 0,00 491,45 5.356,81 1.763,93 849,81 31/12/2015
653 550800 DANTE MENDES BIANCHETTI FILHO ANALISTA DO MP ATIVO BARBACENA - COMARCA; BARBACENA-PJ-SECRETARIA 4.245,82 0,00 0,00 4.293,88 0,00 0,00 8.539,70 710,20 194,50 0,00 904,70 7.635,00 1.763,93 1.444,84 31/12/2015
654 298300 DANUZA MONICA DE SOUZA DINIZ ANALISTA DO MP ATIVO DIVINÓPOLIS - COMARCA; DIVINOPOLIS-PJ-02PJ 8.727,00 1.745,40 0,00 2.442,62 0,00 0,00 12.915,02 1.418,69 1.641,62 0,00 3.060,31 9.854,71 2.251,47 2.894,28 31/12/2015
655 398700 DARCY LUIZ MILEO GREGATTI OFICIAL DO MP ATIVO LAMBARI - COMARCA; LAMBARI-PJ-SECRETARIA 5.658,41 565,84 0,00 2.442,78 0,00 0,00 8.667,03 862,86 654,02 0,00 1.516,88 7.150,15 1.763,93 1.855,71 31/12/2015
656 406200 DARIANA AUGUSTA DE TOLEDO PATROCINIO ASSESSOR/OFICIAL ATIVO BELO HORIZONTE - COMARCA; EXTINTA - DIRETORIA DE CONTRATOS E CONVÊNIOS 0,00 845,18 8.451,80 2.480,44 0,00 0,00 11.777,42 921,21 1.504,96 0,00 2.426,17 9.351,25 2.079,68 2.953,43 31/12/2015
657 305000 DARLI LEITE DE OLIVEIRA OFICIAL DO MP ATIVO ARAÇUAÍ - COMARCA; ARACUAI-PJ-01PJ 3.783,14 995,56 0,00 1.893,41 1.991,13 0,00 8.663,24 814,52 655,24 0,00 1.469,76 7.193,48 7.101,05 1.706,53 31/12/2015
658 122200 DAVID RIBEIRO DOS SANTOS ANALISTA DO MP ATIVO BORDA DA MATA - COMARCA; BORDA DA MATA-PJ-UNPJ 15.298,25 10.708,79 0,00 4.646,89 8.669,01 0,00 39.322,94 3.578,94 7.879,84 0,00 11.458,78 27.864,16 2.739,01 7.774,52 31/12/2015
659 389400 DAWSON CANEDO MARQUES OFICIAL DO MP ATIVO VARGINHA - COMARCA; VARGINHA-PJ-06PJ 4.705,69 603,29 0,00 5.151,38 0,00 0,00 10.460,36 889,67 95,65 0,00 985,32 9.475,04 7.104,14 1.760,32 31/12/2015
660 537200 DAYANE TEIXEIRA DE OLIVEIRA CASELLI ANALISTA DO MP ATIVO BONFINÓPOLIS DE MINAS - COMARCA; BONFINOPOLIS DE MINAS-PJ-UNPJ 5.842,66 0,00 0,00 1.718,01 0,00 0,00 7.560,67 781,52 560,63 0,00 1.342,15 6.218,52 1.763,93 1.576,88 31/12/2015
661 256100 DAYSE ROSALY PEREIRA BATISTA OFICIAL DO MP ATIVO BELO HORIZONTE - COMARCA; BH-08PJ JUIZADO ESPECIAL-SECRETARIA 4.585,03 1.206,59 0,00 1.333,49 0,00 0,00 7.125,11 978,75 1.824,96 0,00 2.803,71 4.321,40 6.490,86 42.389,54 31/12/2015
662 311901 DEBORA APARECIDA DA SILVA ASSESSOR ATIVO BELO HORIZONTE - COMARCA; BH-23PJ CIVEL-SETOR ATEND PUB 0,00 0,00 2.500,62 1.240,41 0,00 0,00 3.741,03 788,08 51,98 0,00 840,06 2.900,97 1.820,55 705,78 31/12/2015
663 194301 DEBORA APARECIDA DOS SANTOS ANALISTA DO MP ATIVO UBERLÂNDIA - COMARCA; UBERLANDIA-PJ-SEC FAMILIA 11.276,58 3.382,97 0,00 3.050,79 0,00 0,00 17.710,34 2.011,26 2.666,43 0,00 4.677,69 13.032,65 2.495,24 4.537,41 31/12/2015
664 518800 DEBORA CARVALHO FIORATTO OFICIAL DO MP ATIVO BELO HORIZONTE - COMARCA; EXTINTA - DIVISÃO DE APOIO À LICITAÇÃO 4.241,01 254,46 0,00 3.736,88 0,00 0,00 8.232,35 615,90 264,09 0,00 879,99 7.352,36 5.174,93 1.278,54 31/12/2015
665 444900 DEBORA CLAUDIA PEREIRA ALVES ANALISTA DO MP ATIVO BELO HORIZONTE - COMARCA; BH-08PJ JUIZADO ESPECIAL-SECRETARIA 5.799,48 743,52 0,00 3.073,35 2.726,25 0,00 12.342,60 1.114,45 1.432,28 0,00 2.546,73 9.795,87 7.225,88 2.459,84 31/12/2015
666 617700 DEBORA COMANDUCI SCHREIDER ANALISTA DO MP ATIVO BICAS - COMARCA; BICAS-PJ-UNPJ 4.820,91 0,00 0,00 4.004,01 0,00 0,00 8.824,92 650,18 286,60 0,00 936,78 7.888,14 6.762,93 1.222,86 31/12/2015
667 555700 DEBORA CRISTINA BUITRAGO PEREIRA ANALISTA DO MP ATIVO BELO HORIZONTE - COMARCA; EXTINTA - DIRETORIA DE CONTRATOS E CONVÊNIOS 5.842,66 0,00 0,00 1.985,70 0,00 0,00 7.828,36 781,44 560,63 0,00 1.342,07 6.486,29 1.763,93 1.576,76 31/12/2015
668 513100 DEBORA CRISTINA PEREIRA DE OLIVEIRA ANALISTA DO MP ATIVO BELO HORIZONTE - COMARCA; BH-23PJ CIVEL-SETOR JURIDICO 5.233,51 398,49 0,00 1.891,92 0,00 0,00 7.523,92 941,52 466,48 0,00 1.408,00 6.115,92 6.762,93 1.891,38 31/12/2015
669 612100 DEBORA DUARTE SILVA DE SOUZA OFICIAL DO MP ATIVO RIBEIRÃO DAS NEVES - COMARCA; RIBEIRAO DAS NEVES-PJ-06PJ 3.445,03 689,01 0,00 1.472,06 0,00 0,00 5.606,10 560,56 140,22 0,00 700,78 4.905,32 6.762,93 1.179,63 31/12/2015
670 539700 DEBORA SALES CARVALHO ANALISTA DO MP ATIVO PATOS DE MINAS - COMARCA; COORD REG PJ DEF EDU DIR CRI ADO AL PAR NOROE 5.842,66 0,00 0,00 4.639,34 1.947,55 0,00 12.429,55 781,39 1.096,21 0,00 1.877,60 10.551,95 1.763,93 1.569,62 31/12/2015
671 424100 DEBORA SANTOS E ALVES ANALISTA DO MP ATIVO JANUÁRIA - COMARCA; JANUARIA-PJ-01PJ 6.807,06 872,70 0,00 2.263,71 3.199,90 0,00 13.143,37 1.300,32 1.832,15 0,00 3.132,47 10.010,90 2.290,18 2.636,90 31/12/2015
672 426301 DEBORA SCUCATO MACHADO SOARES OFICIAL DO MP ATIVO NOVA LIMA - COMARCA; NOVA LIMA-PJ-01PJ 2.958,20 379,26 0,00 1.755,39 0,00 0,00 5.092,85 565,58 76,98 0,00 642,56 4.450,29 6.904,61 1.136,07 31/12/2015
673 550200 DEBORA TRINDADE LEITE ANALISTA DO MP ATIVO MANHUAÇU - COMARCA; MANHUACU-PJ-05PJ 5.842,66 0,00 0,00 1.822,28 0,00 0,00 7.664,94 781,79 456,36 0,00 1.238,15 6.426,79 1.763,93 1.594,25 31/12/2015
674 438000 DEBORAH COSTA LAGE ANALISTA DO MP ATIVO BELO HORIZONTE - COMARCA; ASSESS TECNICO-JUR JUNTO AS PROC. DE JUST 8.451,80 845,18 0,00 2.219,74 3.098,99 0,00 14.615,71 1.294,16 2.258,30 0,00 3.552,46 11.063,25 2.290,18 2.875,50 31/12/2015
675 475700 DEBORAH LOBAO LACERDA OFICIAL DO MP ATIVO BELO HORIZONTE - COMARCA; BH-17PJ PATRIMONIO PUBLICO-SECRETARIA 4.241,01 254,46 0,00 1.489,14 0,00 0,00 5.984,61 618,36 264,09 0,00 882,45 5.102,16 1.763,93 1.309,09 31/12/2015
676 613700 DEISER MARIA FERREIRA ROSCOE OFICIAL DO MP ATIVO BELO HORIZONTE - COMARCA; DIRETORIA DE PAGAMENTO DE PESSOAL-DPAG 2.756,02 0,00 0,00 1.238,45 0,00 0,00 3.994,47 465,57 35,48 0,00 501,05 3.493,42 1.763,93 964,62 31/12/2015
677 551900 DEISY ROCHA SILVA FREIRE ANALISTA DO MP ATIVO JOÃO PINHEIRO - COMARCA; JOAO PINHEIRO-PJ-01PJ 5.842,66 0,00 0,00 4.639,34 0,00 0,00 10.482,00 781,62 560,63 0,00 1.342,25 9.139,75 1.763,93 1.583,39 31/12/2015
678 501900 DELI RAQUEL RODRIGUES ANALISTA DO MP ATIVO ITUIUTABA - COMARCA; ITUIUTABA-PJ-04PJ 6.641,51 398,49 0,00 5.411,92 0,00 0,00 12.451,92 958,36 853,68 0,00 1.812,04 10.639,88 1.763,93 1.953,70 31/12/2015
679 378600 DELIANE LOPES VIEIRA BREIJAO NEVES ANALISTA DO MP ATIVO JUIZ DE FORA - COMARCA; JUIZ DE FORA-PJ-12PJ 8.087,02 872,70 0,00 2.315,85 0,00 0,00 11.275,57 1.307,28 1.252,03 0,00 2.559,31 8.716,26 6.762,93 2.863,01 31/12/2015
680 522500 DELMINDA MARIA LEAO E SILVA OFICIAL DO MP ATIVO ITAGUARA - COMARCA; ITAGUARA-PJ-UNPJ 3.557,16 2.490,02 0,00 1.747,71 0,00 0,00 7.794,89 823,78 610,69 0,00 1.434,47 6.360,42 1.969,30 1.691,95 31/12/2015
681 487700 DENIA FERREIRA MAIA SILVA OFICIAL DO MP ATIVO TRÊS CORACOES - COMARCA; TRES CORACOES-PJ-01PJ 4.241,01 254,46 0,00 2.017,79 0,00 0,00 6.513,26 603,21 221,43 0,00 824,64 5.688,62 1.763,93 1.159,27 31/12/2015
682 424800 DENIS APARECIDO CAMPOS DELFINO ANALISTA DO MP ATIVO LUZ - COMARCA; LUZ-PJ-UNPJ 8.185,27 818,53 0,00 2.385,71 3.001,27 0,00 14.390,78 1.236,67 1.951,12 0,00 3.187,79 11.202,99 7.272,58 2.630,09 31/12/2015
683 381400 DENISE ANGELICA MELLO DE PAULA OFICIAL DO MP ATIVO BELO HORIZONTE - COMARCA; BH-18PJ DIREITOS HUMANOS-SECRETARIA 4.705,69 603,29 0,00 1.833,27 0,00 0,00 7.142,25 888,24 394,15 0,00 1.282,39 5.859,86 1.763,93 1.813,25 31/12/2015
684 196300 DENISE DE ALMEIDA VILELA FURTADO OFICIAL DO MP ATIVO BELO HORIZONTE - COMARCA; CENTRAL DE APOIO TECNICO-SECRETARIA 7.435,23 2.230,57 0,00 7.158,35 0,00 0,00 16.824,15 1.316,65 1.444,21 0,00 2.760,86 14.063,29 2.251,47 2.712,96 31/12/2015
685 336900 DENISE DE SOUSA MORAES SILVA OFICIAL DO MP ATIVO MATEUS LEME - COMARCA; MATEUS LEME-PJ-02PJ 4.977,82 995,56 0,00 1.985,88 1.991,13 0,00 9.950,39 800,57 1.140,19 0,00 1.940,76 8.009,63 1.763,93 1.635,43 31/12/2015
686 271100 DENISE ELOY PEIXOTO OFICIAL DO MP ATIVO BELO HORIZONTE - COMARCA; DIRET DE DESENV DE RECURSOS HUMANOS-DDRH 5.472,56 1.440,15 0,00 2.124,44 2.880,30 0,00 11.917,45 1.177,13 1.562,33 0,00 2.739,46 9.177,99 2.253,04 2.429,63 31/12/2015
687 385400 DENISE FREITAS DE ASSIS OFICIAL DO MP ATIVO CARATINGA - COMARCA; CARATINGA-PJ-05PJ 4.139,68 1.470,59 0,00 2.085,94 0,00 0,00 7.696,21 796,69 396,37 0,00 1.193,06 6.503,15 1.763,93 2.109,90 31/12/2015
688 437100 DENISE NOGUEIRA MAGRI MENDES ANALISTA DO MP ATIVO BELO HORIZONTE - COMARCA; LAB TECNOLOGIA CONTRA LAVAGEM DINHEIRO 6.423,37 1.690,36 0,00 7.570,00 0,00 0,00 15.683,73 1.410,83 898,70 0,00 2.309,53 13.374,20 1.763,93 3.074,98 31/12/2015
689 524700 DENISE RAMOS GUIMARAES OFICIAL DO MP ATIVO BELO HORIZONTE - COMARCA; BH-07PJ 01 TRIBUNAL JURI-SECRETARIA 3.085,86 234,96 0,00 1.419,54 0,00 0,00 4.740,36 564,90 74,83 0,00 639,73 4.100,63 1.763,93 1.143,95 31/12/2015
690 239100 DENISE RIBEIRO DOS SANTOS CAETANO OFICIAL DO MP ATIVO ITANHANDU - COMARCA; ITANHANDU-PJ-SECRETARIA 7.435,23 1.487,05 0,00 2.269,60 2.974,09 0,00 14.165,97 1.216,21 2.080,11 0,00 3.296,32 10.869,65 2.268,97 2.536,95 31/12/2015
691 325500 DENISE ROSA TORRES COORDENADOR/OFICIAL ATIVO BELO HORIZONTE - COMARCA; DIRETORIA DE PESSOAL ADMINISTRATIVO - DPAD 0,00 1.921,48 9.607,41 2.847,80 3.842,96 0,00 18.219,65 1.135,02 3.124,41 0,00 4.259,43 13.960,22 2.362,13 3.067,70 31/12/2015
692 437200 DENISE VIVIANE DOS SANTOS ANALISTA DO MP ATIVO BELO HORIZONTE - COMARCA; ASSESS TECNICA DA CORREGEDORIA-GERAL DO MP 5.799,48 743,52 0,00 2.109,46 0,00 0,00 8.652,46 1.113,90 630,42 0,00 1.744,32 6.908,14 6.762,93 2.295,64 31/12/2015
693 267900 DENISIA DE ALMEIDA SALES OFICIAL DO MP ATIVO BELO HORIZONTE - COMARCA; CAO-CRIMINAL-SECRETARIA 5.139,92 1.027,98 0,00 1.817,38 0,00 0,00 7.985,28 845,60 588,10 0,00 1.433,70 6.551,58 2.113,06 1.800,67 31/12/2015
694 480300 DESIREE ARANTES FERREIRA GOUVEA OFICIAL DO MP ATIVO PRATÁPOLIS - COMARCA; PRATAPOLIS-PJ-UNPJ 3.916,07 234,96 0,00 1.747,53 0,00 0,00 5.898,56 569,76 199,36 0,00 769,12 5.129,44 1.763,93 1.198,24 31/12/2015
695 355300 DEYSE CRISTINA MORAIS OFICIAL DO MP ATIVO PASSOS - COMARCA; PASSOS-PJ-02PJ 4.705,69 603,29 0,00 1.833,27 0,00 0,00 7.142,25 898,49 394,15 0,00 1.292,64 5.849,61 1.982,20 1.810,26 31/12/2015
696 523700 DIANA CAMPOS RESENDE OFICIAL DO MP ATIVO SÃO JOÃO DEL REI - COMARCA; SAO JOAO DEL REI-PJ-04PJ 4.241,01 1.696,40 0,00 1.836,03 1.979,14 0,00 9.752,58 808,87 1.023,81 0,00 1.832,68 7.919,90 2.007,70 1.782,43 31/12/2015
697 241900 DIANA CARDOSO MARTINS OFICIAL DO MP ATIVO BELO HORIZONTE - COMARCA; CAO-DH APOIO COMUNITARIO-SEC ADM 4.734,26 1.245,86 0,00 1.955,12 0,00 0,00 7.935,24 1.012,70 549,05 0,00 1.561,75 6.373,49 1.763,93 2.196,76 31/12/2015
698 410100 DIANA GORDILHO SILVEIRA SENA ANALISTA DO MP ATIVO BELO HORIZONTE - COMARCA; ASSESS TECNICO-JUR JUNTO AS PROC. DE JUST 8.087,02 872,70 0,00 2.263,71 0,00 0,00 11.223,43 1.311,92 1.304,17 0,00 2.616,09 8.607,34 2.290,18 2.733,92 31/12/2015
699 553000 DIANA MARIA MARQUES ANALISTA DO MP ATIVO BETIM - COMARCA; BETIM-PJ-13PJ 5.307,28 0,00 0,00 2.169,74 0,00 0,00 7.477,02 710,19 384,00 0,00 1.094,19 6.382,83 1.763,93 1.443,63 31/12/2015
700 520000 DIARLE TOSTE DOS SANTOS ANALISTA DO MP ATIVO RIO POMBA - COMARCA; RIO POMBA-PJ-UNPJ 5.233,51 398,49 0,00 1.944,06 0,00 0,00 7.576,06 965,82 414,34 0,00 1.380,16 6.195,90 4.145,93 2.014,42 31/12/2015
701 539800 DIEGO CAMARGOS RODRIGUES OFICIAL DO MP ATIVO CONTAGEM - COMARCA; CONTAGEM-PJ-09PJ 3.445,03 0,00 0,00 1.238,45 0,00 0,00 4.683,48 466,99 105,11 0,00 572,10 4.111,38 1.763,93 936,17 31/12/2015
702 607300 DIEGO CERVEIRA DE SOUZA ANALISTA DO MP ATIVO PATOS DE MINAS - COMARCA; COORD REG BACIAS PARACATU,URUCUIA E ABAETE 5.307,28 0,00 0,00 1.640,24 1.769,09 0,00 8.716,61 710,46 916,10 0,00 1.626,56 7.090,05 2.036,81 1.329,92 31/12/2015
703 446900 DIEGO DE FREITAS OFICIAL DO MP ATIVO UBERABA - COMARCA; UBERABA-PJ-06PJ 3.415,67 437,91 0,00 1.550,14 1.605,66 0,00 7.009,38 652,22 486,22 0,00 1.138,44 5.870,94 2.015,70 1.384,21 31/12/2015
704 379801 DIEGO OSORIO DA SILVA CORDEIRO ANALISTA DO MP ATIVO CONSELHEIRO LAFAIETE - COMARCA; CONSELHEIRO LAFAIETE-PJ-08PJ 5.842,66 0,00 0,00 1.718,01 0,00 0,00 7.560,67 781,89 560,63 0,00 1.342,52 6.218,15 1.763,93 1.496,21 31/12/2015
705 288800 DILENE NEPOMUCENO ALVES OFICIAL DO MP ATIVO BELO HORIZONTE - COMARCA; DIRETORIA DE PESSOAL ADMINISTRATIVO - DPAD 6.973,67 1.394,73 0,00 3.134,54 0,00 0,00 11.502,94 1.149,51 1.526,46 0,00 2.675,97 8.826,97 2.237,61 3.735,38 31/12/2015
706 270101 DILSON DO AMARAL ANALISTA DO MP ATIVO RIO CASCA - COMARCA; RIO CASCA-PJ-UNPJ 5.842,66 0,00 0,00 1.718,01 0,00 0,00 7.560,67 781,82 560,63 0,00 1.342,45 6.218,22 1.763,93 1.488,14 31/12/2015
707 466000 DIMITRI GUDE MARCIAL ANALISTA DO MP ATIVO NANUQUE - COMARCA; NANUQUE-PJ-02PJ 5.233,51 398,49 0,00 1.944,06 0,00 0,00 7.576,06 958,38 414,34 0,00 1.372,72 6.203,34 6.762,93 1.964,01 31/12/2015
708 516300 DINORA APARECIDA MACEDO BRANDAO ANALISTA DO MP ATIVO BELO HORIZONTE - COMARCA; ASSESS JUR DO CONS SUPERIOR DO MINISTERIO PUB 5.480,05 328,80 0,00 1.713,09 0,00 0,00 7.521,94 794,20 552,36 0,00 1.346,56 6.175,38 1.763,93 1.753,41 31/12/2015
709 511700 DIOGENES HENRIQUES PEREIRA LOURENCO ANALISTA DO MP ATIVO CONTAGEM - COMARCA; CONTAGEM-PJ-22PJ 6.172,18 398,49 0,00 1.891,92 0,00 0,00 8.462,59 959,02 724,61 0,00 1.683,63 6.778,96 1.763,93 2.109,03 31/12/2015
710 604100 DIOGO CESAR DE OLIVEIRA HONORIO ASSESSOR ATIVO PIUMHI - COMARCA; PIUMHI-PJ-02PJ 0,00 0,00 2.500,62 2.476,50 0,00 0,00 4.977,12 788,08 66,20 0,00 854,28 4.122,84 1.763,93 721,79 31/12/2015
711 387800 DIOGO FELIX DA SILVA OFICIAL DO MP ATIVO CONSELHEIRO PENA - COMARCA; CONSELHEIRO PENA-PJ-01PJ 3.882,70 497,78 0,00 4.402,49 0,00 0,00 8.782,97 731,88 213,96 0,00 945,84 7.837,13 2.045,47 1.483,30 31/12/2015
712 259600 DIOGO MESQUITA MAIA ANALISTA DO MP ATIVO BELO HORIZONTE - COMARCA; DIRET DE APOIO AS PROCURADORIAS DE JUSTICA 6.980,58 7.403,64 0,00 3.585,26 5.993,42 0,00 23.962,90 2.436,35 4.086,31 0,00 6.522,66 17.440,24 4.145,93 5.318,63 31/12/2015
713 386700 DIRCIMAR FERNANDES CARNEIRO OFICIAL DO MP ATIVO VISCONDE DO RIO BRANCO - COMARCA; VISCONDE DO RIO BRANCO-PJ-03PJ 3.836,03 2.740,03 0,00 2.063,33 2.740,03 0,00 11.379,42 1.120,52 1.443,91 0,00 2.564,43 8.814,99 2.053,78 2.501,80 31/12/2015
714 113800 DIRSON APARECIDO GUIMARAES ASSESSOR ATIVO BELO HORIZONTE - COMARCA; DIVISAO DE MANUTENCAO PREDIAL 0,00 3.340,14 4.175,17 3.191,93 2.505,10 0,00 13.212,34 1.026,02 1.333,97 0,00 2.359,99 10.852,35 2.007,70 2.251,63 31/12/2015
715 216700 DOMICIO VALDETE PEREIRA OFICIAL DO MP ATIVO TEÓFILO OTONI - COMARCA; COORD REG PJ DEF EDU DIR CRIAN ADOL JEQUI MUC 9.011,08 2.703,32 0,00 2.727,29 3.904,80 0,00 18.346,49 1.606,02 2.915,15 0,00 4.521,17 13.825,32 2.427,02 3.624,78 31/12/2015
716 85700 DONIZETTE PEREIRA DOS SANTOS OFICIAL DO MP ATIVO BELO HORIZONTE - COMARCA; EXTINTA - PROTOCOLO DA PGJ 17.188,14 13.750,51 0,00 5.399,56 0,00 0,00 36.338,21 4.132,01 6.484,17 2.337,70 12.953,88 23.384,33 2.499,65 7.800,13 31/12/2015
717 192701 DONIZETTI APARECIDO AMORIM ANALISTA DO MP ATIVO PRATÁPOLIS - COMARCA; PRATAPOLIS-PJ-UNPJ 6.032,93 1.809,88 0,00 2.060,66 0,00 0,00 9.903,47 1.087,39 998,03 0,00 2.085,42 7.818,05 1.763,93 2.489,36 31/12/2015
718 558700 DORCILIA FATIMA DE OLIVEIRA OFICIAL DO MP ATIVO DIVINÓPOLIS - COMARCA; DIVINOPOLIS-PJ-02PJ 3.445,03 0,00 0,00 1.266,89 1.148,34 0,00 5.860,26 468,88 269,46 0,00 738,34 5.121,92 2.557,93 954,28 31/12/2015
719 555300 DOUGLAS CUNHA DE SOUZA ANALISTA DO MP ATIVO VARZEA DA PALMA - COMARCA; VARZEA DA PALMA-PJ-01PJ 5.453,15 0,00 0,00 4.639,34 0,00 0,00 10.092,49 781,43 453,52 0,00 1.234,95 8.857,54 1.763,93 1.470,12 31/12/2015
720 265900 DOUGLAS GOMES MOREIRA ANALISTA DO MP ATIVO BELO HORIZONTE - COMARCA; CENTRAL DE APOIO TECNICO-SETOR DE ENGENHARIA 8.849,21 2.328,74 0,00 2.898,86 0,00 0,00 14.076,81 1.891,76 1.781,91 0,00 3.673,67 10.403,14 1.763,93 4.049,64 31/12/2015
721 241000 DOUGLAS MEIRELLES DE CASTRO OFICIAL DO MP ATIVO CONCEIÇÃO DO RIO VERDE - COMARCA; CONCEICAO DO RIO VERDE-PJ-UNPJ 8.451,80 2.535,54 0,00 3.072,97 3.662,45 0,00 17.722,76 1.470,26 2.722,69 0,00 4.192,95 13.529,81 7.056,70 2.801,31 31/12/2015
722 534900 DOUGLAS SILVA E SOUZA ANALISTA DO MP ATIVO CAMPOS GERAIS - COMARCA; CAMPOS GERAIS-PJ-SECRETARIA 5.842,66 0,00 0,00 1.770,15 0,00 0,00 7.612,81 792,13 508,49 0,00 1.300,62 6.312,19 1.763,93 1.602,59 31/12/2015
723 630700 DOUGLAS TAVEIRA LEMOS DE OLIVEIRA ANALISTA DO MP ATIVO BELO HORIZONTE - COMARCA; BH-18PJ VIOLENCIA DOMESTICA 4.111,94 0,00 0,00 1.611,43 0,00 0,00 5.723,37 696,57 177,18 0,00 873,75 4.849,62 1.763,93 1.283,48 31/12/2015
724 615600 DOUGLAS URIEL SOARES MOREIRA SILVA ANALISTA DO MP ATIVO IPATINGA - COMARCA; IPATINGA-PJ-01PJ 4.820,91 0,00 0,00 1.626,91 0,00 0,00 6.447,82 650,66 329,26 0,00 979,92 5.467,90 1.763,93 1.336,14 31/12/2015
725 638900 DOUGLAS WALLAS CONCEICAO NEVES OFICIAL DO MP ATIVO RIBEIRÃO DAS NEVES - COMARCA; RIBEIRAO DAS NEVES-PJ-SEC CIVEL 3.030,62 0,00 0,00 1.573,39 0,00 0,00 4.604,01 333,37 59,49 0,00 392,86 4.211,15 1.236,94 0,00 31/12/2015
726 146800 DUCINALVA AMARAL LOPES REIS OFICIAL DO MP ATIVO PARAISÓPOLIS - COMARCA; PARAISOPOLIS-PJ-UNPJ 11.276,58 5.638,29 0,00 3.430,51 5.638,29 0,00 25.983,67 2.305,17 4.716,81 0,00 7.021,98 18.961,69 4.877,24 4.809,28 31/12/2015
727 122500 DUILIO CARLOS FERREIRA UTSCH OFICIAL DO MP ATIVO CONCEIÇÃO DO MATO DENTRO - COMARCA; CONCEICAO DO MATO DENTRO-PJ-UNPJ 9.011,08 6.307,75 0,00 5.376,92 0,00 0,00 20.695,75 2.086,26 2.879,92 0,00 4.966,18 15.729,57 1.763,93 4.276,23 31/12/2015
728 201800 DULCINEIA ANDRE DE SOUZA OFICIAL DO MP ATIVO JEQUITINHONHA - COMARCA; JEQUITINHONHA-PJ-SECRETARIA 6.668,20 2.703,32 0,00 2.779,43 3.904,80 0,00 16.055,75 1.606,99 2.218,72 0,00 3.825,71 12.230,04 2.007,70 3.411,01 31/12/2015
729 395800 DUVIDIER MEDIRCIO JUNIOR ANALISTA DO MP ATIVO BELO HORIZONTE - COMARCA; CENTRAL DE APOIO TECNICO-SETOR DE ENGENHARIA 9.607,41 960,74 0,00 2.404,38 3.522,72 0,00 16.495,25 1.429,76 2.685,94 0,00 4.115,70 12.379,55 1.763,93 2.831,58 31/12/2015
730 604800 ECIA RAMILIS ISSA DE ABREU ANALISTA DO MP ATIVO MONTALVÂNIA - COMARCA; MONTALVANIA-PJ-UNPJ 4.820,91 0,00 0,00 3.961,35 0,00 0,00 8.782,26 657,54 329,26 0,00 986,80 7.795,46 1.763,93 1.325,29 31/12/2015
731 273000 EDELFINA APARECIDA GUIMARAES OFICIAL DO MP ATIVO BELO HORIZONTE - COMARCA; PROMOT ESTADUAL DE DEF PATRI CULT E TUR DE MG 4.502,46 3.216,05 0,00 7.146,96 0,00 0,00 14.865,47 1.306,60 909,24 0,00 2.215,84 12.649,63 2.292,84 2.644,33 31/12/2015
732 523300 EDER DOS SANTOS PATRICIO ANALISTA DO MP ATIVO NOVA SERRANA - COMARCA; NOVA SERRANA-PJ-03PJ 5.233,51 398,49 0,00 1.891,92 0,00 0,00 7.523,92 957,88 466,48 0,00 1.424,36 6.099,56 1.763,93 1.935,79 31/12/2015
733 356700 EDER JOSE PACHECO OFICIAL DO MP ATIVO CAMPO BELO - COMARCA; CAMPO BELO-PJ-SECRETARIA 6.229,29 622,93 0,00 2.645,38 2.284,07 0,00 11.781,67 933,45 1.435,84 0,00 2.369,29 9.412,38 2.324,98 1.928,37 31/12/2015
734 507900 EDERSON SILVA LOPES OFICIAL DO MP ATIVO BELO HORIZONTE - COMARCA; SERVICO MEDICO-DEPTO PERIC MEDICA SAUDE OCUP 3.557,16 213,43 0,00 1.378,83 1.256,86 0,00 6.406,28 514,04 316,41 0,00 830,45 5.575,83 6.976,36 1.077,60 31/12/2015
735 296200 EDGARD GOULART MATOSINHO DE LAET JUNIOR ANALISTA DO MP ATIVO GOVERNADOR VALADARES - COMARCA; GOVERNADOR VALADARES-PJ-12PJ 10.576,63 2.115,33 0,00 2.869,28 0,00 0,00 15.561,24 1.718,00 2.080,58 0,00 3.798,58 11.762,66 1.763,93 3.443,31 31/12/2015
736 295000 EDILA MARIA DA SILVEIRA OFICIAL DO MP ATIVO FORMIGA - COMARCA; FORMIGA-PJ-SECRETARIA 4.164,84 1.096,01 0,00 2.556,29 2.192,02 0,00 10.009,16 895,63 981,25 0,00 1.876,88 8.132,28 1.763,93 1.962,47 31/12/2015
737 332300 EDILA MARILAC MIRANDA PRADO OFICIAL DO MP ATIVO DIAMANTINA - COMARCA; COORD REG BACIAS RIOS JEQUITINHONHA E MUCURI 6.032,93 2.413,17 0,00 2.200,43 2.815,37 0,00 13.461,90 1.150,30 1.867,78 0,00 3.018,08 10.443,82 2.242,01 2.361,82 31/12/2015
738 376600 EDILANE CONSOLACAO ROSA NAZARETH ANALISTA DO MP ATIVO BETIM - COMARCA; BETIM-PJ-10PJ 6.807,06 872,70 0,00 3.531,79 0,00 0,00 11.211,55 1.307,18 952,18 0,00 2.259,36 8.952,19 1.763,93 2.861,42 31/12/2015
739 301500 EDILENE APARECIDA DE CARVALHO ANALISTA DO MP ATIVO BELO HORIZONTE - COMARCA; DIRETORIA DE ADMINISTRACAO FINANCEIRA 8.038,24 2.115,33 0,00 2.765,00 4.230,65 0,00 17.149,22 1.718,60 2.650,23 0,00 4.368,83 12.780,39 2.007,70 3.688,79 31/12/2015
740 309800 EDILZA DOS REIS OFICIAL DO MP ATIVO UBERLÂNDIA - COMARCA; UBERLANDIA-PJ-03PJ 5.486,23 1.371,56 0,00 2.116,80 2.743,12 0,00 11.717,71 1.120,91 1.469,81 0,00 2.590,72 9.126,99 2.229,74 2.309,74 31/12/2015
741 200500 EDINEIA MARIA DE OLIVEIRA ANTUNES OFICIAL DO MP ATIVO MONTES CLAROS - COMARCA; MONTES CLAROS-PJ-10PJ 9.920,24 2.976,07 0,00 2.742,55 4.298,77 0,00 19.937,63 1.727,27 3.469,17 0,00 5.196,44 14.741,19 7.426,01 3.331,56 31/12/2015
742 427700 EDISANGELA SOARES LOPES OFICIAL DO MP ATIVO PIRAPORA - COMARCA; PIRAPORA-PJ-02PJ 4.820,91 482,09 0,00 4.291,12 0,00 0,00 9.594,12 712,37 428,55 0,00 1.140,92 8.453,20 1.763,93 1.371,78 31/12/2015
743 555400 EDISON MONTEIRO SAMPAIO NETO ANALISTA DO MP ATIVO BELO HORIZONTE - COMARCA; BH-12PJ JUIZO CRIMINAL-GAB 094PJ 5.842,66 0,00 0,00 1.985,70 0,00 0,00 7.828,36 768,78 560,63 0,00 1.329,41 6.498,95 1.763,93 1.340,61 31/12/2015
744 517700 EDMILSON TADEU FERNANDES OFICIAL DO MP ATIVO POUSO ALEGRE - COMARCA; POUSO ALEGRE-PJ-SECRETARIA 4.241,01 254,46 0,00 1.489,14 0,00 0,00 5.984,61 616,15 264,09 0,00 880,24 5.104,37 1.916,61 1.295,30 31/12/2015
745 358400 EDNA APARECIDA SILVA FERREIRA OFICIAL DO MP ATIVO CORONEL FABRICIANO - COMARCA; CORONEL FABRICIANO-PJ-SECRETARIA 4.705,69 603,29 0,00 1.833,27 2.212,07 0,00 9.354,32 903,96 998,18 0,00 1.902,14 7.452,18 2.139,57 1.860,29 31/12/2015
746 331800 EDNA MARCIA CAMILO DA SILVA OFICIAL DO MP ATIVO SETE LAGOAS - COMARCA; SETE LAGOAS-PJ-07PJ 4.888,39 1.286,42 0,00 1.990,47 0,00 0,00 8.165,28 1.037,32 595,23 0,00 1.632,55 6.532,73 1.763,93 2.008,38 31/12/2015
747 422800 EDNILSON DE SOUZA FERREIRA ASSESSOR ATIVO BELO HORIZONTE - COMARCA; DIRET DE INFORMACAO E EXPEDICAO DE PROCESSOS 0,00 0,00 2.500,62 1.387,85 0,00 0,00 3.888,47 788,08 37,76 0,00 825,84 3.062,63 1.848,86 757,98 31/12/2015
748 327900 EDRIEL SANTANA PEREIRA OFICIAL DO MP ATIVO TUPACIGUARA - COMARCA; TUPACIGUARA-PJ-UNPJ 6.432,09 1.286,42 0,00 1.990,47 0,00 0,00 9.708,98 1.035,17 1.019,74 0,00 2.054,91 7.654,07 7.163,42 2.013,24 31/12/2015
749 482400 EDSON GARCIA OFICIAL DO MP ATIVO MACHADO - COMARCA; MACHADO-PJ-02PJ 3.916,07 234,96 0,00 1.476,41 0,00 0,00 5.627,44 565,15 142,49 0,00 707,64 4.919,80 1.763,93 1.232,72 31/12/2015
750 225601 EDSON LABRE FILHO ANALISTA DO MP ATIVO VARGINHA - COMARCA; VARGINHA-PJ-01PJ 8.038,24 2.115,33 0,00 2.765,00 0,00 0,00 12.918,57 1.719,30 1.486,80 0,00 3.206,10 9.712,47 2.459,70 3.482,95 31/12/2015
751 602700 EDSON NOGUEIRA BUENO OFICIAL DO MP ATIVO PITANGUI - COMARCA; PITANGUI-PJ-02PJ 2.503,42 0,00 0,00 2.718,98 0,00 0,00 5.222,40 425,10 19,14 0,00 444,24 4.778,16 1.763,93 844,44 31/12/2015
752 414400 EDUARDO ABRANTES CAMPOS ANALISTA DO MP ATIVO OLIVEIRA - COMARCA; OLIVEIRA-PJ-02PJ 8.727,00 872,70 0,00 2.263,71 3.199,90 0,00 15.063,31 1.299,04 2.360,14 0,00 3.659,18 11.404,13 1.763,93 2.761,64 31/12/2015
753 476800 EDUARDO ALVES DE MOURA ANALISTA DO MP ATIVO UBERLÂNDIA - COMARCA; UBERLANDIA-PJ-19PJ 5.674,18 432,04 0,00 2.949,35 0,00 0,00 9.055,57 1.047,20 474,68 0,00 1.521,88 7.533,69 6.769,64 2.350,92 31/12/2015
754 390800 EDUARDO AMORIM PETTERSEN OFICIAL DO MP ATIVO CARANGOLA - COMARCA; CARANGOLA-PJ-03PJ 4.139,68 530,73 0,00 1.717,33 0,00 0,00 6.387,74 795,79 270,22 0,00 1.066,01 5.321,73 2.160,48 1.771,88 31/12/2015
755 633200 EDUARDO ANTONIO CODO SANTOS ASSESSOR ATIVO BELO HORIZONTE - COMARCA; ASSESSORIA ESPECIAL FINANCEIRA DO PGJAA 0,00 10.038,02 20.076,03 6.595,11 10.038,02 0,00 46.747,18 2.276,90 9.799,96 0,00 12.076,86 34.670,32 1.763,93 7.732,91 31/12/2015
756 461600 EDUARDO ANTONIO DE ASSIS FARIA ASSESSOR ATIVO BELO HORIZONTE - COMARCA; ASSESS EXECUTIVA DO CONSELHO SUPERIOR DO MP 0,00 0,00 4.175,17 4.001,02 1.391,72 0,00 9.567,91 972,28 688,04 0,00 1.660,32 7.907,59 2.000,26 1.183,35 31/12/2015
757 248800 EDUARDO DE CASTRO AMORIM ANALISTA DO MP ATIVO BELO HORIZONTE - COMARCA; BH-01PJ FAZENDA PUBLICA EXEC FISCAIS 9.137,35 2.404,57 0,00 2.964,94 0,00 0,00 14.506,86 1.965,71 1.868,24 0,00 3.833,95 10.672,91 2.495,24 4.073,07 31/12/2015
758 209100 EDUARDO DE SOUZA MAIA ANALISTA DO MP ATIVO BELO HORIZONTE - COMARCA; CAO-TS-TERCEIRO SETOR-ASSESSORIA JURIDICA 14.155,19 4.246,56 0,00 3.698,62 0,00 0,00 22.100,37 2.468,34 3.478,06 0,00 5.946,40 16.153,97 1.763,93 4.726,12 31/12/2015
759 633900 EDUARDO GONCALVES PIRES OFICIAL DO MP ATIVO BELO HORIZONTE - COMARCA; BH-19PJ SAUDE-SECRETARIA 150PJ 3.336,37 667,27 0,00 1.462,97 0,00 0,00 5.466,61 506,35 179,69 0,00 686,04 4.780,57 1.650,43 623,63 31/12/2015
760 350500 EDUARDO GONCALVES RIBEIRO OFICIAL DO MP ATIVO VESPASIANO - COMARCA; VESPASIANO-PJ-04PJ 3.882,70 497,78 0,00 2.201,25 0,00 0,00 6.581,73 746,50 213,96 0,00 960,46 5.621,27 2.073,87 1.558,25 31/12/2015
761 115800 EDUARDO HENRIQUE DE CAMPOS MAIA OFICIAL DO MP ATIVO BELO HORIZONTE - COMARCA; EXTINTA - DIVISAO DE SERVICOS GERAIS 9.765,16 4.097,27 0,00 3.056,58 0,00 0,00 16.919,01 1.952,47 2.404,74 0,00 4.357,21 12.561,80 1.763,93 3.989,70 31/12/2015
762 392600 EDUARDO HENRIQUE DOS SANTOS COSTA ELIAZAR OFICIAL DO MP ATIVO MATOZINHOS - COMARCA; MATOZINHOS-PJ-02PJ 5.307,28 530,73 0,00 4.790,87 0,00 0,00 10.628,88 790,93 404,96 0,00 1.195,89 9.432,99 12.081,96 1.601,08 31/12/2015
763 122900 EDUARDO JOSE COSTA SILVA OFICIAL DO MP ATIVO SETE LAGOAS - COMARCA; SETE LAGOAS-PJ-04PJ 13.616,17 9.531,32 0,00 4.231,53 0,00 0,00 27.379,02 3.170,58 4.795,99 0,00 7.966,57 19.412,45 2.251,47 7.131,72 31/12/2015
764 418700 EDUARDO LEMOS SIMOES OFICIAL DO MP ATIVO LAVRAS - COMARCA; COORD REG DO MA DA BACIA DO RIO GRANDE 4.009,14 513,99 0,00 1.690,59 1.884,64 0,00 8.098,36 778,78 721,75 0,00 1.500,53 6.597,83 2.083,96 1.672,02 31/12/2015
765 407500 EDUARDO MASCARENHAS CURI AZEVEDO ANALISTA DO MP ATIVO BELO HORIZONTE - COMARCA; DIRETORIA DE IMPRENSA 5.799,48 743,52 0,00 2.057,32 0,00 0,00 8.600,32 1.113,22 682,56 0,00 1.795,78 6.804,54 1.763,93 2.259,87 31/12/2015
766 601300 EDUARDO TRAD VIEIRA OFICIAL DO MP ATIVO RIBEIRÃO DAS NEVES - COMARCA; RIBEIRAO DAS NEVES-PJ-01PJ 2.712,04 0,00 0,00 2.718,98 0,00 0,00 5.431,02 425,41 34,79 0,00 460,20 4.970,82 6.762,93 851,07 31/12/2015
767 257600 EDUARDO VALADARES CABRAL ANALISTA DO MP ATIVO BELO HORIZONTE - COMARCA; PROCON-MG-GAB DO COORDENADOR DO PROCON-MG 9.607,41 1.921,48 0,00 8.308,37 0,00 0,00 19.837,26 1.569,68 1.952,34 0,00 3.522,02 16.315,24 1.763,93 3.196,64 31/12/2015
768 545700 EDVAIR FERREIRA DE CARVALHO OFICIAL DO MP ATIVO ARAGUARI - COMARCA; ARAGUARI-PJ-06PJ 3.445,03 0,00 0,00 1.284,84 0,00 0,00 4.729,87 460,99 58,72 0,00 519,71 4.210,16 1.763,93 934,88 31/12/2015
769 401700 EDWANIA AMORIM DO CARMO OFICIAL DO MP ATIVO RIBEIRÃO DAS NEVES - COMARCA; RIBEIRAO DAS NEVES-PJ-03PJ 4.274,44 548,01 0,00 1.744,93 0,00 0,00 6.567,38 825,45 299,73 0,00 1.125,18 5.442,20 2.105,14 1.770,65 31/12/2015
770 303600 EFIGENIO SARAIVA LOPES ANALISTA DO MP ATIVO BELO HORIZONTE - COMARCA; DIRETORIA DE PAGAMENTO DE PESSOAL-DPAG 8.849,21 2.328,74 0,00 3.003,13 0,00 0,00 14.181,08 1.892,56 1.677,64 0,00 3.570,20 10.610,88 1.763,93 3.831,87 31/12/2015
771 312000 ELAINE APARECIDA DE ARAUJO RODRIGUES ASSESSOR/OFICIAL ATIVO DIVINÓPOLIS - COMARCA; DIVINOPOLIS-PJ-02PJ 0,00 4.649,05 6.641,51 2.244,86 3.763,52 1.164,88 18.463,82 1.461,27 3.270,51 0,00 4.731,78 13.732,04 2.147,38 4.654,49 31/12/2015
772 286000 ELAINE APARECIDA SILVA BERZOINI OFICIAL DO MP ATIVO JUIZ DE FORA - COMARCA; JUIZ DE FORA-PJ-07PJ 5.299,99 1.394,73 0,00 2.084,87 0,00 0,00 8.779,59 1.139,05 718,55 0,00 1.857,60 6.921,99 1.763,93 2.315,32 31/12/2015
773 509000 ELAINE CANDIDA PONTES OFICIAL DO MP ATIVO BELO HORIZONTE - COMARCA; BH-02PJ FAMILIA-SECRETARIA 3.085,86 234,96 0,00 1.419,54 0,00 0,00 4.740,36 565,73 74,83 0,00 640,56 4.099,80 1.904,91 1.177,21 31/12/2015
774 283601 ELAINE CRISTINA MEQUELINO DUARTE ANALISTA DO MP ATIVO ALFENAS - COMARCA; ALFENAS-PJ-04PJ 8.087,02 872,70 0,00 2.367,99 3.199,90 0,00 14.527,61 1.307,81 2.079,87 0,00 3.387,68 11.139,93 11.761,93 2.892,14 31/12/2015
775 535500 ELAINE DE OLIVEIRA CAMPOS REIS OFICIAL DO MP ATIVO RIBEIRÃO DAS NEVES - COMARCA; RIBEIRAO DAS NEVES-PJ-11PJ 2.756,02 0,00 0,00 2.960,97 0,00 0,00 5.716,99 466,82 35,48 0,00 502,30 5.214,69 4.145,93 927,77 31/12/2015
776 455700 ELAINE DE OLIVEIRA CASTRO ANALISTA DO MP ATIVO POMPÉU - COMARCA; POMPEU-PJ-UNPJ 5.233,51 398,49 0,00 1.944,06 0,00 0,00 7.576,06 958,58 414,34 0,00 1.372,92 6.203,14 3.547,23 1.961,54 31/12/2015
777 367200 ELAINE MUNIZ BARBOSA ANALISTA DO MP ATIVO BELO HORIZONTE - COMARCA; DIRETORIA DE SISTEMAS DE INFORMACAO 7.737,79 992,02 0,00 2.454,36 3.637,42 0,00 14.821,59 1.460,04 2.201,53 0,00 3.661,57 11.160,02 1.763,93 2.777,32 31/12/2015
778 176900 ELAINE RIBEIRO TAVEIRA OFICIAL DO MP ATIVO BELO HORIZONTE - COMARCA; DIRETORIA DE PESSOAL ADMINISTRATIVO - DPAD 8.185,27 2.455,58 0,00 2.414,94 3.546,95 0,00 16.602,74 1.441,07 2.710,40 0,00 4.151,47 12.451,27 2.347,26 2.919,41 31/12/2015
779 496200 ELAINE SABRINA DIAS MOREIRA ANALISTA DO MP ATIVO CORONEL FABRICIANO - COMARCA; CORONEL FABRICIANO-PJ-03PJ 5.233,51 398,49 0,00 1.891,92 0,00 0,00 7.523,92 958,96 466,48 0,00 1.425,44 6.098,48 1.763,93 2.103,61 31/12/2015
780 489200 ELAINE VICENTINO GARCIA ANALISTA DO MP ATIVO BELO HORIZONTE - COMARCA; CENTRAL DE APOIO TECNICO-SETOR CONTABIL 5.472,56 1.440,15 0,00 2.564,26 0,00 0,00 9.476,97 1.160,12 665,97 0,00 1.826,09 7.650,88 9.648,98 2.404,34 31/12/2015
781 244500 ELCI ALVES DE SOUZA ASSESSOR ATIVO BELO HORIZONTE - COMARCA; CAO-CONFLITOS AGRARIOS-SECRETARIA 0,00 835,03 4.175,17 2.172,02 0,00 0,00 7.182,22 1.026,02 534,96 0,00 1.560,98 5.621,24 2.047,53 1.513,12 31/12/2015
782 472500 ELCI VAZ DE OLIVEIRA FILHO ANALISTA DO MP ATIVO PIUMHI - COMARCA; PIUMHI-PJ-02PJ 7.200,74 2.880,30 0,00 2.333,63 0,00 0,00 12.414,67 1.387,06 1.597,98 0,00 2.985,04 9.429,63 1.763,93 2.931,15 31/12/2015
783 385200 ELCI VIANA REIS OFICIAL DO MP ATIVO RIO PARDO DE MINAS - COMARCA; RIO PARDO DE MINAS-PJ-SECRETARIA 6.032,93 1.809,88 0,00 2.008,52 2.614,27 0,00 12.465,60 1.050,08 1.769,09 0,00 2.819,17 9.646,43 2.167,18 2.017,98 31/12/2015
784 289801 ELCIO JOSE DOS SANTOS ASSESSOR/ANALISTA ATIVO BELO HORIZONTE - COMARCA; EXTINTA - DIVISAO DE SERVICOS GERAIS 0,00 930,45 9.304,45 2.519,96 0,00 0,00 12.754,86 1.164,26 1.697,83 0,00 2.862,09 9.892,77 1.995,66 2.800,70 31/12/2015
785 123000 ELCIO VILHENA DE FARIA OFICIAL DO MP ATIVO BELO HORIZONTE - COMARCA; DIVISAO DE MEMORIA INSTITUCIONAL 13.616,17 10.892,94 0,00 3.687,90 8.169,70 2.696,00 39.062,71 3.354,69 8.117,31 0,00 11.472,00 27.590,71 1.763,93 10.351,28 31/12/2015
786 319600 ELEN TULER DE ALBERGARIA ANALISTA DO MP ATIVO BELO HORIZONTE - COMARCA; BH-19PJ SAUDE 9.011,08 2.703,32 0,00 2.570,88 0,00 0,00 14.285,28 1.594,12 1.997,74 0,00 3.591,86 10.693,42 11.761,93 3.449,00 31/12/2015
787 333100 ELENILDA ROCHA DE MORAES MELO OFICIAL DO MP ATIVO MAR DE ESPANHA - COMARCA; MAR DE ESPANHA-PJ-SECRETARIA 4.977,82 995,56 0,00 1.789,13 0,00 0,00 7.762,51 800,74 592,63 0,00 1.393,37 6.369,14 1.763,93 1.640,36 31/12/2015
788 151000 ELI LOURENCO RIBEIRO AGENTE DO MP ATIVO BELO HORIZONTE - COMARCA; BH-17PJ PATRIMONIO PUBLICO-SECRETARIA 7.677,29 3.070,92 0,00 2.859,79 3.582,74 0,00 17.190,74 1.455,73 2.059,81 0,00 3.515,54 13.675,20 2.251,47 3.141,19 31/12/2015
789 205500 ELIANA ALVES DE SOUSA OFICIAL DO MP ATIVO GOVERNADOR VALADARES - COMARCA; GOVERNADOR VALADARES-PJ-07PJ 4.759,75 1.929,63 0,00 2.083,90 0,00 0,00 8.773,28 1.131,34 717,28 0,00 1.848,62 6.924,66 1.763,93 2.238,76 31/12/2015
790 628800 ELIANA APARECIDA PEREIRA ANALISTA DO MP ATIVO CAMBUÍ - COMARCA; CAMBUI-PJ-02PJ 4.668,87 0,00 0,00 3.856,48 0,00 0,00 8.525,35 633,22 298,81 0,00 932,03 7.593,32 1.763,93 1.187,28 31/12/2015
791 301700 ELIANA DA SILVEIRA ANALISTA DO MP ATIVO BELO HORIZONTE - COMARCA; ASSESS TECNICO-JUR JUNTO AS PROC. DE JUST 9.920,24 1.984,05 0,00 2.598,45 0,00 0,00 14.502,74 1.621,35 2.044,22 0,00 3.665,57 10.837,17 2.437,76 3.555,30 31/12/2015
792 103400 ELIANA DE FARIA MORAIS JOTTA OFICIAL DO MP ATIVO BELO HORIZONTE - COMARCA; DIRET DE PESSOAL DO MINISTERIO PUBLICO - DPMP 20.076,03 10.038,01 0,00 5.399,84 0,00 0,00 35.513,88 4.091,82 6.344,64 109,19 10.545,65 24.968,23 1.763,93 8.091,32 31/12/2015
793 251500 ELIANA DE LIMA MILAGRES FONSECA ANALISTA DO MP ATIVO CONTAGEM - COMARCA; CONTAGEM-PJ-06PJ 8.729,81 1.984,05 0,00 2.702,73 3.968,10 0,00 17.384,69 1.621,81 2.703,80 0,00 4.325,61 13.059,08 2.437,76 3.350,15 31/12/2015
794 503900 ELIANA DIAS DUTRA FERREIRA OFICIAL DO MP ATIVO GOVERNADOR VALADARES - COMARCA; GOVERNADOR VALADARES-PJ-10PJ 4.241,01 254,46 0,00 1.564,76 0,00 0,00 6.060,23 612,06 188,47 0,00 800,53 5.259,70 2.114,99 1.333,20 31/12/2015
795 413900 ELIANA PINTO DE OLIVEIRA NEVES ANALISTA DO MP ATIVO CAMPO BELO - COMARCA; CAMPO BELO-PJ-03PJ 8.185,27 818,53 0,00 2.177,16 3.001,27 0,00 14.182,23 1.246,25 2.159,67 0,00 3.405,92 10.776,31 3.586,93 2.696,26 31/12/2015
796 228200 ELIANA RODRIGUES DA CUNHA PINHEIRO DIRETOR/OFICIAL ATIVO BELO HORIZONTE - COMARCA; SUPERINTENDÊNCIA DE ENGENHARIA E ARQUITETURA 0,00 2.831,04 14.155,19 12.170,98 0,00 1.013,40 30.170,61 1.460,92 3.801,85 0,00 5.262,77 24.907,84 2.495,24 6.327,25 31/12/2015
797 386600 ELIANA SABINO CHAVES ANALISTA DO MP ATIVO CARATINGA - COMARCA; CARATINGA-PJ-06PJ 6.108,90 4.363,50 0,00 2.822,89 0,00 0,00 13.295,29 1.772,94 1.562,42 0,00 3.335,36 9.959,93 1.763,93 3.859,80 31/12/2015
798 297400 ELIANE AUGUSTA RIBEIRO COSTA ANALISTA DO MP ATIVO CONSELHEIRO LAFAIETE - COMARCA; CONSELHEIRO LAFAIETE-PJ-05PJ 10.576,63 2.115,33 0,00 2.869,28 4.230,65 0,00 19.791,89 1.729,67 3.244,01 0,00 4.973,68 14.818,21 2.251,47 3.848,94 31/12/2015
799 510600 ELIANE CAROLINA MAIA ANALISTA DO MP ATIVO IGARAPÉ - COMARCA; IGARAPE-PJ-02PJ 5.819,77 361,98 0,00 2.006,76 2.131,64 0,00 10.320,15 871,22 1.014,83 0,00 1.886,05 8.434,10 12.123,91 1.800,37 31/12/2015
800 269300 ELIANE EDLAMAR ROCHA OFICIAL DO MP ATIVO PEDRO LEOPOLDO - COMARCA; PEDRO LEOPOLDO-PJ-02PJ 5.472,56 1.440,15 0,00 2.176,58 0,00 0,00 9.089,29 1.159,09 718,11 0,00 1.877,20 7.212,09 6.762,93 2.222,87 31/12/2015
801 359100 ELIANE FARIAS DE OLIVEIRA ASSESSOR ATIVO BELO HORIZONTE - COMARCA; EXTINTA-TUTELA DAS FUNDACOES-21 PJ- GABINETE 0,00 0,00 2.500,62 1.226,19 0,00 0,00 3.726,81 788,08 66,20 0,00 854,28 2.872,53 1.905,47 711,67 31/12/2015
802 262600 ELIANE FERREIRA SOARES ASSESSOR ATIVO BELO HORIZONTE - COMARCA; BH-18PJ DIREITOS HUMANOS-SECRETARIA 0,00 1.252,55 4.175,17 2.755,35 0,00 0,00 8.183,07 1.026,02 649,77 0,00 1.675,79 6.507,28 4.145,93 1.518,33 31/12/2015
803 204400 ELIANE GLAUCE DE QUEIROS MAIA OFICIAL DO MP ATIVO GUANHÃES - COMARCA; GUANHAES-PJ-01PJ 8.230,12 2.703,32 0,00 2.570,88 0,00 0,00 13.504,32 1.595,08 1.782,98 0,00 3.378,06 10.126,26 5.174,93 3.476,00 31/12/2015
804 91800 ELIANE KAPLER COORDENADOR/OFICIAL ATIVO BELO HORIZONTE - COMARCA; DIRET DE CONTROLE E DE MANUTENCAO DE IMOVEIS 12.598,78 7.442,13 0,00 7.048,32 0,00 0,00 27.089,23 2.400,90 4.004,06 0,00 6.404,96 20.684,27 7.015,47 6.017,72 31/12/2015
805 334200 ELIANE MARCIA DE OLIVEIRA BRITO OFICIAL DO MP ATIVO BELO HORIZONTE - COMARCA; BH-08PJ JUIZADO ESPECIAL-SECRETARIA 3.783,14 995,56 0,00 2.361,85 0,00 0,00 7.140,55 800,57 291,24 0,00 1.091,81 6.048,74 1.763,93 1.532,42 31/12/2015
806 365900 ELIANE MARIA DE OLIVEIRA FERREIRA OFICIAL DO MP ATIVO SETE LAGOAS - COMARCA; SETE LAGOAS-PJ-11PJ 4.485,09 2.491,72 0,00 2.136,08 0,00 0,00 9.112,89 1.187,94 785,45 0,00 1.973,39 7.139,50 2.007,70 2.609,56 31/12/2015
807 320600 ELIANE STADLER DE SOUZA OFICIAL DO MP ATIVO FRANCISCO SÁ - COMARCA; FRANCISCO SA-PJ-SECRETARIA 6.229,29 1.245,86 0,00 2.007,26 0,00 0,00 9.482,41 1.007,26 908,04 0,00 1.915,30 7.567,11 1.763,93 1.954,73 31/12/2015
808 448900 ELIAS PEREIRA OTONI ASSESSOR ATIVO BELO HORIZONTE - COMARCA; EXTINTA - DIVISAO DE TRANSPORTES 0,00 0,00 4.175,17 2.244,37 1.391,72 0,00 7.811,26 972,28 635,91 0,00 1.608,19 6.203,07 2.000,26 1.185,17 31/12/2015
809 495400 ELICA SOUZA GASPARONI MATTOS OFICIAL DO MP ATIVO UBÁ - COMARCA; UBA-PJ-SECRETARIA 3.679,07 280,13 0,00 2.181,26 0,00 0,00 6.140,46 661,81 157,42 0,00 819,23 5.321,23 6.762,93 1.245,98 31/12/2015
810 86600 ELIENE FERREIRA DA SILVA OFICIAL DO MP ATIVO BELO HORIZONTE - COMARCA; BH-22PJ PES COM DEF E IDOSOS 17.188,14 8.594,07 0,00 4.770,63 0,00 0,00 30.552,84 3.515,15 5.284,43 0,00 8.799,58 21.753,26 10.874,31 7.363,67 31/12/2015
811 183800 ELIENE MARIA CUNHA OFICIAL DO MP ATIVO BELO HORIZONTE - COMARCA; DIRETORIA DE PESSOAL ADMINISTRATIVO - DPAD 9.920,24 2.976,07 0,00 9.242,84 4.298,77 0,00 26.437,92 1.755,98 3.417,04 0,00 5.173,02 21.264,90 2.493,91 3.583,70 31/12/2015
812 172300 ELINA APARECIDA SILVA ASSESSOR ATIVO BELO HORIZONTE - COMARCA; BH-19PJ SAUDE-SECRETARIA 130PJ 0,00 750,19 2.500,62 1.579,65 1.083,60 0,00 5.914,06 870,60 318,14 0,00 1.188,74 4.725,32 4.219,53 913,65 31/12/2015
813 492501 ELINE CAMPOS DA FONSECA CUNHA ANALISTA DO MP ATIVO JEQUERI - COMARCA; JEQUERI-PJ-UNPJ 4.820,91 289,25 0,00 2.136,02 0,00 0,00 7.246,18 691,08 387,18 0,00 1.078,26 6.167,92 5.482,50 1.417,45 31/12/2015
814 618900 ELISA MOURA VIEIRA MARCATTI OFICIAL DO MP ATIVO BELO HORIZONTE - COMARCA; BH-23PJ CIVEL-SEC EXP CIVEIS 3.445,03 0,00 0,00 1.292,78 0,00 0,00 4.737,81 456,71 105,11 0,00 561,82 4.175,99 1.763,93 790,28 31/12/2015
815 256500 ELISABETE NOGUEIRA ANALISTA DO MP ATIVO RIBEIRÃO DAS NEVES - COMARCA; RIBEIRAO DAS NEVES-PJ-10PJ 7.365,68 3.842,96 0,00 2.979,43 0,00 0,00 14.188,07 1.831,90 1.649,73 0,00 3.481,63 10.706,44 9.906,28 3.763,96 31/12/2015
816 355000 ELISANGELA DARLANTONI RIBEIRO OFICIAL DO MP ATIVO ARAXÁ - COMARCA; ARAXA-PJ-05PJ 4.413,56 565,84 0,00 1.825,56 0,00 0,00 6.804,96 848,37 287,53 0,00 1.135,90 5.669,06 9.497,24 1.741,74 31/12/2015
817 604400 ELISANGELA DEMASI FERREIRA MOREIRA ANALISTA DO MP ATIVO CAXAMBU - COMARCA; CAXAMBU-PJ-UNPJ 5.307,28 0,00 0,00 1.640,24 0,00 0,00 6.947,52 722,81 429,60 0,00 1.152,41 5.795,11 6.762,93 1.448,69 31/12/2015
818 323800 ELISANGELA GONCALVES DE JESUS OFICIAL DO MP ATIVO BELO HORIZONTE - COMARCA; BH-09PJ AUDITORIA MILITAR-SECRETARIA 3.906,34 1.027,98 0,00 1.817,38 0,00 0,00 6.751,70 831,47 278,78 0,00 1.110,25 5.641,45 6.365,93 1.635,58 31/12/2015
819 261400 ELISANGELA MENDES OFICIAL DO MP ATIVO POUSO ALEGRE - COMARCA; POUSO ALEGRE-PJ-05PJ 6.641,51 1.328,30 0,00 2.026,97 2.656,60 0,00 12.653,38 1.085,64 1.811,82 0,00 2.897,46 9.755,92 2.215,05 2.381,97 31/12/2015
820 507400 ELISANGELA MIGUEL DA ROCHA SILVA ASSESSOR ATIVO BELO HORIZONTE - COMARCA; CGMP-DIVIS DE APOIO FISC ORIENTACAO FUNCIONAL 0,00 0,00 2.500,62 1.226,19 833,54 0,00 4.560,35 788,08 188,22 0,00 976,30 3.584,05 1.905,47 714,10 31/12/2015
821 534100 ELISANGELA ROSINE SILVA OFICIAL DO MP ATIVO UBERABA - COMARCA; UBERABA-PJ-06PJ 3.445,03 0,00 0,00 1.238,45 1.148,34 0,00 5.831,82 467,19 312,11 0,00 779,30 5.052,52 1.958,93 943,28 31/12/2015
822 634300 ELIUDE GRACA DAMASIO ROSARIO FRANCELINO OFICIAL DO MP ATIVO BELO HORIZONTE - COMARCA; EXTINTA-DEF DIREIT HUM-COMB A VIOL DOMEST-18 2.424,50 0,00 0,00 1.342,67 0,00 0,00 3.767,17 376,05 14,03 0,00 390,08 3.377,09 1.536,93 402,67 31/12/2015
823 461700 ELIZABETH ALEIXO DA PAZ ANALISTA DO MP ATIVO JUIZ DE FORA - COMARCA; JUIZ DE FORA-PJ-24PJ 7.200,74 432,04 0,00 1.978,02 2.544,26 0,00 12.155,06 1.039,38 1.698,43 0,00 2.737,81 9.417,25 1.988,59 2.128,96 31/12/2015
824 227300 ELIZABETH COIMBRA FELIX COORDENADOR/OFICIAL ATIVO BELO HORIZONTE - COMARCA; DIRETORIA DE PAGAMENTO DE PESSOAL-DPAG 8.727,00 4.539,58 0,00 3.105,98 4.422,19 0,00 20.794,75 1.539,23 3.495,45 0,00 5.034,68 15.760,07 2.494,62 3.653,01 31/12/2015
825 354800 ELIZABETH DOS REIS OFICIAL DO MP ATIVO BELO HORIZONTE - COMARCA; EXTINTA - DIVISÃO DE MATERIAL PERMANENTE 6.229,29 622,93 0,00 1.916,79 0,00 0,00 8.769,01 953,77 755,58 0,00 1.709,35 7.059,66 1.763,93 2.250,19 31/12/2015
826 612000 ELIZABETH MARIA DE QUEIROZ TANIGUCHI OFICIAL DO MP ATIVO BELO HORIZONTE - COMARCA; DIRET DE DESENV DE RECURSOS HUMANOS-DDRH 3.129,28 0,00 0,00 2.718,98 0,00 0,00 5.848,26 424,30 66,08 0,00 490,38 5.357,88 1.763,93 892,19 31/12/2015
827 452800 ELIZANGELA MARIA DAVI OFICIAL DO MP ATIVO ARCOS - COMARCA; ARCOS-PJ-01PJ 3.302,26 404,36 0,00 1.985,01 1.482,65 0,00 7.174,28 598,05 378,71 0,00 976,76 6.197,52 9.163,11 1.163,77 31/12/2015
828 496300 ELIZANGELA MARQUES PINTO COELHO OFICIAL DO MP ATIVO BELO HORIZONTE - COMARCA; DIRETORIA DE PESSOAL ADMINISTRATIVO - DPAD 3.341,92 254,46 0,00 1.489,14 1.498,49 0,00 6.584,01 612,54 398,95 0,00 1.011,49 5.572,52 7.017,39 1.268,06 31/12/2015
829 422500 ELIZETE FORTES DA CUNHA ANALISTA DO MP ATIVO RIBEIRÃO DAS NEVES - COMARCA; RIBEIRAO DAS NEVES-PJ-07PJ 6.592,40 845,18 0,00 2.271,88 0,00 0,00 9.709,46 1.293,59 842,60 0,00 2.136,19 7.573,27 6.762,93 2.856,59 31/12/2015
830 506100 ELLEM CRISTINA ROCHA FONSECA BOWEN ANALISTA DO MP ATIVO GOVERNADOR VALADARES - COMARCA; COORD REG PJ DEF EDU DIR CRIANCA ADOL RIODOCE 6.172,18 398,49 0,00 5.411,92 0,00 0,00 11.982,59 958,70 724,61 0,00 1.683,31 10.299,28 11.950,40 2.095,25 31/12/2015
831 468200 ELLEN CRISTINA BERNARDES DARE ANALISTA DO MP ATIVO TRÊS PONTAS - COMARCA; TRES PONTAS-PJ-02PJ 5.674,18 432,04 0,00 2.030,16 2.544,26 0,00 10.680,64 1.039,38 1.226,49 0,00 2.265,87 8.414,77 5.968,93 2.270,28 31/12/2015
832 418800 ELLEN CRISTINA DE QUEIROZ FERREIRA ANALISTA DO MP ATIVO BELO HORIZONTE - COMARCA; CENTRAL DE APOIO TECNICO-SETOR CONTABIL 8.451,80 845,18 0,00 3.528,70 0,00 0,00 12.825,68 1.273,54 1.406,08 0,00 2.679,62 10.146,06 3.586,93 2.656,34 31/12/2015
833 328401 ELLEN CRISTINA FERREIRA MORAIS MONTEIRO ANALISTA DO MP ATIVO CAMANDUCAIA - COMARCA; CAMANDUCAIA-PJ-UNPJ 8.451,80 845,18 0,00 3.580,85 3.098,99 0,00 15.976,82 1.278,43 2.154,02 0,00 3.432,45 12.544,37 6.762,93 2.692,02 31/12/2015
834 556100 ELLEN CRISTINE BIANCHIN DA SILVA OFICIAL DO MP ATIVO SÃO GONÇALO DO SAPUCAÍ - COMARCA; SAO GONCALO DO SAPUCAI-PJ-02PJ 3.445,03 0,00 0,00 3.021,58 0,00 0,00 6.466,61 460,96 44,50 0,00 505,46 5.961,15 1.834,78 935,98 31/12/2015
835 447100 ELLEN ROSANA DE MACEDO BORGES OFICIAL DO MP ATIVO UBERLÂNDIA - COMARCA; UBERLANDIA-PJ-17PJ 4.723,48 530,73 0,00 1.717,33 1.946,00 0,00 8.917,54 794,27 934,10 0,00 1.728,37 7.189,17 2.083,96 1.630,93 31/12/2015
836 477700 ELMA JACOB OFICIAL DO MP ATIVO BELO HORIZONTE - COMARCA; COORD DE GABINETE DO PGJ 5.139,92 2.569,96 0,00 2.109,28 2.569,96 848,09 13.237,21 1.044,25 1.957,60 0,00 3.001,85 10.235,36 2.160,34 3.269,50 31/12/2015
837 123300 ELMA PAULA DOS SANTOS COELHO OFICIAL DO MP ATIVO BELO HORIZONTE - COMARCA; BH-19PJ SAUDE-SECRETARIA 130PJ 11.643,70 9.314,96 0,00 3.279,61 0,00 2.305,45 26.543,72 2.840,04 4.894,27 0,00 7.734,31 18.809,41 2.007,70 9.030,44 31/12/2015
838 356500 ELOISA CARDOSO SILVA FRANCA OFICIAL DO MP ATIVO PEÇANHA - COMARCA; PECANHA-PJ-SECRETARIA 4.977,82 497,78 0,00 4.540,90 0,00 0,00 10.016,50 745,55 332,38 0,00 1.077,93 8.938,57 1.763,93 1.625,54 31/12/2015
839 251901 ELOISA COSTA E SILVA ANALISTA DO MP ATIVO SANTOS DUMONT - COMARCA; SANTOS DUMONT-PJ-02PJ 6.110,19 1.328,30 0,00 2.026,97 0,00 0,00 9.465,46 1.095,98 935,14 0,00 2.031,12 7.434,34 1.763,93 2.347,77 31/12/2015
840 400400 ELOIZA MARIA FERRI PIRES DA SILVA OFICIAL DO MP ATIVO BELO HORIZONTE - COMARCA; FEPDC-SECRETARIA EXECUTIVA 4.009,14 513,99 0,00 1.742,72 1.884,64 0,00 8.150,49 786,36 669,61 0,00 1.455,97 6.694,52 1.763,93 1.860,68 31/12/2015
841 258000 ELSO CECIANO PALMEIRA ASSESSOR/OFICIAL ATIVO BELO HORIZONTE - COMARCA; DIRET DE PESSOAL DO MINISTERIO PUBLICO - DPMP 0,00 4.225,90 8.451,80 2.964,73 4.225,90 0,00 19.868,33 1.527,82 3.348,12 0,00 4.875,94 14.992,39 2.481,54 3.654,73 31/12/2015
842 206900 ELVIRA RITA DOS SANTOS ANALISTA DO MP ATIVO BELO HORIZONTE - COMARCA; CENTRAL DE APOIO TECNICO-SETOR CONTABIL 10.889,55 4.414,68 0,00 3.069,34 0,00 2.104,33 20.477,90 2.618,98 3.339,30 0,00 5.958,28 14.519,62 1.788,67 8.459,82 31/12/2015
843 506800 ELVIS FERREIRA DA SILVA ANALISTA DO MP ATIVO BELO HORIZONTE - COMARCA; DIRETORIA DE SISTEMAS DE INFORMACAO 5.233,51 398,49 0,00 1.944,06 2.346,67 0,00 9.922,73 959,18 1.059,68 0,00 2.018,86 7.903,87 2.162,42 1.986,44 31/12/2015
844 602400 ELZA MARIA MOREIRA MUNIZ ANALISTA DO MP ATIVO CARMO DO PARANAÍBA - COMARCA; CARMO DO PARANAIBA-PJ-02PJ 5.307,28 0,00 0,00 1.640,24 0,00 0,00 6.947,52 729,96 429,60 0,00 1.159,56 5.787,96 1.763,93 1.515,39 31/12/2015
845 368401 ELZIRA SIMOES DOS SANTOS ASSESSOR ATIVO BELO HORIZONTE - COMARCA; DIRETORIA DE RELACOES PUBLICAS E CERIMONIAL 0,00 1.860,89 9.304,45 3.522,64 0,00 0,00 14.687,98 1.026,02 2.279,76 0,00 3.305,78 11.382,20 2.007,70 3.362,59 31/12/2015
846 437400 EMANOELLE DA SILVA RODRIGUES OFICIAL DO MP ATIVO UNAÍ - COMARCA; UNAI-PJ-03PJ 4.918,08 530,73 0,00 1.769,46 1.946,00 0,00 9.164,27 790,83 935,48 0,00 1.726,31 7.437,96 2.083,96 1.598,64 31/12/2015
847 458900 EMANUELLE CONRAD SILVA FREDERICO ANALISTA DO MP ATIVO DIVINÓPOLIS - COMARCA; DIVINOPOLIS-PJ-08PJ 7.200,74 432,04 0,00 1.978,02 2.544,26 0,00 12.155,06 1.039,45 1.698,43 0,00 2.737,88 9.417,18 2.023,16 2.131,11 31/12/2015
848 284100 EMERSON MAGNO ALMEIDA PEDROSA DA FONSECA ANALISTA DO MP ATIVO BELO HORIZONTE - COMARCA; CENTRAL DE APOIO TECNICO-SETOR CONTABIL 8.038,24 2.115,33 0,00 9.919,08 0,00 0,00 20.072,65 1.729,43 620,95 0,00 2.350,38 17.722,27 4.070,35 3.829,82 31/12/2015
849 179900 EMERSON MORAIS DIAS OFICIAL DO MP ATIVO BELO HORIZONTE - COMARCA; EXTINTA - DIVISÃO DE APOIO À LICITAÇÃO 7.579,95 3.072,95 0,00 2.803,53 0,00 0,00 13.456,43 1.805,00 1.657,38 0,00 3.462,38 9.994,05 2.251,47 3.960,61 31/12/2015
850 488700 EMERSON SIQUEIRA DE SOUSA TEIXEIRA ANALISTA DO MP ATIVO TARUMIRIM - COMARCA; TARUMIRIM-PJ-UNPJ 7.200,74 432,04 0,00 5.950,82 0,00 0,00 13.583,60 1.025,01 842,35 0,00 1.867,36 11.716,24 11.761,93 2.004,65 31/12/2015
851 194200 EMILIA ALVES FERREIRA RAMOS OFICIAL DO MP ATIVO UBERLÂNDIA - COMARCA; UBERLANDIA-PJ-SEC FAMILIA 5.139,92 1.541,98 0,00 2.642,57 2.227,30 0,00 11.551,77 915,58 1.274,27 0,00 2.189,85 9.361,92 2.142,15 2.051,11 31/12/2015
852 123400 EMILIO CARLOS MARTINS OFICIAL DO MP ATIVO AREADO - COMARCA; AREADO-PJ-UNPJ 11.643,70 9.314,96 0,00 4.547,92 0,00 0,00 25.506,58 2.825,38 4.208,14 0,00 7.033,52 18.473,06 2.143,53 5.580,78 31/12/2015
853 549300 EMILIO VIEIRA SILVA ASSESSOR ATIVO BELO HORIZONTE - COMARCA; EXTINTA - DIVISAO DE TRANSPORTES 0,00 0,00 2.500,62 1.226,19 833,54 0,00 4.560,35 788,08 188,22 0,00 976,30 3.584,05 1.763,93 756,09 31/12/2015
854 620700 EMILY FONTANA DE SIQUEIRA ANALISTA DO MP ATIVO BELO HORIZONTE - COMARCA; BH-18PJ VIOLENCIA DOMESTICA 5.139,92 0,00 0,00 2.090,70 0,00 0,00 7.230,62 697,08 393,14 0,00 1.090,22 6.140,40 1.763,93 1.327,99 31/12/2015
855 297000 ENEIDA SOARES COSTA MELO ANALISTA DO MP ATIVO PIUMHI - COMARCA; PIUMHI-PJ-01PJ 10.576,63 2.115,33 0,00 2.712,86 0,00 0,00 15.404,82 1.729,02 2.237,00 0,00 3.966,02 11.438,80 2.482,35 3.568,95 31/12/2015
856 276000 ENEZIO RODRIGUES DE SOUZA FILHO OFICIAL DO MP ATIVO UBERLÂNDIA - COMARCA; UBERLANDIA-PJ-02PJ 6.110,19 1.328,30 0,00 2.026,97 2.656,60 0,00 12.122,06 1.079,03 1.665,70 0,00 2.744,73 9.377,33 1.763,93 2.311,54 31/12/2015
857 387700 ENI MARIA DOS REIS OFICIAL DO MP ATIVO POUSO ALEGRE - COMARCA; POUSO ALEGRE-PJ-04PJ 5.480,05 1.722,83 0,00 2.831,43 2.400,96 0,00 12.435,27 822,62 1.537,21 0,00 2.359,83 10.075,44 2.171,64 2.157,53 31/12/2015
858 605100 ENIA MAIA OFICIAL DO MP ATIVO BELO HORIZONTE - COMARCA; DIRETORIA DE ORCAMENTO-DIOR/SPC 3.445,03 0,00 0,00 1.238,45 0,00 0,00 4.683,48 469,86 105,11 0,00 574,97 4.108,51 1.884,28 956,68 31/12/2015
859 612200 ENILDO GOMES MEIRA FILHO ANALISTA DO MP ATIVO BUENÓPOLIS - COMARCA; BUENOPOLIS-PJ-UNPJ 4.820,91 0,00 0,00 1.636,21 0,00 0,00 6.457,12 655,82 243,94 0,00 899,76 5.557,36 6.762,93 1.397,78 31/12/2015
860 553700 ENIVALDO NOVATO PUBLIO ANALISTA DO MP ATIVO DIVINÓPOLIS - COMARCA; DIVINOPOLIS-PJ-09PJ 4.674,13 0,00 0,00 2.281,02 0,00 0,00 6.955,15 768,84 228,29 0,00 997,13 5.958,02 1.763,93 1.342,73 31/12/2015
861 417300 ERIC BARATTI DA SILVA ANALISTA DO MP ATIVO PRATA - COMARCA; PRATA-PJ-UNPJ 7.435,23 743,52 0,00 6.146,70 0,00 0,00 14.325,45 1.125,28 1.132,39 0,00 2.257,67 12.067,78 1.763,93 2.371,84 31/12/2015
862 637600 ERIC DA ROCHA CHEHUEN ANALISTA DO MP ATIVO LIMA DUARTE - COMARCA; LIMA DUARTE-PJ-UNPJ 4.513,24 0,00 0,00 1.836,57 0,00 0,00 6.349,81 554,78 263,79 0,00 818,57 5.531,24 1.423,43 387,63 31/12/2015
863 398900 ERIC TEIXEIRA SILVA OFICIAL DO MP ATIVO UBERLÂNDIA - COMARCA; UBERLANDIA-PJ-08PJ 5.658,41 565,84 0,00 1.773,43 0,00 0,00 7.997,68 841,23 654,02 0,00 1.495,25 6.502,43 1.763,93 1.755,03 31/12/2015
864 274200 ERICA DE SOUZA ANDRADE OFICIAL DO MP ATIVO CURVELO - COMARCA; CURVELO-PJ-05PJ 6.973,67 1.394,73 0,00 2.137,01 0,00 0,00 10.505,41 1.141,76 1.126,67 0,00 2.268,43 8.236,98 1.950,25 2.523,97 31/12/2015
865 225700 ERICA GOMES DO COUTO OFICIAL DO MP ATIVO BELO HORIZONTE - COMARCA; CAO-TS-TERCEIRO SETOR-SECRETARIA 6.632,52 1.745,40 0,00 2.390,48 0,00 0,00 10.768,40 1.426,92 1.117,78 0,00 2.544,70 8.223,70 2.356,71 2.965,87 31/12/2015
866 632600 ERICA LEONOR MARTINS OFICIAL DO MP ATIVO RESENDE COSTA - COMARCA; RESENDE COSTA-PJ-UNPJ 3.030,62 0,00 0,00 1.167,08 0,00 0,00 4.197,70 397,76 59,49 0,00 457,25 3.740,45 1.650,43 609,07 31/12/2015
867 524800 ERICA MACHADO DA COSTA E SOUZA ANALISTA DO MP ATIVO BELO HORIZONTE - COMARCA; PROC JUST RECURSOS ESP E EXTRAORD CRIMINAIS 5.233,51 398,49 0,00 1.891,92 0,00 0,00 7.523,92 958,90 466,48 0,00 1.425,38 6.098,54 2.003,02 2.103,24 31/12/2015
868 249500 ERICA RODRIGUES ANDRADE OFICIAL DO MP ATIVO SÃO FRANCISCO - COMARCA; SAO FRANCISCO-PJ-02PJ 4.300,39 1.131,68 0,00 2.316,11 0,00 0,00 7.748,18 904,31 375,37 0,00 1.279,68 6.468,50 7.006,70 1.827,39 31/12/2015
869 260800 ERICA VIANA GIARDINI DE OLIVEIRA OFICIAL DO MP ATIVO BELO HORIZONTE - COMARCA; EXTINTA - DIVISÃO DE COMPRAS 5.299,99 1.394,73 0,00 2.084,87 2.789,47 0,00 11.569,06 1.139,71 1.485,65 0,00 2.625,36 8.943,70 1.763,93 2.495,86 31/12/2015
870 299800 ERICH DOUGLAS RIBEIRO GARCIA ANALISTA DO MP ATIVO BELO HORIZONTE - COMARCA; CENTRAL DE APOIO TECNICO-SETOR CONTABIL 8.038,24 2.115,33 0,00 2.712,86 0,00 0,00 12.866,43 1.719,52 1.538,94 0,00 3.258,46 9.607,97 2.251,47 3.746,53 31/12/2015
871 365000 ERICK EDUARDO JOSE DA SILVA OFICIAL DO MP ATIVO SANTOS DUMONT - COMARCA; SANTOS DUMONT-PJ-02PJ 3.882,70 497,78 0,00 1.664,69 0,00 0,00 6.045,17 746,47 213,96 0,00 960,43 5.084,74 2.073,87 1.564,40 31/12/2015
872 123500 ERICO SEGISMUNDO LIMA VILASBOAS ANALISTA DO MP ATIVO MONTES CLAROS - COMARCA; COORD REG PJ DEF EDUC DIR CRIANCA ADOL NORTE 15.298,25 12.238,61 0,00 4.244,65 0,00 3.029,05 34.810,56 3.744,57 6.494,73 0,00 10.239,30 24.571,26 2.495,24 11.597,70 31/12/2015
873 227400 ERIKA DE LAET GOULART BOECHAT ASSESSOR/OFICIAL ATIVO BELO HORIZONTE - COMARCA; ASSESSORIA ESPECIAL DO PGJ 8.727,00 3.794,04 0,00 2.903,56 4.173,68 0,00 19.598,28 1.443,36 3.340,30 0,00 4.783,66 14.814,62 7.742,00 3.635,84 31/12/2015
874 451800 ERIKA DELLARETTI GUIMARAES OFICIAL DO MP ATIVO LAVRAS - COMARCA; LAVRAS-PJ-SECRETARIA 3.307,99 424,10 0,00 3.896,55 1.555,04 0,00 9.183,68 629,66 395,36 0,00 1.025,02 8.158,66 1.763,93 1.170,14 31/12/2015
875 285100 ERIKA FERREIRA DA SILVA OFICIAL DO MP ATIVO JUIZ DE FORA - COMARCA; JUIZ DE FORA-PJ-14PJ 5.299,99 1.394,73 0,00 2.084,87 0,00 0,00 8.779,59 1.137,08 718,55 0,00 1.855,63 6.923,96 2.229,74 2.341,14 31/12/2015
876 420100 ERIKA JEANINE VERSIANI DE CASTRO ANALISTA DO MP ATIVO MONTES CLAROS - COMARCA; COORD REG PJ DEF EDUC DIR CRIANCA ADOL NORTE 6.807,06 872,70 0,00 2.315,85 0,00 0,00 9.995,61 1.300,19 900,05 0,00 2.200,24 7.795,37 2.290,18 2.630,14 31/12/2015
877 606900 ERIKA MARIA BARBOSA ANALISTA DO MP ATIVO BELO HORIZONTE - COMARCA; CAO-SAUDE 4.820,91 0,00 0,00 1.593,55 0,00 0,00 6.414,46 655,60 286,60 0,00 942,20 5.472,26 6.762,93 1.306,73 31/12/2015
878 491000 ERIKA ROCHA BARRETO ANALISTA DO MP ATIVO BELO HORIZONTE - COMARCA; DIRETORIA DE SISTEMAS DE INFORMACAO 5.674,18 432,04 0,00 2.274,41 2.544,26 0,00 10.924,89 1.029,08 1.278,63 0,00 2.307,71 8.617,18 1.763,93 2.008,22 31/12/2015
879 283201 ERIKA STEHLING ASSESSOR/ANALISTA ATIVO BELO HORIZONTE - COMARCA; CENTRAL DE APOIO TECNICO-SETOR DE ENGENHARIA 0,00 507,11 6.660,02 3.406,43 2.986,30 0,00 13.559,86 1.074,66 1.587,67 0,00 2.662,33 10.897,53 1.763,93 2.527,69 31/12/2015
880 383500 ERIKO RODRIGUES VELOSO ANALISTA DO MP ATIVO BOCAIÚVA - COMARCA; BOCAIUVA-PJ-01PJ 7.200,74 720,07 0,00 2.019,85 0,00 0,00 9.940,66 1.078,21 1.069,26 0,00 2.147,47 7.793,19 1.763,93 2.193,78 31/12/2015
881 254000 ERLANDIA DA SILVA MENDES OFICIAL DO MP ATIVO IPATINGA - COMARCA; IPATINGA-PJ-03PJ 5.952,61 2.160,22 0,00 2.385,45 3.120,32 0,00 13.618,60 1.275,63 1.780,17 0,00 3.055,80 10.562,80 2.293,80 2.647,80 31/12/2015
882 208600 ERNANE JOSE DA COSTA ANALISTA DO MP ATIVO BELO HORIZONTE - COMARCA; CENTRAL DE APOIO TECNICO-SETOR MEDICO 14.715,61 10.300,92 0,00 4.503,00 0,00 0,00 29.519,53 3.345,82 5.253,44 0,00 8.599,26 20.920,27 1.763,93 6.717,47 31/12/2015
883 260600 ERNANI CALDEIRA DE ANDRADE ANALISTA DO MP ATIVO BELO HORIZONTE - COMARCA; CENTRAL DE APOIO TECNICO-SETOR CONTABIL 8.849,21 2.328,74 0,00 2.898,86 0,00 0,00 14.076,81 1.903,42 1.781,91 0,00 3.685,33 10.391,48 2.238,47 3.922,72 31/12/2015
884 348500 ERNILANDIA OLIVEIRA DIAS OFICIAL DO MP ATIVO BELO HORIZONTE - COMARCA; EXTINTA - JUIZO DE FAMILIA-02 PJ-02 VARA 4.274,44 548,01 0,00 1.744,93 0,00 0,00 6.567,38 820,86 299,73 0,00 1.120,59 5.446,79 1.763,93 1.681,63 31/12/2015
885 199300 ERTON PORTINARI DE ANDRADE OFICIAL DO MP ATIVO SETE LAGOAS - COMARCA; SETE LAGOAS-PJ-01PJ 8.620,60 2.703,32 0,00 2.675,15 3.904,80 0,00 17.903,87 1.596,95 2.859,90 0,00 4.456,85 13.447,02 2.427,01 3.330,95 31/12/2015
886 430400 ESDRAS SOARES VILAS BOAS RIBEIRO OFICIAL DO MP ATIVO BELO HORIZONTE - COMARCA; BH-17PJ PATRIMONIO PUBLICO-SECRETARIA 5.307,28 530,73 0,00 1.717,33 0,00 0,00 7.555,34 790,25 559,49 0,00 1.349,74 6.205,60 1.763,93 1.690,86 31/12/2015
887 618800 ESLY DE CARLA AYALLA BARBOSA MENDES OFICIAL DO MP ATIVO ITABIRITO - COMARCA; ITABIRITO-PJ-01PJ 3.129,28 0,00 0,00 1.203,67 0,00 0,00 4.332,95 422,10 66,08 0,00 488,18 3.844,77 4.145,93 797,16 31/12/2015
888 537000 ESTANISLAU CORREIA ALMEIDA JUNIOR OFICIAL DO MP ATIVO UBERLÂNDIA - COMARCA; UBERLANDIA-PJ-25PJ 3.445,03 0,00 0,00 1.238,45 0,00 0,00 4.683,48 466,91 105,11 0,00 572,02 4.111,46 1.763,93 996,23 31/12/2015
889 326900 ESTER ALICE PIMENTA OFICIAL DO MP ATIVO BELO HORIZONTE - COMARCA; COORD DE INCLUSAO E MOBILIZACAO SOCIAIS 6.432,09 1.286,42 0,00 2.042,60 0,00 0,00 9.761,11 1.078,12 1.064,78 0,00 2.142,90 7.618,21 2.164,42 2.381,51 31/12/2015
890 503700 ESTHER GONCALVES FONSECA ANALISTA DO MP ATIVO BELO HORIZONTE - COMARCA; DIRETORIA DE PUBLICIDADE INSTITUCIONAL 4.318,28 328,80 0,00 1.713,09 0,00 0,00 6.360,17 790,80 265,69 0,00 1.056,49 5.303,68 1.763,93 1.719,92 31/12/2015
891 475600 ETIENE DE FATIMA OLIVEIRA PEREIRA ANALISTA DO MP ATIVO PATROCÍNIO - COMARCA; PATROCINIO-PJ-04PJ 5.674,18 432,04 0,00 2.082,29 0,00 0,00 8.188,51 1.050,35 474,68 0,00 1.525,03 6.663,48 6.762,93 2.238,20 31/12/2015
892 428800 EUGENIA RODRIGUES TRAJANO BORGES ANALISTA DO MP ATIVO UBERABA - COMARCA; UBERABA-PJ-08PJ 8.451,80 845,18 0,00 2.366,33 3.098,99 0,00 14.762,30 1.237,43 2.258,30 0,00 3.495,73 11.266,57 1.763,93 2.472,23 31/12/2015
893 272700 EUGENIO DE BARCELOS FILHO OFICIAL DO MP ATIVO FRUTAL - COMARCA; FRUTAL-PJ-02PJ 4.164,84 1.096,01 0,00 2.582,36 0,00 0,00 7.843,21 896,15 342,15 0,00 1.238,30 6.604,91 2.136,16 1.856,57 31/12/2015
894 254100 EULALIA ALVES MIRANDA LUCAS OFICIAL DO MP ATIVO ALMENARA - COMARCA; ALMENARA-PJ-SECRETARIA 5.299,99 2.334,59 0,00 2.453,48 3.181,07 0,00 13.269,13 1.138,56 1.747,53 0,00 2.886,09 10.383,04 2.251,47 2.858,95 31/12/2015
895 615500 EUNICE BARBOSA PINTO OFICIAL DO MP ATIVO CARLOS CHAGAS - COMARCA; CARLOS CHAGAS-PJ-UNPJ 3.445,03 0,00 0,00 1.292,78 0,00 0,00 4.737,81 460,96 105,11 0,00 566,07 4.171,74 1.763,93 911,54 31/12/2015
896 641200 EUNICE ELVIRA DA SILVA MATOS OFICIAL DO MP ATIVO BELO HORIZONTE - COMARCA; BH-14PJ DEFESA CONSUMIDOR-SECRETARIA 3.030,62 0,00 0,00 1.348,62 0,00 0,00 4.379,24 333,37 59,49 0,00 392,86 3.986,38 1.090,96 0,00 31/12/2015
897 557900 EURIPEDES JUSUE PERES OFICIAL DO MP ATIVO IBIÁ - COMARCA; IBIA-PJ-UNPJ 2.503,42 0,00 0,00 2.718,98 0,00 0,00 5.222,40 426,00 19,14 0,00 445,14 4.777,26 1.763,93 929,10 31/12/2015
898 225800 EURO CESAR VIEIRA BARBOSA ANALISTA DO MP ATIVO BELO HORIZONTE - COMARCA; BH-17PJ PATRIMONIO PUBLICO 13.097,56 3.929,27 0,00 3.446,78 0,00 0,00 20.473,61 2.319,73 3.193,68 0,00 5.513,41 14.960,20 5.671,24 4.807,67 31/12/2015
899 199400 EUSTAQUIO ADAILTON LIMA E SILVA OFICIAL DO MP ATIVO MANGA - COMARCA; MANGA-PJ-01PJ 9.920,24 4.960,12 0,00 5.339,73 0,00 0,00 20.220,09 1.990,50 2.564,06 0,00 4.554,56 15.665,53 1.763,93 3.764,67 31/12/2015
900 249000 EUSTAQUIO GOMES DE OLIVEIRA OFICIAL DO MP ATIVO BELO HORIZONTE - COMARCA; CAO-TS-CONTROLADORIA E APOIO AS ENTIDADES  6.973,67 2.789,47 0,00 2.287,45 0,00 0,00 12.050,59 1.330,66 1.520,17 0,00 2.850,83 9.199,76 1.763,93 2.948,19 31/12/2015
901 67100 EVA DAS DORES BARROS VALGAS ANALISTA DO MP ATIVO FERROS - COMARCA; FERROS-PJ-SECRETARIA 15.298,25 10.708,79 0,00 3.964,45 0,00 2.860,77 32.832,26 3.553,99 6.178,30 0,00 9.732,29 23.099,97 1.763,93 10.940,66 31/12/2015
902 548000 EVA VILMA LEAO DOS REIS JULIO OFICIAL DO MP ATIVO BELO HORIZONTE - COMARCA; BH-07PJ 01 TRIBUNAL JURI-SECRETARIA 3.337,46 758,51 0,00 3.775,24 0,00 0,00 7.871,21 609,09 184,50 0,00 793,59 7.077,62 1.904,33 1.170,50 31/12/2015
903 517000 EVALDO SENA COSTA FILHO ANALISTA DO MP ATIVO CONTAGEM - COMARCA; CONTAGEM-PJ-15PJ 6.641,51 1.328,30 0,00 2.183,38 0,00 0,00 10.153,19 1.090,31 924,84 0,00 2.015,15 8.138,04 4.146,30 2.286,32 31/12/2015
904 217500 EVELANGE LEAO RABELO ASSESSOR ATIVO BELO HORIZONTE - COMARCA; COORD EST DEF DIR FAMILIA PESSOA DEFICI IDOSO 0,00 750,19 2.500,62 1.546,22 4,72 0,00 4.801,75 870,60 176,43 0,00 1.047,03 3.754,72 1.874,33 954,89 31/12/2015
905 540400 EVIE SARAMELLA DE RESENDE OFICIAL DO MP ATIVO BARBACENA - COMARCA; BARBACENA-PJ-05PJ 2.756,02 0,00 0,00 2.960,97 0,00 0,00 5.716,99 461,11 35,48 0,00 496,59 5.220,40 1.763,93 940,53 31/12/2015
906 469000 EWERTON CARDOSO DE SA RODRIGUES ANALISTA DO MP ATIVO CAMPO BELO - COMARCA; CAMPO BELO-PJ-01PJ 7.200,74 432,04 0,00 2.030,16 0,00 0,00 9.662,94 1.039,17 946,62 0,00 1.985,79 7.677,15 1.763,93 2.122,91 31/12/2015
907 368900 FABIANA BARBOSA SIQUEIRA OFICIAL DO MP ATIVO BELO HORIZONTE - COMARCA; CAO-ORDEM ECONOMICA E TRIBUTARIA-SECRETARIA 4.858,85 622,93 0,00 5.342,90 0,00 0,00 10.824,68 967,03 464,97 0,00 1.432,00 9.392,68 6.762,93 2.372,30 31/12/2015
908 273800 FABIANA CARNEIRO AMORIM COORDENADOR/OFICIAL ATIVO BELO HORIZONTE - COMARCA; BH-23PJ INFRACIONAL-COORD ADM INFRACIONAL 0,00 1.921,48 9.607,41 2.932,04 3.842,96 0,00 18.303,89 1.179,60 3.012,54 0,00 4.192,14 14.111,75 2.416,51 3.258,15 31/12/2015
909 519300 FABIANA DE OLIVEIRA LOUREIRO ANALISTA DO MP ATIVO BELO HORIZONTE - COMARCA; BH-09PJ AUDITORIA MILITAR 6.641,51 398,49 0,00 1.891,92 0,00 0,00 8.931,92 965,96 853,68 0,00 1.819,64 7.112,28 6.776,69 2.023,97 31/12/2015
910 363400 FABIANA DOURADO DUPIN VIEGAS ANALISTA DO MP ATIVO BELO HORIZONTE - COMARCA; GABINETE DE PROCURADOR DE JUSTIÇA - SALA 705 9.920,24 992,02 0,00 2.506,50 0,00 0,00 13.418,76 1.485,64 1.749,28 0,00 3.234,92 10.183,84 9.899,23 3.034,51 31/12/2015
911 410800 FABIANA DUARTE QUITITE ANALISTA DO MP ATIVO BELO HORIZONTE - COMARCA; EXTINTA-MEIO AMB PATRIM HIST CULTURAL-15PJGAB 8.727,00 872,70 0,00 2.263,71 3.199,90 0,00 15.063,31 1.357,42 2.480,98 0,00 3.838,40 11.224,91 2.290,18 3.147,93 31/12/2015
912 419500 FABIANA EULALIA DOS SANTOS ANALISTA DO MP ATIVO SÃO JOÃO DEL REI - COMARCA; SAO JOAO DEL REI-PJ-01PJ 6.592,40 845,18 0,00 3.434,12 0,00 0,00 10.871,70 1.294,52 894,74 0,00 2.189,26 8.682,44 2.290,18 2.881,04 31/12/2015
913 376300 FABIANA MATTOSO LEMOS ANALISTA DO MP ATIVO BELO HORIZONTE - COMARCA; COORD-GERAL DAS PJS POR BACIA HIDRO. DE MG 9.011,08 901,11 0,00 2.309,10 0,00 0,00 12.221,29 1.341,72 1.556,65 0,00 2.898,37 9.322,92 1.763,93 2.693,10 31/12/2015
914 331500 FABIANA PACHECO OFICIAL DO MP ATIVO GUAXUPÉ - COMARCA; GUAXUPE-PJ-01PJ 6.229,29 1.245,86 0,00 2.059,39 2.491,72 0,00 12.026,26 1.002,03 1.541,13 0,00 2.543,16 9.483,10 2.151,79 1.926,64 31/12/2015
915 510700 FABIANA PEREIRA SANTOS BORGES ANALISTA DO MP ATIVO BELO HORIZONTE - COMARCA; DIRETORIA DE SISTEMAS DE INFORMACAO 6.641,51 398,49 0,00 1.944,06 0,00 0,00 8.984,06 958,04 801,54 0,00 1.759,58 7.224,48 2.775,13 1.940,21 31/12/2015
916 181700 FABIANA SOUZA FERREIRA OFICIAL DO MP ATIVO BELO HORIZONTE - COMARCA; BH-19PJ SAUDE-SECRETARIA 150PJ 4.820,91 1.446,27 0,00 1.883,94 2.089,06 0,00 10.240,18 861,93 1.134,75 0,00 1.996,68 8.243,50 7.117,68 1.841,63 31/12/2015
917 272900 FABIANA STOCKLER LEITE OFICIAL DO MP ATIVO LAJINHA - COMARCA; LAJINHA-PJ-SECRETARIA 6.857,79 2.743,12 0,00 2.368,16 0,00 0,00 11.969,07 1.307,54 1.376,19 0,00 2.683,73 9.285,34 6.762,93 2.699,49 31/12/2015
918 225500 FABIANE DE FATIMA PORTELLA ANALISTA DO MP ATIVO BELO HORIZONTE - COMARCA; SERVICO MEDICO-DEPTO PERIC MEDICA SAUDE OCUP 12.598,78 2.519,76 0,00 3.065,33 0,00 0,00 18.183,87 2.060,33 2.830,90 0,00 4.891,23 13.292,64 2.495,24 4.574,59 31/12/2015
919 433800 FABIANE DINIZ MATTOS ANALISTA DO MP ATIVO BELO HORIZONTE - COMARCA; BH-23PJ INFRACIONAL-ASS JURIDICA 8.451,80 845,18 0,00 2.219,74 0,00 0,00 11.516,72 1.360,73 1.523,12 0,00 2.883,85 8.632,87 1.763,93 3.482,05 31/12/2015
920 455000 FABIANO CARVALHO DA SILVA ANALISTA DO MP ATIVO LAVRAS - COMARCA; COORD REG DO MA DA BACIA DO RIO GRANDE 5.799,48 743,52 0,00 2.330,31 0,00 0,00 8.873,31 1.100,46 682,56 0,00 1.783,02 7.090,29 2.242,49 2.166,39 31/12/2015
921 498800 FABIANO FURTADO PESSOA COELHO ANALISTA DO MP ATIVO BELO HORIZONTE - COMARCA; DIRETORIA DE REDES E BANCOS DE DADOS 6.641,51 398,49 0,00 1.944,06 2.346,67 0,00 11.330,73 964,47 1.446,88 0,00 2.411,35 8.919,38 6.762,93 2.025,50 31/12/2015
922 394600 FABIANO PALHARES SILVA ANALISTA DO MP ATIVO BELO HORIZONTE - COMARCA; CENTRAL DE APOIO TECN-SETOR DE MEIO AMBIENTE 6.807,06 872,70 0,00 2.315,85 0,00 0,00 9.995,61 1.307,94 900,05 0,00 2.207,99 7.787,62 6.762,93 2.891,66 31/12/2015
923 444400 FABIANO SARAIVA MEDEIROS ANALISTA DO MP ATIVO BETIM - COMARCA; BETIM-PJ-11PJ 7.162,60 743,52 0,00 2.161,59 0,00 0,00 10.067,71 1.118,94 953,14 0,00 2.072,08 7.995,63 11.033,88 2.340,95 31/12/2015
924 408700 FABIANO SOARES PORTILHO ANALISTA DO MP ATIVO VIÇOSA - COMARCA; VICOSA-PJ-02PJ 6.592,40 845,18 0,00 2.219,74 3.098,99 0,00 12.756,31 1.294,01 1.746,96 0,00 3.040,97 9.715,34 2.079,68 2.874,30 31/12/2015
925 442600 FABIO CARVALHO VIEIRA ANALISTA DO MP ATIVO MONTES CLAROS - COMARCA; MONTES CLAROS-PJ-06PJ 4.858,85 622,93 0,00 1.864,65 2.284,07 0,00 9.630,50 931,08 1.058,97 0,00 1.990,05 7.640,45 2.147,50 1.873,85 31/12/2015
926 123700 FABIO JOSE ANDRADE NOGUEIRA OFICIAL DO MP ATIVO FORMIGA - COMARCA; FORMIGA-PJ-SECRETARIA 8.185,27 6.548,22 0,00 4.150,77 0,00 0,00 18.884,26 1.985,55 1.288,86 0,00 3.274,41 15.609,85 1.763,93 3.901,66 31/12/2015
927 240101 FABIO JUNQUEIRA DE ASSIS FONSECA OFICIAL DO MP ATIVO BELO HORIZONTE - COMARCA; DIRET DE DESENV DE RECURSOS HUMANOS-DDRH 3.882,70 497,78 0,00 1.664,69 0,00 0,00 6.045,17 733,41 213,96 0,00 947,37 5.097,80 2.045,47 1.417,56 31/12/2015
928 271500 FABIO LUIZ VIEIRA OFICIAL DO MP ATIVO SANTA VITÓRIA - COMARCA; SANTA VITORIA-PJ-UNPJ 7.200,74 1.440,15 0,00 2.228,72 2.880,30 0,00 13.749,91 1.164,18 1.933,31 0,00 3.097,49 10.652,42 2.321,69 2.296,15 31/12/2015
929 213100 FABIO PRATES GONCALVES ASSESSOR ATIVO BELO HORIZONTE - COMARCA; DIRETORIA DE RELACOES PUBLICAS E CERIMONIAL 0,00 1.992,45 6.641,51 3.109,49 2.877,99 0,00 14.621,44 1.026,02 2.218,66 0,00 3.244,68 11.376,76 6.061,56 2.536,87 31/12/2015
930 436700 FABIO SANTIAGO DE CARVALHO OFICIAL DO MP ATIVO POÇO FUNDO - COMARCA; POCO FUNDO-PJ-UNPJ 5.307,28 530,73 0,00 1.717,33 0,00 0,00 7.555,34 795,08 559,49 0,00 1.354,57 6.200,77 1.763,93 1.741,96 31/12/2015
931 208400 FABIOLA DE SOUSA CARDOSO ASSESSOR/ANALISTA ATIVO BELO HORIZONTE - COMARCA; ASSESS TECNICA DA CORREGEDORIA-GERAL DO MP 14.715,61 6.463,32 0,00 4.108,97 7.059,64 0,00 32.347,54 2.608,26 6.317,56 0,00 8.925,82 23.421,72 2.739,01 5.944,73 31/12/2015
932 392200 FABIOLA LEROY COSTA ANALISTA DO MP ATIVO ESMERALDAS - COMARCA; ESMERALDAS-PJ-01PJ 7.677,29 767,73 0,00 6.318,51 0,00 0,00 14.763,53 1.126,25 1.197,56 0,00 2.323,81 12.439,72 1.763,93 2.098,68 31/12/2015
933 409000 FABIOLA MONTEIRO DE CARVALHO CASTRO ANALISTA DO MP ATIVO BOM SUCESSO - COMARCA; BOM SUCESSO-PJ-UNPJ 8.185,27 818,53 0,00 2.177,16 3.001,27 0,00 14.182,23 1.246,33 2.159,67 0,00 3.406,00 10.776,23 1.763,93 2.851,91 31/12/2015
934 227900 FABIOLA PIMENTA DE CARVALHO OFICIAL DO MP ATIVO MONTES CLAROS - COMARCA; COORD REG BACIA RIOS VERDE GRANDE E PARDO 4.734,26 1.245,86 0,00 2.007,26 0,00 0,00 7.987,38 1.017,70 496,91 0,00 1.514,61 6.472,77 1.763,93 2.077,28 31/12/2015
935 525800 FABRICIA ALVES DANTAS OFICIAL DO MP ATIVO MONTES CLAROS - COMARCA; MONTES CLAROS-PJ-01PJ 4.241,01 254,46 0,00 1.564,76 1.498,49 0,00 7.558,72 607,16 538,72 0,00 1.145,88 6.412,84 2.311,24 1.203,22 31/12/2015
936 263400 FABRICIA PINTO TEIXEIRA SANTIAGO OFICIAL DO MP ATIVO BELO HORIZONTE - COMARCA; CAO-TS-TERCEIRO SETOR-SECRETARIA 6.973,67 1.394,73 0,00 2.189,15 0,00 0,00 10.557,55 1.139,81 1.074,53 0,00 2.214,34 8.343,21 6.762,93 2.344,44 31/12/2015
937 420800 FABRICIO BERNARDES DE OLIVEIRA OFICIAL DO MP ATIVO ITURAMA - COMARCA; ITURAMA-PJ-02PJ 4.139,68 530,73 0,00 1.769,46 0,00 0,00 6.439,87 802,18 227,56 0,00 1.029,74 5.410,13 2.094,39 1.834,31 31/12/2015
938 474000 FABRICIO DE FREITAS SALES ANALISTA DO MP ATIVO MONTES CLAROS - COMARCA; COORD REG PATRI PUB ORD TRIB-NORTE MINAS 5.674,18 432,04 0,00 1.978,02 2.544,26 0,00 10.628,50 1.051,87 1.278,63 0,00 2.330,50 8.298,00 7.194,98 2.285,86 31/12/2015
939 510100 FABRICIO FURTADO ASSIS DO CARMO ANALISTA DO MP ATIVO BELO HORIZONTE - COMARCA; SERVICO MEDICO-DEPTO PERIC MEDICA SAUDE OCUP 6.032,93 1.145,19 0,00 1.974,44 0,00 0,00 9.152,56 872,21 911,18 0,00 1.783,39 7.369,17 3.492,21 17.543,05 31/12/2015
940 519600 FABRICIO GONTIJO SALVATI ANALISTA DO MP ATIVO JUIZ DE FORA - COMARCA; JUIZ DE FORA-PJ-13PJ 5.233,51 398,49 0,00 5.411,92 0,00 0,00 11.043,92 966,32 466,48 0,00 1.432,80 9.611,12 2.003,02 2.043,11 31/12/2015
941 637400 FABRICIO HENRIQUE DA SILVA PASSOS ANALISTA DO MP ATIVO BELO HORIZONTE - COMARCA; DIRETORIA DE PUBLICIDADE INSTITUCIONAL 4.111,94 0,00 0,00 1.877,21 0,00 0,00 5.989,15 620,46 177,18 0,00 797,64 5.191,51 1.423,43 518,17 31/12/2015
942 428200 FABRICIO ORZIL VIANA ANALISTA DO MP ATIVO SANTA LUZIA - COMARCA; SANTA LUZIA-PJ-04PJ 5.799,48 743,52 0,00 3.073,35 0,00 0,00 9.616,35 1.110,26 682,56 0,00 1.792,82 7.823,53 1.763,93 2.249,86 31/12/2015
943 455600 FABRICIO PAIVA DA ROCHA ANALISTA DO MP ATIVO SÃO JOÃO DEL REI - COMARCA; SAO JOAO DEL REI-PJ-06PJ 7.200,74 432,04 0,00 2.030,16 0,00 0,00 9.662,94 1.039,90 946,62 0,00 1.986,52 7.676,42 1.763,93 2.148,42 31/12/2015
944 511500 FABRICIO RENE CARDOSO DE PADUA ANALISTA DO MP ATIVO SÃO SEBASTIÃO DO PARAÍSO - COMARCA; SAO SEBASTIAO DO PARAISO-PJ-03PJ 6.641,51 398,49 0,00 1.891,92 2.346,67 0,00 11.278,59 958,20 1.499,01 0,00 2.457,21 8.821,38 1.763,93 2.080,09 31/12/2015
945 496100 FABRICIO RESENDE GONCALVES OFICIAL DO MP ATIVO ENTRE-RIOS DE MINAS - COMARCA; ENTRE RIOS DE MINAS-PJ-UNPJ 4.241,01 1.429,28 0,00 4.621,81 0,00 0,00 10.292,10 613,08 553,98 0,00 1.167,06 9.125,04 1.763,93 1.670,59 31/12/2015
946 514900 FADUA MARIA DRUMOND CHEQUER FIGUEIREDO ANALISTA DO MP ATIVO ALMENARA - COMARCA; COORD REG INCLUSAO MOBILIZ VALE JEQUITINHONHA 5.233,51 398,49 0,00 2.810,23 0,00 0,00 8.442,23 965,63 371,51 0,00 1.337,14 7.105,09 5.409,93 2.006,28 31/12/2015
947 282500 FANNY FERREIRA MELO FAVERO DE FRAVET OFICIAL DO MP ATIVO ARAXÁ - COMARCA; ARAXA-PJ-03PJ 4.440,42 1.168,53 0,00 1.887,73 0,00 0,00 7.496,68 955,19 461,01 0,00 1.416,20 6.080,48 7.159,79 1.969,42 31/12/2015
948 540100 FATIMA CRISTINA POVOA DA COSTA OFICIAL DO MP ATIVO BELO HORIZONTE - COMARCA; BH-18PJ VIOLENCIA DOMESTICA-SECRETARIA 3.792,57 758,51 0,00 3.775,24 0,00 0,00 8.326,32 641,15 275,22 0,00 916,37 7.409,95 2.021,54 1.550,83 31/12/2015
949 382800 FATIMA DE OLIVEIRA COELHO E SILVA OFICIAL DO MP ATIVO BELO HORIZONTE - COMARCA; DIRETORIA DE ADMINISTRACAO FINANCEIRA 3.436,48 904,34 0,00 1.708,38 1.808,67 0,00 7.857,87 735,20 605,48 0,00 1.340,68 6.517,19 7.060,38 1.506,36 31/12/2015
950 398601 FELIPE ANTONIO HORTA DE PAULA ANALISTA DO MP ATIVO BELO HORIZONTE - COMARCA; PROC. JUSTICA DIR. DIFUSOS E COLETIVOS-SEC 5.842,66 0,00 0,00 1.718,01 0,00 0,00 7.560,67 782,07 560,63 0,00 1.342,70 6.217,97 1.763,93 1.604,77 31/12/2015
951 430900 FELIPE BOY VIEIRA ANALISTA DO MP ATIVO BELO HORIZONTE - COMARCA; CAO-DH APOIO COMUNITARIO-SEC ADM 6.384,51 818,53 0,00 6.679,06 0,00 0,00 13.882,10 1.205,26 839,11 0,00 2.044,37 11.837,73 2.226,88 2.310,09 31/12/2015
952 631700 FELIPE DE MORAIS SIMOES COELHO ANALISTA DO MP ATIVO BELO HORIZONTE - COMARCA; BH-18PJ VIOLENCIA DOMESTICA 3.735,10 0,00 0,00 1.522,04 0,00 0,00 5.257,14 632,43 128,43 0,00 760,86 4.496,28 1.763,93 1.152,61 31/12/2015
953 549100 FELIPE FERNANDES ALVIM ANALISTA DO MP ATIVO LAJINHA - COMARCA; LAJINHA-PJ-UNPJ 5.842,66 0,00 0,00 1.718,01 0,00 0,00 7.560,67 781,81 560,63 0,00 1.342,44 6.218,23 1.763,93 1.594,38 31/12/2015
954 487300 FELIPE FERNANDES SILVEIRA ASSESSOR ATIVO BELO HORIZONTE - COMARCA; DIVISAO DE MANUTENCAO PREDIAL 0,00 0,00 2.500,62 1.226,19 0,00 0,00 3.726,81 788,08 66,20 0,00 854,28 2.872,53 1.763,93 701,89 31/12/2015
955 620100 FELIPE GOMES DE AZEVEDO OFICIAL DO MP ATIVO BELO HORIZONTE - COMARCA; BH-18PJ VIOLENCIA DOMESTICA-SECRETARIA 2.503,42 0,00 0,00 1.203,67 0,00 0,00 3.707,09 426,04 19,14 0,00 445,18 3.261,91 1.763,93 827,12 31/12/2015
956 601600 FELIPE RODRIGUES DE SIQUEIRA ANALISTA DO MP ATIVO BELO HORIZONTE - COMARCA; BH-02PJ FAMILIA-SECRETARIA 5.307,28 0,00 0,00 1.640,24 0,00 0,00 6.947,52 724,76 429,60 0,00 1.154,36 5.793,16 1.763,93 1.475,33 31/12/2015
957 628900 FELIX FERNANDO JUNIO VIEIRA ANALISTA DO MP ATIVO CAETÉ - COMARCA; CAETE-PJ-02PJ 4.668,87 0,00 0,00 1.564,70 0,00 0,00 6.233,57 633,35 256,15 0,00 889,50 5.344,07 1.763,93 1.192,91 31/12/2015
958 544500 FELLIPE LEMOS MARCONDES BUENO ANALISTA DO MP ATIVO SÃO SEBASTIÃO DO PARAÍSO - COMARCA; SAO SEBASTIAO DO PARAISO-PJ-04PJ 5.842,66 0,00 0,00 1.718,01 0,00 0,00 7.560,67 781,72 560,63 0,00 1.342,35 6.218,32 1.763,93 1.586,72 31/12/2015
959 612600 FERNANDA ADRIANA DE PAULA GUIDO ANALISTA DO MP ATIVO PARACATU - COMARCA; PARACATU-PJ-02PJ 5.307,28 0,00 0,00 4.293,88 0,00 0,00 9.601,16 719,62 429,60 0,00 1.149,22 8.451,94 1.763,93 1.513,17 31/12/2015
960 508400 FERNANDA AGANETTI MATTOS DE OLIVEIRA ANALISTA DO MP ATIVO BELO HORIZONTE - COMARCA; BH-19PJ SAUDE 6.641,51 398,49 0,00 1.891,92 0,00 0,00 8.931,92 958,28 853,68 0,00 1.811,96 7.119,96 1.763,93 2.079,69 31/12/2015
961 453600 FERNANDA ALBERNAZ RABELO ANALISTA DO MP ATIVO BELO HORIZONTE - COMARCA; GABINETE DE PROCURADOR DE JUSTIÇA - SALA 616 7.435,23 743,52 0,00 2.330,31 0,00 0,00 10.509,06 1.099,71 1.132,39 0,00 2.232,10 8.276,96 1.763,93 2.286,48 31/12/2015
962 255600 FERNANDA ALINA DE ALMEIDA ANDRADE OFICIAL DO MP ATIVO BELO HORIZONTE - COMARCA; SUPRIN DE PLANEJAMENTO E COORDENACAO 4.888,39 1.286,42 0,00 1.990,47 0,00 0,00 8.165,28 1.045,07 595,23 0,00 1.640,30 6.524,98 1.763,93 2.239,44 31/12/2015
963 443200 FERNANDA ALMEIDA LOPES ANALISTA DO MP ATIVO CONTAGEM - COMARCA; CONTAGEM-PJ-23PJ 6.902,30 845,18 0,00 2.778,85 3.098,99 0,00 13.625,32 1.249,19 1.832,19 0,00 3.081,38 10.543,94 1.763,93 2.568,01 31/12/2015
964 281100 FERNANDA ANANIAS MEIRA ANALISTA DO MP ATIVO BELO HORIZONTE - COMARCA; BH-23PJ INFRACIONAL-ASS JURIDICA 8.038,24 2.115,33 0,00 2.712,86 0,00 0,00 12.866,43 1.718,34 1.538,94 0,00 3.257,28 9.609,15 1.763,93 3.456,14 31/12/2015
965 539000 FERNANDA BARBOSA ALVES ANALISTA DO MP ATIVO CANÁPOLIS - COMARCA; CANAPOLIS-PJ-SECRETARIA 5.842,66 0,00 0,00 1.718,01 1.947,55 0,00 9.508,22 791,96 1.096,21 0,00 1.888,17 7.620,05 1.763,93 1.583,26 31/12/2015
966 451200 FERNANDA BLOISE PRADO OFICIAL DO MP ATIVO BELO HORIZONTE - COMARCA; NUCLEO DE NEGOCIACAO DE CONFLITOS AMBIENTAIS 4.379,06 437,91 0,00 1.550,14 0,00 0,00 6.367,11 648,36 328,47 0,00 976,83 5.390,28 2.018,39 1.287,21 31/12/2015
967 427900 FERNANDA BRAGA CARNEIRO BICALHO ANALISTA DO MP ATIVO PEÇANHA - COMARCA; PECANHA-PJ-SECRETARIA 8.185,27 818,53 0,00 2.229,30 0,00 0,00 11.233,10 1.220,91 1.282,18 0,00 2.503,09 8.730,01 1.763,93 2.626,65 31/12/2015
968 507100 FERNANDA CABRINI VAZ MOTA ANALISTA DO MP ATIVO BELO HORIZONTE - COMARCA; ASSESSORIA JURIDICO-ADMINISTRATIVA 6.641,51 398,49 0,00 1.891,92 0,00 0,00 8.931,92 958,72 853,68 0,00 1.812,40 7.119,52 2.003,02 1.965,09 31/12/2015
969 259800 FERNANDA CALZAVARA DE SOUSA COORDENADOR/OFICIAL ATIVO BELO HORIZONTE - COMARCA; DIRET DE FORMACAO, APERFEIC. E POS-GRADUACAO 0,00 2.184,20 10.921,00 3.128,92 0,00 0,00 16.234,12 1.295,53 2.473,18 0,00 3.768,71 12.465,41 2.505,74 3.738,26 31/12/2015
970 550300 FERNANDA CAMARGOS CALDEIRA BRANT ANALISTA DO MP ATIVO CONTAGEM - COMARCA; CONTAGEM-PJ-10PJ 5.842,66 0,00 0,00 1.718,01 0,00 0,00 7.560,67 781,85 560,63 0,00 1.342,48 6.218,19 1.763,93 1.591,26 31/12/2015
971 494400 FERNANDA CAMPOS BARATA OFICIAL DO MP ATIVO JUIZ DE FORA - COMARCA; JUIZ DE FORA-PJ-08PJ 3.085,86 234,96 0,00 1.609,76 0,00 0,00 4.930,58 555,15 74,83 0,00 629,98 4.300,60 6.762,93 1.045,06 31/12/2015
972 555600 FERNANDA CAROLINE RIBEIRO ANALISTA DO MP ATIVO BELO HORIZONTE - COMARCA; EXTINTA - DIRETORIA DE CONTRATOS E CONVÊNIOS 5.842,66 0,00 0,00 1.985,70 0,00 0,00 7.828,36 781,68 560,63 0,00 1.342,31 6.486,05 1.763,93 1.582,53 31/12/2015
973 294500 FERNANDA COSTA FLORES OFICIAL DO MP ATIVO PARÁ DE MINAS - COMARCA; PARA DE MINAS-PJ-04PJ 5.299,99 1.394,73 0,00 2.137,01 0,00 0,00 8.831,73 1.136,65 666,41 0,00 1.803,06 7.028,67 2.229,74 2.326,82 31/12/2015
974 344500 FERNANDA CRISTINA DE SOUZA PAZ ASSESSOR ATIVO BELO HORIZONTE - COMARCA; CENTRAL DE APOIO TECN-SETOR DE MEIO AMBIENTE 0,00 0,00 4.175,17 1.941,87 0,00 0,00 6.117,04 972,28 282,32 0,00 1.254,60 4.862,44 9.872,76 1.170,02 31/12/2015
975 538100 FERNANDA CRISTINA DOS SANTOS ROSA MOREIRA OFICIAL DO MP ATIVO RIBEIRÃO DAS NEVES - COMARCA; RIBEIRAO DAS NEVES-PJ-09PJ 2.882,35 758,51 0,00 3.775,24 0,00 0,00 7.416,10 616,89 116,24 0,00 733,13 6.682,97 2.021,54 1.323,33 31/12/2015
976 337800 FERNANDA CRISTINA REIS ROLAND CLIMACO DA SILVA ASSESSOR/OFICIAL ATIVO BELO HORIZONTE - COMARCA; DIRETORIA-GERAL 0,00 1.860,89 9.304,45 2.745,97 3.721,78 0,00 17.633,09 1.144,67 2.983,51 0,00 4.128,18 13.504,91 1.763,93 2.853,86 31/12/2015
977 545400 FERNANDA CUNHA GUIMARAES ANALISTA DO MP ATIVO BELO HORIZONTE - COMARCA; EXTINTA - COORD DEFESA DO DIREITO DE FAMILIA 5.307,28 0,00 0,00 1.640,24 0,00 0,00 6.947,52 710,18 429,60 0,00 1.139,78 5.807,74 1.763,93 1.353,09 31/12/2015
978 429801 FERNANDA CUNHA PINHEIRO DA SILVA ANALISTA DO MP ATIVO BELO HORIZONTE - COMARCA; SUPERINTENDENCIA DE COMUNICACAO INTEGRADA 4.753,95 361,98 0,00 2.497,84 0,00 0,00 7.613,77 874,93 356,68 0,00 1.231,61 6.382,16 2.125,91 1.954,63 31/12/2015
979 408000 FERNANDA DAS NEVES RAMOS ANALISTA DO MP ATIVO BELO HORIZONTE - COMARCA; CENTRAL DE APOIO TECNICO-SETOR CONTABIL 6.592,40 845,18 0,00 2.219,74 3.098,99 0,00 12.756,31 1.293,77 1.746,96 0,00 3.040,73 9.715,58 2.079,68 2.858,76 31/12/2015
980 496000 FERNANDA DE ALMEIDA VIANA ASSESSOR/ANALISTA ATIVO BELO HORIZONTE - COMARCA; PROC JUST RECURSOS ESP E EXTRAORD CRIMINAIS 0,00 507,11 8.451,80 2.323,67 0,00 0,00 11.282,58 1.008,75 1.381,38 0,00 2.390,13 8.892,45 2.271,04 2.489,84 31/12/2015
981 266700 FERNANDA DE CASTRO LUCAS ASSESSOR/OFICIAL ATIVO BELO HORIZONTE - COMARCA; DIRET DE DESENV DE RECURSOS HUMANOS-DDRH 0,00 1.860,89 9.304,45 2.714,18 3.721,78 0,00 17.601,30 1.230,59 2.971,46 0,00 4.202,05 13.399,25 2.395,93 3.333,87 31/12/2015
982 433200 FERNANDA DE FIGUEIREDO NORTE ANALISTA DO MP ATIVO BELO HORIZONTE - COMARCA; ASSESS JUR DO CONS SUPERIOR DO MINISTERIO PUB 8.451,80 845,18 0,00 2.324,02 0,00 0,00 11.621,00 1.293,78 1.301,80 0,00 2.595,58 9.025,42 9.393,16 3.022,23 31/12/2015
983 419200 FERNANDA DE MIRANDA MARTINS SIMOES ANALISTA DO MP ATIVO UBERLÂNDIA - COMARCA; UBERLANDIA-PJ-19PJ 8.727,00 872,70 0,00 2.263,71 3.199,90 0,00 15.063,31 1.300,08 2.360,14 0,00 3.660,22 11.403,09 2.290,18 2.621,53 31/12/2015
984 441400 FERNANDA DE MORAIS PINTO ANALISTA DO MP ATIVO BELO HORIZONTE - COMARCA; PROC. JUSTICA DIR. DIFUSOS E COLETIVOS-SEC 7.435,23 743,52 0,00 2.057,32 0,00 0,00 10.236,07 1.113,48 1.132,39 0,00 2.245,87 7.990,20 1.763,93 2.269,88 31/12/2015
985 432200 FERNANDA DE MOURA GUIMARAES ANALISTA DO MP ATIVO BELO HORIZONTE - COMARCA; ASSESS TECNICO-JUR JUNTO AS PROC. DE JUST 8.451,80 845,18 0,00 2.778,85 0,00 0,00 12.075,83 1.236,55 1.406,08 0,00 2.642,63 9.433,20 4.579,43 2.270,90 31/12/2015
986 461800 FERNANDA DE OLIVEIRA SANTOS ANALISTA DO MP ATIVO JUIZ DE FORA - COMARCA; JUIZ DE FORA-PJ-21PJ 5.674,18 432,04 0,00 1.978,02 0,00 0,00 8.084,24 1.039,33 578,96 0,00 1.618,29 6.465,95 7.022,16 2.125,15 31/12/2015
987 432500 FERNANDA DE PAULA ABRANTES ANALISTA DO MP ATIVO BELO HORIZONTE - COMARCA; PROC JUST RECURSOS ESP E EXTRAORD CRIMINAIS 8.185,27 818,53 0,00 2.589,68 0,00 0,00 11.593,48 1.204,66 1.334,32 0,00 2.538,98 9.054,50 1.763,93 2.440,21 31/12/2015
988 431600 FERNANDA DIAS BARBOSA MENEZES ANALISTA DO MP ATIVO OURO BRANCO - COMARCA; OURO BRANCO-PJ-UNPJ 8.451,80 845,18 0,00 6.972,51 0,00 0,00 16.269,49 1.237,90 1.301,80 0,00 2.539,70 13.729,79 7.225,88 2.335,30 31/12/2015
989 162200 FERNANDA FERNANDES MONTEIRO ASSESSOR ATIVO BELO HORIZONTE - COMARCA; CAO-DH APOIO COMUNITARIO-SEC ADM 0,00 1.252,55 4.175,17 2.283,81 1.809,24 0,00 9.520,77 1.026,02 1.855,74 0,00 2.881,76 6.639,01 8.966,28 42.148,72 31/12/2015
990 512800 FERNANDA FERREIRA BARBOSA MOREIRA ANALISTA DO MP ATIVO IPATINGA - COMARCA; IPATINGA-PJ-05PJ 4.753,95 361,98 0,00 1.798,22 0,00 0,00 6.914,15 870,49 356,68 0,00 1.227,17 5.686,98 6.762,93 1.773,98 31/12/2015
991 329200 FERNANDA GABRIEL GUZELLA OFICIAL DO MP ATIVO BELO HORIZONTE - COMARCA; DIRET DE PLANOS PROJETOS E PROGRAMAS INST 6.110,19 1.328,30 0,00 2.026,97 0,00 0,00 9.465,46 1.050,42 935,14 0,00 1.985,56 7.479,90 1.763,93 1.853,58 31/12/2015
992 324200 FERNANDA GEORGIA NEVES ZAHAN OFICIAL DO MP ATIVO IPANEMA - COMARCA; IPANEMA-PJ-SECRETARIA 5.307,28 2.653,64 0,00 2.025,68 0,00 0,00 9.986,60 1.087,60 1.079,08 0,00 2.166,68 7.819,92 1.763,93 2.252,93 31/12/2015
993 548200 FERNANDA GONCALVES DE CARVALHO ZUZA OFICIAL DO MP ATIVO TUPACIGUARA - COMARCA; TUPACIGUARA-PJ-UNPJ 3.445,03 0,00 0,00 1.480,49 0,00 0,00 4.925,52 462,63 105,11 0,00 567,74 4.357,78 1.763,93 949,97 31/12/2015
994 355400 FERNANDA HELENA BASQUES OFICIAL DO MP ATIVO SABARÁ - COMARCA; SABARA-PJ-01PJ 6.229,29 622,93 0,00 1.864,65 2.284,07 0,00 11.000,94 928,31 1.435,84 0,00 2.364,15 8.636,79 2.139,57 1.889,37 31/12/2015
995 454800 FERNANDA IATAROLA BARBOSA DIAS ANALISTA DO MP ATIVO BARBACENA - COMARCA; BARBACENA-PJ-05PJ 5.799,48 743,52 0,00 2.382,45 0,00 0,00 8.925,45 1.100,77 630,42 0,00 1.731,19 7.194,26 2.195,98 2.324,30 31/12/2015
996 515500 FERNANDA LILIANE MARUGEIRO ANALISTA DO MP ATIVO VESPASIANO - COMARCA; VESPASIANO-PJ-04PJ 5.233,51 398,49 0,00 1.891,92 0,00 0,00 7.523,92 962,53 466,48 0,00 1.429,01 6.094,91 1.763,93 2.119,11 31/12/2015
997 392900 FERNANDA MAGALHAES SILVA COORDENADOR/ANALISTA ATIVO BELO HORIZONTE - COMARCA; DIRETORIA DE IMPRENSA 9.011,08 3.085,31 0,00 2.842,20 0,00 0,00 14.938,59 1.405,47 2.762,41 0,00 4.167,88 10.770,71 1.763,93 5.799,39 31/12/2015
998 409200 FERNANDA MAIA SANTIAGO ANALISTA DO MP ATIVO PIRAPORA - COMARCA; PIRAPORA-PJ-02PJ 6.857,79 685,78 0,00 1.965,06 0,00 0,00 9.508,63 1.026,64 976,93 0,00 2.003,57 7.505,06 1.763,93 2.078,63 31/12/2015
999 556500 FERNANDA OTERO COSTA ANALISTA DO MP ATIVO BELO HORIZONTE - COMARCA; ASSESS TECNICO-JUR JUNTO AS PROC. DE JUST 5.842,66 0,00 0,00 1.985,70 0,00 0,00 7.828,36 781,19 560,63 0,00 1.341,82 6.486,54 1.763,93 1.564,02 31/12/2015
1000 615300 FERNANDA PATRICIA RIBEIRO MOTA OFICIAL DO MP ATIVO UBERABA - COMARCA; UBERABA-PJ-05PJ 3.129,28 0,00 0,00 2.718,98 0,00 0,00 5.848,26 422,41 66,08 0,00 488,49 5.359,77 1.763,93 871,60 31/12/2015
1001 619800 FERNANDA PINTO PEREIRA ANALISTA DO MP ATIVO UBERLÂNDIA - COMARCA; UBERLANDIA-PJ-20PJ 5.139,92 0,00 0,00 1.611,43 0,00 0,00 6.751,35 697,01 393,14 0,00 1.090,15 5.661,20 1.763,93 1.323,36 31/12/2015
1002 412900 FERNANDA PORTELA ROSA ANALISTA DO MP ATIVO BELO HORIZONTE - COMARCA; BH-08PJ JUIZADO ESPECIAL-SECRETARIA 6.807,06 872,70 0,00 3.531,79 3.199,90 0,00 14.411,45 1.404,90 1.953,00 0,00 3.357,90 11.053,55 2.007,70 3.820,24 31/12/2015
1003 274301 FERNANDA QUEIROZ PARREIRA ANALISTA DO MP ATIVO PATOS DE MINAS - COMARCA; COORD REG PJ DEF EDU DIR CRI ADO AL PAR NOROE 6.641,51 398,49 0,00 1.891,92 0,00 0,00 8.931,92 958,56 853,68 0,00 1.812,24 7.119,68 1.763,93 1.959,60 31/12/2015
1004 467900 FERNANDA QUEIROZ SIMOES GANNAM ANALISTA DO MP ATIVO SÃO LOURENÇO - COMARCA; SAO LOURENCO-PJ-02PJ 7.200,74 432,04 0,00 2.030,16 0,00 0,00 9.662,94 1.039,10 946,62 0,00 1.985,72 7.677,22 5.571,93 2.120,46 31/12/2015
1005 255500 FERNANDA SIMOES LOPES MENDES ANALISTA DO MP ATIVO BELO HORIZONTE - COMARCA; BH-17PJ PATRIMONIO PUBLICO-SECRETARIA 8.849,21 2.328,74 0,00 3.003,13 4.657,48 0,00 18.838,56 1.902,13 2.958,44 0,00 4.860,57 13.977,99 9.846,30 3.871,76 31/12/2015
1006 481700 FERNANDA VIANA FROES DA SILVA OFICIAL DO MP ATIVO GOVERNADOR VALADARES - COMARCA; GOVERNADOR VALADARES-PJ-09PJ 4.050,26 308,40 0,00 1.910,38 0,00 0,00 6.269,04 734,17 209,72 0,00 943,89 5.325,15 9.144,93 1.416,34 31/12/2015
1007 123900 FERNANDO ANTONIO FARIA ABREU ASSESSOR/ANALISTA ATIVO BELO HORIZONTE - COMARCA; PROCURADORIA-GERAL ADJUNTA ADMINISTRATIVA 21.517,63 22.835,39 0,00 4.373,53 10.157,04 3.351,82 62.235,41 3.351,82 10.303,38 13.881,91 27.537,11 34.698,30 1.763,93 3.351,82 31/12/2015
1008 416900 FERNANDO APARECIDO DA SILVA ANALISTA DO MP ATIVO BOM DESPACHO - COMARCA; BOM DESPACHO-PJ-01PJ 5.916,26 4.225,90 0,00 3.014,96 0,00 0,00 13.157,12 1.758,45 1.431,96 0,00 3.190,41 9.966,71 4.145,93 4.053,48 31/12/2015
1009 395900 FERNANDO AUGUSTO ETO LAGES ANALISTA DO MP ATIVO BELO HORIZONTE - COMARCA; CENTRAL DE APOIO TECN-SETOR DE MEIO AMBIENTE 8.727,00 872,70 0,00 2.263,71 0,00 0,00 11.863,41 1.307,99 1.480,17 0,00 2.788,16 9.075,25 1.763,93 2.715,35 31/12/2015
1010 380500 FERNANDO BONES COSTA OFICIAL DO MP ATIVO BELO HORIZONTE - COMARCA; EXTINTA - DIVISÃO DE MATERIAL PERMANENTE 4.521,68 452,17 0,00 2.033,42 1.657,95 0,00 8.665,22 673,21 803,93 0,00 1.477,14 7.188,08 1.763,93 1.344,31 31/12/2015
1011 500100 FERNANDO CEZAR PINTO ASSESSOR/OFICIAL ATIVO BELO HORIZONTE - COMARCA; EXTINTA - DIVISÃO DE MATERIAL PERMANENTE 0,00 507,11 8.451,80 2.578,73 0,00 0,00 11.537,64 727,42 1.406,22 0,00 2.133,64 9.404,00 6.762,93 2.631,74 31/12/2015
1012 346100 FERNANDO EUSTAQUIO CAMPOS UTSCH MOREIRA ANALISTA DO MP ATIVO BELO HORIZONTE - COMARCA; DIRETORIA DE REDES E BANCOS DE DADOS 7.989,68 1.024,32 0,00 2.662,37 3.755,83 0,00 15.432,20 1.536,25 2.145,09 0,00 3.681,34 11.750,86 4.145,93 3.265,21 31/12/2015
1013 103500 FERNANDO LUIZ DA SILVA JUNIOR COORDENADOR/OFICIAL ATIVO BELO HORIZONTE - COMARCA; DIVISAO DE ATENDIMENTO E CONSULTA JURIDICA 13.616,17 7.560,10 0,00 4.113,77 7.058,76 0,00 32.348,80 2.612,69 6.318,63 0,00 8.931,32 23.417,48 5.837,62 6.437,96 31/12/2015
1014 287300 FERNANDO MARCIO ALVES MARTINS OFICIAL DO MP ATIVO LEOPOLDINA - COMARCA; LEOPOLDINA-PJ-01PJ 5.307,28 1.061,46 0,00 1.950,83 2.122,91 0,00 10.442,48 867,59 1.116,78 0,00 1.984,37 8.458,11 2.124,43 1.789,53 31/12/2015
1015 262200 FERNANDO MARCIO RESENDE PEREIRA COORDENADOR/OFICIAL ATIVO BELO HORIZONTE - COMARCA; BH-12PJ JUIZO CRIMINAL-SECRETARIA 0,00 1.921,48 9.607,41 8.592,21 0,00 0,00 20.121,10 1.178,88 2.060,00 0,00 3.238,88 16.882,22 1.763,93 3.443,71 31/12/2015
1016 472900 FERNANDO RODRIGUES DE FREITAS ANALISTA DO MP ATIVO BELO HORIZONTE - COMARCA; BH-15PJ M AMB PAT HIST CULT-ASS TECNICA 5.674,18 432,04 0,00 2.030,16 0,00 0,00 8.136,38 1.049,92 526,82 0,00 1.576,74 6.559,64 1.763,93 2.352,76 31/12/2015
1017 421400 FERNANDO TEODORO MACIEL ANALISTA DO MP ATIVO SANTA VITÓRIA - COMARCA; SANTA VITORIA-PJ-UNPJ 8.185,27 818,53 0,00 2.229,30 3.001,27 0,00 14.234,37 1.247,81 2.107,53 0,00 3.355,34 10.879,03 7.272,58 2.758,51 31/12/2015
1018 446300 FERNANDO VITOR DE OLIVEIRA ANALISTA DO MP ATIVO MONTES CLAROS - COMARCA; COORD REG BACIA RIOS VERDE GRANDE E PARDO 6.592,40 845,18 0,00 2.778,85 3.098,99 0,00 13.315,42 1.241,96 1.746,96 0,00 2.988,92 10.326,50 2.041,70 2.343,42 31/12/2015
1019 639300 FILIPE ALMEIDA RODRIGUES ANALISTA DO MP ATIVO TIMÓTEO - COMARCA; TIMOTEO-04 PJ 3.735,10 0,00 0,00 1.995,86 0,00 0,00 5.730,96 513,58 128,43 0,00 642,01 5.088,95 1.236,94 0,00 31/12/2015
1020 617100 FILLIPE DA SILVA BRAGA ANALISTA DO MP ATIVO DIVINO - COMARCA; DIVINO-PJ-UNPJ 4.668,87 0,00 0,00 1.522,04 0,00 0,00 6.190,91 636,35 298,81 0,00 935,16 5.255,75 1.763,93 1.267,22 31/12/2015
1021 398400 FLAVIA ALVARES GUIMARAES OFICIAL DO MP ATIVO BELO HORIZONTE - COMARCA; CGMP-SECRETARIA DA CORREGEDORIA-GERAL DO MP 4.413,56 565,84 0,00 1.825,56 2.074,75 0,00 8.879,71 862,70 830,11 0,00 1.692,81 7.186,90 1.763,93 1.966,06 31/12/2015
1022 398200 FLAVIA ALVES DE ASSUNCAO RODRIGUES ANALISTA DO MP ATIVO DIVINÓPOLIS - COMARCA; COORD REG DO MA DA BACIA DO ALTO SAO FRANC 6.592,40 845,18 0,00 6.868,23 0,00 0,00 14.305,81 1.260,31 894,74 0,00 2.155,05 12.150,76 2.007,70 2.757,44 31/12/2015
1023 318500 FLAVIA BEATRIZ NUNES CRUZ VIEIRA ANALISTA DO MP ATIVO BARBACENA - COMARCA; BARBACENA-PJ-SECRETARIA 7.784,82 2.048,64 0,00 4.452,47 0,00 0,00 14.285,93 1.692,07 1.358,74 0,00 3.050,81 11.235,12 11.761,93 3.559,04 31/12/2015
1024 496500 FLAVIA CARAM BORLIDO ANALISTA DO MP ATIVO BELO HORIZONTE - COMARCA; EXTINTA - DIVISAO DE SERVICOS GERAIS 5.702,84 398,49 0,00 2.705,96 0,00 0,00 8.807,29 958,58 595,55 0,00 1.554,13 7.253,16 1.763,93 1.960,81 31/12/2015
1025 534800 FLAVIA CONDE SOARES ANALISTA DO MP ATIVO BELO HORIZONTE - COMARCA; BH-13PJ JUÍZO DE TÓXICOS-ASSESSORIA JURIDICA 5.647,90 0,00 0,00 1.718,01 0,00 0,00 7.365,91 791,97 507,07 0,00 1.299,04 6.066,87 1.763,93 1.692,12 31/12/2015
1026 219500 FLAVIA CRISTINA ANCELMO OFICIAL DO MP ATIVO BELO HORIZONTE - COMARCA; BH-17PJ PATRIMONIO PUBLICO-SECRETARIA 6.641,51 1.328,30 0,00 3.005,94 0,00 0,00 10.975,75 1.085,77 1.081,25 0,00 2.167,02 8.808,73 1.944,38 2.391,98 31/12/2015
1027 329600 FLAVIA CRISTINA DE MATOS XAVIER ANALISTA DO MP ATIVO UBERABA - COMARCA; UBERABA-PJ-15PJ 10.243,18 2.048,64 0,00 2.759,02 0,00 0,00 15.050,84 1.675,84 2.034,79 0,00 3.710,63 11.340,21 4.633,47 3.748,35 31/12/2015
1028 207600 FLAVIA DE ANDRADE MANCINI ANALISTA DO MP ATIVO BELO HORIZONTE - COMARCA; ASSESSORIA JURIDICO-ADMINISTRATIVA 13.097,56 3.929,27 0,00 3.498,91 5.675,61 0,00 26.201,35 2.319,11 4.702,34 0,00 7.021,45 19.179,90 10.823,32 4.773,42 31/12/2015
1029 402801 FLAVIA MARIA DE RESENDE NASCIMENTO ANALISTA DO MP ATIVO SÃO JOÃO DEL REI - COMARCA; SAO JOAO DEL REI-PJ-04PJ 6.641,51 398,49 0,00 1.891,92 0,00 0,00 8.931,92 966,51 853,68 0,00 1.820,19 7.111,73 7.161,42 2.173,72 31/12/2015
1030 437500 FLAVIA MARIA TORRES MARCHETTI ANALISTA DO MP ATIVO BELO HORIZONTE - COMARCA; BH-13ª PJ JUÍXO DE TÓXICOS 7.435,23 743,52 0,00 966,89 0,00 0,00 9.145,64 1.176,12 1.028,12 0,00 2.204,24 6.941,40 11.761,93 2.938,62 31/12/2015
1031 386000 FLAVIA NEVES BRIGIDO OFICIAL DO MP ATIVO BELO HORIZONTE - COMARCA; PROMOT ESTADUAL DE DEF PATRI CULT E TUR DE MG 4.009,14 513,99 0,00 1.690,59 0,00 0,00 6.213,72 779,01 241,64 0,00 1.020,65 5.193,07 2.083,96 1.677,14 31/12/2015
1032 488600 FLAVIA PEREIRA COSTA ANALISTA DO MP ATIVO BELO HORIZONTE - COMARCA; CENTRAL DE APOIO TECNICO 7.200,74 432,04 0,00 2.274,41 0,00 0,00 9.907,19 1.025,01 1.416,05 0,00 2.441,06 7.466,13 2.502,78 19.445,94 31/12/2015
1033 365400 FLAVIA PEREIRA DA SILVA OFICIAL DO MP ATIVO BELO HORIZONTE - COMARCA; BH-15PJ M AMB 16PJ HAB URB-SECRETARIA 4.705,69 603,29 0,00 1.833,27 2.212,07 0,00 9.354,32 904,25 998,18 0,00 1.902,43 7.451,89 2.139,57 1.873,92 31/12/2015
1034 515400 FLAVIA RODRIGUES DE OLIVEIRA E SILVA PAIVA ANALISTA DO MP ATIVO CARATINGA - COMARCA; CARATINGA-PJ-05PJ 5.233,51 398,49 0,00 2.810,24 0,00 0,00 8.442,24 963,00 286,20 0,00 1.249,20 7.193,04 1.776,50 2.016,39 31/12/2015
1035 621600 FLAVIA SARMENTO RODRIGUES ANALISTA DO MP ATIVO BELO HORIZONTE - COMARCA; AUDITORIA INTERNA 4.668,87 0,00 0,00 1.928,24 0,00 0,00 6.597,11 633,04 298,81 0,00 931,85 5.665,26 6.762,93 1.197,00 31/12/2015
1036 535800 FLAVIA SILVA VALADAO OFICIAL DO MP ATIVO TRÊS CORACOES - COMARCA; TRES CORACOES-PJ-04PJ 3.445,03 0,00 0,00 1.266,89 1.148,34 0,00 5.860,26 467,37 269,46 0,00 736,83 5.123,43 6.940,06 954,83 31/12/2015
1037 515300 FLAVIA VIEIRA OLIVEIRA GOMES ANALISTA DO MP ATIVO BELO HORIZONTE - COMARCA; CAO-CRIMINAL-SECRETARIA 5.233,51 398,49 0,00 1.891,92 0,00 0,00 7.523,92 962,21 466,48 0,00 1.428,69 6.095,23 1.763,93 1.976,25 31/12/2015
1038 377500 FLAVIANA GONCALVES DE OLIVEIRA ANALISTA DO MP ATIVO IPATINGA - COMARCA; IPATINGA-PJ-02PJ 8.727,00 872,70 0,00 2.263,71 0,00 0,00 11.863,41 1.308,14 1.480,17 0,00 2.788,31 9.075,10 2.307,31 2.893,49 31/12/2015
1039 273100 FLAVIANE DOS SANTOS CASTRO OFICIAL DO MP ATIVO CAXAMBU - COMARCA; CAXAMBU-PJ-SECRETARIA 7.200,74 1.440,15 0,00 3.274,58 2.880,30 0,00 14.795,77 1.158,95 1.933,31 0,00 3.092,26 11.703,51 6.527,93 2.216,16 31/12/2015
1040 310600 FLAVIANE NAVES ALCANTARA ASSESSOR/OFICIAL ATIVO BELO HORIZONTE - COMARCA; COMB CRIMES PRAT POR AG POL MUN-SECRETARIA 0,00 1.690,36 8.451,80 2.495,05 3.380,72 0,00 16.017,93 1.171,33 2.600,49 0,00 3.771,82 12.246,11 3.123,62 2.860,80 31/12/2015
1041 455800 FLAVIO ANTONIO RIBEIRO OFICIAL DO MP ATIVO BELO HORIZONTE - COMARCA; GRUPO ESP PROM PROC JUST DEF PROB ADM PAT PUB 3.916,07 234,96 0,00 3.495,06 0,00 0,00 7.646,09 565,40 199,36 0,00 764,76 6.881,33 1.763,93 1.240,76 31/12/2015
1042 458200 FLAVIO AUGUSTO BRAGA SOARES ANALISTA DO MP ATIVO BELO HORIZONTE - COMARCA; DIVISAO DE MANUTENCAO PREDIAL 6.691,89 432,04 0,00 1.978,02 0,00 0,00 9.101,95 1.039,40 858,83 0,00 1.898,23 7.203,72 1.763,93 2.275,33 31/12/2015
1043 516500 FLAVIO AUGUSTO RODRIGUES CORREA ANALISTA DO MP ATIVO BELO HORIZONTE - COMARCA; COORD REG BACIAS RIO VELHAS E PARAOPEBA 4.753,95 361,98 0,00 4.995,68 0,00 0,00 10.111,61 874,81 356,68 0,00 1.231,49 8.880,12 2.111,43 1.830,81 31/12/2015
1044 84300 FLAVIO DE FARIA BELTRAO OFICIAL DO MP ATIVO BELO HORIZONTE - COMARCA; DIRETORIA DE ADMINISTRACAO FINANCEIRA 13.217,24 13.518,02 0,00 20.582,98 0,00 0,00 47.318,24 3.351,82 4.860,40 2.358,37 10.570,59 36.747,65 1.763,93 0,00 31/12/2015
1045 266600 FLAVIO GUIMARAES LANA ANALISTA DO MP ATIVO BELO HORIZONTE - COMARCA; CENTRAL DE APOIO TECN-SETOR DE MEIO AMBIENTE 9.607,41 1.921,48 0,00 2.543,92 0,00 0,00 14.072,81 1.569,26 1.952,34 0,00 3.521,60 10.551,21 1.763,93 3.409,14 31/12/2015
1046 552600 FLAVIO HENRIQUE EVARISTO GOMES ASSESSOR/ANALISTA ATIVO BELO HORIZONTE - COMARCA; DIRETORIA DE SUPORTE E MANUTENCAO 0,00 0,00 8.451,80 2.305,06 0,00 0,00 10.756,86 869,01 1.278,15 0,00 2.147,16 8.609,70 1.763,93 2.536,41 31/12/2015
1047 640000 FLAVIO HENRIQUE PEREIRA VELOSO OFICIAL DO MP ATIVO BELO HORIZONTE - COMARCA; PROCON-MG-SECRETARIA DE FISCALIZACOES 3.030,62 0,00 0,00 1.348,62 0,00 0,00 4.379,24 333,37 59,49 0,00 392,86 3.986,38 1.163,95 0,00 31/12/2015
1048 241500 FLAVIO HENRIQUE SILVA MARTINS LAGE OFICIAL DO MP ATIVO BELO HORIZONTE - COMARCA; CAO-CRIANCAS E ADOLESCENTES-SECRETARIA 6.973,67 2.092,10 0,00 2.186,16 0,00 0,00 11.251,93 1.230,99 1.349,49 0,00 2.580,48 8.671,45 1.763,93 2.675,55 31/12/2015
1049 86700 FLAVIO LUCAS TOMAZ AGENTE DO MP ATIVO BELO HORIZONTE - COMARCA; BH-06PJ JUIZO CIVEL-SECRETARIA 5.658,41 2.829,20 0,00 2.541,40 2.829,20 0,00 13.858,21 1.156,57 1.389,31 0,00 2.545,88 11.312,33 2.244,36 2.396,99 31/12/2015
1050 407200 FLAVIO LUCIO MONTEIRO PENA ANALISTA DO MP ATIVO BELO HORIZONTE - COMARCA; DIRETORIA DE IMPRENSA 5.799,48 743,52 0,00 2.057,32 2.726,25 0,00 11.326,57 1.114,26 1.432,28 0,00 2.546,54 8.780,03 1.763,93 2.307,52 31/12/2015
1051 451700 FLAVIO MAGALHAES PEREIRA ANALISTA DO MP ATIVO BELO HORIZONTE - COMARCA; BH-12PJ JUIZO CRIMINAL-GAB 098PJ 7.435,23 743,52 0,00 2.057,32 2.726,25 0,00 12.962,32 1.151,95 1.985,06 0,00 3.137,01 9.825,31 2.195,98 2.798,93 31/12/2015
1052 481500 FLAVIO NEVES GUELBER DE MACEDO OFICIAL DO MP ATIVO SÃO JOÃO NEPOMUCENO - COMARCA; SAO JOAO NEPOMUCENO-PJ-02PJ 4.241,01 254,46 0,00 1.489,14 0,00 0,00 5.984,61 616,31 264,09 0,00 880,40 5.104,21 1.763,93 1.372,18 31/12/2015
1053 547500 FRANCELINO MOREIRA DA SILVA ANALISTA DO MP ATIVO BELO HORIZONTE - COMARCA; BH-10PJ EXECUÇÃO PENAL-SECRETARIA 5.307,28 0,00 0,00 1.640,24 0,00 0,00 6.947,52 710,11 429,60 0,00 1.139,71 5.807,81 8.237,60 1.438,62 31/12/2015
1054 278100 FRANCIANE MARY DE SOUZA DOMENICI DE BRITO E CASTRO ANALISTA DO MP ATIVO BELO HORIZONTE - COMARCA; BH-12PJ JUIZO CRIMINAL-GAB 083PJ 8.570,20 2.255,32 0,00 2.887,00 0,00 0,00 13.712,52 1.843,08 1.646,18 0,00 3.489,26 10.223,26 1.867,58 3.806,09 31/12/2015
1055 192501 FRANCIELLE REIS DE OLIVEIRA ANALISTA DO MP ATIVO PASSOS - COMARCA; PASSOS-PJ-04PJ 8.038,24 2.115,33 0,00 2.869,28 0,00 0,00 13.022,85 1.729,72 1.382,53 0,00 3.112,25 9.910,60 4.864,35 3.835,31 31/12/2015
1056 523600 FRANCINE MOURA LIMIRIO OFICIAL DO MP ATIVO UBERABA - COMARCA; UBERABA-PJ-02PJ 3.341,92 254,46 0,00 1.868,44 0,00 0,00 5.464,82 607,58 110,48 0,00 718,06 4.746,76 1.763,93 1.203,24 31/12/2015
1057 467200 FRANCINI RENNO ANALISTA DO MP ATIVO CASSIA - COMARCA; CASSIA-PJ-02PJ 7.200,74 432,04 0,00 1.978,02 0,00 0,00 9.610,80 1.046,06 998,76 0,00 2.044,82 7.565,98 1.763,93 2.307,47 31/12/2015
1058 189300 FRANCIS BERNARDO DO NASCIMENTO OFICIAL DO MP ATIVO VARGINHA - COMARCA; VARGINHA-PJ-05PJ 9.920,24 2.976,07 0,00 2.846,82 0,00 0,00 15.743,13 1.756,35 2.182,74 0,00 3.939,09 11.804,04 12.491,91 3.605,41 31/12/2015
1059 207800 FRANCISCO CAMPOS PIRES DE MORAIS ANALISTA DO MP ATIVO BELO HORIZONTE - COMARCA; CENTRAL DE APOIO TECN-SETOR DE MEIO AMBIENTE 10.889,55 4.414,68 0,00 3.752,31 0,00 0,00 19.056,54 2.619,98 2.656,34 0,00 5.276,32 13.780,22 2.007,70 5.876,04 31/12/2015
1060 424200 FRANCISCO DE FREITAS JUNIOR ANALISTA DO MP ATIVO MONTE AZUL - COMARCA; MONTE AZUL-PJ-UNPJ 8.185,27 818,53 0,00 3.339,53 0,00 0,00 12.343,33 1.220,42 1.334,32 0,00 2.554,74 9.788,59 2.273,58 2.613,60 31/12/2015
1061 607700 FRANCISCO EDUARDO DE CASTRO ANALISTA DO MP ATIVO BELO HORIZONTE - COMARCA; DIR ANALISES TECNOLOGIA INTELIGENCIA 3.856,73 0,00 0,00 1.550,89 0,00 0,00 5.407,62 656,82 144,16 0,00 800,98 4.606,64 1.763,93 1.328,00 31/12/2015
1062 204600 FRANCISCO FERREIRA NOVAIS OFICIAL DO MP ATIVO IPATINGA - COMARCA; IPATINGA-PJ-08PJ 8.451,80 2.535,54 0,00 3.230,31 3.662,45 0,00 17.880,10 1.454,52 2.722,69 0,00 4.177,21 13.702,89 2.293,80 2.646,98 31/12/2015
1063 60500 FRANCISCO OLIMPIO TEIXEIRA AGENTE DO MP ATIVO BELO HORIZONTE - COMARCA; EXTINTA - DIVISAO DE TRANSPORTES 4.977,82 3.982,26 0,00 2.056,18 2.986,69 1.154,57 15.157,52 1.450,46 2.681,99 0,00 4.132,45 11.025,07 2.271,11 6.001,86 31/12/2015
1064 411600 FRANCISCO PAIVA BRITO ANALISTA DO MP ATIVO BELO HORIZONTE - COMARCA; TRIBUNAL DO JURI-07 PJ-02 TRIBUNAL 7.435,23 743,52 0,00 2.057,32 0,00 0,00 10.236,07 1.113,51 1.132,39 0,00 2.245,90 7.990,17 1.763,93 2.277,73 31/12/2015
1065 515800 FRANCISCO RAFAEL DA SILVA NETO ANALISTA DO MP ATIVO SACRAMENTO - COMARCA; SACRAMENTO-PJ-01PJ 5.480,05 328,80 0,00 1.866,33 0,00 0,00 7.675,18 794,38 399,12 0,00 1.193,50 6.481,68 1.763,93 1.650,33 31/12/2015
1066 515200 FRANCISLEI ELIAS GONCALVES OFICIAL DO MP ATIVO PASSOS - COMARCA; PASSOS-PJ-07PJ 2.703,44 711,43 0,00 3.669,31 0,00 0,00 7.084,18 583,99 35,44 0,00 619,43 6.464,75 6.762,93 1.302,82 31/12/2015
1067 443600 FRANCISLEI MARTINS DE SOUSA ANALISTA DO MP ATIVO TIMÓTEO - COMARCA; TIMOTEO-PJ-01PJ 5.799,48 743,52 0,00 6.146,70 0,00 0,00 12.689,70 1.114,24 682,56 0,00 1.796,80 10.892,90 4.870,48 2.454,65 31/12/2015
1068 424500 FREDERICO AUGUSTO COBRA MULLER ANALISTA DO MP ATIVO POUSO ALEGRE - COMARCA; POUSO ALEGRE-PJ-02PJ 8.185,27 818,53 0,00 3.339,53 0,00 0,00 12.343,33 1.236,92 1.334,32 0,00 2.571,24 9.772,09 2.273,58 2.646,45 31/12/2015
1069 473100 FREDERICO AUGUSTO LIMA FELICIO ANALISTA DO MP ATIVO CONCEIÇÃO DO MATO DENTRO - COMARCA; CONCEICAO DO MATO DENTRO-PJ-UNPJ 7.200,74 432,04 0,00 1.978,02 0,00 0,00 9.610,80 1.050,24 998,76 0,00 2.049,00 7.561,80 1.763,93 2.232,54 31/12/2015
1070 318100 FREDERICO BIANCHINI JOVIANO DOS SANTOS ASSESSOR/OFICIAL